QR724 / A7-BAM 7700 Squawk Report (22nd of September, 2021)

Aircraft B77W Reg No. A7-BAM Age 10 years old
Model 777 Jet engines 2 First flight 28-02-11
Registered 17-03-11 Rollout 17-02-11 Delivered 17-03-11
Construction No. 38245 Line No. 0922 Series 3DZ(ER)
ADSHEX 06A07A Airline name Qatar Airways Owner N/A
Airfield based Doha-Hamad International~Doha~A7 First tracked N/A

Flight history for A7-BAM

Route Flight No Date Playback
Hamad International Airport (DOH) - Pierre Elliott Trudeau (YUL) QR763 2021-10-22 13:12:00
Hazrat Shahjalal Intl (DAC) - Hamad International Airport (DOH) QR639 2021-10-22 03:52:00
Hamad International Airport (DOH) - Hazrat Shahjalal Intl (DAC) QR638 2021-10-21 20:41:00
Pierre Elliott Trudeau (YUL) - Hamad International Airport (DOH) QR764 2021-10-21 13:18:00
Hamad International Airport (DOH) - Pierre Elliott Trudeau (YUL) QR763 2021-10-21 01:21:00
Seattle Tacoma Intl (SEA) - Hamad International Airport (DOH) QR720 2021-10-19 15:00:00
Hamad International Airport (DOH) - Seattle Tacoma Intl (SEA) QR719 2021-10-18 19:12:00
Heathrow (LHR) - Hamad International Airport (DOH) QR4 2021-10-17 21:54:00
Hamad International Airport (DOH) - Heathrow (LHR) QR7 2021-10-17 13:17:00
King Abdulaziz Intl (JED) - Hamad International Airport (DOH) QR1185 2021-10-17 03:44:00
Hamad International Airport (DOH) - King Abdulaziz Intl (JED) QR1184 2021-10-17 02:31:00
Bandaranaike Intl Colombo (CMB) - Hamad International Airport (DOH) QR8041 2021-10-16 21:59:00
Hamad International Airport (DOH) - Bandaranaike Intl Colombo (CMB) QR8040 2021-10-16 12:55:00
Schiphol (AMS) - Hamad International Airport (DOH) QR274 2021-10-15 20:14:00
Hamad International Airport (DOH) - Schiphol (AMS) QR273 2021-10-15 14:23:00
Cairo International (CAI) - Hamad International Airport (DOH) QR1306 2021-10-15 02:17:00
Hamad International Airport (DOH) - Cairo International (CAI) QR1305 2021-10-14 23:49:00
Eleftherios Venizelos Intl (ATH) - Hamad International Airport (DOH) QR204 2021-10-14 15:05:00
Hamad International Airport (DOH) - Eleftherios Venizelos Intl (ATH) QR203 2021-10-14 11:14:00
Heathrow (LHR) - Hamad International Airport (DOH) QR4 2021-10-14 04:44:00
Time Lat Lon Altitude Heading Speed Vertical Rate
2021-09-23 15:34:48 GMT 41.974339 -87.894363 0 175 4 0
2021-09-23 15:34:39 GMT 41.974594 -87.894341 0 0 8 0
2021-09-23 15:34:34 GMT 41.974880 -87.894341 0 0 14 0
2021-09-23 15:34:25 GMT 41.974079 -87.894341 0 0 4 -96
2021-09-23 15:34:24 GMT 41.974018 -87.894310 0 0 1 -96
2021-09-23 15:34:22 GMT 41.974041 -87.894287 0 2 3 -96
2021-09-23 15:34:20 GMT 41.974239 -87.894348 0 359 12 -96
2021-09-23 15:34:18 GMT 41.974190 -87.894348 0 359 12 -96
2021-09-23 15:34:16 GMT 41.974079 -87.894348 0 359 12 -96
2021-09-23 15:34:15 GMT 41.973991 -87.894341 0 0 12 -96
2021-09-23 15:34:13 GMT 41.973942 -87.894341 0 0 13 -96
2021-09-23 15:34:12 GMT 41.973888 -87.894348 0 0 13 -96
2021-09-23 15:34:10 GMT 41.973782 -87.894363 0 359 13 -96
2021-09-23 15:34:09 GMT 41.973728 -87.894348 0 0 14 -96
2021-09-23 15:34:08 GMT 41.973598 -87.894341 0 1 14 -96
2021-09-23 15:34:06 GMT 41.973518 -87.894341 0 1 13 -96
2021-09-23 15:34:05 GMT 41.973469 -87.894341 0 1 14 -96
2021-09-23 15:34:03 GMT 41.973351 -87.894348 0 0 14 -96
2021-09-23 15:34:01 GMT 41.973209 -87.894348 0 1 14 -96
2021-09-23 15:34:00 GMT 41.973141 -87.894348 0 1 13 -96
2021-09-23 15:33:59 GMT 41.972988 -87.894371 0 0 12 -96
2021-09-23 15:33:57 GMT 41.972939 -87.894363 0 0 12 -96
2021-09-23 15:33:56 GMT 41.972870 -87.894371 0 0 11 -96
2021-09-23 15:33:55 GMT 41.972752 -87.894379 0 2 11 -96
2021-09-23 15:33:53 GMT 41.972698 -87.894371 0 3 11 -96
2021-09-23 15:33:52 GMT 41.972679 -87.894333 0 4 11 -96
2021-09-23 15:33:50 GMT 41.972672 -87.894333 0 4 12 -96
2021-09-23 15:33:48 GMT 41.972649 -87.894318 0 5 12 -96
2021-09-23 15:33:47 GMT 41.972561 -87.894341 0 4 13 -96
2021-09-23 15:33:45 GMT 41.972488 -87.894371 0 0 11 -96
2021-09-23 15:33:44 GMT 41.972389 -87.894363 0 1 10 -96
2021-09-23 15:33:42 GMT 41.972351 -87.894379 0 0 11 -96
2021-09-23 15:33:41 GMT 41.972290 -87.894363 0 1 9 -96
2021-09-23 15:33:39 GMT 41.972149 -87.894363 0 2 7 -96
2021-09-23 15:33:37 GMT 41.972111 -87.894371 0 357 5 -96
2021-09-23 15:33:36 GMT 41.972080 -87.894379 0 356 6 -96
2021-09-23 15:33:34 GMT 41.972031 -87.894379 0 352 6 -96
2021-09-23 15:33:33 GMT 41.972012 -87.894333 0 4 6 -96
2021-09-23 15:33:32 GMT 41.971958 -87.894371 0 356 6 -96
2021-09-23 15:33:30 GMT 41.971920 -87.894363 0 359 4 -96
2021-09-23 15:33:29 GMT 41.971889 -87.894371 0 357 1 -96
2021-09-23 15:33:27 GMT 41.971870 -87.894371 0 0 3 -96
2021-09-23 15:33:26 GMT 41.971859 -87.894363 0 2 2 -96
2021-09-23 15:33:24 GMT 41.971851 -87.894371 0 3 4 -96
2021-09-23 15:33:23 GMT 41.971828 -87.894348 0 8 3 -96
2021-09-23 15:33:22 GMT 41.971809 -87.894363 0 4 3 -96
2021-09-23 15:33:20 GMT 41.971809 -87.894371 0 357 4 -96
2021-09-23 15:33:18 GMT 41.971760 -87.894371 0 350 4 -96
2021-09-23 15:33:17 GMT 41.971771 -87.894417 0 355 9 -96
2021-09-23 15:33:15 GMT 41.971668 -87.894371 0 10 4 -96
2021-09-23 15:33:14 GMT 41.971661 -87.894341 0 9 7 -96
2021-09-23 15:33:13 GMT 41.971611 -87.894402 0 356 7 -96
2021-09-23 15:33:11 GMT 41.971611 -87.894386 0 2 10 -96
2021-09-23 15:33:10 GMT 41.971569 -87.894379 0 3 11 -96
2021-09-23 15:33:08 GMT 41.971470 -87.894386 0 359 12 -96
2021-09-23 15:33:07 GMT 41.971409 -87.894417 0 354 11 -96
2021-09-23 15:33:06 GMT 41.971371 -87.894402 0 357 12 -96
2021-09-23 15:33:04 GMT 41.971249 -87.894386 0 356 12 -96
2021-09-23 15:33:03 GMT 41.971199 -87.894402 0 356 12 -96
2021-09-23 15:33:01 GMT 41.971111 -87.894348 0 10 17 -96
2021-09-23 15:33:00 GMT 41.970940 -87.894386 0 4 14 -96
2021-09-23 15:32:58 GMT 41.970871 -87.894417 0 357 14 -96
2021-09-23 15:32:57 GMT 41.970821 -87.894432 0 355 16 -96
2021-09-23 15:32:56 GMT 41.970669 -87.894432 0 353 18 -96
2021-09-23 15:32:54 GMT 41.970589 -87.894386 0 359 18 -96
2021-09-23 15:32:53 GMT 41.970428 -87.894386 0 0 17 -96
2021-09-23 15:32:51 GMT 41.970379 -87.894402 0 357 19 -96
2021-09-23 15:32:50 GMT 41.970219 -87.894371 0 2 19 -96
2021-09-23 15:32:48 GMT 41.970131 -87.894379 0 0 20 -96
2021-09-23 15:32:46 GMT 41.969910 -87.894363 0 6 17 -96
2021-09-23 15:32:45 GMT 41.969841 -87.894363 0 7 17 -96
2021-09-23 15:32:43 GMT 41.969681 -87.894402 0 359 17 -96
2021-09-23 15:32:42 GMT 41.969589 -87.894417 0 356 15 -96
2021-09-23 15:32:41 GMT 41.969471 -87.894402 0 359 17 -96
2021-09-23 15:32:39 GMT 41.969391 -87.894386 0 359 17 -96
2021-09-23 15:32:37 GMT 41.969219 -87.894386 0 4 15 -96
2021-09-23 15:32:36 GMT 41.969101 -87.894402 0 359 15 -96
2021-09-23 15:32:34 GMT 41.969028 -87.894417 0 354 16 -96
2021-09-23 15:32:33 GMT 41.968948 -87.894417 0 351 15 -96
2021-09-23 15:32:31 GMT 41.968819 -87.894371 0 2 15 -96
2021-09-23 15:32:30 GMT 41.968670 -87.894379 0 358 11 -96
2021-09-23 15:32:28 GMT 41.968658 -87.894379 0 2 17 -96
2021-09-23 15:32:27 GMT 41.968590 -87.894371 0 2 17 -96
2021-09-23 15:32:25 GMT 41.968399 -87.894371 0 2 12 -96
2021-09-23 15:32:24 GMT 41.968319 -87.894402 0 357 10 -96
2021-09-23 15:32:22 GMT 41.968239 -87.894386 0 358 10 -96
2021-09-23 15:32:20 GMT 41.968151 -87.894371 0 2 11 -96
2021-09-23 15:32:19 GMT 41.968109 -87.894379 0 359 13 -96
2021-09-23 15:32:18 GMT 41.967972 -87.894379 0 351 9 -96
2021-09-23 15:32:16 GMT 41.967880 -87.894379 0 355 9 -96
2021-09-23 15:32:14 GMT 41.967850 -87.894348 0 356 10 -96
2021-09-23 15:32:13 GMT 41.967819 -87.894363 0 357 12 -96
2021-09-23 15:32:12 GMT 41.967751 -87.894333 0 12 13 -96
2021-09-23 15:32:10 GMT 41.967659 -87.894348 0 18 10 -96
2021-09-23 15:32:09 GMT 41.967621 -87.894348 0 30 10 -96
2021-09-23 15:32:07 GMT 41.967529 -87.894386 0 56 9 -96
2021-09-23 15:32:05 GMT 41.967449 -87.894417 0 85 12 -96
2021-09-23 15:32:04 GMT 41.967430 -87.894501 0 85 11 -96
2021-09-23 15:32:03 GMT 41.967419 -87.894653 0 86 9 -96
2021-09-23 15:32:01 GMT 41.967419 -87.894699 0 87 9 -96
2021-09-23 15:32:00 GMT 41.967411 -87.894821 0 92 8 -96
2021-09-23 15:31:58 GMT 41.967411 -87.894859 0 93 9 -96
2021-09-23 15:31:56 GMT 41.967430 -87.894951 0 87 13 -96
2021-09-23 15:31:55 GMT 41.967411 -87.895119 0 88 13 -96
2021-09-23 15:31:53 GMT 41.967411 -87.895203 0 87 13 -96
2021-09-23 15:31:52 GMT 41.967419 -87.895248 0 84 15 -96
2021-09-23 15:31:51 GMT 41.967411 -87.895477 0 90 12 -96
2021-09-23 15:31:49 GMT 41.967430 -87.895622 0 85 15 -96
2021-09-23 15:31:47 GMT 41.967419 -87.895699 0 87 17 -96
2021-09-23 15:31:46 GMT 41.967411 -87.895927 0 88 18 -96
2021-09-23 15:31:44 GMT 41.967400 -87.895988 0 92 22 -96
2021-09-23 15:31:43 GMT 41.967400 -87.896133 0 93 22 -96
2021-09-23 15:31:42 GMT 41.967400 -87.896347 0 92 28 -96
2021-09-23 15:31:39 GMT 41.967400 -87.896721 0 95 25 -96
2021-09-23 15:31:37 GMT 41.967442 -87.896973 0 85 32 -96
2021-09-23 15:31:36 GMT 41.967442 -87.897217 0 84 27 -96
2021-09-23 15:31:35 GMT 41.967419 -87.897552 0 88 29 -96
2021-09-23 15:31:33 GMT 41.967411 -87.897720 0 89 29 -96
2021-09-23 15:31:32 GMT 41.967400 -87.897919 0 89 29 -96
2021-09-23 15:31:30 GMT 41.967400 -87.898277 0 92 27 -96
2021-09-23 15:31:29 GMT 41.967411 -87.898621 0 89 26 -96
2021-09-23 15:31:27 GMT 41.967411 -87.898788 0 89 27 -96
2021-09-23 15:31:26 GMT 41.967419 -87.898941 0 86 28 -96
2021-09-23 15:31:24 GMT 41.967411 -87.899300 0 88 26 -96
2021-09-23 15:31:23 GMT 41.967388 -87.899628 0 92 25 -96
2021-09-23 15:31:21 GMT 41.967400 -87.899780 0 91 25 -96
2021-09-23 15:31:19 GMT 41.967419 -87.900108 0 90 23 -96
2021-09-23 15:31:18 GMT 41.967430 -87.900223 0 85 25 -96
2021-09-23 15:31:17 GMT 41.967419 -87.900391 0 86 24 -96
2021-09-23 15:31:15 GMT 41.967419 -87.900673 0 86 28 -96
2021-09-23 15:31:14 GMT 41.967381 -87.900993 0 93 29 -96
2021-09-23 15:31:12 GMT 41.967400 -87.901154 0 90 29 -96
2021-09-23 15:31:11 GMT 41.967419 -87.901520 0 89 29 -96
2021-09-23 15:31:09 GMT 41.967411 -87.901711 0 91 28 -96
2021-09-23 15:31:07 GMT 41.967419 -87.902046 0 91 30 -96
2021-09-23 15:31:06 GMT 41.967461 -87.902443 0 83 28 -96
2021-09-23 15:31:04 GMT 41.967419 -87.902603 0 88 28 -96
2021-09-23 15:31:02 GMT 41.967419 -87.902939 0 87 29 -96
2021-09-23 15:31:01 GMT 41.967411 -87.903137 0 88 27 -96
2021-09-23 15:30:59 GMT 41.967400 -87.903450 0 90 28 -96
2021-09-23 15:30:58 GMT 41.967411 -87.903831 0 88 26 -96
2021-09-23 15:30:56 GMT 41.967411 -87.904030 0 86 24 -96
2021-09-23 15:30:55 GMT 41.967381 -87.904327 0 91 24 -96
2021-09-23 15:30:53 GMT 41.967361 -87.904472 0 95 25 -96
2021-09-23 15:30:51 GMT 41.967400 -87.904808 0 89 22 -96
2021-09-23 15:30:50 GMT 41.967369 -87.904938 0 95 23 -96
2021-09-23 15:30:49 GMT 41.967388 -87.905083 0 93 24 -96
2021-09-23 15:30:47 GMT 41.967419 -87.905380 0 88 23 -96
2021-09-23 15:30:46 GMT 41.967430 -87.905487 0 87 25 -96
2021-09-23 15:30:45 GMT 41.967430 -87.905830 0 81 21 -96
2021-09-23 15:30:43 GMT 41.967419 -87.905968 0 83 21 -96
2021-09-23 15:30:42 GMT 41.967381 -87.906227 0 88 23 -96
2021-09-23 15:30:40 GMT 41.967381 -87.906357 0 89 23 -96
2021-09-23 15:30:39 GMT 41.967369 -87.906479 0 90 25 -96
2021-09-23 15:30:38 GMT 41.967381 -87.906792 0 90 27 -96
2021-09-23 15:30:36 GMT 41.967381 -87.906929 0 89 30 -96
2021-09-23 15:30:35 GMT 41.967381 -87.907112 0 91 30 -96
2021-09-23 15:30:33 GMT 41.967381 -87.907494 0 91 28 -96
2021-09-23 15:30:32 GMT 41.967369 -87.907829 0 93 27 -96
2021-09-23 15:30:30 GMT 41.967419 -87.908157 0 84 29 -96
2021-09-23 15:30:28 GMT 41.967388 -87.908348 0 90 26 -96
2021-09-23 15:30:26 GMT 41.967400 -87.908684 0 88 25 -96
2021-09-23 15:30:25 GMT 41.967388 -87.908821 0 89 26 -96
2021-09-23 15:30:24 GMT 41.967411 -87.909149 0 83 25 -96
2021-09-23 15:30:22 GMT 41.967350 -87.909302 0 93 27 -96
2021-09-23 15:30:20 GMT 41.967381 -87.909637 0 91 25 -96
2021-09-23 15:30:18 GMT 41.967381 -87.909973 0 90 24 -96
2021-09-23 15:30:16 GMT 41.967381 -87.910278 0 91 23 -96
2021-09-23 15:30:15 GMT 41.967381 -87.910431 0 90 23 -96
2021-09-23 15:30:13 GMT 41.967381 -87.910721 0 90 24 -96
2021-09-23 15:30:12 GMT 41.967381 -87.910889 0 89 22 -96
2021-09-23 15:30:10 GMT 41.967388 -87.911163 0 87 21 -96
2021-09-23 15:30:09 GMT 41.967381 -87.911423 0 91 22 -96
2021-09-23 15:30:07 GMT 41.967381 -87.911537 0 89 22 -96
2021-09-23 15:30:06 GMT 41.967381 -87.911682 0 87 23 -96
2021-09-23 15:30:04 GMT 41.967381 -87.911972 0 87 19 -96
2021-09-23 15:30:03 GMT 41.967369 -87.912086 0 89 19 -96
2021-09-23 15:30:01 GMT 41.967369 -87.912331 0 90 20 -96
2021-09-23 15:30:00 GMT 41.967381 -87.912460 0 89 18 -96
2021-09-23 15:29:59 GMT 41.967369 -87.912567 0 90 18 -96
2021-09-23 15:29:58 GMT 41.967381 -87.912682 0 85 18 -96
2021-09-23 15:29:56 GMT 41.967350 -87.912872 0 93 20 -96
2021-09-23 15:29:55 GMT 41.967361 -87.913033 0 89 15 -96
2021-09-23 15:29:53 GMT 41.967361 -87.913200 0 89 17 -96
2021-09-23 15:29:52 GMT 41.967361 -87.913429 0 89 13 -96
2021-09-23 15:29:50 GMT 41.967350 -87.913513 0 92 13 -96
2021-09-23 15:29:48 GMT 41.967361 -87.913658 0 91 15 -96
2021-09-23 15:29:47 GMT 41.967369 -87.913757 0 86 13 -96
2021-09-23 15:29:45 GMT 41.967350 -87.913910 0 95 14 -96
2021-09-23 15:29:44 GMT 41.967388 -87.914108 0 89 11 -96
2021-09-23 15:29:42 GMT 41.967369 -87.914192 0 97 10 -96
2021-09-23 15:29:41 GMT 41.967369 -87.914322 0 87 9 -96
2021-09-23 15:29:39 GMT 41.967411 -87.914360 0 77 9 -96
2021-09-23 15:29:37 GMT 41.967369 -87.914482 0 87 9 -96
2021-09-23 15:29:36 GMT 41.967369 -87.914597 0 82 9 -96
2021-09-23 15:29:34 GMT 41.967381 -87.914658 0 77 8 -96
2021-09-23 15:29:33 GMT 41.967381 -87.914726 0 76 6 -96
2021-09-23 15:29:31 GMT 41.967350 -87.914780 0 86 8 -96
2021-09-23 15:29:30 GMT 41.967369 -87.914864 0 71 9 -96
2021-09-23 15:29:28 GMT 41.967369 -87.914902 0 72 10 -96
2021-09-23 15:29:27 GMT 41.967339 -87.915031 0 61 9 -96
2021-09-23 15:29:25 GMT 41.967319 -87.915123 0 52 6 -96
2021-09-23 15:29:23 GMT 41.967289 -87.915199 0 41 6 -96
2021-09-23 15:29:22 GMT 41.967270 -87.915230 0 38 7 -96
2021-09-23 15:29:20 GMT 41.967220 -87.915283 0 49 7 -96
2021-09-23 15:29:19 GMT 41.967201 -87.915283 0 39 9 -96
2021-09-23 15:29:17 GMT 41.967159 -87.915367 0 21 8 -96
2021-09-23 15:29:15 GMT 41.967098 -87.915443 0 357 9 -96
2021-09-23 15:29:14 GMT 41.967072 -87.915428 0 352 10 -96
2021-09-23 15:29:13 GMT 41.967018 -87.915451 0 341 9 -96
2021-09-23 15:29:11 GMT 41.966930 -87.915421 0 318 8 -96
2021-09-23 15:29:10 GMT 41.966900 -87.915398 0 314 8 -96
2021-09-23 15:29:08 GMT 41.966820 -87.915390 0 300 12 -96
2021-09-23 15:29:07 GMT 41.966789 -87.915329 0 295 13 -96
2021-09-23 15:29:06 GMT 41.966740 -87.915192 0 300 14 -96
2021-09-23 15:29:04 GMT 41.966709 -87.915100 0 303 12 -96
2021-09-23 15:29:03 GMT 41.966648 -87.914978 0 302 16 -96
2021-09-23 15:29:01 GMT 41.966629 -87.914917 0 302 20 -96
2021-09-23 15:28:59 GMT 41.966511 -87.914688 0 301 18 -96
2021-09-23 15:28:57 GMT 41.966461 -87.914513 0 303 23 -96
2021-09-23 15:28:56 GMT 41.966381 -87.914383 0 298 22 -96
2021-09-23 15:28:55 GMT 41.966331 -87.914253 0 298 23 -96
2021-09-23 15:28:53 GMT 41.966221 -87.914001 0 294 26 -96
2021-09-23 15:28:51 GMT 41.966129 -87.913681 0 294 26 -96
2021-09-23 15:28:50 GMT 41.966068 -87.913513 0 291 26 -96
2021-09-23 15:28:49 GMT 41.966049 -87.913368 0 292 28 -96
2021-09-23 15:28:47 GMT 41.965950 -87.913040 0 287 32 -96
2021-09-23 15:28:46 GMT 41.965900 -87.912849 0 283 33 -96
2021-09-23 15:28:44 GMT 41.965820 -87.912399 0 277 34 -96
2021-09-23 15:28:43 GMT 41.965771 -87.912178 0 272 36 -96
2021-09-23 15:28:41 GMT 41.965752 -87.911713 0 269 42 -96
2021-09-23 15:28:39 GMT 41.965759 -87.911171 0 270 52 -96
2021-09-23 15:28:38 GMT 41.965771 -87.910873 0 270 58 -96
2021-09-23 15:28:37 GMT 41.965759 -87.910530 0 270 63 -96
2021-09-23 15:28:36 GMT 41.965740 -87.909790 0 268 77 352
2021-09-23 15:28:34 GMT 41.965740 -87.909332 0 268 80 352
2021-09-23 15:28:33 GMT 41.965771 -87.908318 0 270 86 352
2021-09-23 15:28:31 GMT 41.965809 -87.907768 575 271 88 352
2021-09-23 15:28:30 GMT 41.965778 -87.906662 575 270 94 -672
2021-09-23 15:28:28 GMT 41.965752 -87.906097 575 269 99 -672
2021-09-23 15:28:26 GMT 41.965759 -87.904907 575 269 110 -672
2021-09-23 15:28:25 GMT 41.965771 -87.904228 575 269 112 -672
2021-09-23 15:28:23 GMT 41.965771 -87.902847 575 270 119 -672
2021-09-23 15:28:22 GMT 41.965778 -87.902138 550 270 124 -672
2021-09-23 15:28:20 GMT 41.965778 -87.900658 575 270 132 -672
2021-09-23 15:28:19 GMT 41.965759 -87.899048 575 269 137 -672
2021-09-23 15:28:17 GMT 41.965771 -87.898163 575 270 134 -672
2021-09-23 15:28:16 GMT 41.965771 -87.897339 575 270 135 -672
2021-09-23 15:28:15 GMT 41.965752 -87.896492 575 269 134 -672
2021-09-23 15:28:13 GMT 41.965740 -87.894829 600 269 138 -672
2021-09-23 15:28:12 GMT 41.965759 -87.893120 650 269 140 -672
2021-09-23 15:28:10 GMT 41.965778 -87.892273 650 270 141 -672
2021-09-23 15:28:08 GMT 41.965778 -87.890518 675 270 137 -672
2021-09-23 15:28:06 GMT 41.965752 -87.888832 700 269 141 -672
2021-09-23 15:28:05 GMT 41.965778 -87.887100 725 270 141 -672
2021-09-23 15:28:03 GMT 41.965759 -87.886200 725 270 138 -672
2021-09-23 15:28:02 GMT 41.965759 -87.885368 750 269 140 -672
2021-09-23 15:28:00 GMT 41.965759 -87.883636 800 269 141 -672
2021-09-23 15:27:59 GMT 41.965778 -87.882736 800 270 140 -672
2021-09-23 15:27:57 GMT 41.965729 -87.881073 800 267 146 -672
2021-09-23 15:27:56 GMT 41.965771 -87.880150 800 268 143 -672
2021-09-23 15:27:55 GMT 41.965790 -87.879250 825 269 140 -672
2021-09-23 15:27:53 GMT 41.965771 -87.877480 900 268 141 -672
2021-09-23 15:27:51 GMT 41.965778 -87.875748 900 269 143 -672
2021-09-23 15:27:50 GMT 41.965809 -87.874847 900 270 144 -672
2021-09-23 15:27:48 GMT 41.965801 -87.873047 900 270 137 -672
2021-09-23 15:27:47 GMT 41.965839 -87.871277 1,000 271 140 -864
2021-09-23 15:27:45 GMT 41.965790 -87.870407 1,000 269 140 -864
2021-09-23 15:27:43 GMT 41.965801 -87.868690 1,000 270 140 -864
2021-09-23 15:27:41 GMT 41.965809 -87.866943 1,100 270 137 -864
2021-09-23 15:27:40 GMT 41.965809 -87.866089 1,100 270 137 -864
2021-09-23 15:27:39 GMT 41.965809 -87.865227 1,100 270 137 -864
2021-09-23 15:27:37 GMT 41.965809 -87.863541 1,100 269 138 -864
2021-09-23 15:27:36 GMT 41.965801 -87.862663 1,100 269 138 -864
2021-09-23 15:27:35 GMT 41.965778 -87.861053 1,100 268 146 -864
2021-09-23 15:27:33 GMT 41.965809 -87.860207 1,125 269 151 -864
2021-09-23 15:27:31 GMT 41.965851 -87.858238 1,125 271 140 -864
2021-09-23 15:27:29 GMT 41.965832 -87.856506 1,200 269 143 -864
2021-09-23 15:27:28 GMT 41.965858 -87.855743 1,200 270 151 -864
2021-09-23 15:27:26 GMT 41.965832 -87.853828 1,200 270 146 -864
2021-09-23 15:27:24 GMT 41.965820 -87.852028 1,200 270 145 -864
2021-09-23 15:27:23 GMT 41.965832 -87.851059 1,200 271 139 -864
2021-09-23 15:27:21 GMT 41.965809 -87.849297 1,275 270 138 -864
2021-09-23 15:27:20 GMT 41.965851 -87.848503 1,300 272 142 -864
2021-09-23 15:27:19 GMT 41.965752 -87.846733 1,300 267 146 -864
2021-09-23 15:27:17 GMT 41.965790 -87.845833 1,400 269 145 -864
2021-09-23 15:27:16 GMT 41.965778 -87.844963 1,400 268 147 -864
2021-09-23 15:27:14 GMT 41.965820 -87.843048 1,400 270 137 -864
2021-09-23 15:27:13 GMT 41.965820 -87.842247 1,400 271 141 -864
2021-09-23 15:27:11 GMT 41.965790 -87.840477 1,400 269 139 -864
2021-09-23 15:27:10 GMT 41.965790 -87.839607 1,425 268 139 -864
2021-09-23 15:27:09 GMT 41.965839 -87.838753 1,425 270 138 -864
2021-09-23 15:27:07 GMT 41.965858 -87.837013 1,500 272 136 -864
2021-09-23 15:27:06 GMT 41.965809 -87.836212 1,500 270 139 -864
2021-09-23 15:27:04 GMT 41.965820 -87.834518 1,600 270 141 -864
2021-09-23 15:27:03 GMT 41.965809 -87.833679 1,600 270 144 -864
2021-09-23 15:27:01 GMT 41.965801 -87.831917 1,600 269 144 -864
2021-09-23 15:27:00 GMT 41.965851 -87.831017 1,600 271 142 -864
2021-09-23 15:26:59 GMT 41.965790 -87.829239 1,600 268 139 -864
2021-09-23 15:26:56 GMT 41.965832 -87.827522 1,600 270 139 -864
2021-09-23 15:26:55 GMT 41.965809 -87.826683 1,600 269 139 -864
2021-09-23 15:26:54 GMT 41.965820 -87.825798 1,600 269 139 -864
2021-09-23 15:26:52 GMT 41.965809 -87.824097 1,600 269 139 -864
2021-09-23 15:26:50 GMT 41.965858 -87.822342 1,700 270 137 -864
2021-09-23 15:26:49 GMT 41.965858 -87.820702 1,700 269 142 -864
2021-09-23 15:26:47 GMT 41.965858 -87.819862 1,800 270 144 -1280
2021-09-23 15:26:45 GMT 41.965858 -87.818047 1,800 270 142 -1280
2021-09-23 15:26:44 GMT 41.965858 -87.817177 1,800 270 143 -1280
2021-09-23 15:26:43 GMT 41.965851 -87.816238 1,800 269 140 -1280
2021-09-23 15:26:41 GMT 41.965851 -87.814484 1,800 269 140 -1280
2021-09-23 15:26:40 GMT 41.965839 -87.813591 1,800 269 139 -1280
2021-09-23 15:26:38 GMT 41.965851 -87.811890 1,800 269 141 -1280
2021-09-23 15:26:37 GMT 41.965851 -87.811020 1,800 269 141 -1280
2021-09-23 15:26:35 GMT 41.965851 -87.809273 1,900 269 141 -1280
2021-09-23 15:26:34 GMT 41.965858 -87.808388 1,900 270 141 -1280
2021-09-23 15:26:33 GMT 41.965851 -87.806610 1,900 269 140 -1280
2021-09-23 15:26:31 GMT 41.965839 -87.805794 1,900 269 142 -1280
2021-09-23 15:26:29 GMT 41.965839 -87.803970 1,900 269 138 -1280
2021-09-23 15:26:28 GMT 41.965858 -87.803146 1,900 270 140 -1280
2021-09-23 15:26:27 GMT 41.965858 -87.801407 2,000 270 141 -1280
2021-09-23 15:26:25 GMT 41.965851 -87.800537 2,000 270 141 -1280
2021-09-23 15:26:24 GMT 41.965858 -87.799652 2,000 270 141 -1280
2021-09-23 15:26:23 GMT 41.965858 -87.798759 2,000 270 141 -1280
2021-09-23 15:26:22 GMT 41.965851 -87.797012 2,100 270 144 -1280
2021-09-23 15:26:20 GMT 41.965851 -87.796127 2,100 270 146 -1280
2021-09-23 15:26:19 GMT 41.965851 -87.794312 2,100 270 148 -1280
2021-09-23 15:26:17 GMT 41.965839 -87.793388 2,100 269 149 -1280
2021-09-23 15:26:15 GMT 41.965839 -87.791573 2,100 269 153 -1280
2021-09-23 15:26:14 GMT 41.965832 -87.789703 2,300 269 157 -1280
2021-09-23 15:26:12 GMT 41.965832 -87.788742 2,300 269 159 -1280
2021-09-23 15:26:11 GMT 41.965858 -87.786858 2,300 269 165 -1280
2021-09-23 15:26:09 GMT 41.965870 -87.785873 2,300 269 166 -1280
2021-09-23 15:26:07 GMT 41.965858 -87.783737 2,300 269 161 -1280
2021-09-23 15:26:06 GMT 41.965919 -87.781738 2,300 270 162 -1280
2021-09-23 15:26:04 GMT 41.965912 -87.780708 2,300 270 161 -1280
2021-09-23 15:26:03 GMT 41.965858 -87.778793 2,300 269 166 -1280
2021-09-23 15:26:01 GMT 41.965881 -87.777702 2,300 269 162 -1280
2021-09-23 15:25:59 GMT 41.965851 -87.775772 2,400 269 167 -1280
2021-09-23 15:25:58 GMT 41.965851 -87.774757 2,400 269 168 -1280
2021-09-23 15:25:57 GMT 41.965870 -87.773613 2,400 269 162 -1280
2021-09-23 15:25:55 GMT 41.965912 -87.771683 2,500 269 167 -1280
2021-09-23 15:25:53 GMT 41.965900 -87.769592 2,500 269 166 -1280
2021-09-23 15:25:52 GMT 41.965900 -87.768532 2,500 269 164 -1280
2021-09-23 15:25:51 GMT 41.965912 -87.767532 2,500 270 165 -1280
2021-09-23 15:25:49 GMT 41.965900 -87.765533 2,500 269 170 -1280
2021-09-23 15:25:48 GMT 41.965900 -87.764450 2,500 269 169 -1280
2021-09-23 15:25:47 GMT 41.965900 -87.762321 2,500 269 165 -352
2021-09-23 15:25:45 GMT 41.965900 -87.761299 2,600 269 167 -352
2021-09-23 15:25:44 GMT 41.965889 -87.759178 2,600 269 166 -352
2021-09-23 15:25:42 GMT 41.965900 -87.758171 2,600 269 169 -352
2021-09-23 15:25:41 GMT 41.965889 -87.756287 2,700 269 186 -352
2021-09-23 15:25:39 GMT 41.965900 -87.755142 2,700 269 186 -352
2021-09-23 15:25:38 GMT 41.965942 -87.751610 2,700 271 185 -352
2021-09-23 15:25:35 GMT 41.965942 -87.751610 2,725 270 173 -960
2021-09-23 15:25:33 GMT 41.965912 -87.749466 2,750 270 173 -960
2021-09-23 15:25:29 GMT 41.965958 -87.743782 2,800 270 174 -896
2021-09-23 15:25:25 GMT 41.965942 -87.739815 2,850 271 175 -896
2021-09-23 15:25:22 GMT 41.965942 -87.736008 2,900 271 174 -768
2021-09-23 15:25:19 GMT 41.965912 -87.732536 2,925 271 173 -320
2021-09-23 15:25:16 GMT 41.965816 -87.727104 2,950 271 173 -64
2021-09-23 15:25:13 GMT 41.965816 -87.727104 2,950 271 173 -128
2021-09-23 15:25:10 GMT 41.965816 -87.722382 2,950 270 173 -64
2021-09-23 15:25:06 GMT 41.965851 -87.718903 2,950 267 176 -256
2021-09-23 15:25:03 GMT 41.965958 -87.716629 3,075 253 191 -640
2021-09-23 15:24:59 GMT 41.966263 -87.711906 3,000 263 181 -640
2021-09-23 15:24:56 GMT 41.967133 -87.704979 3,050 258 186 -704
2021-09-23 15:24:53 GMT 41.967133 -87.704979 3,075 255 188 -704
2021-09-23 15:24:49 GMT 41.967957 -87.701050 3,100 250 192 -640
2021-09-23 15:24:45 GMT 41.969124 -87.696579 3,175 246 194 -576
2021-09-23 15:24:42 GMT 41.970287 -87.693062 3,200 240 196 -704
2021-09-23 15:24:40 GMT 41.971592 -87.689743 3,225 240 197 -704
2021-09-23 15:24:35 GMT 41.975143 -87.681633 3,300 240 195 -704
2021-09-23 15:24:31 GMT 41.975143 -87.681633 3,325 240 195 -704
2021-09-23 15:24:28 GMT 41.976654 -87.678200 3,375 240 195 -768
2021-09-23 15:24:25 GMT 41.979645 -87.671410 3,425 239 197 -768
2021-09-23 15:24:22 GMT 41.979645 -87.671410 3,450 239 197 -768
2021-09-23 15:24:19 GMT 41.981323 -87.667648 3,475 237 198 -832
2021-09-23 15:24:14 GMT 41.983089 -87.663933 3,850 220 206 -1216
2021-09-23 15:24:11 GMT 41.984859 -87.660614 3,600 231 202 -1088
2021-09-23 15:24:07 GMT 41.986725 -87.657478 3,625 227 203 -1088
2021-09-23 15:24:04 GMT 41.989792 -87.653717 3,750 211 208 -1216
2021-09-23 15:24:01 GMT 41.993469 -87.650520 3,900 201 210 -1152
2021-09-23 15:23:58 GMT 41.998672 -87.647865 3,900 201 210 -1152
2021-09-23 15:23:53 GMT 41.998672 -87.647865 3,950 188 212 -1152
2021-09-23 15:23:50 GMT 42.000919 -87.647263 4,000 178 214 -1024
2021-09-23 15:23:47 GMT 42.005249 -87.646751 4,050 177 214 -960
2021-09-23 15:23:43 GMT 42.011673 -87.647118 4,125 175 214 -832
2021-09-23 15:23:40 GMT 42.011673 -87.647118 4,150 175 214 -768
2021-09-23 15:23:37 GMT 42.014278 -87.647392 4,200 174 214 -960
2021-09-23 15:23:33 GMT 42.018749 -87.647842 4,275 174 214 -1024
2021-09-23 15:23:30 GMT 42.023495 -87.648476 4,325 174 215 -1088
2021-09-23 15:23:28 GMT 42.023495 -87.648476 4,375 174 214 -1152
2021-09-23 15:23:25 GMT 42.027126 -87.648926 4,425 174 213 -1344
2021-09-23 15:23:20 GMT 42.031178 -87.649437 4,600 174 211 -1344
2021-09-23 15:23:18 GMT 42.033646 -87.649757 4,675 173 211 -1280
2021-09-23 15:23:15 GMT 42.036671 -87.650139 4,700 174 212 -1280
2021-09-23 15:23:12 GMT 42.039139 -87.650459 4,725 172 211 -1216
2021-09-23 15:23:09 GMT 42.041382 -87.650795 4,725 172 211 -1216
2021-09-23 15:23:07 GMT 42.043808 -87.651237 4,800 169 211 -960
2021-09-23 15:23:04 GMT 42.046921 -87.651863 4,850 165 212 -832
2021-09-23 15:23:01 GMT 42.051102 -87.653336 4,900 159 213 -768
2021-09-23 15:22:57 GMT 42.053329 -87.654480 4,925 153 214 -640
2021-09-23 15:22:54 GMT 42.056625 -87.656792 4,950 133 218 -512
2021-09-23 15:22:51 GMT 42.059509 -87.659477 5,000 133 218 -512
2021-09-23 15:22:48 GMT 42.061111 -87.661346 5,000 131 219 -512
2021-09-23 15:22:43 GMT 42.064499 -87.666656 5,025 120 220 -448
2021-09-23 15:22:40 GMT 42.066193 -87.670525 5,075 111 222 -448
2021-09-23 15:22:36 GMT 42.067677 -87.674919 5,100 103 221 -512
2021-09-23 15:22:33 GMT 42.068573 -87.678764 5,100 91 237 -256
2021-09-23 15:22:29 GMT 42.069305 -87.685005 5,150 93 222 -512
2021-09-23 15:22:26 GMT 42.069489 -87.687828 5,175 91 223 -448
2021-09-23 15:22:24 GMT 42.069580 -87.690620 5,200 91 223 -448
2021-09-23 15:22:21 GMT 42.069771 -87.696701 5,225 91 226 -576
2021-09-23 15:22:18 GMT 42.069817 -87.699638 5,250 91 227 -576
2021-09-23 15:22:15 GMT 42.069901 -87.703857 5,275 91 228 -576
2021-09-23 15:22:13 GMT 42.070004 -87.707367 5,300 92 229 -640
2021-09-23 15:22:08 GMT 42.070187 -87.714272 5,350 91 234 -384
2021-09-23 15:22:05 GMT 42.070450 -87.725578 5,375 91 236 -256
2021-09-23 15:22:01 GMT 42.070450 -87.725578 5,375 91 238 -256
2021-09-23 15:21:58 GMT 42.070496 -87.727951 5,400 91 240 -512
2021-09-23 15:21:54 GMT 42.070606 -87.733940 5,425 91 241 -768
2021-09-23 15:21:50 GMT 42.070702 -87.739304 5,475 91 242 -1024
2021-09-23 15:21:46 GMT 42.070889 -87.746971 5,575 91 241 -1280
2021-09-23 15:21:43 GMT 42.070953 -87.750862 5,650 91 241 -1280
2021-09-23 15:21:40 GMT 42.071026 -87.754768 5,700 91 241 -1344
2021-09-23 15:21:37 GMT 42.071182 -87.761040 5,825 92 239 -1280
2021-09-23 15:21:34 GMT 42.071259 -87.764343 5,825 91 240 -1280
2021-09-23 15:21:31 GMT 42.071400 -87.770477 5,925 91 240 -1280
2021-09-23 15:21:28 GMT 42.071457 -87.774086 6,000 92 239 -1280
2021-09-23 15:21:25 GMT 42.071587 -87.777504 6,025 91 240 -1280
2021-09-23 15:21:22 GMT 42.071678 -87.782104 6,100 92 239 -1280
2021-09-23 15:21:18 GMT 42.072006 -87.793243 6,200 92 239 -1280
2021-09-23 15:21:15 GMT 42.072006 -87.793243 6,275 92 238 -1280
2021-09-23 15:21:11 GMT 42.072144 -87.799614 6,350 92 238 -1280
2021-09-23 15:21:07 GMT 42.072327 -87.805229 6,425 92 237 -1280
2021-09-23 15:21:03 GMT 42.072517 -87.811104 6,900 92 237 -832
2021-09-23 15:21:00 GMT 42.072701 -87.816597 6,600 92 236 -1280
2021-09-23 15:20:56 GMT 42.072784 -87.820213 6,700 92 236 -1280
2021-09-23 15:20:53 GMT 42.072933 -87.824646 6,700 92 236 -1216
2021-09-23 15:20:49 GMT 42.073151 -87.830948 6,800 92 237 -1024
2021-09-23 15:20:46 GMT 42.073288 -87.835197 6,850 92 237 -896
2021-09-23 15:20:43 GMT 42.073425 -87.839752 6,925 91 243 0
2021-09-23 15:20:40 GMT 42.073563 -87.843307 6,925 92 239 -384
2021-09-23 15:20:38 GMT 42.073700 -87.847862 6,950 92 241 -64
2021-09-23 15:20:35 GMT 42.073792 -87.852173 6,950 92 241 -64
2021-09-23 15:20:32 GMT 42.073914 -87.857285 6,950 91 245 0
2021-09-23 15:20:29 GMT 42.073975 -87.859535 6,950 91 246 -64
2021-09-23 15:20:27 GMT 42.074066 -87.863037 6,950 92 247 -64
2021-09-23 15:20:24 GMT 42.074203 -87.867218 6,950 92 250 0
2021-09-23 15:20:21 GMT 42.074379 -87.873444 6,950 93 255 0
2021-09-23 15:20:18 GMT 42.074471 -87.877022 6,950 93 256 0
2021-09-23 15:20:15 GMT 42.074749 -87.882957 6,950 95 262 0
2021-09-23 15:20:11 GMT 42.075310 -87.889923 6,925 100 268 64
2021-09-23 15:20:08 GMT 42.075897 -87.894867 6,925 103 273 64
2021-09-23 15:20:05 GMT 42.076797 -87.899696 6,925 110 279 -64
2021-09-23 15:20:02 GMT 42.078278 -87.905609 6,925 117 287 -64
2021-09-23 15:19:57 GMT 42.080757 -87.912727 6,950 119 289 -64
2021-09-23 15:19:51 GMT 42.084366 -87.921333 6,950 121 292 0
2021-09-23 15:19:47 GMT 42.087387 -87.928017 6,950 121 292 0
2021-09-23 15:19:44 GMT 42.089741 -87.933296 6,950 121 292 0
2021-09-23 15:19:41 GMT 42.091091 -87.936234 6,950 120 291 0
2021-09-23 15:19:38 GMT 42.094070 -87.942940 6,950 120 291 0
2021-09-23 15:19:35 GMT 42.095123 -87.945244 6,950 120 291 0
2021-09-23 15:19:33 GMT 42.096909 -87.949326 6,950 120 291 0
2021-09-23 15:19:30 GMT 42.099098 -87.954117 6,950 120 291 0
2021-09-23 15:19:25 GMT 42.102543 -87.961906 6,950 120 291 0
2021-09-23 15:19:23 GMT 42.104546 -87.966377 6,950 120 291 0
2021-09-23 15:19:20 GMT 42.105942 -87.969505 6,950 120 291 0
2021-09-23 15:19:17 GMT 42.107895 -87.973831 6,950 120 291 0
2021-09-23 15:19:14 GMT 42.109711 -87.977875 6,950 120 291 0
2021-09-23 15:19:10 GMT 42.113205 -87.985634 6,950 121 292 0
2021-09-23 15:19:06 GMT 42.116043 -87.992058 6,950 121 292 0
2021-09-23 15:19:03 GMT 42.120529 -88.001984 6,950 121 292 0
2021-09-23 15:18:59 GMT 42.123398 -88.008408 6,950 121 292 0
2021-09-23 15:18:55 GMT 42.125492 -88.013069 6,950 121 292 0
2021-09-23 15:18:52 GMT 42.125492 -88.013069 6,950 121 292 0
2021-09-23 15:18:48 GMT 42.127773 -88.018181 6,950 121 292 0
2021-09-23 15:18:44 GMT 42.131081 -88.025528 6,950 121 292 0
2021-09-23 15:18:41 GMT 42.132751 -88.029266 6,950 121 292 0
2021-09-23 15:18:38 GMT 42.135223 -88.034698 6,950 121 292 64
2021-09-23 15:18:35 GMT 42.137737 -88.040283 6,950 121 293 0
2021-09-23 15:18:32 GMT 42.139786 -88.044815 6,950 121 292 0
2021-09-23 15:18:29 GMT 42.141693 -88.048965 6,950 121 292 0
2021-09-23 15:18:26 GMT 42.144344 -88.054718 6,950 121 292 0
2021-09-23 15:18:21 GMT 42.147465 -88.061554 6,950 121 292 0
2021-09-23 15:18:18 GMT 42.149979 -88.066978 6,950 121 292 0
2021-09-23 15:18:13 GMT 42.152527 -88.072525 6,950 121 292 64
2021-09-23 15:18:10 GMT 42.155891 -88.079819 6,950 121 292 0
2021-09-23 15:18:07 GMT 42.157379 -88.083076 6,950 121 292 0
2021-09-23 15:18:04 GMT 42.162598 -88.094368 6,950 121 292 0
2021-09-23 15:18:00 GMT 42.162598 -88.094368 6,950 121 291 0
2021-09-23 15:17:56 GMT 42.164688 -88.098854 6,950 121 291 0
2021-09-23 15:17:53 GMT 42.166946 -88.103737 6,950 121 291 64
2021-09-23 15:17:50 GMT 42.169739 -88.109726 6,950 122 289 64
2021-09-23 15:17:46 GMT 42.171936 -88.114471 6,950 122 289 64
2021-09-23 15:17:42 GMT 42.175507 -88.122086 6,950 126 294 -128
2021-09-23 15:17:38 GMT 42.178345 -88.128014 6,925 124 293 0
2021-09-23 15:17:35 GMT 42.179817 -88.131050 6,950 124 292 0
2021-09-23 15:17:32 GMT 42.182335 -88.136032 6,950 126 294 -128
2021-09-23 15:17:29 GMT 42.187965 -88.145927 6,950 134 297 -384
2021-09-23 15:17:26 GMT 42.187965 -88.145927 6,950 133 297 -320
2021-09-23 15:17:22 GMT 42.191223 -88.150719 6,975 138 299 -704
2021-09-23 15:17:17 GMT 42.195648 -88.156082 7,100 140 302 -960
2021-09-23 15:17:15 GMT 42.198299 -88.159088 7,125 140 301 -896
2021-09-23 15:17:12 GMT 42.202194 -88.163345 7,125 140 301 -896
2021-09-23 15:17:08 GMT 42.206074 -88.167580 7,200 140 301 -896
2021-09-23 15:17:05 GMT 42.209976 -88.171837 7,250 140 302 -960
2021-09-23 15:17:01 GMT 42.213684 -88.175896 7,300 140 302 -960
2021-09-23 15:16:56 GMT 42.221157 -88.184128 7,450 140 303 -1024
2021-09-23 15:16:51 GMT 42.225208 -88.188530 7,475 140 303 -1024
2021-09-23 15:16:48 GMT 42.228558 -88.192238 7,525 140 303 -1024
2021-09-23 15:16:44 GMT 42.233028 -88.197159 7,625 140 304 -960
2021-09-23 15:16:40 GMT 42.236710 -88.201241 7,700 140 304 -960
2021-09-23 15:16:36 GMT 42.241974 -88.206978 7,725 140 305 -960
2021-09-23 15:16:33 GMT 42.244156 -88.209358 7,825 141 305 -960
2021-09-23 15:16:29 GMT 42.247692 -88.213249 7,850 141 306 -1088
2021-09-23 15:16:26 GMT 42.251881 -88.217789 7,850 141 306 -1088
2021-09-23 15:16:23 GMT 42.255203 -88.221336 7,925 141 306 -1152
2021-09-23 15:16:20 GMT 42.259094 -88.225517 8,000 141 306 -1152
2021-09-23 15:16:16 GMT 42.266464 -88.233322 8,100 142 307 -1024
2021-09-23 15:16:13 GMT 42.266464 -88.233322 8,125 142 307 -1024
2021-09-23 15:16:08 GMT 42.271015 -88.237968 8,175 143 308 -1024
2021-09-23 15:16:05 GMT 42.276276 -88.243210 8,300 145 308 -1024
2021-09-23 15:16:02 GMT 42.279968 -88.246803 8,325 147 310 -1152
2021-09-23 15:15:58 GMT 42.282700 -88.249275 8,375 147 310 -1152
2021-09-23 15:15:55 GMT 42.286938 -88.252914 8,750 149 310 -1280
2021-09-23 15:15:52 GMT 42.291916 -88.256813 8,575 150 310 -1280
2021-09-23 15:15:49 GMT 42.295547 -88.259628 8,575 150 310 -1344
2021-09-23 15:15:44 GMT 42.301182 -88.263969 8,675 150 311 -1280
2021-09-23 15:15:40 GMT 42.307186 -88.268570 8,800 149 310 -1280
2021-09-23 15:15:34 GMT 42.313751 -88.273773 8,950 149 311 -1280
2021-09-23 15:15:31 GMT 42.318375 -88.277397 8,975 149 311 -1216
2021-09-23 15:15:27 GMT 42.321571 -88.279938 9,025 149 311 -1280
2021-09-23 15:15:23 GMT 42.327026 -88.284325 9,175 157 315 -1088
2021-09-23 15:15:20 GMT 42.330788 -88.287285 9,225 150 312 -1280
2021-09-23 15:15:17 GMT 42.334534 -88.290192 9,250 151 312 -1216
2021-09-23 15:15:13 GMT 42.338795 -88.293411 9,350 153 313 -1152
2021-09-23 15:15:10 GMT 42.343964 -88.296989 9,400 156 315 -1088
2021-09-23 15:15:07 GMT 42.347824 -88.299355 9,450 160 317 -1088
2021-09-23 15:15:04 GMT 42.351929 -88.301430 9,500 166 320 -960
2021-09-23 15:15:00 GMT 42.356483 -88.303123 9,550 170 321 -896
2021-09-23 15:14:57 GMT 42.362320 -88.304611 9,600 176 323 -896
2021-09-23 15:14:54 GMT 42.366898 -88.305176 9,700 185 329 -704
2021-09-23 15:14:49 GMT 42.374874 -88.305229 9,750 185 325 -960
2021-09-23 15:14:46 GMT 42.377701 -88.304985 9,775 185 325 -960
2021-09-23 15:14:42 GMT 42.384659 -88.304237 9,850 185 329 -704
2021-09-23 15:14:39 GMT 42.389488 -88.303696 9,875 185 330 -640
2021-09-23 15:14:36 GMT 42.393585 -88.303314 9,900 185 330 -576
2021-09-23 15:14:31 GMT 42.401825 -88.302422 9,925 185 335 -320
2021-09-23 15:14:28 GMT 42.404114 -88.302177 9,950 185 336 -128
2021-09-23 15:14:25 GMT 42.410477 -88.301491 9,925 185 349 0
2021-09-23 15:14:20 GMT 42.417114 -88.300743 9,925 185 345 0
2021-09-23 15:14:17 GMT 42.422653 -88.300117 9,925 185 350 0
2021-09-23 15:14:14 GMT 42.426640 -88.299675 9,925 185 350 0
2021-09-23 15:14:11 GMT 42.433434 -88.298904 9,950 185 355 0
2021-09-23 15:14:06 GMT 42.441441 -88.298012 9,950 185 355 0
2021-09-23 15:14:03 GMT 42.444077 -88.297745 9,950 185 355 0
2021-09-23 15:14:00 GMT 42.450119 -88.297058 9,950 186 355 0
2021-09-23 15:13:57 GMT 42.456852 -88.296227 9,950 186 355 0
2021-09-23 15:13:52 GMT 42.464905 -88.295265 9,950 186 355 0
2021-09-23 15:13:47 GMT 42.471748 -88.294373 9,950 186 355 0
2021-09-23 15:13:44 GMT 42.478317 -88.293503 9,950 186 355 0
2021-09-23 15:13:41 GMT 42.480778 -88.293159 9,950 186 355 0
2021-09-23 15:13:38 GMT 42.486008 -88.292435 9,925 186 355 64
2021-09-23 15:13:35 GMT 42.492050 -88.291626 9,950 186 355 64
2021-09-23 15:13:32 GMT 42.496811 -88.291000 9,950 189 356 -64
2021-09-23 15:13:29 GMT 42.500931 -88.290314 9,950 192 356 -64
2021-09-23 15:13:25 GMT 42.507751 -88.288757 9,950 193 357 0
2021-09-23 15:13:22 GMT 42.514023 -88.286819 9,950 197 357 64
2021-09-23 15:13:19 GMT 42.516266 -88.285950 9,950 197 357 64
2021-09-23 15:13:16 GMT 42.522305 -88.283516 9,950 200 358 64
2021-09-23 15:13:13 GMT 42.526978 -88.281265 9,925 203 360 64
2021-09-23 15:13:10 GMT 42.531509 -88.278831 9,925 209 367 0
2021-09-23 15:13:07 GMT 42.536819 -88.275581 9,925 209 367 0
2021-09-23 15:13:04 GMT 42.539436 -88.273872 9,925 216 371 -320
2021-09-23 15:13:01 GMT 42.545242 -88.269592 9,925 213 369 -128
2021-09-23 15:12:57 GMT 42.549911 -88.265656 9,950 217 371 -384
2021-09-23 15:12:54 GMT 42.556473 -88.259239 9,975 220 372 -576
2021-09-23 15:12:50 GMT 42.560989 -88.254234 10,025 221 373 -896
2021-09-23 15:12:46 GMT 42.565063 -88.249550 10,075 221 374 -1024
2021-09-23 15:12:42 GMT 42.571232 -88.242378 10,275 221 373 -1024
2021-09-23 15:12:39 GMT 42.574493 -88.238564 10,200 221 373 -1024
2021-09-23 15:12:37 GMT 42.577141 -88.235542 10,325 221 374 -1024
2021-09-23 15:12:34 GMT 42.581039 -88.230949 10,300 221 374 -1024
2021-09-23 15:12:31 GMT 42.586033 -88.225136 10,350 221 374 -1024
2021-09-23 15:12:28 GMT 42.591202 -88.219193 10,475 221 373 -1088
2021-09-23 15:12:26 GMT 42.600494 -88.208359 10,475 221 373 -1088
2021-09-23 15:12:21 GMT 42.600494 -88.208359 10,525 221 373 -1088
2021-09-23 15:12:17 GMT 42.603676 -88.204697 10,575 221 373 -1024
2021-09-23 15:12:14 GMT 42.608517 -88.199074 10,650 221 373 -1088
2021-09-23 15:12:09 GMT 42.614044 -88.192688 10,750 221 373 -1088
2021-09-23 15:12:06 GMT 42.617455 -88.188728 11,050 221 382 -1216
2021-09-23 15:12:01 GMT 42.625648 -88.179276 10,875 221 375 -1152
2021-09-23 15:11:58 GMT 42.628143 -88.176331 10,950 221 375 -1216
2021-09-23 15:11:55 GMT 42.632217 -88.171585 10,950 221 375 -1216
2021-09-23 15:11:53 GMT 42.635658 -88.167580 11,025 221 376 -1216
2021-09-23 15:11:49 GMT 42.641235 -88.161163 11,100 221 377 -1152
2021-09-23 15:11:45 GMT 42.647827 -88.153419 11,200 221 379 -1152
2021-09-23 15:11:41 GMT 42.652496 -88.148056 11,275 221 378 -1152
2021-09-23 15:11:38 GMT 42.655025 -88.145164 11,350 221 380 -1216
2021-09-23 15:11:34 GMT 42.659725 -88.139732 11,375 221 380 -1216
2021-09-23 15:11:30 GMT 42.665451 -88.133026 11,500 221 381 -1152
2021-09-23 15:11:27 GMT 42.674194 -88.122894 11,600 221 382 -1152
2021-09-23 15:11:24 GMT 42.674194 -88.122894 11,600 221 382 -1152
2021-09-23 15:11:20 GMT 42.680374 -88.115723 11,725 221 385 -1216
2021-09-23 15:11:17 GMT 42.683487 -88.112160 11,750 221 385 -1152
2021-09-23 15:11:14 GMT 42.694221 -88.099747 11,825 221 384 -1216
2021-09-23 15:11:09 GMT 42.699619 -88.093491 11,925 221 385 -1152
2021-09-23 15:11:06 GMT 42.699619 -88.093491 11,975 221 384 -1152
2021-09-23 15:11:03 GMT 42.702320 -88.090363 12,025 221 384 -1152
2021-09-23 15:11:01 GMT 42.705997 -88.086082 12,075 221 384 -1152
2021-09-23 15:10:57 GMT 42.711769 -88.079376 12,150 221 383 -1216
2021-09-23 15:10:53 GMT 42.716125 -88.074394 12,225 221 383 -1152
2021-09-23 15:10:50 GMT 42.719639 -88.070305 12,275 221 383 -1152
2021-09-23 15:10:47 GMT 42.724667 -88.064552 12,350 221 383 -1216
2021-09-23 15:10:44 GMT 42.728577 -88.060036 12,400 221 383 -1216
2021-09-23 15:10:40 GMT 42.733604 -88.054337 12,475 221 385 -1216
2021-09-23 15:10:35 GMT 42.741211 -88.045555 13,050 221 396 -1152
2021-09-23 15:10:32 GMT 42.743774 -88.042564 12,625 221 386 -1216
2021-09-23 15:10:30 GMT 42.748177 -88.037537 12,675 221 388 -1216
2021-09-23 15:10:24 GMT 42.756367 -88.028084 12,800 221 389 -1152
2021-09-23 15:10:19 GMT 42.762047 -88.021568 12,875 221 391 -1152
2021-09-23 15:10:15 GMT 42.769043 -88.013474 12,975 221 392 -1152
2021-09-23 15:10:11 GMT 42.771683 -88.010452 13,000 221 392 -1152
2021-09-23 15:10:09 GMT 42.776524 -88.004829 13,075 221 395 -1152
2021-09-23 15:10:06 GMT 42.781265 -87.999367 13,125 221 396 -1152
2021-09-23 15:10:03 GMT 42.783920 -87.996246 13,175 221 397 -1088
2021-09-23 15:10:00 GMT 42.787125 -87.992561 13,225 221 397 -1088
2021-09-23 15:09:57 GMT 42.792297 -87.986504 13,275 221 397 -1024
2021-09-23 15:09:54 GMT 42.797699 -87.980141 13,350 222 399 -1024
2021-09-23 15:09:50 GMT 42.802002 -87.975082 13,400 222 399 -1024
2021-09-23 15:09:46 GMT 42.809669 -87.965958 13,500 222 400 -1088
2021-09-23 15:09:42 GMT 42.815231 -87.959351 13,575 222 401 -1088
2021-09-23 15:09:38 GMT 42.820236 -87.953339 13,625 222 403 -1088
2021-09-23 15:09:33 GMT 42.827271 -87.945045 13,700 222 404 -1088
2021-09-23 15:09:30 GMT 42.829376 -87.942490 13,750 222 404 -1088
2021-09-23 15:09:27 GMT 42.834274 -87.936546 13,800 224 403 -1088
2021-09-23 15:09:25 GMT 42.837982 -87.931885 13,850 226 403 -1088
2021-09-23 15:09:21 GMT 42.843887 -87.923714 13,950 228 402 -1088
2021-09-23 15:09:17 GMT 42.848465 -87.916687 14,000 231 401 -1024
2021-09-23 15:09:14 GMT 42.851212 -87.912277 14,100 235 398 -1024
2021-09-23 15:09:11 GMT 42.854736 -87.906082 14,100 235 398 -1024
2021-09-23 15:09:08 GMT 42.857895 -87.900139 14,150 237 397 -1024
2021-09-23 15:09:05 GMT 42.860554 -87.894676 14,250 240 394 -1024
2021-09-23 15:09:02 GMT 42.867188 -87.879509 14,325 243 391 -1088
2021-09-23 15:08:59 GMT 42.867188 -87.879509 14,325 243 391 -1088
2021-09-23 15:08:56 GMT 42.869247 -87.874275 14,375 245 390 -1088
2021-09-23 15:08:52 GMT 42.871773 -87.867210 14,425 248 389 -1088
2021-09-23 15:08:49 GMT 42.877167 -87.849487 14,575 251 389 -1152
2021-09-23 15:08:46 GMT 42.877167 -87.849487 14,575 251 389 -1152
2021-09-23 15:08:43 GMT 42.878860 -87.843040 14,625 253 389 -1280
2021-09-23 15:08:39 GMT 42.880756 -87.834579 14,725 260 388 -1664
2021-09-23 15:08:37 GMT 42.881561 -87.830772 14,750 257 389 -1408
2021-09-23 15:08:34 GMT 42.882706 -87.824646 14,800 258 389 -1472
2021-09-23 15:08:31 GMT 42.883877 -87.817451 14,900 260 389 -1600
2021-09-23 15:08:28 GMT 42.884991 -87.809471 15,125 261 389 -1792
2021-09-23 15:08:24 GMT 42.886597 -87.797180 15,150 261 390 -1856
2021-09-23 15:08:20 GMT 42.887512 -87.790154 16,900 261 391 -2112
2021-09-23 15:08:17 GMT 42.888344 -87.783379 16,900 261 391 -2112
2021-09-23 15:08:14 GMT 42.889114 -87.777565 15,400 261 390 -2048
2021-09-23 15:08:11 GMT 42.890301 -87.767876 15,600 261 390 -2112
2021-09-23 15:08:08 GMT 42.891495 -87.758659 15,725 261 390 -2240
2021-09-23 15:08:05 GMT 42.892021 -87.754539 15,750 261 390 -2176
2021-09-23 15:08:02 GMT 42.892822 -87.748253 15,850 261 390 -2240
2021-09-23 15:07:58 GMT 42.894115 -87.738060 16,100 261 390 -2432
2021-09-23 15:07:54 GMT 42.897263 -87.713371 16,450 261 390 -2176
2021-09-23 15:07:49 GMT 42.897263 -87.713371 16,400 261 390 -2112
2021-09-23 15:07:45 GMT 42.898132 -87.706352 16,500 261 390 -2112
2021-09-23 15:07:42 GMT 42.898956 -87.699997 16,575 261 390 -2112
2021-09-23 15:07:39 GMT 42.900352 -87.689140 16,800 261 391 -1920
2021-09-23 15:07:36 GMT 42.901062 -87.683800 16,800 261 391 -1920
2021-09-23 15:07:33 GMT 42.902218 -87.674561 17,050 261 392 -1792
2021-09-23 15:07:29 GMT 42.903351 -87.665787 17,050 261 393 -1792
2021-09-23 15:07:26 GMT 42.904266 -87.658470 17,150 261 393 -1792
2021-09-23 15:07:22 GMT 42.905457 -87.649178 17,250 261 395 -1792
2021-09-23 15:07:18 GMT 42.906876 -87.637878 17,375 261 396 -1856
2021-09-23 15:07:15 GMT 42.907711 -87.631271 17,450 261 397 -1856
2021-09-23 15:07:12 GMT 42.908314 -87.626625 17,525 261 397 -1856
2021-09-23 15:07:07 GMT 42.910263 -87.611557 17,700 261 399 -1856
2021-09-23 15:07:01 GMT 42.912048 -87.597702 17,875 260 401 -1856
2021-09-23 15:06:55 GMT 42.914017 -87.582558 18,050 260 402 -1600
2021-09-23 15:06:52 GMT 42.914787 -87.576530 18,125 260 404 -1408
2021-09-23 15:06:50 GMT 42.915810 -87.568817 18,175 261 405 -1408
2021-09-23 15:06:45 GMT 42.917404 -87.556244 18,325 261 407 -1344
2021-09-23 15:06:42 GMT 42.918045 -87.551224 18,350 261 407 -1408
2021-09-23 15:06:40 GMT 42.918915 -87.544617 18,725 261 411 -2048
2021-09-23 15:06:36 GMT 42.920471 -87.532166 18,650 261 411 -1984
2021-09-23 15:06:33 GMT 42.923080 -87.511536 19,575 261 413 -1792
2021-09-23 15:06:28 GMT 42.923080 -87.511536 18,825 261 411 -2176
2021-09-23 15:06:25 GMT 42.925076 -87.495964 18,925 261 411 -2240
2021-09-23 15:06:22 GMT 42.925076 -87.495964 19,050 261 411 -2112
2021-09-23 15:06:18 GMT 42.925873 -87.489624 19,050 261 411 -2112
2021-09-23 15:06:13 GMT 42.928799 -87.466080 19,325 261 411 -1984
2021-09-23 15:06:10 GMT 42.930054 -87.456078 19,475 261 412 -1792
2021-09-23 15:06:06 GMT 42.930054 -87.456078 19,575 261 414 -1664
2021-09-23 15:06:03 GMT 42.930801 -87.450188 19,625 261 414 -1728
2021-09-23 15:05:59 GMT 42.932011 -87.440643 20,025 261 416 -2048
2021-09-23 15:05:54 GMT 42.933964 -87.425148 19,925 261 416 -2368
2021-09-23 15:05:50 GMT 42.934982 -87.416870 20,125 261 416 -2432
2021-09-23 15:05:47 GMT 42.935688 -87.411148 20,125 261 416 -2432
2021-09-23 15:05:44 GMT 42.939224 -87.382965 20,450 261 415 -2560
2021-09-23 15:05:38 GMT 42.939224 -87.382965 20,950 261 414 -2560
2021-09-23 15:05:35 GMT 42.940018 -87.376564 20,750 261 414 -2624
2021-09-23 15:05:32 GMT 42.940903 -87.369560 20,925 261 414 -2560
2021-09-23 15:05:29 GMT 42.941803 -87.362129 20,950 261 413 -2496
2021-09-23 15:05:27 GMT 42.942444 -87.357216 21,025 261 413 -2496
2021-09-23 15:05:24 GMT 42.943230 -87.350792 21,250 261 413 -2432
2021-09-23 15:05:21 GMT 42.944092 -87.344116 21,250 261 413 -2368
2021-09-23 15:05:18 GMT 42.945374 -87.333580 21,450 261 414 -2240
2021-09-23 15:05:14 GMT 42.947617 -87.315567 21,575 261 414 -2240
2021-09-23 15:05:11 GMT 42.947617 -87.315567 21,825 261 414 -2432
2021-09-23 15:05:06 GMT 42.949127 -87.303177 21,825 261 414 -2432
2021-09-23 15:05:03 GMT 42.950043 -87.295700 22,000 261 414 -2368
2021-09-23 15:05:00 GMT 42.951004 -87.288277 22,150 261 415 -1856
2021-09-23 15:04:56 GMT 42.952309 -87.277679 22,225 261 414 -2048
2021-09-23 15:04:53 GMT 42.953339 -87.269447 22,375 261 418 -1280
2021-09-23 15:04:50 GMT 42.954208 -87.262489 22,525 261 416 -1728
2021-09-23 15:04:46 GMT 42.955658 -87.251129 22,550 261 417 -1408
2021-09-23 15:04:44 GMT 42.956314 -87.245689 22,575 261 417 -1408
2021-09-23 15:04:40 GMT 42.957706 -87.234520 22,725 261 419 0
2021-09-23 15:04:35 GMT 42.959335 -87.221245 22,750 261 419 -960
2021-09-23 15:04:31 GMT 42.960175 -87.214706 22,825 261 419 -960
2021-09-23 15:04:28 GMT 42.961479 -87.204048 22,925 261 419 -1024
2021-09-23 15:04:24 GMT 42.962502 -87.195412 22,925 261 419 -1024
2021-09-23 15:04:22 GMT 42.963272 -87.189163 23,025 261 419 -1024
2021-09-23 15:04:19 GMT 42.964233 -87.181366 23,025 261 419 -960
2021-09-23 15:04:16 GMT 42.964874 -87.176125 23,050 261 419 -960
2021-09-23 15:04:12 GMT 42.966503 -87.162849 23,125 261 419 -960
2021-09-23 15:04:09 GMT 42.967438 -87.155258 23,175 261 420 -960
2021-09-23 15:04:04 GMT 42.969269 -87.140938 23,275 261 420 -1024
2021-09-23 15:04:00 GMT 42.970135 -87.134140 23,300 261 420 -960
2021-09-23 15:03:58 GMT 42.970741 -87.129234 23,975 261 431 -1024
2021-09-23 15:03:52 GMT 42.973251 -87.109062 23,475 261 421 -960
2021-09-23 15:03:48 GMT 42.974121 -87.101715 23,500 261 428 -1024
2021-09-23 15:03:44 GMT 42.975536 -87.090454 23,625 261 423 -1024
2021-09-23 15:03:41 GMT 42.976467 -87.082870 23,750 261 427 -960
2021-09-23 15:03:37 GMT 42.979401 -87.058739 24,200 261 431 -1024
2021-09-23 15:03:32 GMT 42.979401 -87.058739 23,825 261 428 -1024
2021-09-23 15:03:28 GMT 42.981030 -87.045204 23,900 261 431 -960
2021-09-23 15:03:21 GMT 42.983170 -87.027542 24,025 261 431 -960
2021-09-23 15:03:16 GMT 42.984428 -87.017082 24,025 261 431 -960
2021-09-23 15:03:12 GMT 42.985683 -87.006615 24,125 261 431 -1024
2021-09-23 15:03:09 GMT 42.986847 -86.996964 24,275 261 430 -1024
2021-09-23 15:03:05 GMT 42.987873 -86.988373 24,225 261 430 -960
2021-09-23 15:03:02 GMT 42.988991 -86.978958 24,300 261 430 -1024
2021-09-23 15:02:59 GMT 42.989780 -86.972282 24,300 261 430 -1024
2021-09-23 15:02:55 GMT 42.991058 -86.961578 24,475 261 428 -1024
2021-09-23 15:02:50 GMT 42.993225 -86.943123 24,525 261 428 -1024
2021-09-23 15:02:46 GMT 42.994297 -86.934357 24,550 261 428 -1024
2021-09-23 15:02:42 GMT 42.996391 -86.916763 24,650 261 428 -1024
2021-09-23 15:02:39 GMT 42.996391 -86.916763 24,700 261 428 -1024
2021-09-23 15:02:33 GMT 42.998161 -86.901855 24,750 261 429 -1024
2021-09-23 15:02:29 GMT 42.999790 -86.888191 24,925 261 430 -1024
2021-09-23 15:02:24 GMT 43.003006 -86.861359 25,300 261 433 -960
2021-09-23 15:02:19 GMT 43.003006 -86.861359 25,025 261 432 -960
2021-09-23 15:02:16 GMT 43.004013 -86.853058 25,125 261 437 -1024
2021-09-23 15:02:13 GMT 43.004700 -86.847374 25,100 261 433 -1024
2021-09-23 15:02:09 GMT 43.006210 -86.834663 25,175 261 434 -960
2021-09-23 15:02:05 GMT 43.008030 -86.819260 25,250 261 437 -1024
2021-09-23 15:02:02 GMT 43.010056 -86.803040 25,275 261 437 -1024
2021-09-23 15:01:57 GMT 43.010056 -86.803040 25,375 261 436 -960
2021-09-23 15:01:53 GMT 43.011475 -86.791351 25,450 261 436 -960
2021-09-23 15:01:50 GMT 43.012482 -86.783501 25,525 261 437 -960
2021-09-23 15:01:47 GMT 43.013382 -86.776428 25,575 284 432 -448
2021-09-23 15:01:42 GMT 43.016827 -86.748764 25,675 261 438 -960
2021-09-23 15:01:37 GMT 43.016827 -86.748764 25,700 261 438 -1024
2021-09-23 15:01:31 GMT 43.018661 -86.734314 25,775 261 439 -1024
2021-09-23 15:01:26 GMT 43.020401 -86.720390 25,875 261 441 -1088
2021-09-23 15:01:22 GMT 43.022232 -86.705574 25,975 261 443 -1024
2021-09-23 15:01:19 GMT 43.024017 -86.691521 26,075 262 462 -896
2021-09-23 15:01:15 GMT 43.024017 -86.691521 26,075 262 462 -896
2021-09-23 15:01:11 GMT 43.025860 -86.676834 26,175 262 460 -1024
2021-09-23 15:01:08 GMT 43.026745 -86.669838 26,200 261 449 -1024
2021-09-23 15:01:05 GMT 43.027721 -86.662056 26,275 284 432 -448
2021-09-23 15:00:59 GMT 43.030151 -86.642082 26,400 261 455 -1024
2021-09-23 15:00:56 GMT 43.031250 -86.633331 26,400 261 457 -960
2021-09-23 15:00:52 GMT 43.032471 -86.623077 26,475 261 458 -1024
2021-09-23 15:00:48 GMT 43.033634 -86.613136 26,525 262 460 -1024
2021-09-23 15:00:45 GMT 43.034775 -86.603371 26,575 262 462 -960
2021-09-23 15:00:40 GMT 43.037498 -86.579460 26,700 262 463 -832
2021-09-23 15:00:36 GMT 43.037498 -86.579460 26,725 262 463 -896
2021-09-23 15:00:33 GMT 43.038475 -86.570503 26,750 262 462 -768
2021-09-23 15:00:30 GMT 43.039536 -86.560707 26,800 262 461 -768
2021-09-23 15:00:27 GMT 43.040569 -86.551468 26,825 262 461 -832
2021-09-23 15:00:23 GMT 43.041367 -86.544029 26,925 263 457 -640
2021-09-23 15:00:19 GMT 43.043129 -86.527931 26,925 264 456 -640
2021-09-23 15:00:13 GMT 43.044247 -86.513672 26,975 268 451 -512
2021-09-23 15:00:08 GMT 43.044617 -86.499382 27,000 272 446 -448
2021-09-23 15:00:05 GMT 43.044338 -86.488167 27,050 276 442 -448
2021-09-23 15:00:02 GMT 43.044155 -86.483917 27,100 284 432 -448
2021-09-23 14:59:59 GMT 43.043316 -86.473648 27,075 280 437 -448
2021-09-23 14:59:57 GMT 43.042431 -86.466591 27,100 282 434 -448
2021-09-23 14:59:53 GMT 43.040802 -86.456123 27,125 286 429 -384
2021-09-23 14:59:48 GMT 43.038025 -86.442924 27,175 291 420 -384
2021-09-23 14:59:42 GMT 43.034470 -86.429375 27,225 294 413 -448
2021-09-23 14:59:37 GMT 43.030422 -86.417015 27,250 298 406 -448
2021-09-23 14:59:34 GMT 43.027256 -86.408585 27,275 300 402 -448
2021-09-23 14:59:31 GMT 43.025997 -86.405441 27,350 303 397 -512
2021-09-23 14:59:27 GMT 43.020458 -86.392952 27,375 305 395 -512
2021-09-23 14:59:21 GMT 43.015430 -86.382820 27,450 308 395 -448
2021-09-23 14:59:16 GMT 43.010010 -86.372849 27,400 308 394 -512
2021-09-23 14:59:10 GMT 43.003922 -86.362053 27,475 308 394 -512
2021-09-23 14:59:05 GMT 42.997467 -86.350624 27,525 308 394 -512
2021-09-23 14:58:59 GMT 42.990829 -86.338745 27,575 308 395 -448
2021-09-23 14:58:56 GMT 42.986614 -86.331223 27,600 308 395 -512
2021-09-23 14:58:50 GMT 42.981216 -86.321541 27,700 308 395 -448
2021-09-23 14:58:47 GMT 42.978191 -86.316246 27,850 308 395 -448
2021-09-23 14:58:45 GMT 42.975311 -86.311089 27,700 308 395 -448
2021-09-23 14:58:40 GMT 42.969635 -86.301056 27,725 308 394 -448
2021-09-23 14:58:35 GMT 42.963852 -86.290810 27,775 308 394 -512
2021-09-23 14:58:32 GMT 42.960175 -86.284332 27,775 308 393 -512
2021-09-23 14:58:29 GMT 42.957916 -86.280426 27,800 308 394 -512
2021-09-23 14:58:26 GMT 42.954170 -86.273674 27,825 307 394 -448
2021-09-23 14:58:24 GMT 42.952103 -86.269951 27,850 307 393 -512
2021-09-23 14:58:21 GMT 42.947845 -86.262222 27,875 307 393 -448
2021-09-23 14:58:17 GMT 42.944687 -86.256470 27,900 307 393 -512
2021-09-23 14:58:13 GMT 42.941788 -86.251045 27,925 307 393 -512
2021-09-23 14:58:11 GMT 42.938435 -86.244896 27,950 307 393 -448
2021-09-23 14:58:08 GMT 42.934895 -86.238297 27,975 307 392 -512
2021-09-23 14:58:04 GMT 42.929718 -86.228752 28,000 307 392 -448
2021-09-23 14:58:00 GMT 42.926472 -86.222794 28,050 307 392 -512
2021-09-23 14:57:57 GMT 42.922279 -86.215012 28,225 308 391 -512
2021-09-23 14:57:54 GMT 42.915764 -86.203239 28,100 308 392 -448
2021-09-23 14:57:51 GMT 42.912689 -86.197746 28,150 308 391 -448
2021-09-23 14:57:48 GMT 42.907333 -86.188126 28,150 308 391 -448
2021-09-23 14:57:43 GMT 42.907333 -86.188126 28,175 308 390 -448
2021-09-23 14:57:40 GMT 42.904587 -86.183212 28,250 307 390 -448
2021-09-23 14:57:37 GMT 42.901424 -86.177544 28,250 307 390 -512
2021-09-23 14:57:32 GMT 42.895790 -86.167343 28,275 307 390 -512
2021-09-23 14:57:29 GMT 42.892021 -86.160477 28,300 306 390 -512
2021-09-23 14:57:26 GMT 42.886948 -86.150864 28,325 305 391 -512
2021-09-23 14:57:20 GMT 42.883942 -86.145073 28,350 305 390 -512
2021-09-23 14:57:18 GMT 42.881012 -86.139137 28,400 304 391 -512
2021-09-23 14:57:15 GMT 42.878860 -86.134857 28,400 304 391 -512
2021-09-23 14:57:10 GMT 42.870392 -86.117737 28,425 304 391 -512
2021-09-23 14:57:08 GMT 42.870392 -86.117737 28,525 305 391 -512
2021-09-23 14:57:05 GMT 42.868057 -86.113014 28,500 305 391 -512
2021-09-23 14:57:01 GMT 42.863811 -86.104500 28,550 305 391 -512
2021-09-23 14:56:58 GMT 42.860039 -86.096909 28,550 305 391 -512
2021-09-23 14:56:55 GMT 42.852951 -86.082672 28,600 305 392 -512
2021-09-23 14:56:50 GMT 42.852951 -86.082672 28,625 305 392 -512
2021-09-23 14:56:46 GMT 42.849152 -86.075134 28,650 305 392 -512
2021-09-23 14:56:43 GMT 42.845005 -86.066765 28,700 305 392 -512
2021-09-23 14:56:40 GMT 42.842148 -86.061020 28,725 305 393 -512
2021-09-23 14:56:35 GMT 42.837570 -86.051819 28,775 301 399 -576
2021-09-23 14:56:32 GMT 42.834412 -86.045433 28,775 304 395 -512
2021-09-23 14:56:29 GMT 42.831364 -86.039299 28,825 304 395 -512
2021-09-23 14:56:25 GMT 42.826847 -86.029884 28,850 303 397 -576
2021-09-23 14:56:22 GMT 42.823929 -86.023590 28,875 302 398 -576
2021-09-23 14:56:19 GMT 42.821587 -86.018501 28,900 300 401 -512
2021-09-23 14:56:13 GMT 42.815678 -86.004112 28,950 298 405 -576
2021-09-23 14:56:08 GMT 42.812210 -85.994461 29,000 291 417 -576
2021-09-23 14:56:04 GMT 42.808132 -85.981300 29,050 291 417 -576
2021-09-23 14:55:59 GMT 42.804794 -85.968887 29,100 289 423 -640
2021-09-23 14:55:56 GMT 42.803528 -85.963867 29,100 289 423 -640
2021-09-23 14:55:52 GMT 42.801338 -85.955048 29,200 289 426 -704
2021-09-23 14:55:47 GMT 42.797791 -85.940804 29,200 289 430 -704
2021-09-23 14:55:45 GMT 42.796188 -85.934372 29,250 289 431 -704
2021-09-23 14:55:42 GMT 42.794907 -85.929253 29,275 289 433 -704
2021-09-23 14:55:38 GMT 42.791607 -85.916153 29,350 289 433 -704
2021-09-23 14:55:34 GMT 42.789841 -85.908936 29,375 289 433 -704
2021-09-23 14:55:30 GMT 42.786575 -85.895798 29,425 289 433 -768
2021-09-23 14:55:27 GMT 42.784904 -85.889069 29,475 289 433 -768
2021-09-23 14:55:24 GMT 42.782997 -85.881340 29,500 289 433 -768
2021-09-23 14:55:19 GMT 42.780029 -85.869202 29,575 289 434 -704
2021-09-23 14:55:16 GMT 42.778622 -85.863197 29,600 289 434 -768
2021-09-23 14:55:12 GMT 42.775082 -85.848701 29,675 261 480 -2368
2021-09-23 14:55:07 GMT 42.772156 -85.836807 29,725 289 435 -704
2021-09-23 14:55:03 GMT 42.769730 -85.826920 29,775 289 438 -704
2021-09-23 14:55:00 GMT 42.768036 -85.820206 29,925 287 440 -704
2021-09-23 14:54:56 GMT 42.765564 -85.809402 29,850 286 443 -704
2021-09-23 14:54:53 GMT 42.763641 -85.800041 29,900 283 448 -768
2021-09-23 14:54:50 GMT 42.762497 -85.794044 29,925 283 448 -768
2021-09-23 14:54:45 GMT 42.760418 -85.781502 30,075 277 457 -832
2021-09-23 14:54:42 GMT 42.759109 -85.772011 30,050 278 456 -832
2021-09-23 14:54:38 GMT 42.757507 -85.758217 30,100 279 454 -832
2021-09-23 14:54:35 GMT 42.756973 -85.752571 30,125 276 460 -832
2021-09-23 14:54:31 GMT 42.756134 -85.741112 30,150 274 462 -896
2021-09-23 14:54:25 GMT 42.755356 -85.722572 30,300 271 468 -1152
2021-09-23 14:54:22 GMT 42.755264 -85.711716 30,600 269 472 -1344
2021-09-23 14:54:19 GMT 42.755310 -85.701973 30,725 264 476 -2112
2021-09-23 14:54:15 GMT 42.756317 -85.681252 30,600 263 477 -2304
2021-09-23 14:54:11 GMT 42.756317 -85.681252 30,650 264 477 -2240
2021-09-23 14:54:08 GMT 42.757160 -85.671127 30,800 262 479 -2368
2021-09-23 14:54:04 GMT 42.758148 -85.661026 30,950 260 481 -2368
2021-09-23 14:54:01 GMT 42.761078 -85.640236 31,925 258 483 -2176
2021-09-23 14:53:57 GMT 42.761078 -85.640236 31,225 257 486 -1856
2021-09-23 14:53:54 GMT 42.762699 -85.630760 31,275 257 486 -1728
2021-09-23 14:53:51 GMT 42.764328 -85.621567 31,375 257 488 -1472
2021-09-23 14:53:48 GMT 42.766205 -85.611153 31,500 257 492 -1344
2021-09-23 14:53:44 GMT 42.768265 -85.599785 31,525 257 494 -1024
2021-09-23 14:53:40 GMT 42.770428 -85.587776 31,600 257 494 -960
2021-09-23 14:53:37 GMT 42.771824 -85.580299 31,650 257 495 -832
2021-09-23 14:53:33 GMT 42.773987 -85.568207 31,700 257 498 -704
2021-09-23 14:53:30 GMT 42.776012 -85.556602 31,750 258 501 -704
2021-09-23 14:53:26 GMT 42.777828 -85.545876 31,775 258 502 -576
2021-09-23 14:53:22 GMT 42.780155 -85.531502 31,825 258 502 -640
2021-09-23 14:53:18 GMT 42.781631 -85.522263 31,850 259 502 -512
2021-09-23 14:53:16 GMT 42.782578 -85.516045 31,875 259 503 -512
2021-09-23 14:53:12 GMT 42.784950 -85.500267 31,900 259 503 -576
2021-09-23 14:53:09 GMT 42.785980 -85.493111 31,925 260 504 -576
2021-09-23 14:53:06 GMT 42.787537 -85.481934 31,975 260 503 -448
2021-09-23 14:53:02 GMT 42.788860 -85.472290 32,000 261 503 -192
2021-09-23 14:52:59 GMT 42.790073 -85.463287 32,000 261 503 -128
2021-09-23 14:52:56 GMT 42.791656 -85.450851 32,000 261 502 0
2021-09-23 14:52:52 GMT 42.793098 -85.438950 32,000 261 502 0
2021-09-23 14:52:47 GMT 42.795521 -85.417809 32,000 262 501 0
2021-09-23 14:52:44 GMT 42.795521 -85.417809 32,000 262 501 0
2021-09-23 14:52:41 GMT 42.798019 -85.395042 32,000 262 501 0
2021-09-23 14:52:38 GMT 42.798019 -85.395042 32,000 262 501 0
2021-09-23 14:52:35 GMT 42.798935 -85.386620 32,000 262 501 0
2021-09-23 14:52:30 GMT 42.800499 -85.372330 32,000 262 501 0
2021-09-23 14:52:27 GMT 42.801498 -85.362961 32,000 262 501 -64
2021-09-23 14:52:23 GMT 42.802551 -85.353348 32,000 262 500 0
2021-09-23 14:52:20 GMT 42.803741 -85.342422 32,000 262 500 0
2021-09-23 14:52:17 GMT 42.805161 -85.329689 32,000 262 500 0
2021-09-23 14:52:13 GMT 42.806179 -85.320335 32,000 262 500 64
2021-09-23 14:52:10 GMT 42.807297 -85.310112 32,000 262 500 0
2021-09-23 14:52:07 GMT 42.808273 -85.301109 32,000 262 500 0
2021-09-23 14:52:04 GMT 42.809624 -85.288956 32,000 262 500 64
2021-09-23 14:52:00 GMT 42.810974 -85.276207 32,000 262 501 0
2021-09-23 14:51:56 GMT 42.812073 -85.266235 32,000 262 501 0
2021-09-23 14:51:53 GMT 42.813080 -85.257225 32,000 262 501 0
2021-09-23 14:51:49 GMT 42.814407 -85.245094 32,000 262 502 0
2021-09-23 14:51:46 GMT 42.815643 -85.233528 32,000 262 502 0
2021-09-23 14:51:40 GMT 42.817863 -85.213234 32,000 262 503 -64
2021-09-23 14:51:37 GMT 42.818329 -85.208847 32,000 262 503 0
2021-09-23 14:51:34 GMT 42.819214 -85.200417 32,000 262 503 -64
2021-09-23 14:51:31 GMT 42.820332 -85.190079 32,000 262 503 0
2021-09-23 14:51:28 GMT 42.822601 -85.169144 32,000 262 503 0
2021-09-23 14:51:25 GMT 42.822601 -85.169144 32,000 262 503 0
2021-09-23 14:51:21 GMT 42.825256 -85.144424 32,000 262 503 0
2021-09-23 14:51:18 GMT 42.825256 -85.144424 32,000 262 503 0
2021-09-23 14:51:12 GMT 42.827080 -85.127495 32,000 262 503 0
2021-09-23 14:51:06 GMT 42.828896 -85.110626 32,000 262 504 0
2021-09-23 14:51:03 GMT 42.831253 -85.089050 32,000 262 504 0
2021-09-23 14:50:59 GMT 42.831253 -85.089050 32,000 262 504 0
2021-09-23 14:50:57 GMT 42.832108 -85.081200 32,000 262 504 0
2021-09-23 14:50:54 GMT 42.832993 -85.073082 32,000 262 504 0
2021-09-23 14:50:49 GMT 42.834641 -85.057365 32,000 262 504 0
2021-09-23 14:50:46 GMT 42.835602 -85.048294 32,000 262 504 0
2021-09-23 14:50:43 GMT 42.836746 -85.037949 32,000 262 504 0
2021-09-23 14:50:40 GMT 42.837509 -85.030777 32,000 262 504 -64
2021-09-23 14:50:36 GMT 42.840256 -85.004753 32,000 262 504 0
2021-09-23 14:50:33 GMT 42.840256 -85.004753 32,000 262 504 0
2021-09-23 14:50:30 GMT 42.841049 -84.997581 32,000 262 504 0
2021-09-23 14:50:25 GMT 42.842861 -84.980293 32,000 262 504 0
2021-09-23 14:50:22 GMT 42.843338 -84.975609 32,000 262 504 0
2021-09-23 14:50:18 GMT 42.845051 -84.959633 32,000 262 504 0
2021-09-23 14:50:15 GMT 42.845856 -84.951782 32,000 262 504 0
2021-09-23 14:50:12 GMT 42.846680 -84.943993 32,000 262 504 0
2021-09-23 14:50:09 GMT 42.847961 -84.931725 32,000 262 504 0
2021-09-23 14:50:05 GMT 42.849426 -84.917908 32,000 262 504 0
2021-09-23 14:50:00 GMT 42.850754 -84.905411 32,000 262 504 0
2021-09-23 14:49:57 GMT 42.851715 -84.896278 32,000 262 503 0
2021-09-23 14:49:54 GMT 42.852905 -84.885353 32,000 262 503 64
2021-09-23 14:49:51 GMT 42.853729 -84.877495 32,000 262 503 0
2021-09-23 14:49:48 GMT 42.854874 -84.866577 32,000 262 503 0
2021-09-23 14:49:45 GMT 42.857059 -84.845909 32,000 262 503 0
2021-09-23 14:49:42 GMT 42.857059 -84.845909 32,000 262 503 -64
2021-09-23 14:49:38 GMT 42.858227 -84.834595 32,000 262 503 0
2021-09-23 14:49:34 GMT 42.859715 -84.820534 32,000 263 503 0
2021-09-23 14:49:31 GMT 42.860458 -84.813339 32,000 262 502 0
2021-09-23 14:49:28 GMT 42.861603 -84.802383 32,000 262 502 0
2021-09-23 14:49:23 GMT 42.862831 -84.790451 32,000 263 503 0
2021-09-23 14:49:20 GMT 42.864231 -84.776657 32,000 263 503 0
2021-09-23 14:49:17 GMT 42.865021 -84.769135 32,000 263 503 0
2021-09-23 14:49:14 GMT 42.865906 -84.760414 32,000 263 503 0
2021-09-23 14:49:11 GMT 42.867069 -84.749123 32,000 263 503 0
2021-09-23 14:49:05 GMT 42.868793 -84.732445 32,000 263 503 0
2021-09-23 14:49:02 GMT 42.869888 -84.721771 32,000 263 504 0
2021-09-23 14:48:59 GMT 42.870621 -84.714554 32,000 263 504 0
2021-09-23 14:48:56 GMT 42.871674 -84.704208 32,000 263 504 0
2021-09-23 14:48:52 GMT 42.873138 -84.690407 32,000 263 504 0
2021-09-23 14:48:48 GMT 42.874332 -84.678497 32,000 263 504 0
2021-09-23 14:48:45 GMT 42.875309 -84.669014 32,000 263 504 0
2021-09-23 14:48:42 GMT 42.876572 -84.657066 32,000 263 504 0
2021-09-23 14:48:38 GMT 42.877487 -84.647934 32,000 263 505 0
2021-09-23 14:48:35 GMT 42.878723 -84.635674 32,000 263 505 0
2021-09-23 14:48:32 GMT 42.879780 -84.625595 32,000 263 505 0
2021-09-23 14:48:28 GMT 42.881149 -84.612419 32,000 263 505 0
2021-09-23 14:48:24 GMT 42.882156 -84.602646 32,000 263 505 0
2021-09-23 14:48:19 GMT 42.884720 -84.577484 32,000 263 505 -64
2021-09-23 14:48:13 GMT 42.885643 -84.568047 32,000 263 504 -64
2021-09-23 14:48:10 GMT 42.888016 -84.545036 32,000 263 504 -64
2021-09-23 14:48:07 GMT 42.888016 -84.545036 32,000 263 504 -64
2021-09-23 14:48:00 GMT 42.889786 -84.528091 32,000 263 503 64
2021-09-23 14:47:57 GMT 42.890671 -84.519585 32,000 263 504 0
2021-09-23 14:47:53 GMT 42.891834 -84.507950 32,000 263 504 0
2021-09-23 14:47:49 GMT 42.893417 -84.492851 32,000 263 504 0
2021-09-23 14:47:45 GMT 42.894836 -84.479050 32,000 263 504 0
2021-09-23 14:47:42 GMT 42.896667 -84.461166 32,000 263 503 64
2021-09-23 14:47:39 GMT 42.896667 -84.461166 32,000 263 503 0
2021-09-23 14:47:35 GMT 42.898026 -84.448242 32,000 263 503 64
2021-09-23 14:47:31 GMT 42.899517 -84.433525 32,000 262 502 64
2021-09-23 14:47:27 GMT 42.900772 -84.421303 32,000 262 502 128
2021-09-23 14:47:24 GMT 42.901424 -84.415024 31,975 263 501 128
2021-09-23 14:47:19 GMT 42.903427 -84.395668 31,975 263 501 128
2021-09-23 14:47:14 GMT 42.904964 -84.380623 31,975 263 501 128
2021-09-23 14:47:08 GMT 42.906555 -84.364975 31,975 263 501 128
2021-09-23 14:47:05 GMT 42.907516 -84.355324 31,975 263 501 64
2021-09-23 14:47:01 GMT 42.908890 -84.341911 31,975 263 501 0
2021-09-23 14:46:58 GMT 42.909760 -84.333481 31,975 263 501 -64
2021-09-23 14:46:55 GMT 42.911087 -84.320007 32,000 263 502 -192
2021-09-23 14:46:51 GMT 42.911854 -84.312485 32,000 263 502 -256
2021-09-23 14:46:47 GMT 42.913055 -84.300591 32,050 263 503 -512
2021-09-23 14:46:44 GMT 42.913925 -84.291840 32,175 263 510 -960
2021-09-23 14:46:41 GMT 42.915070 -84.279831 32,100 263 507 -832
2021-09-23 14:46:38 GMT 42.917038 -84.259895 32,150 263 508 -832
2021-09-23 14:46:35 GMT 42.917038 -84.259895 32,200 263 510 -960
2021-09-23 14:46:31 GMT 42.918320 -84.246872 32,275 263 512 -960
2021-09-23 14:46:27 GMT 42.919674 -84.232834 32,325 263 513 -960
2021-09-23 14:46:23 GMT 42.920464 -84.224854 32,800 263 514 -960
2021-09-23 14:46:19 GMT 42.922325 -84.206215 32,450 263 515 -960
2021-09-23 14:46:16 GMT 42.922897 -84.200111 32,475 263 515 -960
2021-09-23 14:46:13 GMT 42.925644 -84.171814 32,675 263 516 -960
2021-09-23 14:46:07 GMT 42.925644 -84.171814 32,675 263 516 -960
2021-09-23 14:46:04 GMT 42.926888 -84.158607 32,700 263 516 -960
2021-09-23 14:46:01 GMT 42.927586 -84.151543 32,925 263 516 -960
2021-09-23 14:45:58 GMT 42.928391 -84.143135 32,775 263 517 -960
2021-09-23 14:45:55 GMT 42.929352 -84.133171 32,825 263 517 -960
2021-09-23 14:45:51 GMT 42.930588 -84.120590 32,875 263 517 -960
2021-09-23 14:45:48 GMT 42.931545 -84.110870 32,925 263 517 -960
2021-09-23 14:45:45 GMT 42.932476 -84.101517 32,975 263 518 -960
2021-09-23 14:45:42 GMT 42.934662 -84.079201 33,075 263 518 -960
2021-09-23 14:45:39 GMT 42.934662 -84.079201 33,075 263 519 -960
2021-09-23 14:45:36 GMT 42.935623 -84.069489 33,125 263 519 -960
2021-09-23 14:45:31 GMT 42.937363 -84.051353 33,225 263 520 -896
2021-09-23 14:45:28 GMT 42.938004 -84.044518 33,275 263 521 -896
2021-09-23 14:45:24 GMT 42.939148 -84.032829 33,300 263 521 -896
2021-09-23 14:45:21 GMT 42.940247 -84.021141 33,425 263 521 -896
2021-09-23 14:45:18 GMT 42.941254 -84.010727 33,400 263 521 -896
2021-09-23 14:45:14 GMT 42.942577 -83.997414 33,475 263 521 -896
2021-09-23 14:45:11 GMT 42.943043 -83.992180 33,525 263 520 -896
2021-09-23 14:45:08 GMT 42.944393 -83.978836 33,550 263 520 -896
2021-09-23 14:45:05 GMT 42.945557 -83.966805 33,600 263 520 -832
2021-09-23 14:45:02 GMT 42.946114 -83.961311 33,625 263 519 -832
2021-09-23 14:44:59 GMT 42.946999 -83.952225 33,650 263 518 -832
2021-09-23 14:44:57 GMT 42.947845 -83.943787 33,700 263 518 -832
2021-09-23 14:44:53 GMT 42.949421 -83.927635 33,750 263 517 -768
2021-09-23 14:44:50 GMT 42.949951 -83.922455 33,800 263 517 -768
2021-09-23 14:44:46 GMT 42.951370 -83.907951 33,825 263 516 -768
2021-09-23 14:44:43 GMT 42.952057 -83.900864 33,850 263 515 -704
2021-09-23 14:44:39 GMT 42.953247 -83.888664 33,900 263 514 -640
2021-09-23 14:44:35 GMT 42.954758 -83.873589 33,950 263 513 -512
2021-09-23 14:44:31 GMT 42.955845 -83.862694 33,975 263 512 -320
2021-09-23 14:44:28 GMT 42.956909 -83.851807 33,975 263 512 -128
2021-09-23 14:44:23 GMT 42.958546 -83.834183 33,975 263 510 64
2021-09-23 14:44:20 GMT 42.959656 -83.823067 33,975 262 510 64
2021-09-23 14:44:13 GMT 42.962128 -83.801224 33,975 260 507 -64
2021-09-23 14:44:09 GMT 42.965927 -83.774330 34,000 259 505 -256
2021-09-23 14:44:04 GMT 42.965927 -83.774330 34,025 258 504 -384
2021-09-23 14:44:01 GMT 42.967804 -83.762833 34,050 257 503 -704
2021-09-23 14:43:58 GMT 42.969067 -83.755775 34,075 255 502 -768
2021-09-23 14:43:55 GMT 42.970837 -83.746231 34,125 255 502 -768
2021-09-23 14:43:52 GMT 42.975174 -83.725273 34,225 254 501 -960
2021-09-23 14:43:47 GMT 42.975174 -83.725273 34,225 252 499 -960
2021-09-23 14:43:44 GMT 42.977646 -83.714096 34,275 252 499 -960
2021-09-23 14:43:40 GMT 42.980843 -83.700974 34,350 251 498 -960
2021-09-23 14:43:37 GMT 42.982613 -83.694176 34,400 250 497 -960
2021-09-23 14:43:34 GMT 42.985546 -83.683319 34,450 249 495 -960
2021-09-23 14:43:31 GMT 42.987854 -83.675194 34,500 249 495 -960
2021-09-23 14:43:27 GMT 42.991470 -83.662674 34,575 249 494 -960
2021-09-23 14:43:24 GMT 42.993973 -83.654022 34,625 249 494 -1024
2021-09-23 14:43:21 GMT 42.996437 -83.645584 34,650 249 493 -1024
2021-09-23 14:43:18 GMT 43.001980 -83.626488 34,750 249 493 -1024
2021-09-23 14:43:14 GMT 43.001980 -83.626488 34,800 249 493 -1024
2021-09-23 14:43:10 GMT 43.005238 -83.615242 34,850 249 493 -960
2021-09-23 14:43:06 GMT 43.008167 -83.605110 34,900 249 493 -1024
2021-09-23 14:43:03 GMT 43.012161 -83.591263 35,000 249 493 -1024
2021-09-23 14:43:00 GMT 43.013710 -83.585747 35,025 249 493 -1024
2021-09-23 14:42:57 GMT 43.019714 -83.564888 35,150 249 493 -960
2021-09-23 14:42:53 GMT 43.022461 -83.555275 35,150 249 494 -960
2021-09-23 14:42:50 GMT 43.022461 -83.555275 35,200 249 494 -1024
2021-09-23 14:42:46 GMT 43.025345 -83.545151 35,275 249 495 -960
2021-09-23 14:42:43 GMT 43.027863 -83.536400 35,325 249 497 -1024
2021-09-23 14:42:40 GMT 43.030289 -83.527969 35,475 249 497 -960
2021-09-23 14:42:37 GMT 43.033539 -83.516594 35,450 249 498 -960
2021-09-23 14:42:34 GMT 43.035961 -83.508125 35,450 249 498 -960
2021-09-23 14:42:29 GMT 43.040150 -83.493477 35,525 249 499 -960
2021-09-23 14:42:25 GMT 43.042946 -83.483864 35,600 249 500 -960
2021-09-23 14:42:18 GMT 43.048855 -83.463264 35,700 249 503 -960
2021-09-23 14:42:15 GMT 43.051464 -83.454109 35,750 249 503 -960
2021-09-23 14:42:08 GMT 43.057236 -83.434036 35,900 249 503 -960
2021-09-23 14:42:05 GMT 43.060776 -83.421616 35,925 249 503 -960
2021-09-23 14:41:58 GMT 43.065948 -83.403603 36,025 249 502 -960
2021-09-23 14:41:53 GMT 43.070343 -83.388275 36,100 249 501 -896
2021-09-23 14:41:47 GMT 43.074413 -83.374130 36,175 249 501 -960
2021-09-23 14:41:44 GMT 43.077255 -83.364128 36,325 249 501 -896
2021-09-23 14:41:41 GMT 43.079544 -83.356148 36,275 249 500 -960
2021-09-23 14:41:38 GMT 43.082794 -83.344711 36,350 249 500 -960
2021-09-23 14:41:35 GMT 43.085587 -83.335007 36,375 249 499 -960
2021-09-23 14:41:32 GMT 43.088013 -83.326508 36,425 249 499 -960
2021-09-23 14:41:27 GMT 43.092133 -83.312134 36,525 249 498 -960
2021-09-23 14:41:24 GMT 43.095062 -83.301918 36,575 249 498 -960
2021-09-23 14:41:20 GMT 43.097488 -83.293419 36,625 249 497 -960
2021-09-23 14:41:14 GMT 43.101883 -83.277962 36,700 249 495 -960
2021-09-23 14:41:11 GMT 43.105465 -83.265381 36,775 249 495 -960
2021-09-23 14:41:05 GMT 43.110397 -83.248245 36,875 249 494 -896
2021-09-23 14:41:01 GMT 43.113937 -83.235695 36,925 249 493 -960
2021-09-23 14:40:56 GMT 43.117519 -83.223267 37,075 249 493 -960
2021-09-23 14:40:53 GMT 43.120083 -83.214241 37,100 249 492 -960
2021-09-23 14:40:50 GMT 43.122456 -83.205872 37,100 249 492 -960
2021-09-23 14:40:45 GMT 43.126133 -83.192795 37,225 249 491 -960
2021-09-23 14:40:42 GMT 43.129669 -83.180367 37,250 249 491 -960
2021-09-23 14:40:39 GMT 43.130882 -83.176048 37,275 249 490 -960
2021-09-23 14:40:33 GMT 43.136536 -83.156158 37,350 249 490 -1024
2021-09-23 14:40:30 GMT 43.139511 -83.145744 37,450 249 489 -1024
2021-09-23 14:40:23 GMT 43.144455 -83.128502 37,550 249 488 -1024
2021-09-23 14:40:20 GMT 43.147980 -83.116173 37,625 249 488 -1024
2021-09-23 14:40:17 GMT 43.150177 -83.108376 37,675 249 488 -1088
2021-09-23 14:40:13 GMT 43.152992 -83.098625 37,725 249 488 -1152
2021-09-23 14:40:09 GMT 43.156670 -83.085678 37,875 249 487 -1216
2021-09-23 14:40:01 GMT 43.163086 -83.063026 37,950 249 487 -640
2021-09-23 14:39:57 GMT 43.165466 -83.054665 37,975 249 487 -576
2021-09-23 14:39:52 GMT 43.171005 -83.035118 38,000 249 488 -64
2021-09-23 14:39:48 GMT 43.172699 -83.029114 38,000 249 488 64
2021-09-23 14:39:45 GMT 43.175720 -83.018440 38,000 249 488 64
2021-09-23 14:39:42 GMT 43.178009 -83.010399 38,000 249 488 0
2021-09-23 14:39:39 GMT 43.180458 -83.001778 38,000 249 488 64
2021-09-23 14:39:36 GMT 43.183811 -82.990005 38,000 249 488 0
2021-09-23 14:39:33 GMT 43.185608 -82.983696 38,000 249 489 -64
2021-09-23 14:39:29 GMT 43.189270 -82.970734 38,000 249 489 0
2021-09-23 14:39:26 GMT 43.190598 -82.966133 38,000 249 488 0
2021-09-23 14:39:23 GMT 43.194168 -82.953484 38,000 249 488 0
2021-09-23 14:39:20 GMT 43.196777 -82.944283 38,000 249 488 0
2021-09-23 14:39:17 GMT 43.199295 -82.935341 38,000 249 489 0
2021-09-23 14:39:12 GMT 43.202454 -82.924103 38,000 249 489 0
2021-09-23 14:39:09 GMT 43.204834 -82.915733 38,000 250 490 -64
2021-09-23 14:39:06 GMT 43.208065 -82.904137 38,000 250 489 0
2021-09-23 14:39:03 GMT 43.210114 -82.896950 38,000 250 490 64
2021-09-23 14:38:59 GMT 43.213745 -82.883934 38,000 250 489 0
2021-09-23 14:38:55 GMT 43.216141 -82.875237 38,000 250 489 0
2021-09-23 14:38:51 GMT 43.219841 -82.861893 38,000 250 490 -64
2021-09-23 14:38:46 GMT 43.224380 -82.845406 38,000 250 490 -64
2021-09-23 14:38:40 GMT 43.228081 -82.832077 38,000 250 489 0
2021-09-23 14:38:36 GMT 43.236366 -82.802254 38,000 249 489 64
2021-09-23 14:38:31 GMT 43.236366 -82.802254 38,000 250 489 0
2021-09-23 14:38:28 GMT 43.238846 -82.793610 38,000 250 489 0
2021-09-23 14:38:24 GMT 43.240513 -82.787544 38,000 251 489 0
2021-09-23 14:38:19 GMT 43.244888 -82.770538 38,000 253 490 0
2021-09-23 14:38:14 GMT 43.251034 -82.742546 38,000 257 492 0
2021-09-23 14:38:09 GMT 43.251034 -82.742546 38,000 257 493 0
2021-09-23 14:38:05 GMT 43.253918 -82.727180 38,000 258 492 0
2021-09-23 14:38:00 GMT 43.256760 -82.709457 38,000 260 494 0
2021-09-23 14:37:54 GMT 43.258759 -82.694664 38,000 262 495 0
2021-09-23 14:37:48 GMT 43.260529 -82.678200 38,000 264 497 0
2021-09-23 14:37:43 GMT 43.262020 -82.659370 38,000 267 499 0
2021-09-23 14:37:39 GMT 43.262650 -82.647720 38,000 268 501 0
2021-09-23 14:37:36 GMT 43.262997 -82.634712 38,000 270 504 0
2021-09-23 14:37:33 GMT 43.263107 -82.628044 38,000 269 503 -64
2021-09-23 14:37:28 GMT 43.263321 -82.611824 38,000 269 503 -64
2021-09-23 14:37:25 GMT 43.263519 -82.595917 38,000 269 503 0
2021-09-23 14:37:22 GMT 43.263519 -82.595917 38,000 269 503 0
2021-09-23 14:37:18 GMT 43.263702 -82.581543 38,000 270 503 64
2021-09-23 14:37:15 GMT 43.263882 -82.570107 38,000 270 504 64
2021-09-23 14:37:12 GMT 43.263977 -82.560593 38,000 270 503 64
2021-09-23 14:37:08 GMT 43.264114 -82.547218 38,000 270 504 64
2021-09-23 14:37:05 GMT 43.264206 -82.538254 38,000 270 504 0
2021-09-23 14:37:02 GMT 43.264393 -82.521713 38,000 270 504 0
2021-09-23 14:36:56 GMT 43.264526 -82.512115 38,000 270 505 0
2021-09-23 14:36:52 GMT 43.264671 -82.499344 38,000 269 505 0
2021-09-23 14:36:49 GMT 43.264801 -82.489761 38,000 269 505 0
2021-09-23 14:36:45 GMT 43.264954 -82.476395 38,000 270 505 0
2021-09-23 14:36:41 GMT 43.265091 -82.463905 38,000 270 505 0
2021-09-23 14:36:34 GMT 43.265350 -82.438019 38,000 270 505 0
2021-09-23 14:36:31 GMT 43.265465 -82.427216 38,000 270 506 0
2021-09-23 14:36:26 GMT 43.265579 -82.414391 38,000 270 506 0
2021-09-23 14:36:20 GMT 43.265789 -82.398376 38,000 270 507 -64
2021-09-23 14:36:16 GMT 43.265976 -82.379150 38,000 270 507 0
2021-09-23 14:36:10 GMT 43.266129 -82.363159 38,000 270 508 0
2021-09-23 14:36:05 GMT 43.266357 -82.337418 38,000 270 508 -64
2021-09-23 14:36:02 GMT 43.266357 -82.337418 38,000 270 508 0
2021-09-23 14:35:58 GMT 43.266487 -82.322647 38,000 270 508 -64
2021-09-23 14:35:54 GMT 43.266582 -82.312706 38,000 270 508 0
2021-09-23 14:35:51 GMT 43.266769 -82.293091 38,000 270 508 -64
2021-09-23 14:35:45 GMT 43.266861 -82.280273 38,000 270 507 64
2021-09-23 14:35:42 GMT 43.266953 -82.272232 38,000 270 508 -64
2021-09-23 14:35:37 GMT 43.267048 -82.258369 38,000 270 507 64
2021-09-23 14:35:34 GMT 43.267139 -82.249077 38,000 270 509 0
2021-09-23 14:35:31 GMT 43.267372 -82.226974 38,000 270 507 64
2021-09-23 14:35:28 GMT 43.267372 -82.226974 38,000 270 507 64
2021-09-23 14:35:23 GMT 43.267548 -82.209930 38,000 270 508 0
2021-09-23 14:35:19 GMT 43.267593 -82.200279 38,000 270 508 0
2021-09-23 14:35:16 GMT 43.267685 -82.190956 38,000 270 508 0
2021-09-23 14:35:13 GMT 43.267792 -82.176491 38,000 270 509 0
2021-09-23 14:35:09 GMT 43.267883 -82.166550 38,000 270 508 0
2021-09-23 14:35:04 GMT 43.268005 -82.147903 38,000 270 509 0
2021-09-23 14:35:00 GMT 43.268070 -82.138237 38,000 270 509 0
2021-09-23 14:34:57 GMT 43.268166 -82.128952 38,000 270 509 0
2021-09-23 14:34:54 GMT 43.268211 -82.118294 38,000 270 509 0
2021-09-23 14:34:51 GMT 43.268349 -82.098999 38,000 270 509 0
2021-09-23 14:34:47 GMT 43.268349 -82.098999 38,000 270 509 0
2021-09-23 14:34:43 GMT 43.268463 -82.084221 38,000 270 509 0
2021-09-23 14:34:40 GMT 43.268536 -82.071991 38,000 270 509 0
2021-09-23 14:34:36 GMT 43.268627 -82.060745 38,000 270 508 0
2021-09-23 14:34:32 GMT 43.268723 -82.046227 38,000 270 509 0
2021-09-23 14:34:29 GMT 43.268768 -82.030792 38,000 270 509 0
2021-09-23 14:34:26 GMT 43.268768 -82.030792 38,000 270 509 0
2021-09-23 14:34:23 GMT 43.268864 -82.021111 38,000 270 509 0
2021-09-23 14:34:20 GMT 43.268909 -82.007904 38,000 270 509 0
2021-09-23 14:34:17 GMT 43.269001 -81.997963 38,000 270 509 0
2021-09-23 14:34:12 GMT 43.269047 -81.986061 38,000 270 508 0
2021-09-23 14:34:09 GMT 43.269142 -81.971283 38,000 270 508 0
2021-09-23 14:34:06 GMT 43.269241 -81.950027 38,000 270 507 0
2021-09-23 14:34:02 GMT 43.269333 -81.940125 38,000 270 507 0
2021-09-23 14:33:58 GMT 43.269333 -81.940125 38,000 270 507 0
2021-09-23 14:33:55 GMT 43.269375 -81.930473 38,000 270 507 0
2021-09-23 14:33:51 GMT 43.269470 -81.917000 38,000 270 507 0
2021-09-23 14:33:48 GMT 43.269512 -81.907394 38,000 270 507 0
2021-09-23 14:33:45 GMT 43.269562 -81.895859 38,000 270 507 64
2021-09-23 14:33:40 GMT 43.269699 -81.879860 38,000 270 506 64
2021-09-23 14:33:36 GMT 43.269745 -81.870247 38,000 270 506 0
2021-09-23 14:33:32 GMT 43.269836 -81.853889 38,000 270 506 -64
2021-09-23 14:33:28 GMT 43.269882 -81.842079 38,000 270 506 0
2021-09-23 14:33:25 GMT 43.269978 -81.831139 38,000 270 506 64
2021-09-23 14:33:18 GMT 43.270065 -81.809120 38,000 270 505 0
2021-09-23 14:33:15 GMT 43.270119 -81.799553 38,000 270 505 0
2021-09-23 14:33:09 GMT 43.270210 -81.779091 38,000 270 505 0
2021-09-23 14:33:06 GMT 43.270260 -81.773331 38,000 270 505 0
2021-09-23 14:33:03 GMT 43.270306 -81.764046 38,000 270 505 0
2021-09-23 14:33:00 GMT 43.270306 -81.754829 38,000 270 504 -64
2021-09-23 14:32:57 GMT 43.270340 -81.742691 38,000 270 503 0
2021-09-23 14:32:54 GMT 43.270386 -81.730293 38,000 270 503 0
2021-09-23 14:32:50 GMT 43.270432 -81.721672 38,000 270 500 -128
2021-09-23 14:32:44 GMT 43.270477 -81.700401 38,000 270 502 0
2021-09-23 14:32:41 GMT 43.270523 -81.689926 38,000 270 500 128
2021-09-23 14:32:37 GMT 43.270630 -81.663925 38,000 270 501 64
2021-09-23 14:32:33 GMT 43.270630 -81.663925 38,000 270 500 128
2021-09-23 14:32:27 GMT 43.270725 -81.647774 38,000 270 500 -128
2021-09-23 14:32:22 GMT 43.270798 -81.633270 38,000 270 500 0
2021-09-23 14:32:18 GMT 43.270935 -81.608620 38,000 270 499 64
2021-09-23 14:32:15 GMT 43.270935 -81.608620 38,000 270 499 0
2021-09-23 14:32:11 GMT 43.271027 -81.598846 38,000 270 499 0
2021-09-23 14:32:08 GMT 43.271095 -81.577080 38,000 270 499 0
2021-09-23 14:32:04 GMT 43.271095 -81.577080 38,000 270 498 0
2021-09-23 14:32:01 GMT 43.271145 -81.566032 38,000 270 498 -64
2021-09-23 14:31:57 GMT 43.271191 -81.554649 38,000 270 498 64
2021-09-23 14:31:54 GMT 43.271210 -81.545189 38,000 270 499 0
2021-09-23 14:31:51 GMT 43.271255 -81.521240 38,000 270 499 64
2021-09-23 14:31:47 GMT 43.271236 -81.508354 38,000 271 499 0
2021-09-23 14:31:43 GMT 43.271236 -81.508354 38,000 270 499 0
2021-09-23 14:31:39 GMT 43.271210 -81.499840 38,000 270 499 0
2021-09-23 14:31:36 GMT 43.271236 -81.489059 38,000 270 499 0
2021-09-23 14:31:33 GMT 43.271255 -81.479019 38,000 270 498 0
2021-09-23 14:31:30 GMT 43.271301 -81.465096 38,000 270 498 0
2021-09-23 14:31:26 GMT 43.271328 -81.455971 38,000 270 498 0
2021-09-23 14:31:23 GMT 43.271378 -81.447472 38,000 270 498 0
2021-09-23 14:31:20 GMT 43.271439 -81.434242 38,000 270 498 -64
2021-09-23 14:31:16 GMT 43.271515 -81.413795 38,000 270 498 0
2021-09-23 14:31:13 GMT 43.271515 -81.413795 38,000 270 498 64
2021-09-23 14:31:08 GMT 43.271530 -81.395531 38,000 270 498 0
2021-09-23 14:31:05 GMT 43.271530 -81.390167 38,000 270 498 0
2021-09-23 14:31:02 GMT 43.271515 -81.380379 38,000 270 498 0
2021-09-23 14:30:58 GMT 43.271530 -81.366531 38,000 270 498 0
2021-09-23 14:30:54 GMT 43.271530 -81.347626 38,000 270 498 0
2021-09-23 14:30:48 GMT 43.271530 -81.337219 38,000 270 498 -64
2021-09-23 14:30:45 GMT 43.271561 -81.324593 38,000 270 498 0
2021-09-23 14:30:41 GMT 43.271576 -81.316071 38,000 270 498 -64
2021-09-23 14:30:37 GMT 43.271561 -81.299416 38,000 270 498 0
2021-09-23 14:30:34 GMT 43.271610 -81.293137 38,000 270 498 0
2021-09-23 14:30:30 GMT 43.271576 -81.281136 38,000 270 498 0
2021-09-23 14:30:26 GMT 43.271576 -81.265038 38,000 271 499 0
2021-09-23 14:30:23 GMT 43.271576 -81.250542 38,000 271 499 0
2021-09-23 14:30:17 GMT 43.271530 -81.227867 38,000 271 499 0
2021-09-23 14:30:14 GMT 43.271530 -81.227867 38,000 271 499 0
2021-09-23 14:30:11 GMT 43.271515 -81.218719 38,000 271 499 0
2021-09-23 14:30:07 GMT 43.271484 -81.205444 38,000 271 499 0
2021-09-23 14:30:04 GMT 43.271469 -81.198509 38,000 271 499 0
2021-09-23 14:30:00 GMT 43.271484 -81.184624 38,000 271 499 0
2021-09-23 14:29:54 GMT 43.271423 -81.166008 38,000 271 498 0
2021-09-23 14:29:50 GMT 43.271393 -81.152107 38,000 271 498 0
2021-09-23 14:29:46 GMT 43.271393 -81.139847 38,000 271 498 0
2021-09-23 14:29:42 GMT 43.271393 -81.129433 38,000 271 498 0
2021-09-23 14:29:38 GMT 43.271347 -81.116852 38,000 271 498 0
2021-09-23 14:29:35 GMT 43.271347 -81.106438 38,000 271 497 0
2021-09-23 14:29:32 GMT 43.271347 -81.096733 38,000 271 497 0
2021-09-23 14:29:29 GMT 43.271328 -81.087273 38,000 271 497 0
2021-09-23 14:29:25 GMT 43.271301 -81.074692 38,000 271 497 0
2021-09-23 14:29:22 GMT 43.271282 -81.063995 38,000 271 497 0
2021-09-23 14:29:19 GMT 43.271255 -81.054573 38,000 271 497 0
2021-09-23 14:29:14 GMT 43.271236 -81.039536 38,000 270 496 0
2021-09-23 14:29:11 GMT 43.271255 -81.031960 38,000 270 496 0
2021-09-23 14:29:08 GMT 43.271255 -81.022255 38,000 270 496 0
2021-09-23 14:29:05 GMT 43.271255 -81.008141 38,000 270 496 0
2021-09-23 14:29:01 GMT 43.271210 -80.988335 38,000 271 496 0
2021-09-23 14:28:57 GMT 43.271210 -80.988335 38,000 271 496 0
2021-09-23 14:28:54 GMT 43.271191 -80.976433 38,000 271 497 0
2021-09-23 14:28:51 GMT 43.271191 -80.966690 38,000 271 497 0
2021-09-23 14:28:48 GMT 43.271145 -80.956352 38,000 271 497 0
2021-09-23 14:28:43 GMT 43.271072 -80.934685 38,000 271 497 64
2021-09-23 14:28:40 GMT 43.271072 -80.923698 38,000 271 497 0
2021-09-23 14:28:37 GMT 43.271072 -80.923698 38,000 271 497 0
2021-09-23 14:28:33 GMT 43.271004 -80.910446 38,000 271 497 0
2021-09-23 14:28:29 GMT 43.271004 -80.901031 38,000 271 497 64
2021-09-23 14:28:26 GMT 43.270958 -80.888474 38,000 271 498 0
2021-09-23 14:28:22 GMT 43.270935 -80.877129 38,000 271 498 0
2021-09-23 14:28:19 GMT 43.270908 -80.865784 38,000 271 498 0
2021-09-23 14:28:16 GMT 43.270889 -80.859184 38,000 271 498 0
2021-09-23 14:28:13 GMT 43.270863 -80.845970 38,000 271 498 0
2021-09-23 14:28:10 GMT 43.270817 -80.826416 38,000 271 498 64
2021-09-23 14:28:07 GMT 43.270798 -80.818237 38,000 271 498 0
2021-09-23 14:28:04 GMT 43.270798 -80.818237 38,000 271 498 0
2021-09-23 14:28:01 GMT 43.270771 -80.809410 38,000 271 498 0
2021-09-23 14:27:58 GMT 43.270752 -80.798119 38,000 271 498 0
2021-09-23 14:27:55 GMT 43.270725 -80.793388 38,000 271 498 0
2021-09-23 14:27:52 GMT 43.270676 -80.780441 38,000 271 498 0
2021-09-23 14:27:49 GMT 43.270630 -80.770699 38,000 271 498 0
2021-09-23 14:27:46 GMT 43.270615 -80.762794 38,000 271 498 0
2021-09-23 14:27:43 GMT 43.270569 -80.756157 38,000 271 498 0
2021-09-23 14:27:40 GMT 43.270493 -80.731270 38,000 271 499 0
2021-09-23 14:27:37 GMT 43.270493 -80.731270 38,000 271 499 0
2021-09-23 14:27:34 GMT 43.270432 -80.726517 38,000 271 499 0
2021-09-23 14:27:31 GMT 43.270386 -80.715210 38,000 271 499 0
2021-09-23 14:27:28 GMT 43.270397 -80.709160 38,000 271 500 0
2021-09-23 14:27:25 GMT 43.270248 -80.682320 38,000 271 500 0
2021-09-23 14:27:21 GMT 43.270248 -80.682320 38,000 271 500 0
2021-09-23 14:27:17 GMT 43.270210 -80.672218 38,000 271 500 0
2021-09-23 14:27:14 GMT 43.270157 -80.662773 38,000 271 502 0
2021-09-23 14:27:10 GMT 43.270119 -80.647560 38,000 271 501 0
2021-09-23 14:27:06 GMT 43.270020 -80.629494 38,000 271 502 0
2021-09-23 14:27:03 GMT 43.270020 -80.629494 38,000 271 502 0
2021-09-23 14:27:00 GMT 43.269974 -80.616463 38,000 271 502 0
2021-09-23 14:26:57 GMT 43.269928 -80.607262 38,000 271 502 0
2021-09-23 14:26:54 GMT 43.269836 -80.595512 38,000 271 504 0
2021-09-23 14:26:49 GMT 43.269745 -80.579941 38,000 271 503 0
2021-09-23 14:26:46 GMT 43.269699 -80.570396 38,000 271 504 0
2021-09-23 14:26:43 GMT 43.269653 -80.557381 38,000 271 504 0
2021-09-23 14:26:40 GMT 43.269653 -80.557381 38,000 271 504 0
2021-09-23 14:26:37 GMT 43.269562 -80.544960 38,000 271 504 0
2021-09-23 14:26:34 GMT 43.269421 -80.531548 38,000 271 505 -64
2021-09-23 14:26:31 GMT 43.269375 -80.525139 38,000 271 505 -64
2021-09-23 14:26:27 GMT 43.269241 -80.509857 38,000 271 505 0
2021-09-23 14:26:24 GMT 43.269234 -80.503433 38,000 271 506 0
2021-09-23 14:26:21 GMT 43.269142 -80.490944 38,000 271 506 0
2021-09-23 14:26:16 GMT 43.269058 -80.477539 38,000 271 506 0
2021-09-23 14:26:13 GMT 43.269001 -80.470146 38,000 271 507 64
2021-09-23 14:26:10 GMT 43.268909 -80.457657 38,000 271 507 64
2021-09-23 14:26:07 GMT 43.268864 -80.450920 38,000 271 508 64
2021-09-23 14:26:04 GMT 43.268784 -80.441322 38,000 271 508 0
2021-09-23 14:26:01 GMT 43.268692 -80.429436 38,000 271 509 -64
2021-09-23 14:25:57 GMT 43.268600 -80.414299 38,000 271 509 -64
2021-09-23 14:25:54 GMT 43.268536 -80.404617 38,000 271 509 0
2021-09-23 14:25:50 GMT 43.268444 -80.392715 38,000 271 509 0
2021-09-23 14:25:46 GMT 43.268349 -80.383369 38,000 271 509 0
2021-09-23 14:25:43 GMT 43.268257 -80.373428 38,000 271 509 64
2021-09-23 14:25:40 GMT 43.268166 -80.361458 38,000 271 509 0
2021-09-23 14:25:37 GMT 43.268097 -80.350494 38,000 271 509 0
2021-09-23 14:25:33 GMT 43.268005 -80.339569 38,000 271 509 -64
2021-09-23 14:25:29 GMT 43.267868 -80.326027 38,000 271 509 0
2021-09-23 14:25:26 GMT 43.267792 -80.317970 38,000 271 509 0
2021-09-23 14:25:23 GMT 43.267685 -80.305779 38,000 271 509 0
2021-09-23 14:25:19 GMT 43.267593 -80.293198 38,000 271 508 64
2021-09-23 14:25:14 GMT 43.267464 -80.278084 38,000 271 508 0
2021-09-23 14:25:11 GMT 43.267410 -80.270073 38,000 271 508 0
2021-09-23 14:25:08 GMT 43.267319 -80.258835 38,000 271 507 0
2021-09-23 14:25:04 GMT 43.267139 -80.239235 38,000 271 507 0
2021-09-23 14:25:01 GMT 43.267139 -80.239235 38,000 271 507 0
2021-09-23 14:24:58 GMT 43.267044 -80.224533 38,000 271 506 0
2021-09-23 14:24:54 GMT 43.266907 -80.212654 38,000 271 506 0
2021-09-23 14:24:51 GMT 43.266861 -80.203072 38,000 271 506 0
2021-09-23 14:24:47 GMT 43.266720 -80.189339 38,000 271 505 0
2021-09-23 14:24:43 GMT 43.266632 -80.179756 38,000 271 505 0
2021-09-23 14:24:40 GMT 43.266541 -80.170494 38,000 271 505 0
2021-09-23 14:24:37 GMT 43.266396 -80.157692 38,000 271 505 0
2021-09-23 14:24:33 GMT 43.266300 -80.147812 38,000 271 505 0
2021-09-23 14:24:30 GMT 43.266209 -80.138527 38,000 271 505 0
2021-09-23 14:24:27 GMT 43.266113 -80.130547 38,000 271 505 0
2021-09-23 14:24:24 GMT 43.266022 -80.120613 38,000 271 505 0
2021-09-23 14:24:21 GMT 43.265854 -80.106560 38,000 271 505 0
2021-09-23 14:24:18 GMT 43.265789 -80.098900 38,000 271 505 0
2021-09-23 14:24:15 GMT 43.265671 -80.088348 38,000 271 505 0
2021-09-23 14:24:11 GMT 43.265511 -80.074898 38,000 271 505 0
2021-09-23 14:24:08 GMT 43.265465 -80.066330 38,000 271 505 0
2021-09-23 14:24:04 GMT 43.265350 -80.055458 38,000 271 505 0
2021-09-23 14:23:59 GMT 43.265121 -80.036934 38,000 271 504 0
2021-09-23 14:23:56 GMT 43.265076 -80.031181 38,000 271 504 0
2021-09-23 14:23:53 GMT 43.264954 -80.021599 38,000 271 503 0
2021-09-23 14:23:50 GMT 43.264801 -80.007614 38,000 271 503 0
2021-09-23 14:23:47 GMT 43.264671 -79.995834 38,000 271 502 0
2021-09-23 14:23:43 GMT 43.264580 -79.986946 38,000 271 502 0
2021-09-23 14:23:39 GMT 43.264347 -79.964119 38,000 271 501 0
2021-09-23 14:23:36 GMT 43.264347 -79.964119 38,000 271 500 0
2021-09-23 14:23:31 GMT 43.264160 -79.947380 38,000 271 499 0
2021-09-23 14:23:28 GMT 43.264023 -79.937866 38,000 271 498 0
2021-09-23 14:23:25 GMT 43.263973 -79.931618 38,000 271 498 0
2021-09-23 14:23:20 GMT 43.263794 -79.913979 38,000 271 497 0
2021-09-23 14:23:17 GMT 43.263695 -79.906441 38,000 271 496 0
2021-09-23 14:23:14 GMT 43.263603 -79.894211 38,000 271 496 0
2021-09-23 14:23:11 GMT 43.263474 -79.884789 38,000 271 496 0
2021-09-23 14:23:08 GMT 43.263382 -79.876930 38,000 271 495 0
2021-09-23 14:23:05 GMT 43.263290 -79.866898 38,000 272 495 0
2021-09-23 14:23:00 GMT 43.262951 -79.843071 38,000 272 495 0
2021-09-23 14:22:57 GMT 43.262951 -79.843071 38,000 272 495 0
2021-09-23 14:22:54 GMT 43.262856 -79.834053 38,000 272 495 0
2021-09-23 14:22:51 GMT 43.262577 -79.813316 38,000 272 495 0
2021-09-23 14:22:48 GMT 43.262421 -79.801430 38,000 272 495 0
2021-09-23 14:22:45 GMT 43.262421 -79.801430 38,000 272 495 0
2021-09-23 14:22:42 GMT 43.262203 -79.785133 38,000 272 495 64
2021-09-23 14:22:39 GMT 43.262203 -79.785133 38,000 272 495 64
2021-09-23 14:22:36 GMT 43.262066 -79.776108 38,000 272 495 0
2021-09-23 14:22:32 GMT 43.261871 -79.762917 38,000 272 495 0
2021-09-23 14:22:29 GMT 43.261600 -79.740669 38,000 272 495 0
2021-09-23 14:22:25 GMT 43.261600 -79.740669 38,000 272 495 64
2021-09-23 14:22:19 GMT 43.261318 -79.723137 38,000 272 496 0
2021-09-23 14:22:16 GMT 43.261185 -79.711876 38,000 272 496 0
2021-09-23 14:22:12 GMT 43.261089 -79.704048 38,000 271 495 64
2021-09-23 14:22:09 GMT 43.260857 -79.683380 38,000 271 495 0
2021-09-23 14:22:06 GMT 43.260857 -79.683380 38,000 271 495 0
2021-09-23 14:22:03 GMT 43.260715 -79.673637 38,000 272 495 -64
2021-09-23 14:22:00 GMT 43.260590 -79.664230 38,000 272 495 0
2021-09-23 14:21:57 GMT 43.260437 -79.652969 38,000 272 495 0
2021-09-23 14:21:53 GMT 43.260296 -79.641396 38,000 272 494 0
2021-09-23 14:21:49 GMT 43.260159 -79.631721 38,000 272 493 0
2021-09-23 14:21:46 GMT 43.259926 -79.617661 38,000 272 493 0
2021-09-23 14:21:43 GMT 43.259811 -79.609550 38,000 272 493 0
2021-09-23 14:21:39 GMT 43.259720 -79.600800 38,000 272 493 0
2021-09-23 14:21:36 GMT 43.259445 -79.580872 38,000 272 492 0
2021-09-23 14:21:33 GMT 43.259445 -79.580872 38,000 272 492 0
2021-09-23 14:21:30 GMT 43.259274 -79.569069 38,000 272 492 0
2021-09-23 14:21:25 GMT 43.259041 -79.553833 38,000 272 492 0
2021-09-23 14:21:21 GMT 43.258900 -79.542915 38,000 272 491 0
2021-09-23 14:21:18 GMT 43.258759 -79.532394 38,000 272 491 0
2021-09-23 14:21:15 GMT 43.258575 -79.520256 38,000 272 491 0
2021-09-23 14:21:12 GMT 43.258530 -79.515274 38,000 272 491 0
2021-09-23 14:21:09 GMT 43.258389 -79.505966 38,000 272 491 0
2021-09-23 14:21:06 GMT 43.258209 -79.493561 38,000 272 490 0
2021-09-23 14:21:03 GMT 43.258106 -79.487389 38,000 272 490 0
2021-09-23 14:21:00 GMT 43.258015 -79.479019 38,000 272 490 0
2021-09-23 14:20:56 GMT 43.257736 -79.462608 38,000 272 490 0
2021-09-23 14:20:53 GMT 43.257660 -79.456383 38,000 272 490 0
2021-09-23 14:20:50 GMT 43.257504 -79.446457 38,000 272 489 0
2021-09-23 14:20:47 GMT 43.257317 -79.436905 38,000 272 490 0
2021-09-23 14:20:44 GMT 43.256992 -79.416763 38,000 272 489 0
2021-09-23 14:20:41 GMT 43.256992 -79.416763 38,000 272 489 0
2021-09-23 14:20:38 GMT 43.256897 -79.409637 38,000 272 489 0
2021-09-23 14:20:35 GMT 43.256699 -79.398514 38,000 272 489 0
2021-09-23 14:20:32 GMT 43.256561 -79.390785 38,000 272 489 0
2021-09-23 14:20:29 GMT 43.256432 -79.381516 38,000 272 489 0
2021-09-23 14:20:26 GMT 43.256241 -79.370026 38,000 272 490 0
2021-09-23 14:20:23 GMT 43.256058 -79.360123 38,000 272 490 0
2021-09-23 14:20:20 GMT 43.255966 -79.352417 38,000 272 490 0
2021-09-23 14:20:17 GMT 43.255829 -79.344345 38,000 272 490 0
2021-09-23 14:20:13 GMT 43.255547 -79.328545 38,000 272 490 0
2021-09-23 14:20:10 GMT 43.255409 -79.319588 38,000 272 490 0
2021-09-23 14:20:07 GMT 43.255280 -79.313690 38,000 272 490 0
2021-09-23 14:20:04 GMT 43.255096 -79.302826 38,000 272 491 0
2021-09-23 14:20:01 GMT 43.254990 -79.295395 38,000 272 491 0
2021-09-23 14:19:58 GMT 43.254822 -79.286415 38,000 272 491 0
2021-09-23 14:19:55 GMT 43.254570 -79.273682 38,000 272 493 0
2021-09-23 14:19:52 GMT 43.254433 -79.265572 38,000 272 492 0
2021-09-23 14:19:49 GMT 43.253963 -79.239090 38,000 272 493 0
2021-09-23 14:19:44 GMT 43.253963 -79.239090 38,000 272 493 -64
2021-09-23 14:19:41 GMT 43.253860 -79.231293 38,000 272 493 0
2021-09-23 14:19:38 GMT 43.253685 -79.223198 38,000 272 493 0
2021-09-23 14:19:35 GMT 43.253548 -79.214172 38,000 272 493 0
2021-09-23 14:19:32 GMT 43.253357 -79.204849 38,000 272 494 0
2021-09-23 14:19:28 GMT 43.253128 -79.191086 38,000 272 494 0
2021-09-23 14:19:24 GMT 43.252941 -79.180756 38,000 272 494 0
2021-09-23 14:19:21 GMT 43.252716 -79.168312 38,000 272 494 0
2021-09-23 14:19:18 GMT 43.252567 -79.159897 38,000 272 494 0
2021-09-23 14:19:15 GMT 43.252441 -79.152344 38,000 272 494 0
2021-09-23 14:19:12 GMT 43.252243 -79.141129 38,000 272 495 0
2021-09-23 14:19:09 GMT 43.252029 -79.131134 38,000 272 495 0
2021-09-23 14:19:06 GMT 43.251617 -79.109230 38,000 272 495 0
2021-09-23 14:19:02 GMT 43.251617 -79.109230 38,000 272 495 0
2021-09-23 14:18:58 GMT 43.251358 -79.096069 38,000 272 495 0
2021-09-23 14:18:55 GMT 43.251221 -79.087631 38,000 272 495 0
2021-09-23 14:18:50 GMT 43.250977 -79.075119 38,000 272 495 0
2021-09-23 14:18:47 GMT 43.250702 -79.060364 38,000 272 495 0
2021-09-23 14:18:42 GMT 43.250427 -79.046631 38,000 272 495 0
2021-09-23 14:18:39 GMT 43.250286 -79.038780 38,000 272 495 0
2021-09-23 14:18:36 GMT 43.250099 -79.029037 38,000 272 495 0
2021-09-23 14:18:32 GMT 43.249786 -79.013733 38,000 272 495 0
2021-09-23 14:18:29 GMT 43.249649 -79.006203 38,000 272 495 64
2021-09-23 14:18:26 GMT 43.249420 -78.994957 38,000 272 495 0
2021-09-23 14:18:22 GMT 43.249237 -78.985825 38,000 272 495 0
2021-09-23 14:18:18 GMT 43.248940 -78.971428 38,000 272 495 0
2021-09-23 14:18:15 GMT 43.248844 -78.965149 38,000 272 495 0
2021-09-23 14:18:11 GMT 43.248505 -78.950439 38,000 272 495 0
2021-09-23 14:18:08 GMT 43.248322 -78.941048 38,000 272 495 0
2021-09-23 14:18:05 GMT 43.248146 -78.932320 38,000 272 495 0
2021-09-23 14:18:02 GMT 43.247910 -78.919777 38,000 272 495 0
2021-09-23 14:17:59 GMT 43.247772 -78.911987 38,000 272 495 0
2021-09-23 14:17:56 GMT 43.247406 -78.894165 38,000 272 495 0
2021-09-23 14:17:53 GMT 43.247406 -78.894165 38,000 272 494 0
2021-09-23 14:17:48 GMT 43.247074 -78.878242 38,000 272 494 0
2021-09-23 14:17:45 GMT 43.246857 -78.866318 38,000 272 494 0
2021-09-23 14:17:42 GMT 43.246719 -78.860123 38,000 272 494 0
2021-09-23 14:17:39 GMT 43.246490 -78.848557 38,000 272 494 0
2021-09-23 14:17:36 GMT 43.246353 -78.841980 38,000 272 494 0
2021-09-23 14:17:33 GMT 43.246170 -78.832909 38,000 272 493 0
2021-09-23 14:17:30 GMT 43.245941 -78.823265 38,000 272 493 0
2021-09-23 14:17:26 GMT 43.245632 -78.808922 38,000 272 493 0
2021-09-23 14:17:22 GMT 43.245399 -78.796104 38,000 272 493 -64
2021-09-23 14:17:19 GMT 43.245163 -78.785515 38,000 272 493 0
2021-09-23 14:17:16 GMT 43.244980 -78.777718 38,000 272 493 0
2021-09-23 14:17:13 GMT 43.244747 -78.767136 38,000 272 493 0
2021-09-23 14:17:10 GMT 43.244560 -78.757454 38,000 272 493 0
2021-09-23 14:17:07 GMT 43.244385 -78.749680 38,000 272 493 0
2021-09-23 14:17:04 GMT 43.244236 -78.744049 38,000 272 493 0
2021-09-23 14:17:01 GMT 43.243973 -78.731606 38,000 272 493 0
2021-09-23 14:16:58 GMT 43.243790 -78.723495 38,000 272 493 0
2021-09-23 14:16:55 GMT 43.243561 -78.712570 38,000 272 493 0
2021-09-23 14:16:52 GMT 43.243164 -78.694809 38,000 272 493 0
2021-09-23 14:16:49 GMT 43.242920 -78.683891 38,000 272 493 0
2021-09-23 14:16:46 GMT 43.242920 -78.683891 38,000 272 493 0
2021-09-23 14:16:42 GMT 43.242645 -78.673668 38,000 272 493 64
2021-09-23 14:16:39 GMT 43.242416 -78.662750 38,000 272 493 0
2021-09-23 14:16:35 GMT 43.242142 -78.649971 38,000 272 493 0
2021-09-23 14:16:32 GMT 43.241909 -78.641251 38,000 272 493 0
2021-09-23 14:16:29 GMT 43.241776 -78.634392 38,000 272 493 0
2021-09-23 14:16:26 GMT 43.241592 -78.625633 38,000 272 493 0
2021-09-23 14:16:23 GMT 43.241318 -78.613754 38,000 272 493 0
2021-09-23 14:16:20 GMT 43.241070 -78.603516 38,000 272 493 0
2021-09-23 14:16:17 GMT 43.240791 -78.592270 38,000 272 493 0
2021-09-23 14:16:14 GMT 43.240650 -78.584816 38,000 272 493 0
2021-09-23 14:16:11 GMT 43.240417 -78.575722 38,000 272 493 0
2021-09-23 14:16:08 GMT 43.240185 -78.565453 38,000 272 493 0
2021-09-23 14:16:05 GMT 43.239952 -78.555779 38,000 272 493 0
2021-09-23 14:16:02 GMT 43.239532 -78.536217 38,000 272 492 0
2021-09-23 14:15:59 GMT 43.239532 -78.536217 38,000 272 492 0
2021-09-23 14:15:56 GMT 43.239395 -78.531517 38,000 272 492 0
2021-09-23 14:15:53 GMT 43.239117 -78.519417 38,000 272 492 0
2021-09-23 14:15:50 GMT 43.238743 -78.503853 38,000 272 492 0
2021-09-23 14:15:47 GMT 43.238743 -78.503853 38,000 272 492 0
2021-09-23 14:15:44 GMT 43.238388 -78.489525 38,000 272 492 0
2021-09-23 14:15:40 GMT 43.238136 -78.478935 38,000 272 492 0
2021-09-23 14:15:37 GMT 43.237930 -78.471191 38,000 272 492 0
2021-09-23 14:15:33 GMT 43.237335 -78.446281 38,000 272 492 0
2021-09-23 14:15:30 GMT 43.237335 -78.446281 38,000 272 492 0
2021-09-23 14:15:26 GMT 43.237061 -78.436630 38,000 272 492 0
2021-09-23 14:15:23 GMT 43.236835 -78.426033 38,000 272 492 0
2021-09-23 14:15:20 GMT 43.236649 -78.418320 38,000 272 492 0
2021-09-23 14:15:17 GMT 43.236137 -78.399284 38,000 272 492 0
2021-09-23 14:15:14 GMT 43.236137 -78.399284 38,000 272 492 0
2021-09-23 14:15:11 GMT 43.235870 -78.388092 38,000 272 492 0
2021-09-23 14:15:07 GMT 43.235596 -78.377228 38,000 272 491 0
2021-09-23 14:15:04 GMT 43.235138 -78.358261 38,000 272 491 0
2021-09-23 14:15:01 GMT 43.235138 -78.358261 38,000 272 491 0
2021-09-23 14:14:57 GMT 43.234772 -78.344337 38,000 272 491 0
2021-09-23 14:14:54 GMT 43.234543 -78.334694 38,000 272 491 0
2021-09-23 14:14:51 GMT 43.234322 -78.326637 38,000 272 491 0
2021-09-23 14:14:48 GMT 43.234085 -78.317635 38,000 272 491 0
2021-09-23 14:14:45 GMT 43.233856 -78.308632 38,000 272 491 0
2021-09-23 14:14:42 GMT 43.233582 -78.298409 38,000 272 491 0
2021-09-23 14:14:39 GMT 43.233341 -78.289101 38,000 272 490 0
2021-09-23 14:14:36 GMT 43.233154 -78.281319 38,000 272 490 0
2021-09-23 14:14:33 GMT 43.232876 -78.270462 38,000 272 490 0
2021-09-23 14:14:29 GMT 43.232574 -78.258743 38,000 272 490 0
2021-09-23 14:14:26 GMT 43.232040 -78.238876 38,000 272 490 0
2021-09-23 14:14:23 GMT 43.232040 -78.238876 38,000 273 490 0
2021-09-23 14:14:19 GMT 43.231522 -78.219398 38,000 273 490 0
2021-09-23 14:14:16 GMT 43.231522 -78.219398 38,000 273 490 0
2021-09-23 14:14:13 GMT 43.231293 -78.210098 38,000 273 490 0
2021-09-23 14:14:10 GMT 43.231110 -78.202026 38,000 273 490 0
2021-09-23 14:14:06 GMT 43.230644 -78.185318 38,000 273 490 0
2021-09-23 14:14:03 GMT 43.230412 -78.176353 38,000 273 490 0
2021-09-23 14:14:00 GMT 43.230240 -78.170151 38,000 273 490 0
2021-09-23 14:13:57 GMT 43.229759 -78.152817 38,000 273 490 0
2021-09-23 14:13:54 GMT 43.229759 -78.152817 38,000 273 490 0
2021-09-23 14:13:50 GMT 43.229340 -78.136726 38,000 273 490 0
2021-09-23 14:13:47 GMT 43.229141 -78.129913 38,000 273 490 0
2021-09-23 14:13:44 GMT 43.228958 -78.121864 38,000 273 490 0
2021-09-23 14:13:41 GMT 43.228359 -78.100433 38,000 273 491 0
2021-09-23 14:13:38 GMT 43.228359 -78.100433 38,000 273 490 0
2021-09-23 14:13:35 GMT 43.228088 -78.091141 38,000 273 490 0
2021-09-23 14:13:31 GMT 43.227768 -78.077789 38,000 273 490 0
2021-09-23 14:13:28 GMT 43.227524 -78.070419 38,000 273 490 0
2021-09-23 14:13:25 GMT 43.227013 -78.050865 38,000 273 490 0
2021-09-23 14:13:22 GMT 43.227013 -78.050865 38,000 273 490 0
2021-09-23 14:13:19 GMT 43.226685 -78.040009 38,000 273 490 0
2021-09-23 14:13:16 GMT 43.226269 -78.023918 38,000 273 491 64
2021-09-23 14:13:13 GMT 43.226269 -78.023918 38,000 273 491 0
2021-09-23 14:13:10 GMT 43.225708 -78.004372 38,000 273 491 0
2021-09-23 14:13:07 GMT 43.225708 -78.004372 38,000 273 491 0
2021-09-23 14:13:04 GMT 43.225430 -77.995995 38,000 273 491 -64
2021-09-23 14:13:01 GMT 43.224838 -77.974571 38,000 273 491 0
2021-09-23 14:12:58 GMT 43.224838 -77.974571 38,000 273 491 0
2021-09-23 14:12:55 GMT 43.224545 -77.964676 38,000 273 491 0
2021-09-23 14:12:51 GMT 43.224266 -77.954475 38,000 273 490 0
2021-09-23 14:12:47 GMT 43.223892 -77.941132 38,000 273 490 0
2021-09-23 14:12:44 GMT 43.223660 -77.934006 38,000 273 490 0
2021-09-23 14:12:41 GMT 43.223335 -77.921906 38,000 273 490 64
2021-09-23 14:12:38 GMT 43.223190 -77.916061 38,000 273 490 0
2021-09-23 14:12:35 GMT 43.222870 -77.904900 38,000 273 491 0
2021-09-23 14:12:32 GMT 43.222637 -77.897118 38,000 273 491 0
2021-09-23 14:12:29 GMT 43.222321 -77.886551 38,000 273 491 -64
2021-09-23 14:12:26 GMT 43.222122 -77.880707 38,000 273 491 0
2021-09-23 14:12:23 GMT 43.221706 -77.866447 38,000 273 491 64
2021-09-23 14:12:20 GMT 43.221405 -77.856468 38,000 273 491 0
2021-09-23 14:12:17 GMT 43.221130 -77.847206 38,000 273 491 0
2021-09-23 14:12:14 GMT 43.220959 -77.841011 38,000 273 491 0
2021-09-23 14:12:11 GMT 43.220680 -77.831985 38,025 273 491 -64
2021-09-23 14:12:08 GMT 43.220306 -77.819611 38,000 273 491 64
2021-09-23 14:12:05 GMT 43.220028 -77.810280 38,000 273 491 0
2021-09-23 14:12:02 GMT 43.219891 -77.804062 38,000 273 491 -64
2021-09-23 14:11:59 GMT 43.219574 -77.794762 38,000 273 492 0
2021-09-23 14:11:55 GMT 43.219193 -77.782288 38,000 273 492 0
2021-09-23 14:11:52 GMT 43.218864 -77.770187 37,975 273 492 64
2021-09-23 14:11:49 GMT 43.218567 -77.760849 38,000 273 492 -64
2021-09-23 14:11:46 GMT 43.218025 -77.743446 38,000 273 492 -64
2021-09-23 14:11:43 GMT 43.218025 -77.743446 38,000 273 492 -64
2021-09-23 14:11:40 GMT 43.217793 -77.735664 38,000 273 492 -64
2021-09-23 14:11:36 GMT 43.217377 -77.722649 38,000 273 492 0
2021-09-23 14:11:33 GMT 43.217010 -77.711151 38,000 273 492 0
2021-09-23 14:11:30 GMT 43.216770 -77.703682 38,000 273 492 64
2021-09-23 14:11:27 GMT 43.216583 -77.697472 37,975 273 492 -64
2021-09-23 14:11:24 GMT 43.215912 -77.675957 38,000 273 492 0
2021-09-23 14:11:21 GMT 43.215912 -77.675957 38,000 273 492 -64
2021-09-23 14:11:18 GMT 43.215607 -77.665428 38,000 273 492 0
2021-09-23 14:11:15 GMT 43.215233 -77.654503 38,000 273 492 0
2021-09-23 14:11:12 GMT 43.214813 -77.639923 38,000 273 492 0
2021-09-23 14:11:09 GMT 43.214813 -77.639923 38,000 273 492 0
2021-09-23 14:11:06 GMT 43.214447 -77.627480 38,000 273 492 0
2021-09-23 14:11:03 GMT 43.214115 -77.618149 38,000 273 492 0
2021-09-23 14:11:00 GMT 43.213837 -77.608536 38,000 273 492 64
2021-09-23 14:10:56 GMT 43.213623 -77.601357 38,000 273 492 -64
2021-09-23 14:10:51 GMT 43.212982 -77.581490 38,000 273 492 0
2021-09-23 14:10:47 GMT 43.212708 -77.572739 38,000 273 491 64
2021-09-23 14:10:44 GMT 43.212387 -77.563797 38,000 273 491 0
2021-09-23 14:10:41 GMT 43.211975 -77.550728 38,000 273 491 0
2021-09-23 14:10:38 GMT 43.211655 -77.540161 38,000 273 491 0
2021-09-23 14:10:35 GMT 43.211334 -77.530518 38,000 273 491 0
2021-09-23 14:10:31 GMT 43.211060 -77.522789 38,000 273 491 0
2021-09-23 14:10:28 GMT 43.210670 -77.510376 38,000 273 491 -64
2021-09-23 14:10:25 GMT 43.210346 -77.500763 38,000 273 491 0
2021-09-23 14:10:21 GMT 43.209915 -77.487724 38,000 273 491 0
2021-09-23 14:10:17 GMT 43.209686 -77.479927 38,000 273 491 -64
2021-09-23 14:10:14 GMT 43.209370 -77.470680 38,000 273 491 0
2021-09-23 14:10:11 GMT 43.208950 -77.457344 38,000 273 491 0
2021-09-23 14:10:08 GMT 43.208633 -77.448059 38,000 273 491 -64
2021-09-23 14:10:04 GMT 43.208202 -77.435631 38,000 273 491 0
2021-09-23 14:10:00 GMT 43.207947 -77.426659 38,000 273 491 0
2021-09-23 14:09:57 GMT 43.207626 -77.417648 38,000 273 491 0
2021-09-23 14:09:54 GMT 43.207260 -77.406158 38,000 273 491 0
2021-09-23 14:09:51 GMT 43.206940 -77.396576 38,000 273 491 0
2021-09-23 14:09:48 GMT 43.206619 -77.388206 38,000 273 491 0
2021-09-23 14:09:44 GMT 43.206203 -77.375793 38,000 273 491 0
2021-09-23 14:09:40 GMT 43.205658 -77.360870 38,000 273 491 0
2021-09-23 14:09:37 GMT 43.205318 -77.350945 38,000 273 491 0
2021-09-23 14:09:33 GMT 43.204620 -77.330147 38,000 273 491 0
2021-09-23 14:09:30 GMT 43.204620 -77.330147 38,000 273 491 0
2021-09-23 14:09:27 GMT 43.204285 -77.320183 38,000 273 491 0
2021-09-23 14:09:23 GMT 43.203918 -77.309319 38,000 273 491 64
2021-09-23 14:09:20 GMT 43.203270 -77.291367 38,000 273 491 0
2021-09-23 14:09:17 GMT 43.203270 -77.291367 38,000 273 491 0
2021-09-23 14:09:14 GMT 43.202850 -77.278946 38,000 273 491 0
2021-09-23 14:09:08 GMT 43.202339 -77.264946 38,000 273 490 0
2021-09-23 14:09:05 GMT 43.202011 -77.255661 38,000 273 490 0
2021-09-23 14:09:01 GMT 43.201500 -77.240822 38,000 273 490 0
2021-09-23 14:08:58 GMT 43.201317 -77.234932 38,000 273 490 0
2021-09-23 14:08:55 GMT 43.200897 -77.222832 38,000 273 489 0
2021-09-23 14:08:52 GMT 43.200577 -77.213577 38,000 273 487 0
2021-09-23 14:08:48 GMT 43.200211 -77.203102 38,000 273 489 0
2021-09-23 14:08:45 GMT 43.199734 -77.189156 38,000 273 489 0
2021-09-23 14:08:41 GMT 43.199360 -77.179939 38,000 273 488 0
2021-09-23 14:08:38 GMT 43.199036 -77.170975 38,000 273 488 0
2021-09-23 14:08:34 GMT 43.198151 -77.146637 38,000 273 486 0
2021-09-23 14:08:31 GMT 43.198151 -77.146637 38,000 273 487 0
2021-09-23 14:08:28 GMT 43.197590 -77.130363 38,000 273 486 0
2021-09-23 14:08:25 GMT 43.197590 -77.130363 38,000 273 486 0
2021-09-23 14:08:22 GMT 43.197235 -77.120827 38,000 273 486 0
2021-09-23 14:08:19 GMT 43.196983 -77.113495 38,000 273 486 0
2021-09-23 14:08:16 GMT 43.196686 -77.106140 38,000 273 486 0
2021-09-23 14:08:13 GMT 43.196228 -77.094193 38,000 273 485 0
2021-09-23 14:08:10 GMT 43.195915 -77.084984 38,000 273 485 0
2021-09-23 14:08:07 GMT 43.195587 -77.076691 38,000 273 485 0
2021-09-23 14:08:04 GMT 43.195175 -77.065643 38,000 273 485 0
2021-09-23 14:08:01 GMT 43.194843 -77.055557 38,000 273 484 0
2021-09-23 14:07:58 GMT 43.194534 -77.046989 38,000 273 484 0
2021-09-23 14:07:55 GMT 43.194145 -77.037178 38,000 273 483 0
2021-09-23 14:07:52 GMT 43.193848 -77.028664 38,000 273 484 0
2021-09-23 14:07:49 GMT 43.193588 -77.021942 38,000 273 484 0
2021-09-23 14:07:46 GMT 43.193161 -77.010330 38,000 273 484 0
2021-09-23 14:07:41 GMT 43.192703 -76.997482 38,000 273 483 0
2021-09-23 14:07:38 GMT 43.192291 -76.987717 38,000 273 482 0
2021-09-23 14:07:35 GMT 43.191971 -76.978836 38,000 273 483 0
2021-09-23 14:07:32 GMT 43.191540 -76.966621 38,000 273 482 0
2021-09-23 14:07:28 GMT 43.191029 -76.953537 38,000 273 482 0
2021-09-23 14:07:24 GMT 43.190559 -76.941116 38,000 273 481 0
2021-09-23 14:07:21 GMT 43.190327 -76.935036 38,000 273 481 0
2021-09-23 14:07:18 GMT 43.189957 -76.924675 38,000 273 481 0
2021-09-23 14:07:15 GMT 43.189678 -76.917961 38,000 273 481 0
2021-09-23 14:07:12 GMT 43.189407 -76.910110 38,000 273 481 0
2021-09-23 14:07:09 GMT 43.188976 -76.899132 38,000 273 481 0
2021-09-23 14:07:06 GMT 43.188583 -76.888840 38,000 274 480 0
2021-09-23 14:07:03 GMT 43.188354 -76.882774 38,000 273 480 0
2021-09-23 14:07:00 GMT 43.187988 -76.872169 38,000 274 478 0
2021-09-23 14:06:57 GMT 43.187489 -76.859695 38,000 273 480 0
2021-09-23 14:06:52 GMT 43.187073 -76.848473 38,000 273 480 0
2021-09-23 14:06:48 GMT 43.186558 -76.835434 38,000 274 480 0
2021-09-23 14:06:45 GMT 43.185883 -76.817238 38,000 274 480 0
2021-09-23 14:06:42 GMT 43.185883 -76.817238 38,000 274 480 0
2021-09-23 14:06:39 GMT 43.185440 -76.806335 38,000 274 478 0
2021-09-23 14:06:36 GMT 43.185066 -76.796921 38,000 274 479 0
2021-09-23 14:06:33 GMT 43.184696 -76.788155 38,000 274 479 0
2021-09-23 14:06:32 GMT 43.184555 -76.785149 38,000 274 479 0
2021-09-23 14:06:28 GMT 43.183811 -76.765793 38,000 274 478 0
2021-09-23 14:06:25 GMT 43.183811 -76.765793 38,000 274 478 0
2021-09-23 14:06:22 GMT 43.182999 -76.746147 38,000 274 478 0
2021-09-23 14:06:19 GMT 43.182999 -76.746147 38,000 274 477 0
2021-09-23 14:06:16 GMT 43.182648 -76.737411 38,000 274 477 0
2021-09-23 14:06:13 GMT 43.182415 -76.731720 38,000 274 475 64
2021-09-23 14:06:10 GMT 43.182037 -76.722061 38,000 274 475 64
2021-09-23 14:06:05 GMT 43.181019 -76.695946 38,000 274 475 64
2021-09-23 14:06:02 GMT 43.181019 -76.695946 38,000 274 475 0
2021-09-23 14:05:58 GMT 43.180664 -76.686935 38,000 274 475 0
2021-09-23 14:05:55 GMT 43.180225 -76.675545 38,000 274 474 -64
2021-09-23 14:05:50 GMT 43.179749 -76.662338 38,000 274 474 -64
2021-09-23 14:05:47 GMT 43.179291 -76.651550 38,000 274 474 0
2021-09-23 14:05:44 GMT 43.178833 -76.639282 38,000 274 473 0
2021-09-23 14:05:40 GMT 43.178467 -76.630020 38,000 274 473 0
2021-09-23 14:05:36 GMT 43.177872 -76.615395 38,000 274 472 0
2021-09-23 14:05:33 GMT 43.177666 -76.610344 38,000 274 472 0
2021-09-23 14:05:30 GMT 43.177277 -76.599617 38,000 274 472 0
2021-09-23 14:05:27 GMT 43.176865 -76.589783 38,000 274 472 0
2021-09-23 14:05:23 GMT 43.176037 -76.569214 38,000 274 471 0
2021-09-23 14:05:19 GMT 43.176037 -76.569214 38,000 274 471 0
2021-09-23 14:05:15 GMT 43.175480 -76.555550 38,000 274 471 0
2021-09-23 14:05:12 GMT 43.174782 -76.538284 38,000 274 470 0
2021-09-23 14:05:06 GMT 43.174347 -76.527885 38,000 274 470 0
2021-09-23 14:05:02 GMT 43.173897 -76.516312 38,000 274 470 0
2021-09-23 14:04:59 GMT 43.173523 -76.507706 38,000 274 470 0
2021-09-23 14:04:54 GMT 43.172962 -76.493752 38,000 274 471 64
2021-09-23 14:04:50 GMT 43.172424 -76.481262 38,000 274 471 0
2021-09-23 14:04:47 GMT 43.172127 -76.473541 38,000 274 471 0
2021-09-23 14:04:44 GMT 43.171555 -76.461075 38,000 274 471 0
2021-09-23 14:04:40 GMT 43.171097 -76.450027 38,000 274 472 0
2021-09-23 14:04:37 GMT 43.170868 -76.444702 38,000 274 472 64
2021-09-23 14:04:33 GMT 43.170227 -76.429199 38,000 274 472 0
2021-09-23 14:04:30 GMT 43.169907 -76.421730 38,000 274 472 0
2021-09-23 14:04:27 GMT 43.169495 -76.412468 38,000 274 473 0
2021-09-23 14:04:24 GMT 43.168991 -76.400841 38,000 274 474 0
2021-09-23 14:04:20 GMT 43.168579 -76.391006 38,000 274 473 0
2021-09-23 14:04:19 GMT 43.168442 -76.388000 38,000 274 473 0
2021-09-23 14:04:16 GMT 43.168167 -76.382057 38,000 274 473 0
2021-09-23 14:04:13 GMT 43.167618 -76.368904 38,000 274 474 0
2021-09-23 14:04:09 GMT 43.167252 -76.360214 38,000 274 474 0
2021-09-23 14:04:06 GMT 43.166748 -76.348526 38,000 274 474 0
2021-09-23 14:04:02 GMT 43.166214 -76.335365 38,000 274 474 0
2021-09-23 14:03:59 GMT 43.165970 -76.329430 38,000 274 474 -64
2021-09-23 14:03:56 GMT 43.165562 -76.320122 38,000 274 473 0
2021-09-23 14:03:52 GMT 43.165100 -76.309952 38,000 274 473 0
2021-09-23 14:03:49 GMT 43.164677 -76.299789 38,000 274 474 64
2021-09-23 14:03:45 GMT 43.164024 -76.286385 38,025 274 471 0
2021-09-23 14:03:41 GMT 43.163452 -76.273857 38,000 273 471 0
2021-09-23 14:03:38 GMT 43.163143 -76.266106 38,000 272 470 0
2021-09-23 14:03:35 GMT 43.162994 -76.260124 38,000 272 470 0
2021-09-23 14:03:32 GMT 43.162720 -76.250038 38,000 271 469 0
2021-09-23 14:03:29 GMT 43.162582 -76.240906 38,000 271 468 0
2021-09-23 14:03:26 GMT 43.162537 -76.229340 38,000 270 467 0
2021-09-23 14:03:23 GMT 43.162582 -76.220467 38,000 270 467 0
2021-09-23 14:03:19 GMT 43.162724 -76.208366 38,000 269 466 0
2021-09-23 14:03:16 GMT 43.162857 -76.199577 38,000 268 465 0
2021-09-23 14:03:13 GMT 43.163086 -76.191589 38,000 268 464 0
2021-09-23 14:03:10 GMT 43.163315 -76.184311 38,000 265 462 0
2021-09-23 14:03:07 GMT 43.164230 -76.165016 38,000 266 462 0
2021-09-23 14:03:04 GMT 43.164230 -76.165016 38,000 265 462 0
2021-09-23 14:03:01 GMT 43.164780 -76.156265 38,000 265 462 0
2021-09-23 14:02:58 GMT 43.165649 -76.144325 38,000 264 461 0
2021-09-23 14:02:53 GMT 43.166382 -76.135384 38,000 264 462 0
2021-09-23 14:02:50 GMT 43.167343 -76.124077 38,000 264 462 -64
2021-09-23 14:02:47 GMT 43.168121 -76.114784 38,000 264 461 0
2021-09-23 14:02:43 GMT 43.169769 -76.094826 38,000 264 461 0
2021-09-23 14:02:39 GMT 43.169769 -76.094826 38,000 264 461 0
2021-09-23 14:02:35 GMT 43.171707 -76.071365 38,000 264 460 0
2021-09-23 14:02:32 GMT 43.171707 -76.071365 38,000 264 460 0
2021-09-23 14:02:28 GMT 43.172546 -76.061226 38,000 264 462 -64
2021-09-23 14:02:24 GMT 43.173615 -76.048805 38,000 264 462 0
2021-09-23 14:02:21 GMT 43.174084 -76.043312 38,000 264 462 0
2021-09-23 14:02:17 GMT 43.175766 -76.023026 38,000 264 462 0
2021-09-23 14:02:14 GMT 43.175766 -76.023026 38,000 264 461 64
2021-09-23 14:02:10 GMT 43.176682 -76.012299 38,000 264 461 64
2021-09-23 14:02:07 GMT 43.177734 -75.999840 38,000 264 462 0
2021-09-23 14:02:04 GMT 43.178551 -75.989944 38,000 264 462 0
2021-09-23 14:02:00 GMT 43.179108 -75.983276 38,000 264 462 0
2021-09-23 14:01:57 GMT 43.179794 -75.974548 38,000 264 463 0
2021-09-23 14:01:54 GMT 43.180801 -75.962601 38,000 264 463 0
2021-09-23 14:01:49 GMT 43.181763 -75.950386 38,000 264 463 0
2021-09-23 14:01:46 GMT 43.182602 -75.940178 38,000 264 463 0
2021-09-23 14:01:45 GMT 43.182816 -75.937561 38,000 264 463 0
2021-09-23 14:01:41 GMT 43.183670 -75.927101 38,000 264 463 0
2021-09-23 14:01:38 GMT 43.184555 -75.916611 38,000 264 463 0
2021-09-23 14:01:35 GMT 43.185196 -75.908760 38,000 264 463 0
2021-09-23 14:01:32 GMT 43.186325 -75.894798 38,000 264 463 0
2021-09-23 14:01:29 GMT 43.186752 -75.889534 38,000 264 463 0
2021-09-23 14:01:26 GMT 43.187256 -75.883156 38,000 264 463 0
2021-09-23 14:01:23 GMT 43.188171 -75.872093 38,000 264 462 0
2021-09-23 14:01:18 GMT 43.189072 -75.861053 38,000 264 463 0
2021-09-23 14:01:15 GMT 43.189911 -75.850571 38,000 264 462 0
2021-09-23 14:01:12 GMT 43.190609 -75.842155 38,000 264 462 0
2021-09-23 14:01:09 GMT 43.191586 -75.829926 38,000 264 462 0
2021-09-23 14:01:05 GMT 43.192188 -75.822403 38,000 264 462 0
2021-09-23 14:01:04 GMT 43.192562 -75.818024 38,000 264 461 0
2021-09-23 14:01:00 GMT 43.193634 -75.804947 38,000 264 461 0
2021-09-23 14:00:57 GMT 43.194008 -75.800301 38,000 264 461 0
2021-09-23 14:00:54 GMT 43.195496 -75.781456 38,000 264 461 0
2021-09-23 14:00:51 GMT 43.195496 -75.781456 38,000 264 461 0
2021-09-23 14:00:48 GMT 43.196548 -75.768745 38,000 264 460 0
2021-09-23 14:00:44 GMT 43.197189 -75.760635 38,000 264 460 0
2021-09-23 14:00:41 GMT 43.198151 -75.748444 38,000 264 460 0
2021-09-23 14:00:36 GMT 43.199341 -75.734314 38,000 264 459 0
2021-09-23 14:00:33 GMT 43.199799 -75.728249 38,000 264 459 64
2021-09-23 14:00:29 GMT 43.200989 -75.713783 38,000 264 459 0
2021-09-23 14:00:26 GMT 43.201584 -75.706276 38,000 264 459 0
2021-09-23 14:00:23 GMT 43.202179 -75.698807 38,000 264 456 0
2021-09-23 14:00:20 GMT 43.202759 -75.691879 38,000 264 459 0
2021-09-23 14:00:17 GMT 43.203506 -75.682068 38,000 264 459 -64
2021-09-23 14:00:14 GMT 43.204433 -75.670555 38,000 264 458 -64
2021-09-23 14:00:09 GMT 43.205410 -75.658134 38,000 264 457 64
2021-09-23 14:00:06 GMT 43.206203 -75.648064 38,000 264 457 0
2021-09-23 14:00:03 GMT 43.206711 -75.641762 38,000 264 457 0
2021-09-23 13:59:57 GMT 43.208313 -75.621643 38,000 264 456 0
2021-09-23 13:59:54 GMT 43.208862 -75.614746 38,000 264 456 0
2021-09-23 13:59:53 GMT 43.209087 -75.611900 38,000 264 456 0
2021-09-23 13:59:50 GMT 43.210373 -75.595840 38,000 264 456 -64
2021-09-23 13:59:47 GMT 43.210373 -75.595840 38,000 264 456 0
2021-09-23 13:59:44 GMT 43.211044 -75.587769 38,000 264 456 -64
2021-09-23 13:59:41 GMT 43.211884 -75.577171 38,000 264 456 -64
2021-09-23 13:59:37 GMT 43.212814 -75.565407 38,000 264 456 64
2021-09-23 13:59:33 GMT 43.213512 -75.556511 38,000 264 455 0
2021-09-23 13:59:30 GMT 43.214401 -75.545059 38,000 264 456 64
2021-09-23 13:59:27 GMT 43.215775 -75.527878 38,000 264 454 0
2021-09-23 13:59:24 GMT 43.215775 -75.527878 38,000 264 455 0
2021-09-23 13:59:21 GMT 43.216351 -75.520149 38,000 264 455 0
2021-09-23 13:59:16 GMT 43.217514 -75.505524 38,000 264 455 0
2021-09-23 13:59:12 GMT 43.218212 -75.496933 38,000 264 455 0
2021-09-23 13:59:08 GMT 43.219345 -75.482651 38,000 264 455 0
2021-09-23 13:59:05 GMT 43.219795 -75.476921 38,000 264 455 0
2021-09-23 13:59:02 GMT 43.220680 -75.465744 38,000 264 455 0
2021-09-23 13:58:58 GMT 43.221657 -75.453445 38,000 264 455 0
2021-09-23 13:58:55 GMT 43.222309 -75.444618 38,000 264 455 0
2021-09-23 13:58:52 GMT 43.222733 -75.439156 38,000 264 455 0
2021-09-23 13:58:51 GMT 43.222961 -75.436279 38,000 264 455 0
2021-09-23 13:58:48 GMT 43.223660 -75.427162 38,000 264 455 0
2021-09-23 13:58:45 GMT 43.224266 -75.419441 38,000 264 455 0
2021-09-23 13:58:41 GMT 43.225204 -75.407410 38,000 264 455 0
2021-09-23 13:58:37 GMT 43.226639 -75.388840 38,000 264 454 0
2021-09-23 13:58:31 GMT 43.227310 -75.380264 38,000 264 454 0
2021-09-23 13:58:30 GMT 43.228683 -75.362503 38,000 264 454 0
2021-09-23 13:58:26 GMT 43.228683 -75.362503 38,000 264 454 0
2021-09-23 13:58:22 GMT 43.229507 -75.351967 38,000 264 455 0
2021-09-23 13:58:17 GMT 43.230698 -75.336510 38,000 264 455 0
2021-09-23 13:58:14 GMT 43.231339 -75.328209 38,000 265 456 0
2021-09-23 13:58:11 GMT 43.231842 -75.321884 38,000 265 455 0
2021-09-23 13:58:08 GMT 43.232693 -75.310432 38,000 265 455 0
2021-09-23 13:58:05 GMT 43.233204 -75.303886 38,000 265 455 0
2021-09-23 13:57:59 GMT 43.234726 -75.284065 38,000 265 456 0
2021-09-23 13:57:54 GMT 43.235687 -75.271164 38,000 265 456 0
2021-09-23 13:57:49 GMT 43.236694 -75.257980 38,000 265 456 0
2021-09-23 13:57:46 GMT 43.237858 -75.243073 38,000 265 456 0
2021-09-23 13:57:39 GMT 43.238937 -75.228691 38,000 265 456 0
2021-09-23 13:57:36 GMT 43.239670 -75.218658 38,000 265 456 0
2021-09-23 13:57:33 GMT 43.240128 -75.212593 38,000 264 456 0
2021-09-23 13:57:30 GMT 43.240768 -75.204292 38,000 265 456 0
2021-09-23 13:57:26 GMT 43.241821 -75.190811 38,000 265 456 64
2021-09-23 13:57:23 GMT 43.242233 -75.185066 38,000 265 456 64
2021-09-23 13:57:20 GMT 43.243195 -75.172417 38,000 264 456 0
2021-09-23 13:57:17 GMT 43.244610 -75.154335 38,000 265 456 0
2021-09-23 13:57:14 GMT 43.244610 -75.154335 38,000 265 456 64
2021-09-23 13:57:11 GMT 43.245167 -75.146873 38,000 265 456 0
2021-09-23 13:57:08 GMT 43.245712 -75.139397 38,000 265 457 0
2021-09-23 13:57:05 GMT 43.246517 -75.128502 38,000 265 457 0
2021-09-23 13:57:02 GMT 43.247131 -75.120422 38,000 265 457 0
2021-09-23 13:56:59 GMT 43.247635 -75.113785 38,000 265 457 0
2021-09-23 13:56:56 GMT 43.248192 -75.106071 38,000 265 457 -64
2021-09-23 13:56:53 GMT 43.248940 -75.096001 38,000 265 457 0
2021-09-23 13:56:49 GMT 43.250519 -75.074753 38,000 265 457 0
2021-09-23 13:56:46 GMT 43.250519 -75.074753 38,000 265 457 -64
2021-09-23 13:56:43 GMT 43.251068 -75.067856 38,000 265 457 0
2021-09-23 13:56:40 GMT 43.251617 -75.060066 38,000 265 457 0
2021-09-23 13:56:37 GMT 43.252304 -75.051186 38,000 265 457 0
2021-09-23 13:56:34 GMT 43.253082 -75.040215 38,000 265 457 0
2021-09-23 13:56:31 GMT 43.253407 -75.036232 38,000 265 457 64
2021-09-23 13:56:28 GMT 43.254013 -75.027855 38,000 265 457 0
2021-09-23 13:56:25 GMT 43.254803 -75.017197 38,000 265 458 0
2021-09-23 13:56:22 GMT 43.255596 -75.005951 38,000 265 458 0
2021-09-23 13:56:19 GMT 43.256062 -74.999931 38,000 265 459 -64
2021-09-23 13:56:16 GMT 43.256744 -74.990700 38,000 265 459 -64
2021-09-23 13:56:13 GMT 43.257614 -74.978813 38,000 265 459 0
2021-09-23 13:56:09 GMT 43.258343 -74.968414 38,000 265 459 0
2021-09-23 13:56:06 GMT 43.258713 -74.963837 38,000 265 459 0
2021-09-23 13:56:03 GMT 43.259628 -74.951096 38,000 265 459 0
2021-09-23 13:56:00 GMT 43.259949 -74.946747 38,000 265 459 0
2021-09-23 13:55:57 GMT 43.260761 -74.935196 38,000 265 460 0
2021-09-23 13:55:53 GMT 43.261597 -74.924202 38,000 265 460 64
2021-09-23 13:55:50 GMT 43.262253 -74.915512 38,000 265 460 0
2021-09-23 13:55:46 GMT 43.262924 -74.906258 38,000 265 460 0
2021-09-23 13:55:43 GMT 43.263786 -74.894646 38,000 265 460 0
2021-09-23 13:55:40 GMT 43.264343 -74.887154 38,000 265 460 -64
2021-09-23 13:55:37 GMT 43.265091 -74.877319 38,000 265 460 0
2021-09-23 13:55:33 GMT 43.265835 -74.867180 38,000 265 459 -64
2021-09-23 13:55:30 GMT 43.266586 -74.857330 38,000 265 459 -64
2021-09-23 13:55:26 GMT 43.267410 -74.846085 38,000 265 458 0
2021-09-23 13:55:23 GMT 43.268188 -74.835419 38,000 265 458 0
2021-09-23 13:55:20 GMT 43.268692 -74.828201 38,000 265 458 0
2021-09-23 13:55:17 GMT 43.269375 -74.818985 38,000 265 458 0
2021-09-23 13:55:14 GMT 43.269836 -74.812363 38,000 265 458 0
2021-09-23 13:55:11 GMT 43.270676 -74.800804 38,000 265 458 0
2021-09-23 13:55:08 GMT 43.271049 -74.795311 38,000 265 458 0
2021-09-23 13:55:05 GMT 43.271713 -74.786110 38,000 265 458 0
2021-09-23 13:55:02 GMT 43.272491 -74.775169 38,000 265 458 0
2021-09-23 13:54:59 GMT 43.273190 -74.765625 38,000 265 458 64
2021-09-23 13:54:56 GMT 43.273773 -74.757553 38,000 265 458 64
2021-09-23 13:54:53 GMT 43.274185 -74.751808 38,000 265 459 0
2021-09-23 13:54:49 GMT 43.275101 -74.738777 38,000 265 459 0
2021-09-23 13:54:46 GMT 43.276356 -74.721153 38,000 265 459 0
2021-09-23 13:54:43 GMT 43.276356 -74.721153 38,000 265 460 0
2021-09-23 13:54:40 GMT 43.277069 -74.711311 38,000 265 460 0
2021-09-23 13:54:37 GMT 43.277664 -74.703522 38,000 265 460 0
2021-09-23 13:54:35 GMT 43.277939 -74.699432 38,000 265 460 0
2021-09-23 13:54:32 GMT 43.278637 -74.689636 38,000 265 460 0
2021-09-23 13:54:29 GMT 43.279335 -74.679497 38,000 265 460 0
2021-09-23 13:54:26 GMT 43.279942 -74.671066 38,000 265 460 0
2021-09-23 13:54:23 GMT 43.280640 -74.661514 38,000 265 460 0
2021-09-23 13:54:20 GMT 43.281246 -74.653145 38,000 265 460 -64
2021-09-23 13:54:17 GMT 43.281712 -74.646477 38,000 265 460 0
2021-09-23 13:54:14 GMT 43.282471 -74.635490 38,000 265 460 0
2021-09-23 13:54:11 GMT 43.282875 -74.629997 38,000 265 460 0
2021-09-23 13:54:08 GMT 43.283527 -74.621040 38,000 265 460 0
2021-09-23 13:54:05 GMT 43.284210 -74.611153 38,000 265 459 0
2021-09-23 13:54:01 GMT 43.284924 -74.600761 38,000 265 459 0
2021-09-23 13:53:56 GMT 43.286041 -74.584549 38,000 265 460 0
2021-09-23 13:53:53 GMT 43.286499 -74.577621 38,000 265 460 0
2021-09-23 13:53:50 GMT 43.287048 -74.570084 38,000 265 460 0
2021-09-23 13:53:45 GMT 43.288040 -74.555580 38,000 265 460 0
2021-09-23 13:53:44 GMT 43.288368 -74.551262 38,000 265 460 0
2021-09-23 13:53:41 GMT 43.289066 -74.541122 38,000 265 460 0
2021-09-23 13:53:35 GMT 43.290184 -74.524841 38,000 265 461 0
2021-09-23 13:53:32 GMT 43.290894 -74.515022 38,000 265 461 0
2021-09-23 13:53:28 GMT 43.291489 -74.506271 38,000 265 461 0
2021-09-23 13:53:25 GMT 43.292233 -74.496132 38,000 265 462 -64
2021-09-23 13:53:22 GMT 43.292835 -74.487694 38,000 265 462 -64
2021-09-23 13:53:19 GMT 43.293301 -74.480698 38,000 265 462 -64
2021-09-23 13:53:15 GMT 43.294514 -74.463242 38,000 265 462 -64
2021-09-23 13:53:09 GMT 43.296432 -74.435951 38,000 265 461 0
2021-09-23 13:53:05 GMT 43.296432 -74.435951 38,000 265 461 64
2021-09-23 13:53:02 GMT 43.296978 -74.427795 38,000 265 462 64
2021-09-23 13:52:59 GMT 43.297485 -74.420555 38,000 265 462 64
2021-09-23 13:52:54 GMT 43.298470 -74.406281 38,000 265 462 0
2021-09-23 13:52:53 GMT 43.298630 -74.403694 38,000 265 462 0
2021-09-23 13:52:49 GMT 43.299408 -74.392326 38,000 265 463 0
2021-09-23 13:52:46 GMT 43.300552 -74.375458 38,000 265 462 0
2021-09-23 13:52:43 GMT 43.300705 -74.372795 38,000 265 463 0
2021-09-23 13:52:39 GMT 43.301422 -74.362877 38,000 265 463 0
2021-09-23 13:52:33 GMT 43.302704 -74.343697 38,000 265 463 0
2021-09-23 13:52:29 GMT 43.303894 -74.326469 38,000 265 463 0
2021-09-23 13:52:23 GMT 43.304565 -74.316559 38,000 265 463 0
2021-09-23 13:52:22 GMT 43.304855 -74.312485 38,000 265 463 0
2021-09-23 13:52:18 GMT 43.305637 -74.300797 38,000 265 462 0
2021-09-23 13:52:13 GMT 43.307327 -74.275436 38,000 265 462 -64
2021-09-23 13:52:10 GMT 43.307640 -74.270782 38,000 265 462 0
2021-09-23 13:52:04 GMT 43.308338 -74.260513 38,000 265 462 0
2021-09-23 13:52:01 GMT 43.308792 -74.253273 38,000 265 462 0
2021-09-23 13:51:58 GMT 43.309662 -74.240685 38,000 265 463 0
2021-09-23 13:51:51 GMT 43.310898 -74.222038 38,000 265 462 0
2021-09-23 13:51:47 GMT 43.311676 -74.210030 38,000 265 463 0
2021-09-23 13:51:43 GMT 43.312527 -74.197151 38,000 265 463 0
2021-09-23 13:51:40 GMT 43.313049 -74.189590 38,000 265 463 0
2021-09-23 13:51:37 GMT 43.314342 -74.170006 38,000 265 463 0
2021-09-23 13:51:33 GMT 43.314342 -74.170006 38,000 265 463 0
2021-09-23 13:51:30 GMT 43.314903 -74.161507 38,000 265 463 0
2021-09-23 13:51:26 GMT 43.315704 -74.149223 38,000 265 464 0
2021-09-23 13:51:20 GMT 43.317032 -74.129288 38,000 265 464 0
2021-09-23 13:51:16 GMT 43.317787 -74.118149 38,000 265 464 0
2021-09-23 13:51:13 GMT 43.318359 -74.109940 38,000 265 464 64
2021-09-23 13:51:09 GMT 43.319046 -74.099968 38,000 265 465 64
2021-09-23 13:51:05 GMT 43.320648 -74.075638 38,000 265 465 64
2021-09-23 13:51:02 GMT 43.320648 -74.075638 38,000 265 465 0
2021-09-23 13:50:59 GMT 43.321106 -74.069183 38,000 265 465 0
2021-09-23 13:50:55 GMT 43.321930 -74.056854 38,000 265 465 64
2021-09-23 13:50:50 GMT 43.322956 -74.040985 38,000 265 465 -64
2021-09-23 13:50:47 GMT 43.323532 -74.032143 38,000 265 465 0
2021-09-23 13:50:44 GMT 43.323933 -74.026268 38,000 265 465 0
2021-09-23 13:50:40 GMT 43.324863 -74.011887 38,000 265 465 0
2021-09-23 13:50:37 GMT 43.325363 -74.004547 38,000 265 465 64
2021-09-23 13:50:34 GMT 43.326004 -73.994835 38,000 265 465 0
2021-09-23 13:50:29 GMT 43.326782 -73.982574 38,000 265 465 0
2021-09-23 13:50:26 GMT 43.327423 -73.972519 38,000 265 465 0
2021-09-23 13:50:23 GMT 43.327789 -73.966988 38,000 265 465 -64
2021-09-23 13:50:19 GMT 43.328934 -73.949356 38,000 265 465 0
2021-09-23 13:50:14 GMT 43.329754 -73.936417 38,000 265 465 0
2021-09-23 13:50:11 GMT 43.330353 -73.927574 38,000 265 466 -64
2021-09-23 13:50:08 GMT 43.330822 -73.919937 38,000 265 466 -64
2021-09-23 13:50:04 GMT 43.331520 -73.909348 38,000 266 466 0
2021-09-23 13:50:01 GMT 43.332092 -73.900497 38,000 266 466 0
2021-09-23 13:49:58 GMT 43.332825 -73.888748 38,000 266 466 64
2021-09-23 13:49:55 GMT 43.334175 -73.866966 38,000 266 466 64
2021-09-23 13:49:50 GMT 43.334175 -73.866966 38,000 266 466 0
2021-09-23 13:49:46 GMT 43.335022 -73.853416 38,000 266 467 64
2021-09-23 13:49:43 GMT 43.335526 -73.846077 38,000 266 467 -64
2021-09-23 13:49:38 GMT 43.336441 -73.831322 38,000 265 467 0
2021-09-23 13:49:35 GMT 43.337154 -73.820145 38,000 265 467 0
2021-09-23 13:49:32 GMT 43.337387 -73.816551 38,000 265 467 0
2021-09-23 13:49:29 GMT 43.338181 -73.804169 38,000 265 467 0
2021-09-23 13:49:26 GMT 43.338684 -73.796188 38,000 265 468 0
2021-09-23 13:49:22 GMT 43.339417 -73.784691 38,000 265 468 0
2021-09-23 13:49:18 GMT 43.340103 -73.774345 38,000 265 468 0
2021-09-23 13:49:15 GMT 43.340786 -73.763710 38,000 265 469 0
2021-09-23 13:49:12 GMT 43.341389 -73.753899 38,000 265 469 -64
2021-09-23 13:49:09 GMT 43.341995 -73.744743 38,000 265 469 0
2021-09-23 13:49:05 GMT 43.342648 -73.734352 38,000 266 470 0
2021-09-23 13:49:01 GMT 43.343346 -73.722839 38,000 266 470 0
2021-09-23 13:48:58 GMT 43.343903 -73.713921 38,000 266 471 0
2021-09-23 13:48:55 GMT 43.344543 -73.703506 38,000 266 471 0
2021-09-23 13:48:52 GMT 43.345093 -73.694565 38,000 266 472 0
2021-09-23 13:48:48 GMT 43.345814 -73.683212 38,000 266 473 0
2021-09-23 13:48:44 GMT 43.347256 -73.659668 38,000 266 477 0
2021-09-23 13:48:41 GMT 43.347256 -73.659668 38,000 266 474 0
2021-09-23 13:48:38 GMT 43.347565 -73.654579 38,000 266 474 0
2021-09-23 13:48:37 GMT 43.347721 -73.651886 38,000 266 474 0
2021-09-23 13:48:34 GMT 43.348465 -73.640182 38,000 266 475 0
2021-09-23 13:48:30 GMT 43.349030 -73.630562 38,000 266 475 0
2021-09-23 13:48:27 GMT 43.349628 -73.620956 38,000 266 476 64
2021-09-23 13:48:23 GMT 43.350235 -73.611015 38,000 266 476 64
2021-09-23 13:48:20 GMT 43.350887 -73.600487 38,000 266 477 0
2021-09-23 13:48:16 GMT 43.351540 -73.589371 38,000 266 477 0
2021-09-23 13:48:13 GMT 43.352283 -73.577599 38,000 266 477 0
2021-09-23 13:48:10 GMT 43.352749 -73.570076 38,000 266 477 0
2021-09-23 13:48:07 GMT 43.353355 -73.560135 38,000 266 477 0
2021-09-23 13:48:02 GMT 43.354248 -73.545677 38,000 266 476 64
2021-09-23 13:47:59 GMT 43.354797 -73.536659 38,000 266 476 0
2021-09-23 13:47:56 GMT 43.355301 -73.527664 38,000 266 476 0
2021-09-23 13:47:53 GMT 43.355804 -73.519485 38,000 266 476 0
2021-09-23 13:47:49 GMT 43.356613 -73.506248 38,000 266 475 0
2021-09-23 13:47:46 GMT 43.357079 -73.498466 38,000 266 475 0
2021-09-23 13:47:43 GMT 43.358459 -73.475349 38,000 266 474 0
2021-09-23 13:47:39 GMT 43.358459 -73.475349 38,000 266 472 0
2021-09-23 13:47:34 GMT 43.359283 -73.461555 38,000 266 474 64
2021-09-23 13:47:31 GMT 43.360107 -73.448715 38,000 266 473 0
2021-09-23 13:47:27 GMT 43.360428 -73.443283 38,025 266 474 448
2021-09-23 13:47:24 GMT 43.360977 -73.434021 38,000 266 473 0
2021-09-23 13:47:21 GMT 43.361710 -73.422394 38,000 266 473 0
2021-09-23 13:47:18 GMT 43.362396 -73.411346 38,000 266 472 0
2021-09-23 13:47:15 GMT 43.362900 -73.403297 38,000 266 472 -64
2021-09-23 13:47:12 GMT 43.363449 -73.394035 38,000 266 472 -64
2021-09-23 13:47:09 GMT 43.363781 -73.388344 38,000 266 472 -64
2021-09-23 13:47:06 GMT 43.364319 -73.379410 38,000 266 472 -64
2021-09-23 13:47:03 GMT 43.364868 -73.370148 38,000 266 471 -64
2021-09-23 13:47:00 GMT 43.365551 -73.358261 38,000 266 471 -64
2021-09-23 13:46:57 GMT 43.366058 -73.349327 38,025 266 472 0
2021-09-23 13:46:54 GMT 43.366623 -73.340347 38,025 266 472 0
2021-09-23 13:46:51 GMT 43.367111 -73.331696 38,000 266 472 64
2021-09-23 13:46:46 GMT 43.368073 -73.315598 38,000 266 473 192
2021-09-23 13:46:43 GMT 43.368950 -73.300652 37,975 266 474 320
2021-09-23 13:46:40 GMT 43.368950 -73.300652 37,950 266 474 512
2021-09-23 13:46:37 GMT 43.370041 -73.282326 37,925 266 474 768
2021-09-23 13:46:34 GMT 43.370682 -73.271843 37,875 266 473 1088
2021-09-23 13:46:31 GMT 43.370682 -73.271843 37,825 266 473 1280
2021-09-23 13:46:27 GMT 43.371414 -73.259010 37,750 266 473 1408
2021-09-23 13:46:24 GMT 43.371964 -73.249748 37,675 266 473 1408
2021-09-23 13:46:20 GMT 43.372581 -73.238983 37,575 266 473 1472
2021-09-23 13:46:16 GMT 43.373291 -73.227005 37,475 266 474 1536
2021-09-23 13:46:12 GMT 43.373932 -73.215637 37,275 266 474 1600
2021-09-23 13:46:09 GMT 43.374348 -73.208443 37,275 266 474 1728
2021-09-23 13:46:06 GMT 43.375095 -73.195236 36,000 266 475 1728
2021-09-23 13:46:03 GMT 43.375946 -73.180824 37,075 266 475 1728
2021-09-23 13:46:00 GMT 43.375946 -73.180824 37,000 266 475 1600
2021-09-23 13:45:57 GMT 43.376587 -73.169777 36,950 266 475 1536
2021-09-23 13:45:54 GMT 43.377003 -73.162537 36,850 266 475 1600
2021-09-23 13:45:51 GMT 43.377594 -73.151695 36,800 266 475 1600
2021-09-23 13:45:48 GMT 43.378029 -73.144226 36,650 266 476 1600
2021-09-23 13:45:45 GMT 43.378601 -73.134003 36,600 266 476 1600
2021-09-23 13:45:42 GMT 43.379005 -73.126762 36,525 266 476 1664
2021-09-23 13:45:39 GMT 43.379745 -73.114143 36,450 266 476 1664
2021-09-23 13:45:35 GMT 43.380341 -73.103027 36,350 266 476 1664
2021-09-23 13:45:31 GMT 43.380753 -73.095490 36,225 266 476 1472
2021-09-23 13:45:28 GMT 43.381805 -73.077095 36,150 266 476 1344
2021-09-23 13:45:25 GMT 43.381805 -73.077095 36,075 266 475 320
2021-09-23 13:45:22 GMT 43.382496 -73.064445 36,050 266 475 256
2021-09-23 13:45:19 GMT 43.383102 -73.053917 36,025 266 475 320
2021-09-23 13:45:16 GMT 43.383518 -73.046394 36,025 266 474 192
2021-09-23 13:45:13 GMT 43.384048 -73.036789 36,000 266 474 64
2021-09-23 13:45:10 GMT 43.384499 -73.029327 36,000 266 474 0
2021-09-23 13:45:07 GMT 43.385101 -73.018539 36,000 266 474 0
2021-09-23 13:45:03 GMT 43.385696 -73.008049 36,000 266 474 0
2021-09-23 13:45:00 GMT 43.386269 -72.997810 36,000 266 474 0
2021-09-23 13:44:57 GMT 43.386520 -72.993034 36,000 266 474 0
2021-09-23 13:44:54 GMT 43.387253 -72.980774 36,000 266 474 0
2021-09-23 13:44:51 GMT 43.387756 -72.971451 36,000 266 474 0
2021-09-23 13:44:48 GMT 43.388260 -72.962440 36,000 266 474 0
2021-09-23 13:44:44 GMT 43.388966 -72.950462 36,000 266 475 64
2021-09-23 13:44:41 GMT 43.389805 -72.934830 36,000 266 475 0
2021-09-23 13:44:38 GMT 43.389805 -72.934830 36,000 266 475 64
2021-09-23 13:44:35 GMT 43.390411 -72.924629 36,000 266 475 64
2021-09-23 13:44:32 GMT 43.390823 -72.916512 36,000 266 475 0
2021-09-23 13:44:29 GMT 43.391525 -72.904488 36,000 266 476 0
2021-09-23 13:44:26 GMT 43.391994 -72.895462 36,000 266 476 0
2021-09-23 13:44:23 GMT 43.392334 -72.889496 36,000 266 476 0
2021-09-23 13:44:20 GMT 43.392929 -72.878960 36,000 266 476 0
2021-09-23 13:44:17 GMT 43.393345 -72.871140 36,000 266 476 -64
2021-09-23 13:44:13 GMT 43.394180 -72.856361 36,000 266 476 0
2021-09-23 13:44:10 GMT 43.394600 -72.848251 36,000 266 476 0
2021-09-23 13:44:07 GMT 43.395081 -72.840118 36,000 266 476 -64
2021-09-23 13:44:04 GMT 43.395531 -72.831703 36,000 266 479 64
2021-09-23 13:44:01 GMT 43.395950 -72.823837 36,000 266 477 0
2021-09-23 13:43:58 GMT 43.396866 -72.807610 36,000 266 476 0
2021-09-23 13:43:52 GMT 43.397488 -72.795540 36,000 266 477 0
2021-09-23 13:43:49 GMT 43.398102 -72.784676 36,000 266 477 0
2021-09-23 13:43:46 GMT 43.398464 -72.777756 36,000 266 478 0
2021-09-23 13:43:42 GMT 43.399200 -72.764175 36,000 266 478 0
2021-09-23 13:43:39 GMT 43.399673 -72.755058 36,000 266 478 -64
2021-09-23 13:43:36 GMT 43.400185 -72.746040 36,000 266 478 -64
2021-09-23 13:43:32 GMT 43.400837 -72.734200 36,000 266 479 -64
2021-09-23 13:43:29 GMT 43.401215 -72.726936 36,000 266 479 0
2021-09-23 13:43:26 GMT 43.401814 -72.715431 36,000 266 479 64
2021-09-23 13:43:23 GMT 43.402359 -72.705734 36,000 266 479 64
2021-09-23 13:43:19 GMT 43.403412 -72.685738 36,000 266 479 0
2021-09-23 13:43:16 GMT 43.403412 -72.685738 36,000 266 479 0
2021-09-23 13:43:13 GMT 43.403912 -72.676323 36,000 266 480 64
2021-09-23 13:43:10 GMT 43.404327 -72.668495 36,000 266 480 64
2021-09-23 13:43:07 GMT 43.405167 -72.653305 36,000 266 480 0
2021-09-23 13:43:04 GMT 43.405167 -72.653305 36,000 266 480 -64
2021-09-23 13:43:00 GMT 43.405930 -72.638405 36,000 266 481 64
2021-09-23 13:42:57 GMT 43.406425 -72.629311 36,000 266 481 0
2021-09-23 13:42:53 GMT 43.407215 -72.614395 36,000 266 481 0
2021-09-23 13:42:50 GMT 43.407669 -72.605255 36,000 266 481 0
2021-09-23 13:42:47 GMT 43.407990 -72.599831 36,000 266 481 0
2021-09-23 13:42:44 GMT 43.409264 -72.575752 36,000 266 481 0
2021-09-23 13:42:40 GMT 43.409264 -72.575752 36,000 266 481 0
2021-09-23 13:42:37 GMT 43.409775 -72.566330 36,000 266 482 64
2021-09-23 13:42:32 GMT 43.410614 -72.550179 36,000 266 482 64
2021-09-23 13:42:29 GMT 43.411331 -72.536148 36,000 266 482 0
2021-09-23 13:42:26 GMT 43.411331 -72.536148 36,000 266 482 0
2021-09-23 13:42:23 GMT 43.411919 -72.524544 36,000 266 482 0
2021-09-23 13:42:20 GMT 43.412430 -72.515129 36,000 266 483 0
2021-09-23 13:42:17 GMT 43.412895 -72.505646 36,000 266 483 0
2021-09-23 13:42:13 GMT 43.413502 -72.493744 36,000 266 483 0
2021-09-23 13:42:09 GMT 43.414215 -72.480324 36,000 266 483 0
2021-09-23 13:42:06 GMT 43.414616 -72.472359 36,000 266 483 0
2021-09-23 13:42:01 GMT 43.415451 -72.456429 36,000 266 483 0
2021-09-23 13:41:58 GMT 43.415909 -72.447617 36,000 266 483 0
2021-09-23 13:41:55 GMT 43.416367 -72.438736 36,000 266 483 0
2021-09-23 13:41:50 GMT 43.417549 -72.415794 36,000 266 483 0
2021-09-23 13:41:47 GMT 43.417549 -72.415794 36,000 266 483 0
2021-09-23 13:41:44 GMT 43.417923 -72.408463 36,000 266 483 0
2021-09-23 13:41:41 GMT 43.418381 -72.399651 36,000 266 483 64
2021-09-23 13:41:38 GMT 43.419022 -72.387131 36,000 266 483 0
2021-09-23 13:41:35 GMT 43.419506 -72.377342 36,000 266 483 0
2021-09-23 13:41:32 GMT 43.419876 -72.370018 36,000 266 482 0
2021-09-23 13:41:29 GMT 43.420528 -72.357529 36,000 266 482 0
2021-09-23 13:41:26 GMT 43.421227 -72.343727 36,000 266 482 0
2021-09-23 13:41:20 GMT 43.421600 -72.336143 36,000 266 482 0
2021-09-23 13:41:17 GMT 43.422157 -72.324829 36,000 266 482 0
2021-09-23 13:41:14 GMT 43.422821 -72.312332 36,000 267 482 0
2021-09-23 13:41:11 GMT 43.423187 -72.304985 36,000 267 482 0
2021-09-23 13:41:07 GMT 43.423836 -72.291611 36,000 267 482 0
2021-09-23 13:41:04 GMT 43.424252 -72.283958 36,000 267 481 0
2021-09-23 13:41:00 GMT 43.424767 -72.273300 36,000 267 481 0
2021-09-23 13:40:57 GMT 43.425369 -72.261459 36,000 267 481 0
2021-09-23 13:40:54 GMT 43.425697 -72.255051 36,000 267 481 0
2021-09-23 13:40:51 GMT 43.426208 -72.244431 36,000 267 481 0
2021-09-23 13:40:48 GMT 43.426620 -72.235619 36,000 267 480 0
2021-09-23 13:40:44 GMT 43.427139 -72.224648 36,000 267 480 0
2021-09-23 13:40:41 GMT 43.428177 -72.203682 36,000 267 480 0
2021-09-23 13:40:38 GMT 43.428177 -72.203682 36,000 267 480 0
2021-09-23 13:40:35 GMT 43.428535 -72.196396 36,000 267 480 0
2021-09-23 13:40:32 GMT 43.429607 -72.175468 36,000 267 480 0
2021-09-23 13:40:29 GMT 43.429607 -72.175468 36,000 267 479 0
2021-09-23 13:40:25 GMT 43.430119 -72.164810 36,000 267 479 0
2021-09-23 13:40:21 GMT 43.430630 -72.154213 36,000 267 479 0
2021-09-23 13:40:18 GMT 43.431095 -72.144798 36,000 267 479 0
2021-09-23 13:40:15 GMT 43.431519 -72.135719 36,000 267 479 0
2021-09-23 13:40:12 GMT 43.431976 -72.126328 36,000 267 479 0
2021-09-23 13:40:09 GMT 43.432251 -72.120262 36,000 267 479 0
2021-09-23 13:40:06 GMT 43.432892 -72.107231 36,000 267 479 0
2021-09-23 13:40:03 GMT 43.433304 -72.098991 36,000 267 480 0
2021-09-23 13:40:00 GMT 43.433807 -72.087814 36,000 267 480 0
2021-09-23 13:39:55 GMT 43.434448 -72.074432 36,000 267 480 0
2021-09-23 13:39:52 GMT 43.434998 -72.062904 36,000 267 480 0
2021-09-23 13:39:49 GMT 43.435242 -72.058342 36,000 267 480 0
2021-09-23 13:39:45 GMT 43.435844 -72.045006 36,000 267 479 0
2021-09-23 13:39:42 GMT 43.436371 -72.033775 36,000 267 479 0
2021-09-23 13:39:39 GMT 43.436737 -72.026176 36,000 267 479 0
2021-09-23 13:39:33 GMT 43.438267 -71.993996 36,000 267 479 0
2021-09-23 13:39:29 GMT 43.438267 -71.993996 36,000 267 479 0
2021-09-23 13:39:22 GMT 43.439152 -71.975227 36,000 267 479 0
2021-09-23 13:39:19 GMT 43.439617 -71.964897 36,000 267 479 0
2021-09-23 13:39:13 GMT 43.440582 -71.944542 36,000 267 479 0
2021-09-23 13:39:10 GMT 43.440872 -71.938477 36,000 267 479 0
2021-09-23 13:39:08 GMT 43.441315 -71.928764 36,000 267 479 0
2021-09-23 13:39:05 GMT 43.441616 -71.923042 36,000 267 479 0
2021-09-23 13:39:02 GMT 43.442127 -71.911797 36,000 267 479 0
2021-09-23 13:38:58 GMT 43.443008 -71.892746 36,000 267 479 0
2021-09-23 13:38:55 GMT 43.443008 -71.892746 36,000 267 478 0
2021-09-23 13:38:51 GMT 43.443573 -71.880600 36,000 267 479 0
2021-09-23 13:38:48 GMT 43.444061 -71.870575 36,000 267 479 0
2021-09-23 13:38:43 GMT 43.444691 -71.856339 36,000 267 477 0
2021-09-23 13:38:40 GMT 43.445114 -71.847267 36,000 267 477 0
2021-09-23 13:38:37 GMT 43.445526 -71.839073 36,000 267 477 0
2021-09-23 13:38:34 GMT 43.446087 -71.826714 36,000 267 477 0
2021-09-23 13:38:31 GMT 43.446487 -71.818199 36,000 267 477 0
2021-09-23 13:38:28 GMT 43.446690 -71.813705 36,000 267 476 0
2021-09-23 13:38:25 GMT 43.447266 -71.800957 36,000 267 477 0
2021-09-23 13:38:22 GMT 43.447632 -71.793419 36,000 267 477 0
2021-09-23 13:38:19 GMT 43.448135 -71.782509 36,000 267 477 0
2021-09-23 13:38:16 GMT 43.448593 -71.772278 36,000 267 476 0
2021-09-23 13:38:10 GMT 43.449326 -71.756821 36,000 267 476 0
2021-09-23 13:38:07 GMT 43.449600 -71.750496 36,000 267 476 0
2021-09-23 13:38:05 GMT 43.449997 -71.741768 36,000 267 476 0
2021-09-23 13:38:00 GMT 43.450741 -71.725418 36,000 267 476 0
2021-09-23 13:37:56 GMT 43.451202 -71.714600 36,000 267 476 0
2021-09-23 13:37:53 GMT 43.451717 -71.703117 36,000 267 476 0
2021-09-23 13:37:50 GMT 43.452187 -71.693115 36,000 267 476 0
2021-09-23 13:37:46 GMT 43.452648 -71.682846 36,000 267 476 0
2021-09-23 13:37:42 GMT 43.453033 -71.674423 36,000 267 476 0
2021-09-23 13:37:39 GMT 43.453445 -71.664459 36,000 267 477 0
2021-09-23 13:37:36 GMT 43.454418 -71.641777 36,000 267 476 0
2021-09-23 13:37:33 GMT 43.454418 -71.641777 36,000 267 476 0
2021-09-23 13:37:30 GMT 43.454651 -71.636940 36,000 267 476 0
2021-09-23 13:37:27 GMT 43.454979 -71.628769 36,000 267 476 0
2021-09-23 13:37:25 GMT 43.455322 -71.620956 36,000 267 476 0
2021-09-23 13:37:22 GMT 43.455631 -71.613396 36,000 267 476 0
2021-09-23 13:37:19 GMT 43.456047 -71.603394 36,000 267 476 0
2021-09-23 13:37:16 GMT 43.456512 -71.593109 36,000 267 477 0
2021-09-23 13:37:12 GMT 43.457474 -71.571327 36,000 267 477 0
2021-09-23 13:37:09 GMT 43.457474 -71.571327 36,000 267 477 0
2021-09-23 13:37:06 GMT 43.458096 -71.556831 36,000 267 477 0
2021-09-23 13:37:03 GMT 43.458096 -71.556831 36,000 267 477 0
2021-09-23 13:36:58 GMT 43.458984 -71.537155 36,000 267 477 0
2021-09-23 13:36:55 GMT 43.459351 -71.529297 36,000 267 477 0
2021-09-23 13:36:52 GMT 43.459717 -71.519913 36,000 267 477 0
2021-09-23 13:36:49 GMT 43.460083 -71.511734 36,000 267 477 0
2021-09-23 13:36:46 GMT 43.460541 -71.501770 36,000 267 477 0
2021-09-23 13:36:43 GMT 43.460842 -71.494186 36,000 267 477 0
2021-09-23 13:36:40 GMT 43.461170 -71.486595 36,000 267 477 0
2021-09-23 13:36:37 GMT 43.461639 -71.475708 36,000 267 477 0
2021-09-23 13:36:34 GMT 43.462101 -71.465408 36,000 267 477 0
2021-09-23 13:36:29 GMT 43.462799 -71.448471 36,000 267 477 0
2021-09-23 13:36:25 GMT 43.463543 -71.430557 36,000 267 477 0
2021-09-23 13:36:22 GMT 43.463543 -71.430557 36,000 267 477 0
2021-09-23 13:36:19 GMT 43.464066 -71.418480 36,000 267 478 0
2021-09-23 13:36:16 GMT 43.464340 -71.412094 36,000 267 478 64
2021-09-23 13:36:13 GMT 43.464752 -71.402702 36,000 267 478 0
2021-09-23 13:36:10 GMT 43.465256 -71.390244 36,000 267 478 0
2021-09-23 13:36:07 GMT 43.465546 -71.383278 36,000 267 478 0
2021-09-23 13:36:03 GMT 43.466034 -71.371147 36,000 267 478 0
2021-09-23 13:36:00 GMT 43.466309 -71.364761 36,000 267 478 0
2021-09-23 13:35:56 GMT 43.466904 -71.350517 36,000 267 478 0
2021-09-23 13:35:52 GMT 43.467316 -71.340485 36,000 267 478 0
2021-09-23 13:35:49 GMT 43.467781 -71.328995 36,000 267 478 0
2021-09-23 13:35:46 GMT 43.468094 -71.321068 36,000 267 478 0
2021-09-23 13:35:42 GMT 43.468689 -71.307465 36,000 267 478 0
2021-09-23 13:35:38 GMT 43.469513 -71.287407 36,000 267 478 0
2021-09-23 13:35:35 GMT 43.469513 -71.287407 36,000 267 478 0
2021-09-23 13:35:32 GMT 43.469921 -71.278313 36,000 267 478 0
2021-09-23 13:35:29 GMT 43.470245 -71.270401 36,000 267 478 0
2021-09-23 13:35:26 GMT 43.470528 -71.262886 36,000 267 478 0
2021-09-23 13:35:23 GMT 43.470993 -71.251633 36,000 267 478 0
2021-09-23 13:35:20 GMT 43.471344 -71.243401 36,000 267 479 0
2021-09-23 13:35:17 GMT 43.471848 -71.231583 36,000 267 479 0
2021-09-23 13:35:14 GMT 43.472122 -71.224625 36,000 267 479 0
2021-09-23 13:35:11 GMT 43.472672 -71.210953 36,000 267 479 0
2021-09-23 13:35:07 GMT 43.472992 -71.202461 36,000 267 479 0
2021-09-23 13:35:04 GMT 43.473320 -71.194221 36,000 267 479 0
2021-09-23 13:35:01 GMT 43.473740 -71.183556 36,000 267 479 0
2021-09-23 13:34:58 GMT 43.473999 -71.177803 36,000 267 479 0
2021-09-23 13:34:55 GMT 43.474342 -71.168648 36,000 267 480 0
2021-09-23 13:34:52 GMT 43.474777 -71.158318 36,000 267 480 0
2021-09-23 13:34:49 GMT 43.475189 -71.147079 36,000 267 480 0
2021-09-23 13:34:46 GMT 43.475601 -71.136986 36,000 267 480 0
2021-09-23 13:34:42 GMT 43.476021 -71.126015 36,000 267 481 0
2021-09-23 13:34:39 GMT 43.476391 -71.117180 36,000 267 481 0
2021-09-23 13:34:35 GMT 43.476856 -71.105278 36,000 267 481 0
2021-09-23 13:34:32 GMT 43.477295 -71.094315 36,000 267 482 0
2021-09-23 13:34:29 GMT 43.477509 -71.088478 36,000 267 482 0
2021-09-23 13:34:25 GMT 43.478073 -71.074455 36,000 267 482 0
2021-09-23 13:34:21 GMT 43.478535 -71.063431 36,000 267 483 0
2021-09-23 13:34:18 GMT 43.478813 -71.055122 36,000 267 483 0
2021-09-23 13:34:15 GMT 43.479279 -71.043159 36,000 268 483 0
2021-09-23 13:34:11 GMT 43.479721 -71.032166 36,000 268 483 0
2021-09-23 13:34:08 GMT 43.480118 -71.021118 36,000 268 483 0
2021-09-23 13:34:03 GMT 43.480999 -70.998428 36,000 268 483 0
2021-09-23 13:34:00 GMT 43.480999 -70.998428 36,000 268 483 0
2021-09-23 13:33:57 GMT 43.481277 -70.990715 36,000 268 483 0
2021-09-23 13:33:54 GMT 43.481792 -70.977829 36,000 268 484 0
2021-09-23 13:33:51 GMT 43.482025 -70.970764 36,000 268 484 0
2021-09-23 13:33:48 GMT 43.482395 -70.961868 36,000 268 484 0
2021-09-23 13:33:44 GMT 43.482910 -70.947487 36,000 268 484 0
2021-09-23 13:33:40 GMT 43.483330 -70.936760 36,000 267 484 -64
2021-09-23 13:33:37 GMT 43.483700 -70.927803 36,000 267 483 0
2021-09-23 13:33:33 GMT 43.484119 -70.915833 36,000 267 483 0
2021-09-23 13:33:30 GMT 43.484528 -70.905441 36,000 268 483 0
2021-09-23 13:33:27 GMT 43.484894 -70.895927 36,000 268 483 0
2021-09-23 13:33:24 GMT 43.485260 -70.886406 36,000 268 483 0
2021-09-23 13:33:22 GMT 43.485489 -70.880280 36,000 268 483 0
2021-09-23 13:33:19 GMT 43.485764 -70.873825 36,000 268 483 0
2021-09-23 13:33:16 GMT 43.486176 -70.862457 36,000 268 483 0
2021-09-23 13:33:13 GMT 43.486401 -70.856651 36,000 268 483 0
2021-09-23 13:33:11 GMT 43.487099 -70.837624 36,000 268 483 0
2021-09-23 13:33:08 GMT 43.487099 -70.837624 36,000 268 483 0
2021-09-23 13:33:05 GMT 43.487366 -70.830841 36,000 268 483 0
2021-09-23 13:33:02 GMT 43.487751 -70.820419 36,000 268 483 0
2021-09-23 13:32:59 GMT 43.488171 -70.810020 36,000 268 483 0
2021-09-23 13:32:56 GMT 43.488602 -70.798325 36,000 268 483 0
2021-09-23 13:32:53 GMT 43.488876 -70.790085 36,000 268 483 0
2021-09-23 13:32:50 GMT 43.489147 -70.782692 36,000 268 483 0
2021-09-23 13:32:47 GMT 43.489521 -70.772293 36,000 268 483 0
2021-09-23 13:32:44 GMT 43.489754 -70.766472 36,000 268 483 0
2021-09-23 13:32:41 GMT 43.490067 -70.757256 36,000 268 483 0
2021-09-23 13:32:38 GMT 43.490498 -70.745613 36,000 268 483 0
2021-09-23 13:32:35 GMT 43.490730 -70.740120 36,000 268 483 0
2021-09-23 13:32:32 GMT 43.491150 -70.728149 36,000 268 483 0
2021-09-23 13:32:29 GMT 43.491486 -70.718933 36,000 268 483 0
2021-09-23 13:32:25 GMT 43.492031 -70.703629 36,000 268 483 0
2021-09-23 13:32:21 GMT 43.492592 -70.687668 36,000 268 483 0
2021-09-23 13:32:19 GMT 43.492592 -70.687668 36,000 268 483 0
2021-09-23 13:32:15 GMT 43.492966 -70.677208 36,000 268 483 0
2021-09-23 13:32:12 GMT 43.493408 -70.664955 36,000 268 483 0
2021-09-23 13:32:09 GMT 43.494312 -70.639870 36,000 268 483 0
2021-09-23 13:32:04 GMT 43.494312 -70.639870 36,000 268 483 0
2021-09-23 13:32:01 GMT 43.494644 -70.630020 36,000 268 483 0
2021-09-23 13:31:58 GMT 43.494873 -70.624527 36,000 268 483 0
2021-09-23 13:31:54 GMT 43.495285 -70.611938 36,000 268 483 0
2021-09-23 13:31:51 GMT 43.495663 -70.600891 36,000 268 483 0
2021-09-23 13:31:48 GMT 43.496365 -70.581924 36,000 268 483 0
2021-09-23 13:31:45 GMT 43.496365 -70.581924 36,000 268 483 0
2021-09-23 13:31:40 GMT 43.496750 -70.569656 36,000 268 482 0
2021-09-23 13:31:37 GMT 43.497208 -70.557137 36,000 268 482 0
2021-09-23 13:31:34 GMT 43.497387 -70.551323 36,000 268 482 0
2021-09-23 13:31:30 GMT 43.497894 -70.536888 36,000 268 482 0
2021-09-23 13:31:26 GMT 43.498272 -70.526474 36,000 268 482 0
2021-09-23 13:31:23 GMT 43.498505 -70.519150 36,000 268 482 0
2021-09-23 13:31:19 GMT 43.498993 -70.504120 36,000 268 482 0
2021-09-23 13:31:16 GMT 43.499359 -70.494034 36,000 268 482 0
2021-09-23 13:31:12 GMT 43.499714 -70.483963 36,000 268 482 0
2021-09-23 13:31:08 GMT 43.500088 -70.472649 36,000 268 482 0
2021-09-23 13:31:05 GMT 43.500507 -70.460686 36,000 268 482 0
2021-09-23 13:31:02 GMT 43.500786 -70.452446 36,000 268 481 0
2021-09-23 13:30:59 GMT 43.501110 -70.441788 36,000 268 481 0
2021-09-23 13:30:55 GMT 43.501484 -70.431061 36,000 268 481 0
2021-09-23 13:30:52 GMT 43.501808 -70.420990 36,000 268 481 0
2021-09-23 13:30:48 GMT 43.502182 -70.410263 36,000 268 481 0
2021-09-23 13:30:45 GMT 43.502602 -70.398361 36,000 268 481 0
2021-09-23 13:30:41 GMT 43.502880 -70.389473 36,000 268 481 0
2021-09-23 13:30:38 GMT 43.503296 -70.378479 36,000 268 481 0
2021-09-23 13:30:34 GMT 43.503799 -70.363533 36,000 268 481 0
2021-09-23 13:30:31 GMT 43.504028 -70.355873 36,000 268 481 0
2021-09-23 13:30:28 GMT 43.504349 -70.346420 36,000 268 481 0
2021-09-23 13:30:25 GMT 43.504555 -70.340622 36,000 268 481 0
2021-09-23 13:30:21 GMT 43.504898 -70.329620 36,000 268 481 0
2021-09-23 13:30:17 GMT 43.505348 -70.314919 36,000 268 481 0
2021-09-23 13:30:14 GMT 43.505722 -70.303940 36,000 268 481 0
2021-09-23 13:30:11 GMT 43.505951 -70.296272 36,000 268 481 0
2021-09-23 13:30:08 GMT 43.506271 -70.286507 36,000 268 481 0
2021-09-23 13:30:05 GMT 43.506546 -70.277687 36,000 268 481 0
2021-09-23 13:30:02 GMT 43.506790 -70.269142 36,000 268 481 0
2021-09-23 13:29:59 GMT 43.507069 -70.261818 36,000 268 480 0
2021-09-23 13:29:55 GMT 43.507584 -70.245338 36,000 268 481 0
2021-09-23 13:29:52 GMT 43.507828 -70.237381 36,000 268 480 0
2021-09-23 13:29:48 GMT 43.508102 -70.228828 36,000 268 480 0
2021-09-23 13:29:44 GMT 43.508560 -70.214775 36,000 268 481 0
2021-09-23 13:29:41 GMT 43.508884 -70.204727 36,000 268 480 0
2021-09-23 13:29:37 GMT 43.509293 -70.191910 36,000 268 480 0
2021-09-23 13:29:34 GMT 43.509491 -70.185829 36,000 268 480 0
2021-09-23 13:29:31 GMT 43.510071 -70.166290 36,000 268 480 0
2021-09-23 13:29:28 GMT 43.510071 -70.166290 36,000 268 480 0
2021-09-23 13:29:24 GMT 43.510746 -70.144699 36,000 268 479 0
2021-09-23 13:29:21 GMT 43.510746 -70.144699 36,000 268 479 0
2021-09-23 13:29:15 GMT 43.511353 -70.124901 36,000 268 479 0
2021-09-23 13:29:12 GMT 43.511627 -70.116089 36,000 268 479 0
2021-09-23 13:29:09 GMT 43.511902 -70.107269 36,000 268 479 0
2021-09-23 13:29:06 GMT 43.512268 -70.095390 36,000 268 478 0
2021-09-23 13:29:02 GMT 43.512562 -70.084206 36,000 268 478 0
2021-09-23 13:28:59 GMT 43.512772 -70.077507 36,000 268 478 0
2021-09-23 13:28:56 GMT 43.513138 -70.065689 36,000 268 478 0
2021-09-23 13:28:53 GMT 43.513401 -70.057137 36,000 268 478 0
2021-09-23 13:28:50 GMT 43.513641 -70.048698 36,000 268 478 0
2021-09-23 13:28:44 GMT 43.514099 -70.033180 36,000 268 477 0
2021-09-23 13:28:41 GMT 43.514378 -70.022278 36,000 268 477 0
2021-09-23 13:28:38 GMT 43.514610 -70.015022 36,000 268 477 0
2021-09-23 13:28:34 GMT 43.515015 -70.000473 36,000 268 477 0
2021-09-23 13:28:31 GMT 43.515263 -69.993179 36,000 268 477 0
2021-09-23 13:28:28 GMT 43.515518 -69.983482 36,000 268 477 0
2021-09-23 13:28:25 GMT 43.515915 -69.970810 36,000 268 477 0
2021-09-23 13:28:21 GMT 43.516159 -69.962280 36,000 268 477 0
2021-09-23 13:28:17 GMT 43.516479 -69.951996 36,000 268 477 0
2021-09-23 13:28:13 GMT 43.516937 -69.937202 36,000 268 477 0
2021-09-23 13:28:09 GMT 43.517311 -69.924774 36,000 268 476 0
2021-09-23 13:28:02 GMT 43.517944 -69.902687 36,000 268 476 0
2021-09-23 13:27:59 GMT 43.518242 -69.893318 36,000 268 476 0
2021-09-23 13:27:56 GMT 43.518383 -69.888741 36,000 268 476 0
2021-09-23 13:27:53 GMT 43.518631 -69.880013 36,000 268 476 0
2021-09-23 13:27:50 GMT 43.518986 -69.868538 36,000 268 476 0
2021-09-23 13:27:46 GMT 43.519264 -69.857353 36,000 268 476 0
2021-09-23 13:27:42 GMT 43.519913 -69.835297 36,000 268 476 0
2021-09-23 13:27:39 GMT 43.520103 -69.828644 36,000 268 476 0
2021-09-23 13:27:36 GMT 43.520103 -69.828644 36,000 268 475 0
2021-09-23 13:27:31 GMT 43.520664 -69.810204 36,000 268 475 0
2021-09-23 13:27:28 GMT 43.520874 -69.802338 36,000 268 475 0
2021-09-23 13:27:25 GMT 43.521240 -69.790009 36,000 268 475 0
2021-09-23 13:27:22 GMT 43.521687 -69.773056 36,000 268 475 0
2021-09-23 13:27:19 GMT 43.521687 -69.773056 36,000 268 475 0
2021-09-23 13:27:16 GMT 43.521919 -69.765541 36,000 268 475 0
2021-09-23 13:27:12 GMT 43.522247 -69.752586 36,000 268 475 0
2021-09-23 13:27:07 GMT 43.522713 -69.736565 36,000 268 475 0
2021-09-23 13:27:02 GMT 43.523037 -69.724205 36,000 268 475 0
2021-09-23 13:26:59 GMT 43.523315 -69.713676 36,000 268 475 0
2021-09-23 13:26:56 GMT 43.523502 -69.706421 36,000 268 475 0
2021-09-23 13:26:49 GMT 43.524170 -69.682320 36,000 268 475 0
2021-09-23 13:26:46 GMT 43.524353 -69.675102 36,000 268 475 0
2021-09-23 13:26:42 GMT 43.524761 -69.659660 36,000 268 475 0
2021-09-23 13:26:38 GMT 43.524994 -69.650955 36,000 268 475 0
2021-09-23 13:26:35 GMT 43.525181 -69.643707 36,000 268 475 0
2021-09-23 13:26:31 GMT 43.525551 -69.630173 36,000 268 475 0
2021-09-23 13:26:28 GMT 43.525879 -69.618401 36,000 268 475 0
2021-09-23 13:26:25 GMT 43.526047 -69.611740 36,000 268 475 0
2021-09-23 13:26:22 GMT 43.526184 -69.605736 36,000 268 475 0
2021-09-23 13:26:19 GMT 43.526505 -69.593918 36,000 268 475 0
2021-09-23 13:26:16 GMT 43.526733 -69.585167 36,000 268 475 0
2021-09-23 13:26:13 GMT 43.527042 -69.573143 36,000 268 475 0
2021-09-23 13:26:09 GMT 43.527374 -69.561661 36,000 268 475 0
2021-09-23 13:26:05 GMT 43.527554 -69.553787 36,000 268 475 0
2021-09-23 13:26:02 GMT 43.527832 -69.543205 36,000 268 475 0
2021-09-23 13:25:59 GMT 43.528065 -69.534172 36,000 268 475 0
2021-09-23 13:25:55 GMT 43.528427 -69.519699 36,000 268 475 0
2021-09-23 13:25:50 GMT 43.528763 -69.506966 36,000 268 475 0
2021-09-23 13:25:47 GMT 43.528996 -69.497025 36,000 269 475 0
2021-09-23 13:25:44 GMT 43.529228 -69.487679 36,000 269 475 0
2021-09-23 13:25:39 GMT 43.529694 -69.469887 36,000 269 475 64
2021-09-23 13:25:35 GMT 43.529846 -69.463234 36,000 268 475 0
2021-09-23 13:25:33 GMT 43.530022 -69.457199 36,000 268 475 0
2021-09-23 13:25:27 GMT 43.530533 -69.436996 36,000 269 475 0
2021-09-23 13:25:24 GMT 43.530811 -69.426399 36,000 269 475 0
2021-09-23 13:25:17 GMT 43.531311 -69.404976 36,000 269 475 0
2021-09-23 13:25:13 GMT 43.531906 -69.380196 36,000 269 475 0
2021-09-23 13:25:06 GMT 43.532135 -69.371445 36,000 269 475 0
2021-09-23 13:25:03 GMT 43.532303 -69.364540 36,000 269 475 0
2021-09-23 13:24:54 GMT 43.532959 -69.337334 36,000 269 476 0
2021-09-23 13:24:50 GMT 43.533234 -69.326477 36,000 269 476 0
2021-09-23 13:24:46 GMT 43.533600 -69.311661 36,000 269 476 0
2021-09-23 13:24:42 GMT 43.534069 -69.290771 36,000 269 476 0
2021-09-23 13:24:35 GMT 43.534348 -69.280174 36,000 269 476 0
2021-09-23 13:24:31 GMT 43.534580 -69.269646 36,000 269 476 0
2021-09-23 13:24:23 GMT 43.535202 -69.242676 36,000 269 476 0
2021-09-23 13:24:20 GMT 43.535339 -69.236351 36,000 269 476 0
2021-09-23 13:24:15 GMT 43.535793 -69.217003 36,000 269 476 0
2021-09-23 13:24:11 GMT 43.535980 -69.208176 36,000 269 477 0
2021-09-23 13:24:04 GMT 43.536484 -69.186722 36,000 269 477 0
2021-09-23 13:24:01 GMT 43.536678 -69.176399 36,000 269 477 0
2021-09-23 13:23:53 GMT 43.537235 -69.152786 36,000 269 477 0
2021-09-23 13:23:50 GMT 43.537445 -69.143990 36,000 269 477 0
2021-09-23 13:23:44 GMT 43.537857 -69.125145 36,000 269 478 0
2021-09-23 13:23:41 GMT 43.538132 -69.113968 36,000 269 478 0
2021-09-23 13:23:33 GMT 43.538589 -69.092125 36,000 269 478 0
2021-09-23 13:23:30 GMT 43.538773 -69.083015 36,000 269 478 0
2021-09-23 13:23:20 GMT 43.539459 -69.052330 36,000 269 478 0
2021-09-23 13:23:13 GMT 43.539936 -69.028931 36,000 269 478 0
2021-09-23 13:23:10 GMT 43.540100 -69.021034 36,000 269 478 0
2021-09-23 13:23:03 GMT 43.540493 -69.000092 36,000 269 478 0
2021-09-23 13:22:59 GMT 43.540741 -68.989159 36,000 269 478 0
2021-09-23 13:22:52 GMT 43.541145 -68.967522 36,000 269 479 0
2021-09-23 13:22:48 GMT 43.541378 -68.956604 36,000 269 479 0
2021-09-23 13:22:40 GMT 43.541939 -68.929207 36,000 269 479 0
2021-09-23 13:22:37 GMT 43.542252 -68.913658 36,000 269 480 0
2021-09-23 13:22:31 GMT 43.542435 -68.904205 36,000 269 480 0
2021-09-23 13:22:28 GMT 43.542637 -68.894806 36,000 269 480 0
2021-09-23 13:22:20 GMT 43.543076 -68.872528 36,000 269 480 0
2021-09-23 13:22:17 GMT 43.543304 -68.860580 36,000 269 481 0
2021-09-23 13:22:10 GMT 43.543755 -68.838890 36,000 269 482 0
2021-09-23 13:22:07 GMT 43.543892 -68.832481 36,000 269 481 0
2021-09-23 13:22:00 GMT 43.544312 -68.810188 36,000 269 481 0
2021-09-23 13:21:57 GMT 43.544544 -68.798286 36,000 269 482 0
2021-09-23 13:21:50 GMT 43.544907 -68.778946 36,000 269 482 0
2021-09-23 13:21:46 GMT 43.545135 -68.767647 36,000 269 482 0
2021-09-23 13:21:39 GMT 43.545521 -68.746490 36,000 269 482 0
2021-09-23 13:21:36 GMT 43.545708 -68.736092 36,000 269 482 0
2021-09-23 13:21:30 GMT 43.546127 -68.714645 36,000 269 482 0
2021-09-23 13:21:27 GMT 43.546268 -68.705750 36,000 269 482 0
2021-09-23 13:21:19 GMT 43.546917 -68.671158 36,000 269 483 0
2021-09-23 13:21:15 GMT 43.546917 -68.671158 36,000 269 483 0
2021-09-23 13:21:06 GMT 43.547432 -68.642906 36,000 269 483 0
2021-09-23 13:20:56 GMT 43.548019 -68.611603 36,000 269 483 0
2021-09-23 13:20:48 GMT 43.548641 -68.575356 36,000 269 483 0
2021-09-23 13:20:44 GMT 43.548641 -68.575356 36,000 269 483 0
2021-09-23 13:20:39 GMT 43.548874 -68.561813 36,000 269 483 0
2021-09-23 13:20:35 GMT 43.549118 -68.548943 36,000 269 483 0
2021-09-23 13:20:28 GMT 43.549526 -68.524406 36,000 269 483 0
2021-09-23 13:20:24 GMT 43.549667 -68.516106 36,000 269 483 0
2021-09-23 13:20:20 GMT 43.549896 -68.502304 36,000 269 483 0
2021-09-23 13:20:14 GMT 43.550179 -68.484261 36,000 269 482 0
2021-09-23 13:20:09 GMT 43.550411 -68.470459 36,000 269 482 0
2021-09-23 13:20:06 GMT 43.550583 -68.461243 36,000 269 482 0
2021-09-23 13:20:03 GMT 43.550781 -68.450188 36,000 269 482 0
2021-09-23 13:19:59 GMT 43.550922 -68.439789 36,000 269 482 0
2021-09-23 13:19:53 GMT 43.551270 -68.420486 36,000 269 482 0
2021-09-23 13:19:49 GMT 43.551453 -68.407333 36,000 269 482 0
2021-09-23 13:19:46 GMT 43.551590 -68.397812 36,000 269 482 0
2021-09-23 13:19:43 GMT 43.551762 -68.389236 36,000 269 482 0
2021-09-23 13:19:36 GMT 43.552040 -68.367462 36,000 269 482 0
2021-09-23 13:19:32 GMT 43.552177 -68.357979 36,000 269 482 0
2021-09-23 13:19:26 GMT 43.552551 -68.335602 36,000 269 482 0
2021-09-23 13:19:22 GMT 43.552689 -68.325508 36,000 269 482 0
2021-09-23 13:19:12 GMT 43.553146 -68.294273 36,000 269 482 0
2021-09-23 13:19:01 GMT 43.553650 -68.260292 36,000 269 482 0
2021-09-23 13:18:55 GMT 43.553925 -68.238831 36,000 269 482 0
2021-09-23 13:18:51 GMT 43.554089 -68.229935 36,000 269 483 0
2021-09-23 13:18:44 GMT 43.554382 -68.208809 36,000 269 483 0
2021-09-23 13:18:40 GMT 43.554504 -68.198349 36,000 269 483 0
2021-09-23 13:18:33 GMT 43.554832 -68.175659 36,000 269 483 0
2021-09-23 13:18:30 GMT 43.554974 -68.166435 36,000 269 483 0
2021-09-23 13:18:24 GMT 43.555252 -68.145256 36,000 269 483 0
2021-09-23 13:18:20 GMT 43.555439 -68.134850 36,000 269 483 0
2021-09-23 13:18:12 GMT 43.555717 -68.111504 36,000 269 483 0
2021-09-23 13:18:09 GMT 43.555855 -68.102875 36,000 269 484 0
2021-09-23 13:18:03 GMT 43.556122 -68.082336 36,000 269 484 0
2021-09-23 13:17:59 GMT 43.556259 -68.070969 36,000 270 484 0
2021-09-23 13:17:52 GMT 43.556534 -68.050018 36,000 270 484 0
2021-09-23 13:17:49 GMT 43.556671 -68.039291 36,000 270 484 0
2021-09-23 13:17:42 GMT 43.556900 -68.019295 36,000 270 484 0
2021-09-23 13:17:37 GMT 43.557083 -68.003967 36,000 270 484 0
2021-09-23 13:17:31 GMT 43.557312 -67.986465 36,000 270 484 0
2021-09-23 13:17:28 GMT 43.557438 -67.974770 36,000 270 484 0
2021-09-23 13:17:21 GMT 43.557671 -67.954491 36,000 270 484 0
2021-09-23 13:17:16 GMT 43.557858 -67.939384 36,000 270 484 0
2021-09-23 13:17:11 GMT 43.558090 -67.921570 36,000 270 484 0
2021-09-23 13:17:07 GMT 43.558456 -67.891167 36,000 270 484 0
2021-09-23 13:17:01 GMT 43.558456 -67.891167 36,000 270 484 0
2021-09-23 13:16:56 GMT 43.558601 -67.878242 36,000 270 484 0
2021-09-23 13:16:50 GMT 43.558788 -67.860062 36,000 270 484 0
2021-09-23 13:16:46 GMT 43.558914 -67.847733 36,000 270 484 0
2021-09-23 13:16:41 GMT 43.559162 -67.822853 36,000 270 484 0
2021-09-23 13:16:30 GMT 43.559464 -67.796692 36,000 270 484 0
2021-09-23 13:16:26 GMT 43.559582 -67.784988 36,000 270 484 0
2021-09-23 13:16:19 GMT 43.559784 -67.764374 36,000 270 484 0
2021-09-23 13:16:14 GMT 43.559967 -67.748657 36,000 270 484 0
2021-09-23 13:16:10 GMT 43.560104 -67.732948 36,000 270 484 0
2021-09-23 13:16:02 GMT 43.560326 -67.711746 36,000 270 484 0
2021-09-23 13:15:59 GMT 43.560425 -67.701263 36,000 270 484 0
2021-09-23 13:15:49 GMT 43.560699 -67.670479 36,000 270 484 0
2021-09-23 13:15:39 GMT 43.560974 -67.637589 36,000 270 484 0
2021-09-23 13:15:29 GMT 43.561256 -67.609016 36,000 270 484 0
2021-09-23 13:15:26 GMT 43.561352 -67.601364 36,000 270 484 0
2021-09-23 13:15:18 GMT 43.561569 -67.574608 36,000 270 484 0
2021-09-23 13:15:14 GMT 43.561661 -67.565086 36,000 270 484 0
2021-09-23 13:15:08 GMT 43.561863 -67.540741 36,000 270 484 0
2021-09-23 13:15:03 GMT 43.561981 -67.530273 36,000 270 484 0
2021-09-23 13:14:57 GMT 43.562141 -67.511246 36,000 270 484 0
2021-09-23 13:14:52 GMT 43.562233 -67.494896 36,000 270 484 0
2021-09-23 13:14:46 GMT 43.562393 -67.477066 36,000 270 484 0
2021-09-23 13:14:37 GMT 43.562622 -67.447243 36,000 270 484 0
2021-09-23 13:14:25 GMT 43.562840 -67.412827 36,000 270 484 0
2021-09-23 13:14:16 GMT 43.563026 -67.386345 36,000 270 484 0
2021-09-23 13:14:05 GMT 43.563259 -67.351616 36,000 270 484 0
2021-09-23 13:13:58 GMT 43.563354 -67.329521 36,000 270 484 0
2021-09-23 13:13:54 GMT 43.563442 -67.317810 36,000 270 484 0
2021-09-23 13:13:45 GMT 43.563583 -67.288582 36,000 270 484 0
2021-09-23 13:13:35 GMT 43.563725 -67.256599 36,000 270 484 0
2021-09-23 13:13:30 GMT 43.563816 -67.245224 36,000 270 484 0
2021-09-23 13:13:27 GMT 43.563858 -67.233582 36,000 270 484 0
2021-09-23 13:13:24 GMT 43.563911 -67.225540 36,000 270 484 0
2021-09-23 13:13:19 GMT 43.563995 -67.210136 36,000 270 484 0
2021-09-23 13:13:14 GMT 43.564095 -67.193230 36,000 270 485 0
2021-09-23 13:13:07 GMT 43.564224 -67.174751 36,000 270 485 0
2021-09-23 13:13:03 GMT 43.564327 -67.158707 36,000 270 485 0
2021-09-23 13:12:56 GMT 43.564468 -67.139023 36,000 270 485 0
2021-09-23 13:12:51 GMT 43.564564 -67.125160 36,000 270 485 0
2021-09-23 13:12:42 GMT 43.564701 -67.097427 36,000 270 485 0
2021-09-23 13:12:32 GMT 43.565002 -67.064125 36,000 268 485 0
2021-09-23 13:12:25 GMT 43.565872 -67.041893 36,000 265 485 0
2021-09-23 13:12:22 GMT 43.566513 -67.031738 36,000 265 485 0
2021-09-23 13:12:11 GMT 43.569168 -67.001717 36,000 261 485 0
2021-09-23 13:12:01 GMT 43.573151 -66.970993 36,000 258 485 0
2021-09-23 13:11:52 GMT 43.578781 -66.939186 36,000 254 485 0
2021-09-23 13:11:41 GMT 43.585278 -66.909554 36,000 253 486 0
2021-09-23 13:11:31 GMT 43.592030 -66.879402 36,000 253 486 0
2021-09-23 13:11:21 GMT 43.598740 -66.849251 36,000 254 486 0
2021-09-23 13:11:10 GMT 43.605854 -66.817276 36,000 254 487 0
2021-09-23 13:11:00 GMT 43.612335 -66.787933 36,000 254 487 0
2021-09-23 13:10:50 GMT 43.619308 -66.756523 36,000 254 487 0
2021-09-23 13:10:39 GMT 43.625931 -66.726547 36,000 254 487 0
2021-09-23 13:10:28 GMT 43.632935 -66.694801 36,000 254 488 0
2021-09-23 13:10:19 GMT 43.639343 -66.665741 36,000 254 488 0
2021-09-23 13:10:07 GMT 43.646622 -66.632782 36,000 254 488 0
2021-09-23 13:09:58 GMT 43.652870 -66.604546 36,000 254 488 0
2021-09-23 13:09:48 GMT 43.659943 -66.572487 36,000 254 487 0
2021-09-23 13:09:37 GMT 43.666466 -66.542747 36,000 254 487 0
2021-09-23 13:09:29 GMT 43.672119 -66.516853 36,000 254 487 0
2021-09-23 13:09:26 GMT 43.673355 -66.511230 36,000 254 487 0
2021-09-23 13:09:17 GMT 43.679916 -66.481216 36,000 254 487 0
2021-09-23 13:09:06 GMT 43.686630 -66.450546 36,000 254 487 0
2021-09-23 13:08:55 GMT 43.693451 -66.419319 36,000 254 487 0
2021-09-23 13:08:45 GMT 43.700169 -66.388680 36,000 254 487 0
2021-09-23 13:08:35 GMT 43.706825 -66.358009 36,000 254 487 0
2021-09-23 13:08:24 GMT 43.713638 -66.326698 36,000 254 488 0
2021-09-23 13:08:14 GMT 43.720139 -66.296928 36,000 254 488 0
2021-09-23 13:08:05 GMT 43.726776 -66.266212 36,000 254 488 0
2021-09-23 13:07:54 GMT 43.733368 -66.235741 36,000 254 488 0
2021-09-23 13:07:46 GMT 43.738998 -66.209808 36,000 254 488 0
2021-09-23 13:07:43 GMT 43.740204 -66.204140 36,000 254 488 0
2021-09-23 13:07:34 GMT 43.752213 -66.148293 36,000 254 488 0
2021-09-23 13:07:23 GMT 43.753426 -66.142601 36,000 254 488 0
2021-09-23 13:07:20 GMT 43.755295 -66.133926 36,000 254 488 0
2021-09-23 13:07:14 GMT 43.759415 -66.114830 36,000 254 489 0
2021-09-23 13:07:10 GMT 43.761292 -66.106178 36,000 254 489 0
2021-09-23 13:07:03 GMT 43.766830 -66.080475 36,000 254 489 0
2021-09-23 13:06:59 GMT 43.768833 -66.071190 36,000 254 489 0
2021-09-23 13:06:51 GMT 43.773880 -66.047569 36,000 254 489 0
2021-09-23 13:06:44 GMT 43.779053 -66.023682 36,000 254 489 0
2021-09-23 13:06:40 GMT 43.781021 -66.014420 36,000 254 489 0
2021-09-23 13:06:31 GMT 43.786926 -65.986893 36,000 254 488 0
2021-09-23 13:06:21 GMT 43.793694 -65.955116 36,000 254 488 0
2021-09-23 13:06:11 GMT 43.800350 -65.923988 36,000 254 488 0
2021-09-23 13:06:01 GMT 43.806259 -65.896126 36,000 254 488 0
2021-09-23 13:05:50 GMT 43.813065 -65.864059 36,000 254 488 0
2021-09-23 13:05:41 GMT 43.820480 -65.828995 36,000 254 488 0
2021-09-23 13:05:29 GMT 43.826843 -65.799034 36,000 254 489 0
2021-09-23 13:05:19 GMT 43.832703 -65.771484 36,000 254 489 0
2021-09-23 13:05:09 GMT 43.838974 -65.741737 36,000 254 489 0
2021-09-23 13:05:00 GMT 43.844852 -65.713875 36,000 254 489 0
2021-09-23 13:04:49 GMT 43.852066 -65.679657 36,000 254 489 0
2021-09-23 13:04:39 GMT 43.857971 -65.651741 36,000 254 489 0
2021-09-23 13:04:28 GMT 43.864777 -65.619308 36,000 254 489 0
2021-09-23 13:04:18 GMT 43.871529 -65.587135 36,000 254 489 0
2021-09-23 13:04:07 GMT 43.878044 -65.555878 36,000 254 489 0
2021-09-23 13:03:58 GMT 43.883972 -65.527702 36,000 254 489 0
2021-09-23 13:03:48 GMT 43.890472 -65.496437 36,000 254 489 0
2021-09-23 13:03:37 GMT 43.896973 -65.465233 36,000 254 489 0
2021-09-23 13:03:28 GMT 43.902859 -65.436989 36,000 254 489 0
2021-09-23 13:03:17 GMT 43.909973 -65.402763 36,000 254 489 0
2021-09-23 13:03:08 GMT 43.915100 -65.378166 36,000 254 489 0
2021-09-23 13:03:06 GMT 43.916428 -65.371849 36,000 254 489 0
2021-09-23 13:02:58 GMT 43.921234 -65.348724 36,000 254 489 0
2021-09-23 13:02:56 GMT 43.922733 -65.341515 36,000 254 489 0
2021-09-23 13:02:46 GMT 43.929394 -65.309341 36,000 255 488 0
2021-09-23 13:02:38 GMT 43.933861 -65.287697 36,000 255 489 0
2021-09-23 13:02:34 GMT 43.935837 -65.278076 36,000 255 489 0
2021-09-23 13:02:28 GMT 43.940006 -65.257942 36,000 255 489 0
2021-09-23 13:02:24 GMT 43.942200 -65.247101 36,000 255 489 0
2021-09-23 13:02:18 GMT 43.946548 -65.226021 36,000 255 489 0
2021-09-23 13:02:15 GMT 43.948425 -65.216949 36,000 255 489 0
2021-09-23 13:02:08 GMT 43.952957 -65.194977 36,000 255 489 0
2021-09-23 13:02:04 GMT 43.954762 -65.186264 36,000 255 489 0
2021-09-23 13:01:58 GMT 43.958908 -65.166046 36,000 255 489 0
2021-09-23 13:01:53 GMT 43.961140 -65.155205 36,000 255 489 0
2021-09-23 13:01:47 GMT 43.965237 -65.135323 36,000 255 489 0
2021-09-23 13:01:43 GMT 43.967697 -65.123245 36,000 255 490 0
2021-09-23 13:01:37 GMT 43.971474 -65.104851 36,000 255 490 0
2021-09-23 13:01:33 GMT 43.974060 -65.092140 36,000 255 490 0
2021-09-23 13:01:27 GMT 43.977760 -65.074051 36,000 255 490 0
2021-09-23 13:01:23 GMT 43.980598 -65.060120 36,000 255 490 0
2021-09-23 13:01:17 GMT 43.984093 -65.042923 36,000 255 490 0
2021-09-23 13:01:11 GMT 43.987381 -65.026863 36,000 255 490 0
2021-09-23 13:01:07 GMT 43.990128 -65.013321 36,000 255 490 0
2021-09-23 13:01:01 GMT 43.993423 -64.997292 36,000 255 490 0
2021-09-23 13:00:56 GMT 43.996994 -64.979721 36,000 255 490 0
2021-09-23 13:00:52 GMT 43.999687 -64.966408 36,000 255 490 0
2021-09-23 13:00:46 GMT 44.002808 -64.950981 36,000 255 490 0
2021-09-23 13:00:41 GMT 44.006104 -64.934952 36,000 255 491 0
2021-09-23 13:00:37 GMT 44.008808 -64.921677 36,000 255 491 0
2021-09-23 13:00:30 GMT 44.012859 -64.901665 36,000 255 491 0
2021-09-23 13:00:27 GMT 44.014908 -64.891731 36,000 255 491 0
2021-09-23 13:00:21 GMT 44.018772 -64.872635 36,000 255 491 0
2021-09-23 13:00:16 GMT 44.021255 -64.860214 36,000 255 491 0
2021-09-23 13:00:06 GMT 44.027245 -64.830582 36,000 255 491 0
2021-09-23 12:59:59 GMT 44.031418 -64.810013 36,000 255 491 0
2021-09-23 12:59:56 GMT 44.033344 -64.800308 36,000 255 491 0
2021-09-23 12:59:46 GMT 44.039349 -64.770355 36,000 255 490 0
2021-09-23 12:59:39 GMT 44.043865 -64.747925 36,000 255 489 0
2021-09-23 12:59:36 GMT 44.045563 -64.739494 36,000 255 489 0
2021-09-23 12:59:28 GMT 44.050240 -64.716209 36,000 255 489 0
2021-09-23 12:59:25 GMT 44.051918 -64.707710 36,000 255 489 0
2021-09-23 12:59:19 GMT 44.056915 -64.682968 36,000 255 489 0
2021-09-23 12:59:16 GMT 44.058064 -64.677170 36,000 255 489 0
2021-09-23 12:59:06 GMT 44.064011 -64.647575 36,000 255 489 0
2021-09-23 12:58:56 GMT 44.070282 -64.616089 36,000 255 489 0
2021-09-23 12:58:46 GMT 44.076031 -64.587379 36,000 255 488 0
2021-09-23 12:58:34 GMT 44.091904 -64.507927 36,000 255 489 0
2021-09-23 12:58:20 GMT 44.091904 -64.507927 36,000 255 489 0
2021-09-23 12:58:14 GMT 44.095535 -64.489487 36,000 255 489 0
2021-09-23 12:58:06 GMT 44.100174 -64.466179 36,000 255 489 0
2021-09-23 12:57:56 GMT 44.106522 -64.434097 36,000 255 489 0
2021-09-23 12:57:46 GMT 44.112293 -64.405060 36,000 255 489 0
2021-09-23 12:57:42 GMT 44.114159 -64.395645 36,000 255 489 0
2021-09-23 12:57:36 GMT 44.118439 -64.373863 36,000 255 489 0
2021-09-23 12:57:26 GMT 44.124344 -64.343925 36,000 255 489 0
2021-09-23 12:57:18 GMT 44.128590 -64.322464 36,000 255 489 0
2021-09-23 12:57:15 GMT 44.130684 -64.311874 36,000 255 489 0
2021-09-23 12:57:12 GMT 44.133133 -64.299149 36,000 255 489 0
2021-09-23 12:57:05 GMT 44.136658 -64.281258 36,000 255 489 0
2021-09-23 12:57:01 GMT 44.138924 -64.269760 36,000 255 489 0
2021-09-23 12:56:56 GMT 44.142227 -64.252823 36,000 255 489 0
2021-09-23 12:56:49 GMT 44.146637 -64.230415 36,000 255 489 0
2021-09-23 12:56:46 GMT 44.148186 -64.222542 36,000 255 489 0
2021-09-23 12:56:39 GMT 44.151855 -64.203720 36,000 255 489 0
2021-09-23 12:56:35 GMT 44.154381 -64.190697 36,000 255 489 0
2021-09-23 12:56:28 GMT 44.158241 -64.171013 36,000 255 489 0
2021-09-23 12:56:25 GMT 44.160370 -64.160095 36,000 255 489 0
2021-09-23 12:56:19 GMT 44.164352 -64.139778 36,000 255 489 0
2021-09-23 12:56:14 GMT 44.166389 -64.129158 36,000 255 489 0
2021-09-23 12:56:08 GMT 44.170441 -64.108543 36,000 255 489 0
2021-09-23 12:56:04 GMT 44.172134 -64.099731 36,000 255 489 0
2021-09-23 12:55:55 GMT 44.177673 -64.071243 36,000 255 488 0
2021-09-23 12:55:44 GMT 44.183990 -64.038857 36,000 255 488 0
2021-09-23 12:55:35 GMT 44.189667 -64.009415 36,000 255 488 0
2021-09-23 12:55:25 GMT 44.195709 -63.978230 36,000 255 488 0
2021-09-23 12:55:15 GMT 44.201488 -63.948200 36,000 255 488 0
2021-09-23 12:55:05 GMT 44.207474 -63.917213 36,000 255 489 0
2021-09-23 12:54:55 GMT 44.213196 -63.887459 36,000 255 489 0
2021-09-23 12:54:44 GMT 44.219467 -63.854958 36,000 255 489 0
2021-09-23 12:54:34 GMT 44.225231 -63.824871 36,000 255 489 0
2021-09-23 12:54:25 GMT 44.236771 -63.764977 36,000 256 489 0
2021-09-23 12:54:15 GMT 44.242409 -63.735439 36,000 256 489 0
2021-09-23 12:54:05 GMT 44.242409 -63.735439 36,000 256 489 0
2021-09-23 12:53:54 GMT 44.249577 -63.697994 36,000 256 490 0
2021-09-23 12:53:43 GMT 44.254837 -63.670326 36,000 256 490 0
2021-09-23 12:53:34 GMT 44.260658 -63.639511 36,000 256 490 0
2021-09-23 12:53:25 GMT 44.265636 -63.613319 36,000 256 490 0
2021-09-23 12:53:15 GMT 44.271412 -63.582569 36,000 256 490 0
2021-09-23 12:53:04 GMT 44.277836 -63.548672 36,000 256 489 0
2021-09-23 12:52:55 GMT 44.283001 -63.521275 36,000 256 489 0
2021-09-23 12:52:44 GMT 44.289009 -63.489254 36,000 256 489 0
2021-09-23 12:52:34 GMT 44.294685 -63.459042 36,000 256 489 0
2021-09-23 12:52:24 GMT 44.300552 -63.427959 36,000 256 489 0
2021-09-23 12:52:15 GMT 44.306000 -63.398952 36,000 256 489 0
2021-09-23 12:52:03 GMT 44.312843 -63.362709 36,000 256 489 0
2021-09-23 12:51:54 GMT 44.317638 -63.337051 36,000 256 489 0
2021-09-23 12:51:43 GMT 44.323563 -63.305313 36,000 256 489 0
2021-09-23 12:51:33 GMT 44.329147 -63.275429 36,000 256 489 0
2021-09-23 12:51:24 GMT 44.334686 -63.245808 36,000 256 490 0
2021-09-23 12:51:13 GMT 44.341232 -63.210625 36,000 256 490 0
2021-09-23 12:51:04 GMT 44.345940 -63.185253 36,000 256 490 0
2021-09-23 12:50:54 GMT 44.351578 -63.154713 36,000 256 490 0
2021-09-23 12:50:44 GMT 44.357674 -63.121681 36,000 256 490 0
2021-09-23 12:50:34 GMT 44.362930 -63.093174 36,000 256 490 0
2021-09-23 12:50:23 GMT 44.369293 -63.058582 36,000 256 490 0
2021-09-23 12:50:14 GMT 44.374512 -63.030460 36,000 256 490 0
2021-09-23 12:50:04 GMT 44.380016 -63.000496 36,000 256 490 0
2021-09-23 12:49:54 GMT 44.385681 -62.969578 36,000 256 490 0
2021-09-23 12:49:52 GMT 44.386734 -62.963757 36,000 256 490 0
2021-09-23 12:49:44 GMT 44.391769 -62.936226 36,000 256 490 0
2021-09-23 12:49:33 GMT 44.397858 -62.902878 36,000 256 489 0
2021-09-23 12:49:24 GMT 44.402500 -62.877502 36,000 256 489 0
2021-09-23 12:49:14 GMT 44.408089 -62.846954 36,000 256 489 0
2021-09-23 12:49:04 GMT 44.413651 -62.816357 36,000 256 488 0
2021-09-23 12:48:56 GMT 44.418320 -62.790726 36,000 256 488 0
2021-09-23 12:48:53 GMT 44.419449 -62.784588 36,000 256 488 0
2021-09-23 12:48:44 GMT 44.424820 -62.754951 36,000 256 488 0
2021-09-23 12:48:37 GMT 44.428574 -62.734222 36,000 256 487 0
2021-09-23 12:48:33 GMT 44.430431 -62.723827 36,000 256 487 0
2021-09-23 12:48:24 GMT 44.435898 -62.693611 36,000 256 487 0
2021-09-23 12:48:17 GMT 44.439285 -62.674713 36,000 256 487 0
2021-09-23 12:48:14 GMT 44.441437 -62.662811 36,000 256 487 0
2021-09-23 12:48:08 GMT 44.444866 -62.643909 36,000 256 487 0
2021-09-23 12:48:03 GMT 44.447006 -62.631985 36,000 256 487 0
2021-09-23 12:48:00 GMT 44.449520 -62.617985 36,000 256 487 0
2021-09-23 12:47:54 GMT 44.452469 -62.601536 36,000 256 486 0
2021-09-23 12:47:49 GMT 44.454872 -62.588104 36,000 256 486 0
2021-09-23 12:47:44 GMT 44.457870 -62.571323 36,000 256 486 0
2021-09-23 12:47:34 GMT 44.463364 -62.540852 36,000 256 486 0
2021-09-23 12:47:24 GMT 44.468792 -62.510399 36,000 256 486 0
2021-09-23 12:47:17 GMT 44.472794 -62.488140 36,000 256 487 0
2021-09-23 12:47:13 GMT 44.474564 -62.478378 36,000 256 487 0
2021-09-23 12:47:08 GMT 44.477692 -62.460674 36,000 256 487 0
2021-09-23 12:47:03 GMT 44.479874 -62.448502 36,000 256 487 0
2021-09-23 12:46:56 GMT 44.484108 -62.424717 36,000 257 487 0
2021-09-23 12:46:52 GMT 44.485748 -62.415554 36,000 257 487 0
2021-09-23 12:46:43 GMT 44.491104 -62.385342 36,000 257 487 0
2021-09-23 12:46:32 GMT 44.496723 -62.353642 36,000 257 486 0
2021-09-23 12:46:23 GMT 44.501862 -62.324654 36,000 257 486 0
2021-09-23 12:46:13 GMT 44.507126 -62.295033 36,000 257 487 0
2021-09-23 12:46:03 GMT 44.512756 -62.262985 36,000 257 487 0
2021-09-23 12:45:53 GMT 44.518021 -62.233101 36,000 257 487 0
2021-09-23 12:45:43 GMT 44.523514 -62.201649 36,000 257 486 0
2021-09-23 12:45:33 GMT 44.528778 -62.171761 36,000 257 486 0
2021-09-23 12:45:22 GMT 44.534409 -62.139717 36,000 257 487 0
2021-09-23 12:45:11 GMT 44.540016 -62.107655 36,000 257 486 0
2021-09-23 12:45:02 GMT 44.544983 -62.079292 36,000 257 486 0
2021-09-23 12:44:52 GMT 44.550491 -62.047832 36,000 257 485 0
2021-09-23 12:44:41 GMT 44.556496 -62.013332 36,000 257 485 0
2021-09-23 12:44:32 GMT 44.561783 -61.982838 36,000 257 485 0
2021-09-23 12:44:20 GMT 44.567623 -61.948956 36,000 257 485 0
2021-09-23 12:44:11 GMT 44.572678 -61.919926 36,000 257 485 0
2021-09-23 12:44:00 GMT 44.578377 -61.886990 36,000 257 485 0
2021-09-23 12:43:52 GMT 44.582382 -61.863426 36,000 257 485 0
2021-09-23 12:43:49 GMT 44.583801 -61.855186 36,000 257 485 0
2021-09-23 12:43:42 GMT 44.587872 -61.831726 36,000 257 485 0
2021-09-23 12:43:39 GMT 44.589890 -61.820133 36,000 257 485 0
2021-09-23 12:43:31 GMT 44.593319 -61.800240 36,000 257 485 0
2021-09-23 12:43:27 GMT 44.595428 -61.787762 36,000 257 485 0
2021-09-23 12:43:22 GMT 44.598347 -61.770966 36,000 257 485 0
2021-09-23 12:43:19 GMT 44.599930 -61.761787 36,000 257 485 0
2021-09-23 12:43:11 GMT 44.603470 -61.741089 36,000 257 485 0
2021-09-23 12:43:00 GMT 44.609287 -61.707191 36,000 257 485 0
2021-09-23 12:42:57 GMT 44.611103 -61.696541 36,000 257 485 0
2021-09-23 12:42:51 GMT 44.614105 -61.678818 36,000 257 485 0
2021-09-23 12:42:47 GMT 44.616257 -61.666325 36,000 257 485 0
2021-09-23 12:42:41 GMT 44.619461 -61.647427 36,000 257 485 0
2021-09-23 12:42:36 GMT 44.621761 -61.633972 36,000 257 485 0
2021-09-23 12:42:31 GMT 44.624512 -61.617825 36,000 257 485 0
2021-09-23 12:42:25 GMT 44.628479 -61.594326 36,000 257 485 0
2021-09-23 12:42:21 GMT 44.629723 -61.587009 36,000 257 485 0
2021-09-23 12:42:16 GMT 44.632645 -61.569866 36,000 257 485 0
2021-09-23 12:42:10 GMT 44.635208 -61.554958 36,000 257 485 0
2021-09-23 12:42:05 GMT 44.638756 -61.533890 36,000 257 485 0
2021-09-23 12:42:01 GMT 44.640289 -61.524681 36,000 257 485 0
2021-09-23 12:41:55 GMT 44.643318 -61.506958 36,000 257 485 0
2021-09-23 12:41:51 GMT 44.645321 -61.495102 36,000 257 485 0
2021-09-23 12:41:40 GMT 44.651043 -61.461136 36,000 257 486 0
2021-09-23 12:41:34 GMT 44.654442 -61.440907 36,000 257 485 0
2021-09-23 12:41:31 GMT 44.655655 -61.433605 36,000 257 485 0
2021-09-23 12:41:16 GMT 44.663635 -61.386108 36,000 257 485 0
2021-09-23 12:41:09 GMT 44.666611 -61.368385 36,000 257 484 0
2021-09-23 12:41:03 GMT 44.670181 -61.347263 36,000 257 484 0
2021-09-23 12:40:59 GMT 44.671715 -61.338078 36,000 257 484 0
2021-09-23 12:40:53 GMT 44.675537 -61.315155 36,000 257 484 0
2021-09-23 12:40:49 GMT 44.676975 -61.306591 36,000 257 484 0
2021-09-23 12:40:39 GMT 44.682037 -61.276310 36,000 257 484 0
2021-09-23 12:40:30 GMT 44.686703 -61.248512 36,000 257 484 0
2021-09-23 12:40:20 GMT 44.691917 -61.217228 36,000 257 485 0
2021-09-23 12:40:10 GMT 44.697006 -61.186653 36,000 257 485 0
2021-09-23 12:40:00 GMT 44.702251 -61.154724 36,000 257 486 0
2021-09-23 12:39:50 GMT 44.707397 -61.123745 36,000 257 486 0
2021-09-23 12:39:40 GMT 44.712448 -61.093029 36,000 258 485 0
2021-09-23 12:39:30 GMT 44.718033 -61.058998 36,000 258 485 0
2021-09-23 12:39:19 GMT 44.727390 -61.001923 36,000 258 485 0
2021-09-23 12:39:10 GMT 44.727390 -61.001923 36,000 258 485 0
2021-09-23 12:39:08 GMT 44.728729 -60.993999 36,000 258 485 0
2021-09-23 12:38:59 GMT 44.732883 -60.968494 36,000 258 485 0
2021-09-23 12:38:57 GMT 44.733673 -60.963604 36,000 258 485 0
2021-09-23 12:38:49 GMT 44.737976 -60.937237 36,000 258 485 0
2021-09-23 12:38:47 GMT 44.738983 -60.931091 36,000 258 485 0
2021-09-23 12:38:37 GMT 44.744148 -60.899227 36,000 258 485 0
2021-09-23 12:38:27 GMT 44.749100 -60.868900 36,000 258 485 0
2021-09-23 12:38:09 GMT 44.758068 -60.813747 36,000 258 483 0
2021-09-23 12:37:57 GMT 44.763470 -60.780319 36,000 258 483 0
2021-09-23 12:37:55 GMT 44.764664 -60.772968 36,000 258 483 0
2021-09-23 12:37:46 GMT 44.769798 -60.741131 36,000 258 483 0
2021-09-23 12:37:35 GMT 44.774734 -60.710850 36,000 258 483 0
2021-09-23 12:37:25 GMT 44.780041 -60.677826 36,000 258 483 0
2021-09-23 12:37:14 GMT 44.785023 -60.646942 36,000 258 482 0
2021-09-23 12:37:04 GMT 44.790237 -60.614185 36,000 258 482 0
2021-09-23 12:36:54 GMT 44.795197 -60.583321 36,000 258 482 0
2021-09-23 12:36:43 GMT 44.800278 -60.551868 36,000 258 482 0
2021-09-23 12:36:33 GMT 44.805645 -60.518253 36,000 258 482 0
2021-09-23 12:36:22 GMT 44.810486 -60.487976 36,000 258 482 0
2021-09-23 12:36:00 GMT 44.821892 -60.416164 36,000 258 482 0
2021-09-23 12:35:50 GMT 44.825989 -60.390438 36,000 258 482 0
2021-09-23 12:35:41 GMT 44.830902 -60.359215 36,000 258 482 0
2021-09-23 12:35:29 GMT 44.835892 -60.327366 36,000 258 482 0
2021-09-23 12:35:20 GMT 44.840744 -60.296501 36,000 258 482 0
2021-09-23 12:35:09 GMT 44.846054 -60.262493 36,000 258 483 0
2021-09-23 12:34:58 GMT 44.850769 -60.232479 36,000 258 483 0
2021-09-23 12:34:49 GMT 44.855896 -60.199715 36,000 258 483 0
2021-09-23 12:34:37 GMT 44.860977 -60.167149 36,000 258 484 0
2021-09-23 12:34:27 GMT 44.865742 -60.136414 36,000 258 484 0
2021-09-23 12:34:17 GMT 44.870678 -60.104794 36,000 258 484 0
2021-09-23 12:34:11 GMT 44.873611 -60.086037 36,000 258 484 0
2021-09-23 12:34:07 GMT 44.875660 -60.072773 36,000 258 484 0
2021-09-23 12:34:01 GMT 44.878174 -60.056496 36,000 258 484 0
2021-09-23 12:33:57 GMT 44.880615 -60.040806 36,000 258 484 0
2021-09-23 12:33:46 GMT 44.885715 -60.007927 36,000 258 484 0
2021-09-23 12:33:35 GMT 44.890503 -59.976589 36,000 258 483 0
2021-09-23 12:32:53 GMT 44.910599 -59.845669 36,000 258 484 0
2021-09-23 12:32:51 GMT 44.911503 -59.839851 36,000 258 484 0
2021-09-23 12:32:22 GMT 44.925339 -59.749146 36,000 258 485 0
2021-09-23 12:32:13 GMT 44.929474 -59.722015 36,000 258 485 0
2021-09-23 12:31:55 GMT 44.937759 -59.667618 36,000 258 485 0
2021-09-23 12:31:51 GMT 44.939713 -59.654652 36,000 258 485 0
2021-09-23 12:31:41 GMT 44.944511 -59.622467 36,000 259 485 0
2021-09-23 12:31:30 GMT 44.949142 -59.591869 36,000 258 485 0
2021-09-23 12:31:03 GMT 44.962246 -59.504635 36,000 258 485 0
2021-09-23 12:30:59 GMT 44.963596 -59.495655 36,000 259 485 0
2021-09-23 12:30:50 GMT 44.968533 -59.462563 36,000 259 486 0
2021-09-23 12:30:38 GMT 44.974091 -59.425442 36,000 259 486 0
2021-09-23 12:30:26 GMT 44.979721 -59.387318 36,000 259 486 0
2021-09-23 12:30:01 GMT 44.990341 -59.315773 36,000 259 486 0
2021-09-23 12:29:58 GMT 44.992538 -59.300865 36,000 259 486 0
2021-09-23 12:29:47 GMT 44.996880 -59.271442 36,000 259 486 0
2021-09-23 12:29:37 GMT 45.001923 -59.237366 36,000 259 486 0
2021-09-23 12:29:26 GMT 45.006454 -59.206303 36,000 259 486 0
2021-09-23 12:29:15 GMT 45.011406 -59.172832 36,000 259 485 0
2021-09-23 12:29:05 GMT 45.016205 -59.139992 36,000 259 485 0
2021-09-23 12:28:32 GMT 45.031128 -59.037323 36,000 259 483 0
2021-09-23 12:27:37 GMT 45.049999 -58.833332 36,000 260 480
2021-09-23 12:26:36 GMT 45.066666 -58.633331 36,000 258 480
2021-09-23 12:25:37 GMT 45.083332 -58.466667 36,000 258 480
2021-09-23 12:24:37 GMT 45.116669 -58.283333 36,000 258 480
2021-09-23 12:23:37 GMT 45.150002 -58.083332 36,000 258 480
2021-09-23 12:22:37 GMT 45.166668 -57.900002 36,000 260 480
2021-09-23 12:21:36 GMT 45.200001 -57.716667 36,000 260 480
2021-09-23 12:20:36 GMT 45.233334 -57.516666 36,000 262 480
2021-09-23 12:19:37 GMT 45.233334 -57.349998 36,000 258 480
2021-09-23 12:18:37 GMT 45.266666 -57.166668 36,000 258 480
2021-09-23 12:17:37 GMT 45.283333 -56.966667 36,000 258 480
2021-09-23 12:16:36 GMT 45.316666 -56.799999 36,000 258 480
2021-09-23 12:15:36 GMT 45.349998 -56.599998 36,000 263 480
2021-09-23 12:14:36 GMT 45.366669 -56.416668 36,000 263 490
2021-09-23 12:13:37 GMT 45.400002 -56.216667 36,000 262 490
2021-09-23 12:12:37 GMT 45.400002 -56.033333 36,000 260 490
2021-09-23 12:11:37 GMT 45.416668 -55.833332 36,000 259 490
2021-09-23 12:10:44 GMT 45.450001 -55.666668 36,000 263 490
2021-09-23 12:09:45 GMT 45.466667 -55.483334 36,000 262 490
2021-09-23 12:08:45 GMT 45.483334 -55.316666 36,000 261 490
We lost coverage of the aircraft here for a total of 8 minutes
2021-09-23 12:00:58 GMT 45.658218 -53.855850 36,000 263 493 0
2021-09-23 12:00:30 GMT 45.667046 -53.764343 36,000 263 493 0
2021-09-23 12:00:25 GMT 45.668583 -53.748550 36,000 263 493 0
2021-09-23 11:59:34 GMT 45.684223 -53.584442 36,000 263 494 0
2021-09-23 11:59:27 GMT 45.686367 -53.561508 36,000 263 494 0
2021-09-23 11:59:19 GMT 45.688694 -53.536995 36,000 263 494 0
2021-09-23 11:59:09 GMT 45.691765 -53.504997 36,000 263 495 0
2021-09-23 11:58:58 GMT 45.695389 -53.466171 36,000 263 494 0
2021-09-23 11:58:20 GMT 45.706944 -53.341164 36,000 263 494 0
2021-09-23 11:58:08 GMT 45.709969 -53.308273 36,000 263 494 0
2021-09-23 11:57:35 GMT 45.719879 -53.200691 36,000 263 494 0
2021-09-23 11:57:27 GMT 45.722626 -53.170681 36,000 263 494 0
2021-09-23 11:57:15 GMT 45.725842 -53.135445 36,000 263 494 0
2021-09-23 11:57:05 GMT 45.728989 -53.100540 36,000 263 494 0
2021-09-23 11:56:54 GMT 45.731987 -53.067604 36,000 263 493 0
2021-09-23 11:56:33 GMT 45.738457 -52.994957 36,000 263 493 0
2021-09-23 11:56:22 GMT 45.741066 -52.965500 36,000 263 493 0
2021-09-23 11:54:53 GMT 45.766903 -52.671066 36,000 263 495 0
2021-09-23 11:54:46 GMT 45.768391 -52.653831 36,000 263 495 0
2021-09-23 11:54:38 GMT 45.770950 -52.623962 36,000 263 496 0
2021-09-23 11:54:27 GMT 45.773979 -52.589149 36,000 264 496 0
2021-09-23 11:53:35 GMT 45.788410 -52.419273 36,000 264 498 0
2021-09-23 11:53:32 GMT 45.788956 -52.412758 36,000 264 498 0
2021-09-23 11:53:24 GMT 45.791435 -52.383018 36,000 264 498 0
2021-09-23 11:53:12 GMT 45.794460 -52.346764 36,000 264 498 -64
2021-09-23 11:52:50 GMT 45.800465 -52.274460 36,000 264 498 0
2021-09-23 11:52:39 GMT 45.803722 -52.235527 36,000 264 499 0
2021-09-23 11:52:29 GMT 45.806168 -52.205692 36,000 264 499 0
2021-09-23 11:52:17 GMT 45.809372 -52.167374 36,000 264 499 0
2021-09-23 11:51:56 GMT 45.815094 -52.097569 36,000 264 499 0
2021-09-23 11:51:49 GMT 45.817177 -52.071693 36,000 264 498 0
2021-09-23 11:51:37 GMT 45.820038 -52.036343 36,000 264 498 0
2021-09-23 11:51:28 GMT 45.822739 -52.002979 36,000 264 498 0
2021-09-23 11:51:17 GMT 45.825531 -51.967945 36,000 264 498 0
2021-09-23 11:51:06 GMT 45.828369 -51.932304 36,000 264 498 0
2021-09-23 11:50:55 GMT 45.831005 -51.898933 36,000 264 498 0
2021-09-23 11:50:45 GMT 45.833817 -51.863644 36,000 264 497 0
2021-09-23 11:50:35 GMT 45.836655 -51.827400 36,000 264 497 0
2021-09-23 11:50:24 GMT 45.839104 -51.795731 36,000 264 497 0
2021-09-23 11:50:08 GMT 45.843521 -51.739643 36,000 264 497 0
2021-09-23 11:50:03 GMT 45.844738 -51.723976 36,000 264 496 0
2021-09-23 11:49:51 GMT 45.847343 -51.690399 36,000 264 496 0
2021-09-23 11:49:42 GMT 45.850021 -51.655502 36,000 264 495 0
2021-09-23 11:49:31 GMT 45.852585 -51.621876 36,000 264 495 0
2021-09-23 11:49:21 GMT 45.855209 -51.587746 36,000 264 494 0
2021-09-23 11:49:09 GMT 45.857773 -51.553551 36,000 264 494 0
2021-09-23 11:48:59 GMT 45.860474 -51.518051 36,000 264 494 0
2021-09-23 11:48:46 GMT 45.863892 -51.473763 36,000 264 495 0
2021-09-23 11:48:36 GMT 45.866180 -51.443817 36,000 264 495 0
2021-09-23 11:48:12 GMT 45.872086 -51.365437 36,000 264 496 0
2021-09-23 11:48:07 GMT 45.873600 -51.345566 36,000 264 496 0
2021-09-23 11:47:55 GMT 45.876114 -51.311245 36,000 264 495 0
2021-09-23 11:47:46 GMT 45.878674 -51.276695 36,000 264 495 0
We lost coverage of the aircraft here for a total of 6 minutes
2021-09-23 11:41:57 GMT 45.982578 -50.144966 36,000 252 509 0
2021-09-23 11:40:33 GMT 46.049938 -49.872162 36,000 251 510 0
2021-09-23 11:40:24 GMT 46.056564 -49.845776 36,000 251 510 0
2021-09-23 11:39:44 GMT 46.088608 -49.717625 36,000 251 509 0
2021-09-23 11:39:36 GMT 46.094398 -49.694321 36,000 251 509 0
2021-09-23 11:39:26 GMT 46.102917 -49.660194 36,000 251 509 0
2021-09-23 11:39:16 GMT 46.110828 -49.628334 36,000 251 509 0
2021-09-23 11:39:04 GMT 46.119690 -49.592621 36,000 251 510 0
2021-09-23 11:38:55 GMT 46.127838 -49.559727 36,000 251 510 0
2021-09-23 11:38:44 GMT 46.136032 -49.526501 36,000 251 510 0
2021-09-23 11:38:34 GMT 46.144318 -49.492939 36,000 251 510 0
2021-09-23 11:38:23 GMT 46.152821 -49.458389 36,000 251 510 0
2021-09-23 11:38:12 GMT 46.161255 -49.424141 36,000 251 511 0
2021-09-23 11:38:02 GMT 46.169495 -49.390511 36,000 251 511 0
2021-09-23 11:37:51 GMT 46.177864 -49.356560 36,000 251 511 0
2021-09-23 11:37:40 GMT 46.186665 -49.320648 36,000 251 511 0
2021-09-23 11:37:29 GMT 46.194626 -49.288239 36,000 251 511 0
2021-09-23 11:37:19 GMT 46.203140 -49.253586 36,000 251 512 0
2021-09-23 11:37:09 GMT 46.211617 -49.218887 36,000 251 512 0
2021-09-23 11:36:40 GMT 46.234131 -49.126369 36,000 251 511 0
2021-09-23 11:36:37 GMT 46.236557 -49.116390 36,000 251 511 0
2021-09-23 11:36:01 GMT 46.263840 -49.003578 36,000 251 510 0
2021-09-23 11:35:54 GMT 46.269516 -48.980133 36,000 251 510 0
2021-09-23 11:35:43 GMT 46.277069 -48.948761 36,000 251 509 0
2021-09-23 11:35:33 GMT 46.285217 -48.914749 36,000 251 509 0
2021-09-23 11:35:23 GMT 46.293549 -48.880051 36,000 251 510 0
2021-09-23 11:35:12 GMT 46.301601 -48.846657 36,000 251 510 0
2021-09-23 11:35:02 GMT 46.309525 -48.813595 36,000 251 509 0
We lost coverage of the aircraft here for a total of 175 minutes
2021-09-23 08:40:23 GMT 49.875229 -12.566801 34,000 276 507 0
2021-09-23 08:40:14 GMT 49.873226 -12.533619 34,000 276 506 0
2021-09-23 08:37:55 GMT 49.840988 -12.034077 34,000 276 506 0
2021-09-23 08:37:51 GMT 49.840210 -12.022151 34,000 276 506 0
2021-09-23 08:37:41 GMT 49.837784 -11.986156 34,000 276 506 0
2021-09-23 08:37:31 GMT 49.835335 -11.949488 34,000 276 506 0
2021-09-23 08:37:21 GMT 49.832932 -11.913516 34,000 276 506 0
2021-09-23 08:37:12 GMT 49.830551 -11.878245 34,000 277 506 0
2021-09-23 08:36:46 GMT 49.824257 -11.786771 34,000 277 507 0
2021-09-23 08:36:25 GMT 49.818924 -11.709691 34,000 277 507 0
2021-09-23 08:36:21 GMT 49.817871 -11.694874 34,000 277 508 0
2021-09-23 08:36:10 GMT 49.815308 -11.657723 34,000 277 508 0
We lost coverage of the aircraft here for a total of 5 minutes
2021-09-23 08:30:44 GMT 49.726357 -10.473608 34,000 278 510 0
2021-09-23 08:29:53 GMT 49.711319 -10.288622 34,000 278 510 0
2021-09-23 08:29:31 GMT 49.705036 -10.212683 34,000 278 509 0
2021-09-23 08:29:30 GMT 49.704712 -10.208684 34,000 278 509 0
2021-09-23 08:29:20 GMT 49.701542 -10.170667 34,000 278 508 0
2021-09-23 08:29:10 GMT 49.698517 -10.134739 34,000 278 508 0
2021-09-23 08:29:00 GMT 49.695492 -10.098514 34,000 278 508 0
2021-09-23 08:28:50 GMT 49.692513 -10.063031 34,000 278 507 0
2021-09-23 08:28:39 GMT 49.689377 -10.025458 34,000 278 507 0
2021-09-23 08:28:30 GMT 49.686413 -9.990432 34,000 278 506 0
2021-09-23 08:28:24 GMT 49.684925 -9.972914 34,000 278 506 0
2021-09-23 08:28:19 GMT 49.683434 -9.955395 34,000 278 506 0
2021-09-23 08:28:14 GMT 49.681824 -9.936122 34,000 278 506 0
2021-09-23 08:28:09 GMT 49.680363 -9.919392 34,000 278 506 0
2021-09-23 08:28:04 GMT 49.678684 -9.899721 34,000 278 505 0
2021-09-23 08:27:59 GMT 49.677242 -9.882944 34,000 278 505 0
2021-09-23 08:27:53 GMT 49.675472 -9.862308 34,000 278 505 0
2021-09-23 08:27:48 GMT 49.674126 -9.846274 34,000 278 505 0
2021-09-23 08:27:44 GMT 49.672543 -9.828087 34,000 278 505 0
2021-09-23 08:27:39 GMT 49.671204 -9.812381 34,000 278 505 0
2021-09-23 08:27:33 GMT 49.669422 -9.791416 34,000 278 504 0
2021-09-23 08:27:29 GMT 49.668026 -9.775382 34,000 278 504 0
2021-09-23 08:27:24 GMT 49.666260 -9.755064 34,000 278 504 0
2021-09-23 08:27:19 GMT 49.664886 -9.739091 34,000 278 504 0
2021-09-23 08:27:13 GMT 49.663185 -9.719115 34,000 278 504 0
2021-09-23 08:27:08 GMT 49.661694 -9.702412 34,000 278 504 0
2021-09-23 08:27:03 GMT 49.659878 -9.681850 34,000 278 504 0
2021-09-23 08:26:59 GMT 49.658669 -9.667969 34,000 278 503 0
2021-09-23 08:26:52 GMT 49.656738 -9.645924 34,000 278 503 0
2021-09-23 08:26:48 GMT 49.655457 -9.631744 34,000 278 503 0
2021-09-23 08:26:42 GMT 49.653595 -9.610439 34,000 278 503 0
2021-09-23 08:26:39 GMT 49.652386 -9.596632 34,000 278 503 0
2021-09-23 08:26:32 GMT 49.650421 -9.574657 34,000 278 503 0
2021-09-23 08:26:29 GMT 49.649323 -9.562225 34,000 278 502 0
2021-09-23 08:26:22 GMT 49.647171 -9.538157 34,000 278 502 -64
2021-09-23 08:26:19 GMT 49.646099 -9.526111 34,000 278 502 0
2021-09-23 08:26:13 GMT 49.644096 -9.503768 34,000 278 502 0
2021-09-23 08:26:09 GMT 49.642822 -9.489585 34,000 278 502 0
2021-09-23 08:26:02 GMT 49.640884 -9.467320 34,000 278 502 0
2021-09-23 08:25:59 GMT 49.639721 -9.454181 34,000 278 502 0
2021-09-23 08:25:52 GMT 49.637718 -9.431911 34,000 278 502 0
2021-09-23 08:25:49 GMT 49.636555 -9.418772 34,000 278 502 0
2021-09-23 08:25:39 GMT 49.633438 -9.384131 34,000 278 502 0
2021-09-23 08:25:29 GMT 49.630180 -9.348029 34,000 278 501 0
2021-09-23 08:25:27 GMT 49.629730 -9.342788 34,000 278 501 0
2021-09-23 08:25:19 GMT 49.626984 -9.312359 34,000 278 501 0
2021-09-23 08:25:17 GMT 49.626480 -9.307082 34,000 278 501 0
2021-09-23 08:25:09 GMT 49.623802 -9.277063 34,000 278 500 0
2021-09-23 08:25:07 GMT 49.623241 -9.271422 34,000 279 500 0
2021-09-23 08:24:57 GMT 49.619980 -9.235527 34,000 279 499 0
2021-09-23 08:24:47 GMT 49.616592 -9.198954 34,000 279 499 0
2021-09-23 08:24:36 GMT 49.613281 -9.163117 34,000 279 499 0
2021-09-23 08:24:26 GMT 49.610138 -9.129133 34,000 279 497 0
2021-09-23 08:24:18 GMT 49.607483 -9.100438 34,000 279 496 0
2021-09-23 08:24:16 GMT 49.606796 -9.093066 34,000 279 496 0
2021-09-23 08:24:08 GMT 49.604187 -9.065166 34,000 279 494 0
2021-09-23 08:24:06 GMT 49.603413 -9.056446 34,000 279 494 0
2021-09-23 08:23:58 GMT 49.600849 -9.029351 34,000 279 492 0
2021-09-23 08:23:55 GMT 49.600159 -9.021727 34,000 279 492 0
2021-09-23 08:23:48 GMT 49.597595 -8.994695 34,000 279 491 0
2021-09-23 08:23:45 GMT 49.596802 -8.986074 34,000 279 491 0
2021-09-23 08:23:38 GMT 49.594334 -8.959870 34,000 279 490 0
2021-09-23 08:23:36 GMT 49.593613 -8.952267 34,000 279 490 0
2021-09-23 08:23:29 GMT 49.591690 -8.931957 34,000 279 489 0
2021-09-23 08:23:27 GMT 49.590729 -8.922055 34,000 279 489 0
2021-09-23 08:23:25 GMT 49.590378 -8.918226 34,000 279 489 0
2021-09-23 08:23:20 GMT 49.588795 -8.901450 34,000 279 488 0
2021-09-23 08:23:17 GMT 49.587723 -8.890092 34,000 279 488 -64
2021-09-23 08:23:15 GMT 49.586975 -8.882591 34,000 279 487 0
2021-09-23 08:23:08 GMT 49.584457 -8.855848 34,000 279 487 0
2021-09-23 08:23:05 GMT 49.583767 -8.848671 34,000 279 486 0
2021-09-23 08:22:57 GMT 49.581207 -8.821353 34,000 279 486 0
2021-09-23 08:22:55 GMT 49.580475 -8.813854 34,000 279 486 0
2021-09-23 08:22:47 GMT 49.577911 -8.787183 34,000 279 486 -64
2021-09-23 08:22:45 GMT 49.577133 -8.779016 34,000 279 486 -64
2021-09-23 08:22:36 GMT 49.574364 -8.750313 34,000 279 486 0
2021-09-23 08:22:34 GMT 49.573746 -8.743816 34,000 279 486 0
2021-09-23 08:22:27 GMT 49.571365 -8.718591 34,000 279 486 0
2021-09-23 08:22:24 GMT 49.570545 -8.710080 34,000 279 485 0
2021-09-23 08:22:17 GMT 49.568127 -8.684841 34,000 279 486 0
2021-09-23 08:22:15 GMT 49.567245 -8.675296 34,000 279 486 0
2021-09-23 08:22:07 GMT 49.563629 -8.637711 34,000 279 485 0
2021-09-23 08:22:03 GMT 49.563629 -8.637711 34,000 279 485 0
2021-09-23 08:21:57 GMT 49.561386 -8.614221 34,000 279 485 0
2021-09-23 08:21:55 GMT 49.560909 -8.609421 34,000 279 485 0
2021-09-23 08:21:46 GMT 49.558022 -8.579431 34,000 279 485 0
2021-09-23 08:21:38 GMT 49.555252 -8.551122 34,000 279 485 0
2021-09-23 08:21:36 GMT 49.554672 -8.544988 34,000 279 485 0
2021-09-23 08:21:27 GMT 49.551544 -8.512597 34,000 279 485 0
2021-09-23 08:21:18 GMT 49.548527 -8.481965 34,000 279 485 0
2021-09-23 08:21:16 GMT 49.548061 -8.477140 34,000 279 485 0
2021-09-23 08:21:10 GMT 49.546097 -8.457087 34,000 279 485 0
2021-09-23 08:21:06 GMT 49.544804 -8.444107 34,000 279 486 0
2021-09-23 08:20:58 GMT 49.541870 -8.414488 34,000 279 486 0
2021-09-23 08:20:54 GMT 49.540844 -8.404244 34,000 279 486 0
2021-09-23 08:20:48 GMT 49.538380 -8.379673 34,000 279 486 0
2021-09-23 08:20:37 GMT 49.534653 -8.342483 34,000 279 486 0
2021-09-23 08:20:28 GMT 49.531532 -8.311380 34,000 279 487 0
2021-09-23 08:20:25 GMT 49.530834 -8.304551 34,000 279 487 0
2021-09-23 08:20:16 GMT 49.527485 -8.271443 34,000 279 487 0
2021-09-23 08:20:07 GMT 49.524261 -8.239602 34,000 279 488 0
2021-09-23 08:19:55 GMT 49.520325 -8.200210 34,000 279 488 0
2021-09-23 08:19:47 GMT 49.517487 -8.172166 34,000 279 488 0
2021-09-23 08:19:37 GMT 49.513962 -8.136894 34,000 279 488 0
2021-09-23 08:19:27 GMT 49.507050 -8.067602 34,000 279 488 0
2021-09-23 08:19:17 GMT 49.507050 -8.067602 34,000 278 489 0
2021-09-23 08:19:11 GMT 49.505512 -8.050455 34,000 277 489 0
2021-09-23 08:19:06 GMT 49.503788 -8.029447 34,000 277 489 0
2021-09-23 08:18:57 GMT 49.501602 -7.999131 34,000 276 489 0
2021-09-23 08:18:54 GMT 49.501007 -7.990169 34,000 276 489 0
2021-09-23 08:18:46 GMT 49.497971 -7.927898 34,000 275 489 0
2021-09-23 08:18:36 GMT 49.497971 -7.927898 34,000 273 489 0
2021-09-23 08:18:34 GMT 49.497784 -7.920994 34,000 273 489 0
2021-09-23 08:18:26 GMT 49.497040 -7.895310 34,000 273 489 0
2021-09-23 08:18:22 GMT 49.496712 -7.883136 34,000 273 489 0
2021-09-23 08:18:17 GMT 49.496109 -7.862351 34,000 273 489 0
2021-09-23 08:18:15 GMT 49.495926 -7.857176 34,000 273 489 0
2021-09-23 08:18:06 GMT 49.494991 -7.824493 34,000 273 489 0
2021-09-23 08:18:04 GMT 49.494804 -7.817589 34,000 273 489 0
2021-09-23 08:17:56 GMT 49.493732 -7.781883 34,000 273 489 0
2021-09-23 08:17:46 GMT 49.492943 -7.755457 34,000 273 489 0
2021-09-23 08:17:36 GMT 49.491898 -7.720787 34,000 273 489 0
2021-09-23 08:17:30 GMT 49.491219 -7.699338 34,000 273 489 0
2021-09-23 08:17:26 GMT 49.490803 -7.686495 34,000 273 489 0
2021-09-23 08:17:16 GMT 49.489685 -7.650790 34,000 273 488 0
2021-09-23 08:17:06 GMT 49.488613 -7.615901 34,000 273 488 0
2021-09-23 08:16:56 GMT 49.487503 -7.581217 34,000 273 489 0
2021-09-23 08:16:47 GMT 49.486473 -7.548350 34,000 273 489 0
2021-09-23 08:16:36 GMT 49.485310 -7.511308 34,000 273 489 0
2021-09-23 08:16:29 GMT 49.484562 -7.489113 34,000 273 489 0
2021-09-23 08:16:26 GMT 49.484161 -7.476702 34,000 273 489 0
2021-09-23 08:16:22 GMT 49.483727 -7.463874 34,000 273 489 0
2021-09-23 08:16:15 GMT 49.482983 -7.441010 34,000 273 489 0
2021-09-23 08:16:08 GMT 49.482048 -7.413248 34,000 273 489 0
2021-09-23 08:16:06 GMT 49.481861 -7.408423 34,000 273 489 0
2021-09-23 08:16:02 GMT 49.481415 -7.395244 34,000 273 489 0
2021-09-23 08:15:55 GMT 49.480652 -7.371307 34,000 273 490 0
2021-09-23 08:15:52 GMT 49.480282 -7.360543 34,000 273 490 0
2021-09-23 08:15:46 GMT 49.479538 -7.338000 34,000 273 490 0
2021-09-23 08:15:41 GMT 49.479034 -7.323038 34,000 273 490 0
2021-09-23 08:15:36 GMT 49.478394 -7.303306 34,000 274 490 0
2021-09-23 08:15:31 GMT 49.477859 -7.288018 34,000 274 490 0
2021-09-23 08:15:26 GMT 49.477207 -7.269609 34,000 274 490 0
2021-09-23 08:15:19 GMT 49.476463 -7.247413 34,000 274 489 0
2021-09-23 08:15:16 GMT 49.475967 -7.233196 34,000 274 489 0
2021-09-23 08:15:10 GMT 49.475254 -7.212376 34,000 274 489 0
2021-09-23 08:15:06 GMT 49.474731 -7.197852 34,000 274 489 0
2021-09-23 08:15:00 GMT 49.474041 -7.178081 34,000 274 489 0
2021-09-23 08:14:56 GMT 49.473576 -7.164199 34,000 274 489 0
2021-09-23 08:14:51 GMT 49.472946 -7.147257 34,000 274 488 0
2021-09-23 08:14:45 GMT 49.472305 -7.128898 34,000 274 488 0
2021-09-23 08:14:40 GMT 49.471710 -7.111985 34,000 274 488 0
2021-09-23 08:14:35 GMT 49.471016 -7.092937 34,000 274 488 0
2021-09-23 08:14:29 GMT 49.469742 -7.057704 34,000 274 488 0
2021-09-23 08:14:24 GMT 49.469742 -7.057704 34,000 274 488 0
2021-09-23 08:14:21 GMT 49.469296 -7.045577 34,000 274 487 0
2021-09-23 08:14:16 GMT 49.468597 -7.025829 34,000 274 488 0
2021-09-23 08:14:10 GMT 49.467270 -6.989545 34,000 274 487 0
2021-09-23 08:14:05 GMT 49.467270 -6.989545 34,000 274 488 0
2021-09-23 08:14:01 GMT 49.466782 -6.975725 34,000 274 488 0
2021-09-23 08:13:55 GMT 49.466034 -6.955358 34,000 274 488 0
2021-09-23 08:13:50 GMT 49.464733 -6.920422 34,000 274 488 0
2021-09-23 08:13:45 GMT 49.464733 -6.920422 34,000 274 488 0
2021-09-23 08:13:41 GMT 49.463894 -6.898375 34,000 274 487 0
2021-09-23 08:13:39 GMT 49.463287 -6.882501 34,000 274 487 0
2021-09-23 08:13:34 GMT 49.463287 -6.882501 34,000 274 487 0
2021-09-23 08:13:28 GMT 49.462509 -6.862118 34,000 274 487 0
2021-09-23 08:13:25 GMT 49.462124 -6.851757 34,000 274 487 0
2021-09-23 08:13:17 GMT 49.461147 -6.825553 34,000 274 487 0
2021-09-23 08:13:15 GMT 49.460815 -6.816583 34,000 274 487 0
2021-09-23 08:13:10 GMT 49.460171 -6.800017 34,000 274 487 0
2021-09-23 08:13:07 GMT 49.459763 -6.788973 34,000 274 487 0
2021-09-23 08:13:05 GMT 49.459473 -6.781014 34,000 274 487 0
2021-09-23 08:13:00 GMT 49.458801 -6.764181 34,000 274 487 0
2021-09-23 08:12:55 GMT 49.458115 -6.746545 34,000 274 487 0
2021-09-23 08:12:49 GMT 49.457428 -6.728981 34,000 274 487 0
2021-09-23 08:12:45 GMT 49.456741 -6.712068 34,000 274 487 0
2021-09-23 08:12:39 GMT 49.455978 -6.691787 34,000 274 486 0
2021-09-23 08:12:35 GMT 49.455376 -6.676941 34,000 274 486 0
2021-09-23 08:12:28 GMT 49.454498 -6.654535 34,000 274 486 0
2021-09-23 08:12:25 GMT 49.454025 -6.642868 34,000 274 486 0
2021-09-23 08:12:20 GMT 49.453327 -6.625275 34,000 274 487 0
2021-09-23 08:12:18 GMT 49.453236 -6.622158 34,000 274 487 0
2021-09-23 08:12:15 GMT 49.452583 -6.607014 34,000 274 487 0
2021-09-23 08:12:09 GMT 49.451836 -6.587714 34,000 274 487 0
2021-09-23 08:12:05 GMT 49.451248 -6.573944 34,000 274 487 0
2021-09-23 08:11:58 GMT 49.450394 -6.551489 34,000 274 487 0
2021-09-23 08:11:54 GMT 49.449787 -6.536717 34,000 274 487 0
2021-09-23 08:11:48 GMT 49.448959 -6.516338 34,000 274 486 0
2021-09-23 08:11:44 GMT 49.448486 -6.504277 34,000 274 487 0
2021-09-23 08:11:42 GMT 49.448135 -6.496028 34,000 274 487 0
2021-09-23 08:11:39 GMT 49.447556 -6.481562 34,000 274 486 0
2021-09-23 08:11:36 GMT 49.447311 -6.476368 34,000 274 486 0
2021-09-23 08:11:34 GMT 49.447037 -6.469791 34,000 274 486 0
2021-09-23 08:11:29 GMT 49.446259 -6.450926 34,000 274 487 0
2021-09-23 08:11:26 GMT 49.445526 -6.433652 34,000 274 487 0
2021-09-23 08:11:20 GMT 49.444901 -6.419208 34,000 274 487 0
2021-09-23 08:11:17 GMT 49.444336 -6.405463 34,000 274 487 0
2021-09-23 08:11:14 GMT 49.444111 -6.400278 34,000 274 487 0
2021-09-23 08:11:09 GMT 49.442642 -6.365854 34,000 274 488 0
2021-09-23 08:11:04 GMT 49.442642 -6.365854 34,000 274 487 0
2021-09-23 08:10:58 GMT 49.441772 -6.344821 34,000 274 488 0
2021-09-23 08:10:54 GMT 49.441223 -6.332100 34,000 274 488 0
2021-09-23 08:10:51 GMT 49.440758 -6.321073 34,000 274 488 0
2021-09-23 08:10:47 GMT 49.440151 -6.306969 34,000 274 488 0
2021-09-23 08:10:44 GMT 49.439667 -6.295961 34,000 274 488 0
2021-09-23 08:10:41 GMT 49.439163 -6.283891 34,000 274 488 0
2021-09-23 08:10:37 GMT 49.438614 -6.271820 34,000 274 488 0
2021-09-23 08:10:33 GMT 49.438103 -6.259386 34,000 274 488 0
2021-09-23 08:10:31 GMT 49.437698 -6.250426 34,000 274 488 0
2021-09-23 08:10:26 GMT 49.436893 -6.231772 34,000 274 488 0
2021-09-23 08:10:23 GMT 49.436691 -6.226285 34,000 274 488 0
2021-09-23 08:10:20 GMT 49.436096 -6.212769 34,000 274 488 0
2021-09-23 08:10:16 GMT 49.435455 -6.197951 34,000 274 489 0
2021-09-23 08:10:13 GMT 49.435032 -6.188272 34,000 274 489 0
2021-09-23 08:10:07 GMT 49.434082 -6.167595 34,000 274 489 0
2021-09-23 08:10:03 GMT 49.433487 -6.154078 34,000 274 489 0
2021-09-23 08:09:57 GMT 49.432518 -6.132301 34,000 274 489 0
2021-09-23 08:09:53 GMT 49.431911 -6.118865 34,000 274 489 0
2021-09-23 08:09:47 GMT 49.430923 -6.096400 34,000 274 489 0
2021-09-23 08:09:41 GMT 49.429642 -6.067417 34,000 274 489 0
2021-09-23 08:09:37 GMT 49.429028 -6.053615 34,000 274 489 0
2021-09-23 08:09:34 GMT 49.429028 -6.053615 34,000 274 489 0
2021-09-23 08:09:32 GMT 49.428745 -6.048048 34,000 274 489 0
2021-09-23 08:09:29 GMT 49.428177 -6.035253 34,000 274 489 0
2021-09-23 08:09:26 GMT 49.427811 -6.026941 34,000 274 489 0
2021-09-23 08:09:23 GMT 49.427261 -6.014874 34,000 274 489 0
2021-09-23 08:09:18 GMT 49.426575 -5.999310 34,000 274 489 0
2021-09-23 08:09:15 GMT 49.426071 -5.987901 34,000 274 489 0
2021-09-23 08:09:12 GMT 49.424744 -5.959216 34,000 274 490 0
2021-09-23 08:09:06 GMT 49.424744 -5.959216 34,000 275 490 0
2021-09-23 08:09:04 GMT 49.424332 -5.950223 34,000 275 490 0
2021-09-23 08:09:01 GMT 49.424011 -5.943322 34,000 275 490 0
2021-09-23 08:08:56 GMT 49.422882 -5.919390 34,000 274 490 0
2021-09-23 08:08:53 GMT 49.422508 -5.910789 34,000 274 491 0
2021-09-23 08:08:46 GMT 49.421494 -5.888249 34,000 274 491 64
2021-09-23 08:08:44 GMT 49.420925 -5.875084 34,000 274 491 -64
2021-09-23 08:08:42 GMT 49.420925 -5.875084 34,000 275 491 0
2021-09-23 08:08:36 GMT 49.419949 -5.853545 34,000 275 491 0
2021-09-23 08:08:34 GMT 49.419662 -5.846980 34,000 275 491 0
2021-09-23 08:08:32 GMT 49.419388 -5.841064 34,000 275 491 0
2021-09-23 08:08:26 GMT 49.418320 -5.817839 34,000 275 491 0
2021-09-23 08:08:23 GMT 49.417831 -5.807824 34,000 275 491 0
2021-09-23 08:08:17 GMT 49.416916 -5.788386 34,000 275 490 0
2021-09-23 08:08:14 GMT 49.416363 -5.776640 34,000 275 490 0
2021-09-23 08:08:12 GMT 49.416138 -5.772118 34,000 275 490 0
2021-09-23 08:08:06 GMT 49.414673 -5.740990 34,000 275 490 0
2021-09-23 08:08:04 GMT 49.414673 -5.740990 34,000 275 490 0
2021-09-23 08:08:02 GMT 49.414490 -5.737187 34,000 275 490 0
2021-09-23 08:07:55 GMT 49.413116 -5.708102 34,000 275 491 0
2021-09-23 08:07:52 GMT 49.412842 -5.702538 34,000 275 491 0
2021-09-23 08:07:47 GMT 49.411800 -5.680654 34,000 275 491 0
2021-09-23 08:07:44 GMT 49.411377 -5.672396 34,000 275 491 0
2021-09-23 08:07:42 GMT 49.411148 -5.667537 34,000 275 491 0
2021-09-23 08:07:39 GMT 49.410645 -5.657466 34,000 275 491 0
2021-09-23 08:07:34 GMT 49.409729 -5.638381 34,000 275 491 0
2021-09-23 08:07:32 GMT 49.409382 -5.631433 34,000 275 491 0
2021-09-23 08:07:29 GMT 49.408916 -5.622398 34,000 275 491 0
2021-09-23 08:07:26 GMT 49.408405 -5.611701 34,000 275 491 0
2021-09-23 08:07:24 GMT 49.407944 -5.602675 34,000 275 491 0
2021-09-23 08:07:22 GMT 49.407707 -5.597462 34,000 275 491 0
2021-09-23 08:07:20 GMT 49.407425 -5.592258 34,000 275 491 0
2021-09-23 08:07:17 GMT 49.406799 -5.579787 34,000 275 491 0
2021-09-23 08:07:14 GMT 49.405975 -5.562744 34,000 275 491 0
2021-09-23 08:07:09 GMT 49.405422 -5.552360 34,000 275 491 0
2021-09-23 08:07:04 GMT 49.404587 -5.535375 34,000 275 492 0
2021-09-23 08:07:02 GMT 49.404236 -5.528095 34,000 275 492 0
2021-09-23 08:06:55 GMT 49.402863 -5.501333 34,000 275 492 0
2021-09-23 08:06:52 GMT 49.402084 -5.484995 34,000 275 492 0
2021-09-23 08:06:47 GMT 49.401627 -5.476332 34,000 275 492 0
2021-09-23 08:06:44 GMT 49.401142 -5.466276 34,000 275 492 0
2021-09-23 08:06:42 GMT 49.400803 -5.459290 34,000 275 492 0
2021-09-23 08:06:39 GMT 49.400211 -5.447556 34,000 275 492 0
2021-09-23 08:06:36 GMT 49.399796 -5.439852 34,000 275 492 0
2021-09-23 08:06:32 GMT 49.398769 -5.419006 34,000 275 492 0
2021-09-23 08:06:28 GMT 49.398396 -5.411706 34,000 275 492 0
2021-09-23 08:06:25 GMT 49.397873 -5.401330 34,000 275 492 0
2021-09-23 08:06:22 GMT 49.397232 -5.389146 34,000 275 492 0
2021-09-23 08:06:20 GMT 49.396866 -5.382174 34,000 275 492 0
2021-09-23 08:06:17 GMT 49.396301 -5.371086 34,000 275 492 0
2021-09-23 08:06:14 GMT 49.395813 -5.361328 34,000 275 492 0
2021-09-23 08:06:12 GMT 49.395355 -5.351962 34,000 275 492 0
2021-09-23 08:06:06 GMT 49.394344 -5.332561 34,000 275 492 0
2021-09-23 08:06:02 GMT 49.393692 -5.319696 34,000 275 492 0
2021-09-23 08:05:59 GMT 49.393066 -5.307242 34,000 275 491 0
2021-09-23 08:05:56 GMT 49.392624 -5.298880 34,000 275 491 0
2021-09-23 08:05:53 GMT 49.392113 -5.288833 34,000 275 491 0
2021-09-23 08:05:51 GMT 49.391235 -5.271466 34,000 275 491 0
2021-09-23 08:05:48 GMT 49.391235 -5.271466 34,000 275 491 0
2021-09-23 08:05:45 GMT 49.390778 -5.262803 34,000 275 491 0
2021-09-23 08:05:43 GMT 49.390320 -5.254141 34,000 275 491 0
2021-09-23 08:05:41 GMT 49.389923 -5.246839 34,000 275 492 0
2021-09-23 08:05:39 GMT 49.389542 -5.239211 34,000 275 491 0
2021-09-23 08:05:36 GMT 49.388199 -5.213880 34,000 275 492 0
2021-09-23 08:05:32 GMT 49.388199 -5.213880 34,000 275 492 0
2021-09-23 08:05:30 GMT 49.388016 -5.210411 34,000 275 492 0
2021-09-23 08:05:25 GMT 49.387131 -5.193064 34,000 275 492 0
2021-09-23 08:05:22 GMT 49.386433 -5.179548 34,000 275 492 0
2021-09-23 08:05:20 GMT 49.386150 -5.174705 34,000 275 492 0
2021-09-23 08:05:17 GMT 49.385548 -5.162562 34,000 275 492 0
2021-09-23 08:05:14 GMT 49.385128 -5.154539 34,000 275 492 0
2021-09-23 08:05:12 GMT 49.384151 -5.136181 34,000 275 492 0
2021-09-23 08:05:09 GMT 49.384151 -5.136181 34,000 275 492 0
2021-09-23 08:05:05 GMT 49.383404 -5.121942 34,000 275 492 0
2021-09-23 08:05:02 GMT 49.382801 -5.109799 34,000 275 492 0
2021-09-23 08:04:59 GMT 49.382401 -5.102093 34,000 275 491 0
2021-09-23 08:04:55 GMT 49.381577 -5.086529 34,000 275 492 0
2021-09-23 08:04:52 GMT 49.380939 -5.074744 34,000 275 492 0
2021-09-23 08:04:48 GMT 49.380287 -5.062601 34,000 275 492 0
2021-09-23 08:04:45 GMT 49.379726 -5.052482 34,000 275 491 0
2021-09-23 08:04:43 GMT 49.379311 -5.044170 34,000 275 491 0
2021-09-23 08:04:41 GMT 49.379028 -5.038966 34,000 275 491 0
2021-09-23 08:04:39 GMT 49.378517 -5.030004 34,000 275 491 0
2021-09-23 08:04:36 GMT 49.378006 -5.020607 34,000 275 491 0
2021-09-23 08:04:33 GMT 49.377445 -5.009838 34,000 275 491 0
2021-09-23 08:04:31 GMT 49.377136 -5.004695 34,000 275 491 0
2021-09-23 08:04:27 GMT 49.376221 -4.987300 34,000 275 491 0
2021-09-23 08:04:24 GMT 49.375771 -4.979047 34,000 275 491 0
2021-09-23 08:04:21 GMT 49.375259 -4.969623 34,000 275 491 0
2021-09-23 08:04:17 GMT 49.373863 -4.944354 34,000 275 491 0
2021-09-23 08:04:14 GMT 49.373291 -4.933988 34,000 275 491 0
2021-09-23 08:04:11 GMT 49.373291 -4.933988 34,000 275 491 0
2021-09-23 08:04:09 GMT 49.373016 -4.928777 34,000 275 491 0
2021-09-23 08:04:06 GMT 49.371765 -4.906263 34,000 275 491 0
2021-09-23 08:04:03 GMT 49.371765 -4.906263 34,000 275 491 0
2021-09-23 08:04:01 GMT 49.371460 -4.901100 34,000 275 491 0
2021-09-23 08:03:58 GMT 49.370865 -4.890325 34,000 275 491 0
2021-09-23 08:03:53 GMT 49.369766 -4.869901 34,000 275 491 0
2021-09-23 08:03:51 GMT 49.369492 -4.864690 34,000 275 491 0
2021-09-23 08:03:49 GMT 49.369080 -4.857788 34,000 275 491 0
2021-09-23 08:03:46 GMT 49.368553 -4.848079 34,000 275 491 0
2021-09-23 08:03:43 GMT 49.367905 -4.836008 34,000 275 491 0
2021-09-23 08:03:41 GMT 49.366924 -4.818661 34,000 275 491 0
2021-09-23 08:03:38 GMT 49.366924 -4.818661 34,000 275 491 0
2021-09-23 08:03:33 GMT 49.365646 -4.795814 34,000 275 491 0
2021-09-23 08:03:31 GMT 49.365646 -4.795814 34,000 275 491 0
2021-09-23 08:03:29 GMT 49.365341 -4.789533 34,000 275 491 0
2021-09-23 08:03:24 GMT 49.364365 -4.772221 34,000 275 491 0
2021-09-23 08:03:22 GMT 49.363861 -4.763559 34,000 275 491 0
2021-09-23 08:03:19 GMT 49.363266 -4.752784 34,000 275 491 0
2021-09-23 08:03:14 GMT 49.362396 -4.737220 34,000 275 491 0
2021-09-23 08:03:12 GMT 49.361938 -4.728558 34,000 275 491 0
2021-09-23 08:03:10 GMT 49.361115 -4.714402 34,000 275 491 0
2021-09-23 08:03:07 GMT 49.361115 -4.714402 34,000 275 491 0
2021-09-23 08:03:04 GMT 49.360500 -4.703305 34,000 276 490 0
2021-09-23 08:03:02 GMT 49.359989 -4.693981 34,000 276 490 0
2021-09-23 08:02:59 GMT 49.359524 -4.685669 34,000 276 490 0
2021-09-23 08:02:57 GMT 49.359100 -4.678697 34,000 276 490 0
2021-09-23 08:02:54 GMT 49.358501 -4.668322 34,000 276 490 0
2021-09-23 08:02:51 GMT 49.357864 -4.657640 34,000 276 490 0
2021-09-23 08:02:48 GMT 49.357101 -4.643820 34,000 276 489 0
2021-09-23 08:02:43 GMT 49.356308 -4.630315 34,000 276 490 0
2021-09-23 08:02:41 GMT 49.355804 -4.622075 34,000 276 489 0
2021-09-23 08:02:37 GMT 49.355072 -4.609258 34,000 276 489 0
2021-09-23 08:02:33 GMT 49.354202 -4.594116 34,000 276 489 0
2021-09-23 08:02:31 GMT 49.353752 -4.586864 34,000 276 489 0
2021-09-23 08:02:27 GMT 49.353012 -4.573763 34,000 276 489 0
2021-09-23 08:02:23 GMT 49.352325 -4.561650 34,000 276 489 0
2021-09-23 08:02:20 GMT 49.351639 -4.550312 34,000 276 489 0
2021-09-23 08:02:17 GMT 49.350998 -4.539607 34,000 276 489 0
2021-09-23 08:02:14 GMT 49.350307 -4.527885 34,000 276 489 0
2021-09-23 08:02:11 GMT 49.349808 -4.518973 34,000 276 489 0
2021-09-23 08:02:07 GMT 49.349003 -4.505117 34,000 276 489 0
2021-09-23 08:02:04 GMT 49.348446 -4.495504 34,000 276 489 0
2021-09-23 08:02:01 GMT 49.347702 -4.482774 34,000 276 489 0
2021-09-23 08:01:58 GMT 49.347282 -4.476206 34,000 276 489 0
2021-09-23 08:01:56 GMT 49.346909 -4.469629 34,000 276 489 0
2021-09-23 08:01:53 GMT 49.346210 -4.457558 34,000 276 489 0
2021-09-23 08:01:50 GMT 49.345650 -4.447945 34,000 276 489 0
2021-09-23 08:01:47 GMT 49.344860 -4.434140 34,000 276 489 0
2021-09-23 08:01:43 GMT 49.344299 -4.424527 34,000 276 489 0
2021-09-23 08:01:41 GMT 49.343674 -4.414180 34,000 276 489 0
2021-09-23 08:01:38 GMT 49.343262 -4.406926 34,000 276 489 0
2021-09-23 08:01:35 GMT 49.342438 -4.393475 34,000 276 490 0
2021-09-23 08:01:32 GMT 49.341934 -4.384883 34,000 276 490 0
2021-09-23 08:01:30 GMT 49.341660 -4.380024 34,000 276 490 0
2021-09-23 08:01:26 GMT 49.340626 -4.363162 34,000 276 490 0
2021-09-23 08:01:23 GMT 49.340012 -4.352840 34,000 276 490 0
2021-09-23 08:01:20 GMT 49.339508 -4.344529 34,000 276 490 0
2021-09-23 08:01:18 GMT 49.339088 -4.337648 34,000 276 490 0
2021-09-23 08:01:16 GMT 49.338455 -4.327275 34,000 276 490 0
2021-09-23 08:01:13 GMT 49.337460 -4.310760 34,000 276 490 0
2021-09-23 08:01:10 GMT 49.337460 -4.310760 34,000 276 490 0
2021-09-23 08:01:07 GMT 49.336349 -4.292133 34,000 276 490 0
2021-09-23 08:01:05 GMT 49.336349 -4.292133 34,000 276 490 0
2021-09-23 08:01:02 GMT 49.335800 -4.283471 34,000 276 490 0
2021-09-23 08:01:00 GMT 49.335297 -4.275231 34,000 276 490 0
2021-09-23 08:00:58 GMT 49.334900 -4.268333 34,000 276 490 0
2021-09-23 08:00:56 GMT 49.334339 -4.259009 34,000 276 490 0
2021-09-23 08:00:53 GMT 49.333740 -4.249385 34,000 276 490 0
2021-09-23 08:00:50 GMT 49.333237 -4.241145 34,000 276 489 0
2021-09-23 08:00:47 GMT 49.332504 -4.229032 34,000 276 489 0
2021-09-23 08:00:43 GMT 49.331638 -4.214630 34,000 276 489 0
2021-09-23 08:00:40 GMT 49.331085 -4.205651 34,000 276 489 0
2021-09-23 08:00:37 GMT 49.330261 -4.192200 34,000 276 489 0
2021-09-23 08:00:33 GMT 49.329529 -4.180157 34,000 276 489 0
2021-09-23 08:00:30 GMT 49.328239 -4.159193 34,000 276 489 0
2021-09-23 08:00:27 GMT 49.328239 -4.159193 34,000 276 489 0
2021-09-23 08:00:23 GMT 49.327541 -4.147845 34,000 276 489 0
2021-09-23 08:00:20 GMT 49.326920 -4.137831 34,000 276 489 0
2021-09-23 08:00:18 GMT 49.326424 -4.130281 34,000 276 489 0
2021-09-23 08:00:15 GMT 49.325729 -4.119239 34,000 276 489 0
2021-09-23 08:00:12 GMT 49.325089 -4.108605 34,000 276 489 0
2021-09-23 08:00:10 GMT 49.324238 -4.094865 34,000 276 489 0
2021-09-23 08:00:08 GMT 49.324238 -4.094865 34,000 276 489 0
2021-09-23 08:00:06 GMT 49.323853 -4.087970 34,000 276 489 0
2021-09-23 08:00:03 GMT 49.323166 -4.076914 34,000 276 489 0
2021-09-23 08:00:00 GMT 49.322376 -4.064219 34,000 276 489 0
2021-09-23 07:59:56 GMT 49.321655 -4.053180 34,000 276 489 0
2021-09-23 07:59:52 GMT 49.320923 -4.041490 34,000 276 489 0
2021-09-23 07:59:50 GMT 49.319954 -4.026056 34,000 276 489 0
2021-09-23 07:59:48 GMT 49.319954 -4.026056 34,000 276 489 0
2021-09-23 07:59:46 GMT 49.319641 -4.020855 34,000 276 489 0
2021-09-23 07:59:43 GMT 49.318886 -4.008853 34,000 276 489 0
2021-09-23 07:59:40 GMT 49.318268 -3.998883 34,000 276 489 0
2021-09-23 07:59:37 GMT 49.317673 -3.989586 34,000 276 489 0
2021-09-23 07:59:34 GMT 49.316742 -3.975172 34,000 276 489 0
2021-09-23 07:59:30 GMT 49.316071 -3.964797 34,000 276 489 0
2021-09-23 07:59:27 GMT 49.315437 -3.954500 34,000 276 489 0
2021-09-23 07:59:25 GMT 49.315113 -3.949730 34,000 276 488 0
2021-09-23 07:59:22 GMT 49.314331 -3.936979 34,000 276 488 0
2021-09-23 07:59:19 GMT 49.313576 -3.925299 34,000 276 488 0
2021-09-23 07:59:16 GMT 49.312740 -3.911928 34,000 276 488 0
2021-09-23 07:59:13 GMT 49.311623 -3.894436 34,000 276 488 0
2021-09-23 07:59:10 GMT 49.311623 -3.894436 34,000 276 488 0
2021-09-23 07:59:07 GMT 49.311111 -3.886847 34,000 276 488 0
2021-09-23 07:59:05 GMT 49.310806 -3.882047 34,000 276 488 0
2021-09-23 07:59:03 GMT 49.310211 -3.872469 34,000 276 488 0
2021-09-23 07:59:00 GMT 49.309433 -3.859722 34,000 276 488 0
2021-09-23 07:58:58 GMT 49.308975 -3.853243 34,000 276 488 0
2021-09-23 07:58:55 GMT 49.308548 -3.846371 34,000 276 488 0
2021-09-23 07:58:53 GMT 49.307899 -3.836108 34,000 276 488 0
2021-09-23 07:58:51 GMT 49.307602 -3.831623 34,000 276 488 0
2021-09-23 07:58:47 GMT 49.306686 -3.817532 34,000 276 488 0
2021-09-23 07:58:45 GMT 49.306267 -3.810666 34,000 276 488 0
2021-09-23 07:58:42 GMT 49.305431 -3.798017 34,000 276 488 0
2021-09-23 07:58:39 GMT 49.305012 -3.791512 34,000 276 488 0
2021-09-23 07:58:36 GMT 49.303848 -3.773298 34,000 276 488 0
2021-09-23 07:58:32 GMT 49.303242 -3.764046 34,000 276 488 0
2021-09-23 07:58:29 GMT 49.302795 -3.757183 34,000 276 488 0
2021-09-23 07:58:26 GMT 49.302032 -3.745471 34,000 276 489 0
2021-09-23 07:58:24 GMT 49.301613 -3.739327 34,000 276 489 0
2021-09-23 07:58:22 GMT 49.300915 -3.728630 34,000 276 489 0
2021-09-23 07:58:19 GMT 49.300495 -3.722125 34,000 276 489 0
2021-09-23 07:58:16 GMT 49.299911 -3.713168 34,000 276 489 0
2021-09-23 07:58:14 GMT 49.299240 -3.702899 34,000 276 489 0
2021-09-23 07:58:11 GMT 49.298588 -3.692924 34,000 276 489 0
2021-09-23 07:58:09 GMT 49.298309 -3.688081 34,000 276 489 0
2021-09-23 07:58:07 GMT 49.297840 -3.681215 34,000 276 489 0
2021-09-23 07:58:04 GMT 49.296982 -3.668518 34,000 276 489 0
2021-09-23 07:58:01 GMT 49.296387 -3.658870 34,000 276 489 0
2021-09-23 07:57:59 GMT 49.295517 -3.646193 34,000 276 489 0
2021-09-23 07:57:57 GMT 49.295517 -3.646193 34,000 276 489 0
2021-09-23 07:57:54 GMT 49.294769 -3.634162 34,000 276 489 0
2021-09-23 07:57:51 GMT 49.294189 -3.625559 34,000 276 489 0
2021-09-23 07:57:47 GMT 49.293186 -3.610816 34,000 276 489 0
2021-09-23 07:57:44 GMT 49.292496 -3.600487 34,000 276 488 0
2021-09-23 07:57:41 GMT 49.291836 -3.590505 34,000 276 489 0
2021-09-23 07:57:37 GMT 49.290894 -3.576120 34,000 276 489 0
2021-09-23 07:57:34 GMT 49.289928 -3.562028 34,000 276 488 0
2021-09-23 07:57:30 GMT 49.289520 -3.555486 34,000 276 488 0
2021-09-23 07:57:28 GMT 49.288788 -3.544851 34,000 276 488 0
2021-09-23 07:57:25 GMT 49.288147 -3.534851 34,000 276 488 0
2021-09-23 07:57:21 GMT 49.287231 -3.521470 34,000 276 488 0
2021-09-23 07:57:19 GMT 49.286774 -3.514639 34,000 276 488 0
2021-09-23 07:57:17 GMT 49.286270 -3.507456 34,000 276 488 0
2021-09-23 07:57:14 GMT 49.285458 -3.495098 34,000 276 488 0
2021-09-23 07:57:11 GMT 49.284851 -3.486469 34,000 276 488 0
2021-09-23 07:57:09 GMT 49.284393 -3.479286 34,000 276 488 0
2021-09-23 07:57:07 GMT 49.283890 -3.472102 34,000 276 488 0
2021-09-23 07:57:05 GMT 49.283569 -3.467313 34,000 276 488 0
2021-09-23 07:57:03 GMT 49.283131 -3.460404 34,000 276 488 0
2021-09-23 07:57:00 GMT 49.282288 -3.448087 34,000 276 488 0
2021-09-23 07:56:57 GMT 49.281647 -3.438509 34,000 276 488 0
2021-09-23 07:56:54 GMT 49.281132 -3.430915 34,000 276 488 0
2021-09-23 07:56:51 GMT 49.280273 -3.418579 34,000 276 488 0
2021-09-23 07:56:48 GMT 49.279541 -3.407945 34,000 276 488 0
2021-09-23 07:56:45 GMT 49.278854 -3.397311 34,000 276 488 0
2021-09-23 07:56:43 GMT 49.278397 -3.390832 34,000 276 488 0
2021-09-23 07:56:39 GMT 49.277390 -3.376042 34,000 276 488 0
2021-09-23 07:56:36 GMT 49.276749 -3.366817 34,000 276 488 0
2021-09-23 07:56:33 GMT 49.275452 -3.347650 34,000 276 488 0
2021-09-23 07:56:30 GMT 49.275452 -3.347650 34,000 277 488 0
2021-09-23 07:56:28 GMT 49.274708 -3.337025 34,000 276 488 0
2021-09-23 07:56:25 GMT 49.274368 -3.332520 34,000 277 488 0
2021-09-23 07:56:22 GMT 49.273636 -3.321956 34,000 277 488 0
2021-09-23 07:56:19 GMT 49.272812 -3.309913 34,000 277 488 0
2021-09-23 07:56:16 GMT 49.271912 -3.296910 34,000 277 488 0
2021-09-23 07:56:13 GMT 49.271301 -3.288011 34,000 277 488 0
2021-09-23 07:56:10 GMT 49.270569 -3.278081 34,000 277 488 0
2021-09-23 07:56:07 GMT 49.269882 -3.268151 34,000 277 488 0
2021-09-23 07:56:04 GMT 49.269073 -3.256507 34,000 277 488 0
2021-09-23 07:56:02 GMT 49.268097 -3.242094 34,000 277 488 0
2021-09-23 07:55:59 GMT 49.268097 -3.242094 34,000 277 488 0
2021-09-23 07:55:56 GMT 49.267117 -3.228390 34,000 277 488 0
2021-09-23 07:55:53 GMT 49.266220 -3.215684 34,000 277 488 0
2021-09-23 07:55:50 GMT 49.265862 -3.210538 34,000 277 488 0
2021-09-23 07:55:48 GMT 49.265350 -3.203008 34,000 277 488 0
2021-09-23 07:55:46 GMT 49.264835 -3.195504 34,000 277 488 0
2021-09-23 07:55:44 GMT 49.264389 -3.188993 34,000 277 488 0
2021-09-23 07:55:41 GMT 49.263611 -3.178359 34,000 277 488 0
2021-09-23 07:55:39 GMT 49.263336 -3.174274 34,000 277 488 0
2021-09-23 07:55:37 GMT 49.262787 -3.166387 34,000 277 488 0
2021-09-23 07:55:35 GMT 49.261597 -3.148921 34,000 277 488 0
2021-09-23 07:55:32 GMT 49.261597 -3.148921 34,000 277 488 0
2021-09-23 07:55:29 GMT 49.260834 -3.138620 34,000 277 487 0
2021-09-23 07:55:27 GMT 49.260323 -3.131465 34,000 277 487 0
2021-09-23 07:55:25 GMT 49.259995 -3.126315 34,000 277 487 0
2021-09-23 07:55:22 GMT 49.258987 -3.112230 34,000 277 487 0
2021-09-23 07:55:19 GMT 49.258507 -3.105445 34,000 277 487 0
2021-09-23 07:55:17 GMT 49.257065 -3.085186 34,000 277 487 0
2021-09-23 07:55:14 GMT 49.257065 -3.085186 34,000 277 487 0
2021-09-23 07:55:12 GMT 49.256783 -3.081448 34,000 277 487 0
2021-09-23 07:55:10 GMT 49.256180 -3.072919 34,000 277 487 0
2021-09-23 07:55:08 GMT 49.255711 -3.066053 34,000 277 487 0
2021-09-23 07:55:06 GMT 49.255142 -3.058495 34,000 277 487 0
2021-09-23 07:55:04 GMT 49.254597 -3.050947 34,000 277 487 0
2021-09-23 07:55:02 GMT 49.254272 -3.045819 34,000 277 487 0
2021-09-23 07:54:59 GMT 49.253059 -3.029046 34,000 277 488 0
2021-09-23 07:54:55 GMT 49.252453 -3.020807 34,000 277 488 0
2021-09-23 07:54:52 GMT 49.251572 -3.008493 34,000 277 488 64
2021-09-23 07:54:49 GMT 49.251102 -3.001653 34,000 277 488 64
2021-09-23 07:54:47 GMT 49.250427 -2.992084 34,000 277 488 64
2021-09-23 07:54:43 GMT 49.249706 -2.982138 34,000 277 488 0
2021-09-23 07:54:40 GMT 49.248917 -2.971168 34,000 277 488 0
2021-09-23 07:54:38 GMT 49.248356 -2.963634 34,000 277 488 0
2021-09-23 07:54:35 GMT 49.247753 -2.955033 34,000 277 488 0
2021-09-23 07:54:33 GMT 49.247269 -2.948561 34,000 277 488 0
2021-09-23 07:54:31 GMT 49.246544 -2.938265 34,000 277 488 0
2021-09-23 07:54:28 GMT 49.245667 -2.926659 34,000 277 488 0
2021-09-23 07:54:25 GMT 49.244888 -2.915673 34,000 277 488 0
2021-09-23 07:54:21 GMT 49.244247 -2.907081 34,000 277 488 0
2021-09-23 07:54:19 GMT 49.243656 -2.898873 34,000 277 488 0
2021-09-23 07:54:17 GMT 49.243141 -2.891645 34,000 277 488 0
2021-09-23 07:54:15 GMT 49.242584 -2.884128 34,000 277 488 0
2021-09-23 07:54:12 GMT 49.241776 -2.873207 34,000 277 488 0
2021-09-23 07:54:10 GMT 49.241547 -2.869756 34,000 277 488 0
2021-09-23 07:54:07 GMT 49.240631 -2.857431 34,000 277 488 0
2021-09-23 07:54:05 GMT 49.240211 -2.851603 34,000 277 488 0
2021-09-23 07:54:02 GMT 49.239281 -2.838954 34,000 277 488 0
2021-09-23 07:53:59 GMT 49.238674 -2.830353 34,000 277 488 0
2021-09-23 07:53:57 GMT 49.238113 -2.822853 34,000 277 488 0
2021-09-23 07:53:53 GMT 49.237198 -2.810176 34,000 277 488 0
2021-09-23 07:53:50 GMT 49.236347 -2.798550 34,000 277 487 0
2021-09-23 07:53:48 GMT 49.235779 -2.790316 34,000 277 487 0
2021-09-23 07:53:45 GMT 49.235184 -2.782076 34,000 277 488 0
2021-09-23 07:53:42 GMT 49.234390 -2.771807 34,000 277 488 0
2021-09-23 07:53:39 GMT 49.233227 -2.756123 34,000 277 488 0
2021-09-23 07:53:37 GMT 49.233227 -2.756123 34,000 277 488 0
2021-09-23 07:53:35 GMT 49.232716 -2.749256 34,000 277 488 0
2021-09-23 07:53:33 GMT 49.232109 -2.740727 34,000 277 488 0
2021-09-23 07:53:31 GMT 49.231613 -2.734187 34,000 277 488 0
2021-09-23 07:53:29 GMT 49.231087 -2.727356 34,000 277 488 0
2021-09-23 07:53:27 GMT 49.230667 -2.721501 34,000 277 488 0
2021-09-23 07:53:25 GMT 49.230156 -2.714707 34,000 277 488 0
2021-09-23 07:53:23 GMT 49.229599 -2.707144 34,000 277 488 0
2021-09-23 07:53:20 GMT 49.228710 -2.695553 34,000 277 489 -64
2021-09-23 07:53:17 GMT 49.228043 -2.686650 34,000 277 488 0
2021-09-23 07:53:15 GMT 49.227539 -2.679819 34,000 277 488 0
2021-09-23 07:53:12 GMT 49.226433 -2.665052 34,000 277 489 0
2021-09-23 07:53:09 GMT 49.225918 -2.658258 34,000 277 489 0
2021-09-23 07:53:06 GMT 49.225113 -2.647283 34,000 277 489 0
2021-09-23 07:53:03 GMT 49.224384 -2.637731 34,000 277 489 0
2021-09-23 07:53:01 GMT 49.223877 -2.630873 34,000 277 489 0
2021-09-23 07:52:59 GMT 49.223404 -2.624359 34,000 277 489 0
2021-09-23 07:52:57 GMT 49.222870 -2.617493 34,000 277 489 0
2021-09-23 07:52:54 GMT 49.222275 -2.609253 34,000 277 489 0
2021-09-23 07:52:52 GMT 49.221497 -2.599323 34,000 277 489 0
2021-09-23 07:52:50 GMT 49.221172 -2.594870 34,000 277 489 0
2021-09-23 07:52:48 GMT 49.220673 -2.588055 34,000 277 489 0
2021-09-23 07:52:46 GMT 49.220146 -2.581209 34,000 277 489 0
2021-09-23 07:52:44 GMT 49.219635 -2.574342 34,000 277 489 0
2021-09-23 07:52:41 GMT 49.218109 -2.554110 34,000 277 489 0
2021-09-23 07:52:39 GMT 49.218109 -2.554110 34,000 277 489 0
2021-09-23 07:52:37 GMT 49.217468 -2.546222 34,000 277 489 0
2021-09-23 07:52:34 GMT 49.216827 -2.537701 34,000 277 489 0
2021-09-23 07:52:32 GMT 49.215912 -2.525729 34,000 277 489 0
2021-09-23 07:52:30 GMT 49.215912 -2.525729 34,000 277 489 0
2021-09-23 07:52:28 GMT 49.215271 -2.517137 34,000 277 489 0
2021-09-23 07:52:25 GMT 49.214561 -2.507557 34,000 277 489 0
2021-09-23 07:52:22 GMT 49.213669 -2.495939 34,000 277 489 0
2021-09-23 07:52:20 GMT 49.213303 -2.491150 34,000 277 488 0
2021-09-23 07:52:17 GMT 49.212280 -2.477417 34,000 277 489 0
2021-09-23 07:52:14 GMT 49.211746 -2.470586 34,000 277 488 64
2021-09-23 07:52:12 GMT 49.211349 -2.465130 34,000 277 488 0
2021-09-23 07:52:09 GMT 49.210419 -2.453131 34,000 277 488 0
2021-09-23 07:52:06 GMT 49.209686 -2.443190 34,000 277 488 0
2021-09-23 07:52:04 GMT 49.209251 -2.437736 34,000 277 488 0
2021-09-23 07:52:02 GMT 49.208725 -2.431218 34,000 277 488 0
2021-09-23 07:51:59 GMT 49.207253 -2.411788 34,000 277 488 0
2021-09-23 07:51:57 GMT 49.207253 -2.411788 34,000 277 488 64
2021-09-23 07:51:54 GMT 49.206436 -2.401499 34,000 277 488 0
2021-09-23 07:51:51 GMT 49.205704 -2.391569 34,000 277 488 64
2021-09-23 07:51:48 GMT 49.204830 -2.380636 34,000 277 488 0
2021-09-23 07:51:44 GMT 49.203899 -2.368710 34,000 277 488 0
2021-09-23 07:51:42 GMT 49.203342 -2.361193 34,000 277 488 0
2021-09-23 07:51:39 GMT 49.202644 -2.352664 34,000 277 488 0
2021-09-23 07:51:37 GMT 49.201946 -2.343413 34,000 277 488 0
2021-09-23 07:51:35 GMT 49.201527 -2.338281 34,000 277 487 0
2021-09-23 07:51:33 GMT 49.200943 -2.330440 34,000 277 487 0
2021-09-23 07:51:30 GMT 49.200314 -2.322235 34,000 277 487 0
2021-09-23 07:51:27 GMT 49.199291 -2.309659 34,000 277 487 0
2021-09-23 07:51:25 GMT 49.198837 -2.303467 34,000 277 487 0
2021-09-23 07:51:23 GMT 49.198219 -2.295637 34,000 277 487 0
2021-09-23 07:51:21 GMT 49.197800 -2.290216 34,000 277 487 0
2021-09-23 07:51:19 GMT 49.197243 -2.283060 34,000 277 487 0
2021-09-23 07:51:17 GMT 49.196548 -2.274170 34,000 277 487 0
2021-09-23 07:51:14 GMT 49.195847 -2.265352 34,000 277 486 0
2021-09-23 07:51:12 GMT 49.195312 -2.258536 34,000 277 486 0
2021-09-23 07:51:09 GMT 49.194397 -2.246563 34,000 277 486 0
2021-09-23 07:51:06 GMT 49.193890 -2.240127 34,000 277 486 0
2021-09-23 07:51:03 GMT 49.192795 -2.226140 34,000 277 486 0
2021-09-23 07:51:01 GMT 49.192261 -2.219672 34,000 277 486 0
2021-09-23 07:50:57 GMT 49.191147 -2.205365 34,000 277 486 0
2021-09-23 07:50:54 GMT 49.190598 -2.198252 34,000 277 486 0
2021-09-23 07:50:52 GMT 49.189888 -2.189387 34,000 277 486 0
2021-09-23 07:50:50 GMT 49.189327 -2.182593 34,000 277 486 0
2021-09-23 07:50:47 GMT 49.187744 -2.162861 34,000 277 486 0
2021-09-23 07:50:44 GMT 49.187744 -2.162861 34,000 277 486 0
2021-09-23 07:50:41 GMT 49.187141 -2.155055 34,000 277 486 0
2021-09-23 07:50:38 GMT 49.186115 -2.141828 34,000 277 486 0
2021-09-23 07:50:36 GMT 49.185745 -2.137404 34,000 277 486 0
2021-09-23 07:50:34 GMT 49.185013 -2.128179 34,000 277 486 0
2021-09-23 07:50:32 GMT 49.184486 -2.121373 34,000 277 486 0
2021-09-23 07:50:30 GMT 49.183823 -2.112896 34,000 277 486 0
2021-09-23 07:50:27 GMT 49.183090 -2.104026 34,000 277 485 0
2021-09-23 07:50:25 GMT 49.181717 -2.086698 34,000 277 486 0
2021-09-23 07:50:22 GMT 49.181717 -2.086698 34,000 277 485 0
2021-09-23 07:50:19 GMT 49.180206 -2.068035 34,000 277 485 0
2021-09-23 07:50:16 GMT 49.180206 -2.068035 34,000 277 485 0
2021-09-23 07:50:14 GMT 49.179741 -2.061888 34,000 277 485 0
2021-09-23 07:50:11 GMT 49.178879 -2.051415 34,000 277 485 0
2021-09-23 07:50:09 GMT 49.178345 -2.044613 34,000 277 485 0
2021-09-23 07:50:06 GMT 49.177223 -2.030664 34,000 277 485 0
2021-09-23 07:50:03 GMT 49.176773 -2.025217 34,000 277 485 0
2021-09-23 07:50:01 GMT 49.176201 -2.018087 34,000 277 485 0
2021-09-23 07:49:59 GMT 49.175674 -2.011343 34,000 277 485 0
2021-09-23 07:49:56 GMT 49.174713 -1.999078 34,000 277 485 0
2021-09-23 07:49:54 GMT 49.174198 -1.993007 34,000 277 485 0
2021-09-23 07:49:51 GMT 49.173409 -1.983177 34,000 277 485 0
2021-09-23 07:49:49 GMT 49.172897 -1.976672 34,000 277 485 0
2021-09-23 07:49:46 GMT 49.172104 -1.966834 34,000 278 485 0
2021-09-23 07:49:44 GMT 49.171234 -1.956341 34,000 278 485 0
2021-09-23 07:49:41 GMT 49.170639 -1.949228 34,000 278 485 0
2021-09-23 07:49:36 GMT 49.168522 -1.923113 34,000 278 485 0
2021-09-23 07:49:34 GMT 49.168522 -1.923113 34,000 278 485 0
2021-09-23 07:49:31 GMT 49.167774 -1.913934 34,000 278 485 0
2021-09-23 07:49:29 GMT 49.167404 -1.909164 34,000 278 485 0
2021-09-23 07:49:26 GMT 49.166424 -1.897021 34,000 278 485 0
2021-09-23 07:49:23 GMT 49.165649 -1.887817 34,000 278 485 0
2021-09-23 07:49:21 GMT 49.165192 -1.882043 34,000 278 485 0
2021-09-23 07:49:19 GMT 49.164597 -1.874930 34,000 278 485 0
2021-09-23 07:49:16 GMT 49.162857 -1.853872 34,000 278 485 0
2021-09-23 07:49:13 GMT 49.162857 -1.853872 34,000 278 485 0
2021-09-23 07:49:10 GMT 49.161530 -1.837252 34,000 278 485 0
2021-09-23 07:49:08 GMT 49.160652 -1.827055 34,000 278 485 0
2021-09-23 07:49:05 GMT 49.160652 -1.827055 34,000 278 485 0
2021-09-23 07:49:03 GMT 49.160000 -1.818888 34,000 278 485 0
2021-09-23 07:49:00 GMT 49.159378 -1.811476 34,000 278 485 0
2021-09-23 07:48:58 GMT 49.158691 -1.802955 34,000 278 485 0
2021-09-23 07:48:56 GMT 49.158092 -1.795831 34,000 278 485 0
2021-09-23 07:48:54 GMT 49.157253 -1.785278 34,000 278 485 0
2021-09-23 07:48:51 GMT 49.156860 -1.780560 34,000 278 485 0
2021-09-23 07:48:49 GMT 49.156082 -1.771405 34,000 278 485 0
2021-09-23 07:48:46 GMT 49.155254 -1.761210 34,000 278 485 0
2021-09-23 07:48:42 GMT 49.154137 -1.747983 34,000 278 485 0
2021-09-23 07:48:40 GMT 49.153717 -1.742562 34,000 278 485 0
2021-09-23 07:48:37 GMT 49.152599 -1.728973 34,000 278 485 0
2021-09-23 07:48:35 GMT 49.152134 -1.723553 34,000 278 485 0
2021-09-23 07:48:33 GMT 49.151138 -1.711332 34,000 278 485 0
2021-09-23 07:48:31 GMT 49.151138 -1.711332 34,000 278 485 0
2021-09-23 07:48:29 GMT 49.150738 -1.706567 34,000 278 485 0
2021-09-23 07:48:27 GMT 49.150040 -1.698400 34,000 278 485 0
2021-09-23 07:48:25 GMT 49.149296 -1.689293 34,000 278 485 0
2021-09-23 07:48:22 GMT 49.148735 -1.682860 34,000 278 485 0
2021-09-23 07:48:19 GMT 49.147106 -1.663128 34,000 278 485 0
2021-09-23 07:48:17 GMT 49.147106 -1.663128 34,000 278 485 0
2021-09-23 07:48:15 GMT 49.146687 -1.658430 34,000 278 485 0
2021-09-23 07:48:13 GMT 49.146057 -1.650907 34,000 278 485 0
2021-09-23 07:48:10 GMT 49.145245 -1.641083 34,000 278 485 0
2021-09-23 07:48:08 GMT 49.144547 -1.632949 34,000 278 485 0
2021-09-23 07:48:05 GMT 49.143894 -1.624820 34,000 278 485 0
2021-09-23 07:48:03 GMT 49.142487 -1.608229 34,000 278 484 0
2021-09-23 07:48:01 GMT 49.142487 -1.608229 34,000 278 484 0
2021-09-23 07:47:59 GMT 49.141891 -1.601469 34,000 278 484 0
2021-09-23 07:47:57 GMT 49.141388 -1.594989 34,000 278 484 0
2021-09-23 07:47:55 GMT 49.140976 -1.590271 34,000 278 484 0
2021-09-23 07:47:53 GMT 49.140381 -1.583158 34,000 278 484 0
2021-09-23 07:47:51 GMT 49.139511 -1.573017 34,000 278 484 0
2021-09-23 07:47:48 GMT 49.139008 -1.566925 34,000 278 484 0
2021-09-23 07:47:45 GMT 49.138321 -1.558791 34,000 278 484 0
2021-09-23 07:47:43 GMT 49.136307 -1.535412 34,000 278 485 0
2021-09-23 07:47:40 GMT 49.136307 -1.535412 34,000 278 484 0
2021-09-23 07:47:37 GMT 49.135700 -1.528328 34,000 278 485 0
2021-09-23 07:47:35 GMT 49.135422 -1.524931 34,000 278 485 0
2021-09-23 07:47:33 GMT 49.134583 -1.515101 34,000 278 485 0
2021-09-23 07:47:30 GMT 49.133652 -1.504282 34,000 278 485 0
2021-09-23 07:47:28 GMT 49.133148 -1.498155 34,000 278 485 0
2021-09-23 07:47:25 GMT 49.132233 -1.487732 34,000 278 485 0
2021-09-23 07:47:23 GMT 49.131603 -1.480263 34,000 278 485 0
2021-09-23 07:47:19 GMT 49.130402 -1.466041 34,000 278 485 0
2021-09-23 07:47:17 GMT 49.129929 -1.460676 34,000 278 485 0
2021-09-23 07:47:15 GMT 49.129230 -1.452508 34,000 278 485 0
2021-09-23 07:47:13 GMT 49.128754 -1.447097 34,000 278 485 0
2021-09-23 07:47:10 GMT 49.127789 -1.435956 34,000 278 485 0
2021-09-23 07:47:08 GMT 49.127060 -1.427166 34,000 278 485 0
2021-09-23 07:47:05 GMT 49.126465 -1.420053 34,000 278 485 0
2021-09-23 07:47:02 GMT 49.125553 -1.409936 34,000 278 485 0
2021-09-23 07:47:00 GMT 49.124855 -1.401480 34,000 278 485 0
2021-09-23 07:46:58 GMT 49.124405 -1.396390 34,000 278 484 0
2021-09-23 07:46:55 GMT 49.123409 -1.384928 34,000 278 484 0
2021-09-23 07:46:53 GMT 49.122803 -1.377446 34,000 278 484 0
2021-09-23 07:46:50 GMT 49.121922 -1.367292 34,000 278 484 0
2021-09-23 07:46:47 GMT 49.121109 -1.358220 34,000 278 484 0
2021-09-23 07:46:44 GMT 49.119919 -1.344380 34,000 278 484 0
2021-09-23 07:46:42 GMT 49.119919 -1.344380 34,000 278 484 0
2021-09-23 07:46:39 GMT 49.118912 -1.333219 34,000 278 484 0
2021-09-23 07:46:36 GMT 49.117966 -1.322046 34,000 278 484 0
2021-09-23 07:46:34 GMT 49.117500 -1.316625 34,000 278 484 0
2021-09-23 07:46:32 GMT 49.116615 -1.306867 34,000 278 484 0
2021-09-23 07:46:30 GMT 49.116196 -1.301808 34,000 278 484 0
2021-09-23 07:46:27 GMT 49.115356 -1.292339 34,000 278 484 0
2021-09-23 07:46:24 GMT 49.114006 -1.276872 34,000 278 483 0
2021-09-23 07:46:22 GMT 49.114006 -1.276872 34,000 278 483 0
2021-09-23 07:46:19 GMT 49.113007 -1.265681 34,000 278 483 0
2021-09-23 07:46:16 GMT 49.112228 -1.256596 34,000 278 483 0
2021-09-23 07:46:14 GMT 49.111588 -1.249189 34,000 278 483 0
2021-09-23 07:46:12 GMT 49.111038 -1.242793 34,000 278 483 0
2021-09-23 07:46:10 GMT 49.110214 -1.233708 34,000 278 483 0
2021-09-23 07:46:08 GMT 49.109165 -1.221578 34,000 278 483 0
2021-09-23 07:46:06 GMT 49.109165 -1.221578 34,000 278 483 0
2021-09-23 07:46:04 GMT 49.108566 -1.214834 34,000 278 483 0
2021-09-23 07:46:02 GMT 49.108047 -1.208713 34,000 278 483 0
2021-09-23 07:46:00 GMT 49.107376 -1.201031 34,000 278 483 0
2021-09-23 07:45:56 GMT 49.105453 -1.179410 34,000 278 483 0
2021-09-23 07:45:54 GMT 49.105453 -1.179410 34,000 278 483 0
2021-09-23 07:45:52 GMT 49.104279 -1.165635 34,000 278 483 0
2021-09-23 07:45:50 GMT 49.104279 -1.165635 34,000 278 483 0
2021-09-23 07:45:48 GMT 49.103806 -1.160607 34,000 278 483 0
2021-09-23 07:45:46 GMT 49.103256 -1.154198 34,000 278 483 0
2021-09-23 07:45:44 GMT 49.102554 -1.146120 34,000 278 483 0
2021-09-23 07:45:42 GMT 49.101883 -1.138353 34,000 278 483 0
2021-09-23 07:45:39 GMT 49.101151 -1.129972 34,000 278 483 0
2021-09-23 07:45:37 GMT 49.100510 -1.122859 34,000 278 483 0
2021-09-23 07:45:34 GMT 49.099731 -1.114126 34,000 278 483 0
2021-09-23 07:45:32 GMT 49.098404 -1.098633 34,000 278 482 0
2021-09-23 07:45:30 GMT 49.098404 -1.098633 34,000 278 482 0
2021-09-23 07:45:28 GMT 49.098038 -1.094619 34,000 278 482 0
2021-09-23 07:45:26 GMT 49.097214 -1.085534 34,000 278 482 0
2021-09-23 07:45:24 GMT 49.096802 -1.080815 34,000 278 482 0
2021-09-23 07:45:22 GMT 49.096085 -1.072757 34,000 278 482 0
2021-09-23 07:45:20 GMT 49.095573 -1.066686 34,000 278 482 0
2021-09-23 07:45:16 GMT 49.094177 -1.051218 34,000 278 482 0
2021-09-23 07:45:13 GMT 49.093597 -1.044828 34,000 278 482 0
2021-09-23 07:45:11 GMT 49.093002 -1.037785 34,000 278 482 0
2021-09-23 07:45:08 GMT 49.092079 -1.027728 34,000 278 482 0
2021-09-23 07:45:06 GMT 49.091148 -1.017247 34,000 278 482 0
2021-09-23 07:45:03 GMT 49.090393 -1.008559 34,000 278 482 0
2021-09-23 07:45:01 GMT 49.089939 -1.003514 34,000 278 482 0
2021-09-23 07:44:59 GMT 49.089066 -0.993418 34,000 278 482 0
2021-09-23 07:44:55 GMT 49.087101 -0.971495 34,000 278 483 0
2021-09-23 07:44:52 GMT 49.087101 -0.971495 34,000 278 483 0
2021-09-23 07:44:49 GMT 49.086029 -0.959063 34,000 278 483 0
2021-09-23 07:44:46 GMT 49.085358 -0.951655 34,000 278 483 0
2021-09-23 07:44:44 GMT 49.084717 -0.944261 34,000 278 483 0
2021-09-23 07:44:41 GMT 49.083935 -0.935500 34,000 278 483 0
2021-09-23 07:44:38 GMT 49.083004 -0.925092 34,000 278 483 0
2021-09-23 07:44:35 GMT 49.082073 -0.914684 34,000 278 483 0
2021-09-23 07:44:33 GMT 49.081375 -0.906583 34,000 278 483 0
2021-09-23 07:44:31 GMT 49.080963 -0.901865 34,000 278 483 0
2021-09-23 07:44:29 GMT 49.080276 -0.894118 34,000 278 483 0
2021-09-23 07:44:26 GMT 49.079231 -0.882303 34,000 278 483 0
2021-09-23 07:44:24 GMT 49.078674 -0.875943 34,000 278 483 0
2021-09-23 07:44:22 GMT 49.078125 -0.869540 34,000 278 483 0
2021-09-23 07:44:19 GMT 49.077209 -0.859046 34,000 278 483 0
2021-09-23 07:44:16 GMT 49.076302 -0.848983 34,000 278 483 0
2021-09-23 07:44:13 GMT 49.075695 -0.841900 34,000 278 483 0
2021-09-23 07:44:11 GMT 49.075012 -0.833834 34,000 278 483 0
2021-09-23 07:44:08 GMT 49.074097 -0.823341 34,000 278 483 0
2021-09-23 07:44:06 GMT 49.073410 -0.815242 34,000 278 483 0
2021-09-23 07:44:02 GMT 49.072449 -0.804185 34,000 278 482 0
2021-09-23 07:44:00 GMT 49.071854 -0.797072 34,000 278 482 0
2021-09-23 07:43:58 GMT 49.071442 -0.792354 34,000 278 482 0
2021-09-23 07:43:55 GMT 49.070480 -0.781227 34,000 278 482 0
2021-09-23 07:43:51 GMT 49.069363 -0.767814 34,000 278 482 0
2021-09-23 07:43:48 GMT 49.068478 -0.757334 34,000 278 482 0
2021-09-23 07:43:45 GMT 49.067780 -0.748299 34,000 278 482 0
2021-09-23 07:43:43 GMT 49.067081 -0.739915 34,000 277 482 0
2021-09-23 07:43:41 GMT 49.066292 -0.730157 34,000 277 481 0
2021-09-23 07:43:38 GMT 49.065685 -0.722712 34,000 277 482 64
2021-09-23 07:43:35 GMT 49.064941 -0.712632 34,000 277 480 0
2021-09-23 07:43:32 GMT 49.064117 -0.702209 34,000 277 481 0
2021-09-23 07:43:28 GMT 49.062607 -0.682068 34,000 277 481 0
2021-09-23 07:43:26 GMT 49.062607 -0.682068 34,000 277 480 0
2021-09-23 07:43:23 GMT 49.061646 -0.668969 34,000 277 480 0
2021-09-23 07:43:20 GMT 49.061005 -0.659884 34,000 277 480 0
2021-09-23 07:43:17 GMT 49.060593 -0.654461 34,000 277 480 0
2021-09-23 07:43:15 GMT 49.060043 -0.646785 34,000 277 480 0
2021-09-23 07:43:13 GMT 49.059448 -0.638334 34,000 277 480 0
2021-09-23 07:43:10 GMT 49.059036 -0.632348 34,000 276 480 0
2021-09-23 07:43:08 GMT 49.058304 -0.621925 34,000 276 480 -64
2021-09-23 07:43:05 GMT 49.057678 -0.612488 34,000 276 480 -64
2021-09-23 07:43:03 GMT 49.057114 -0.604459 34,000 277 479 -64
2021-09-23 07:43:01 GMT 49.056793 -0.599741 34,000 277 479 -64
2021-09-23 07:42:59 GMT 49.056244 -0.591360 34,000 277 479 -64
2021-09-23 07:42:56 GMT 49.055584 -0.581986 34,000 277 479 -64
2021-09-23 07:42:53 GMT 49.054794 -0.571578 34,025 278 479 -128
2021-09-23 07:42:50 GMT 49.054001 -0.561570 34,025 278 479 -64
2021-09-23 07:42:48 GMT 49.053223 -0.553190 34,000 279 479 0
2021-09-23 07:42:45 GMT 49.051620 -0.536851 34,025 280 481 192
2021-09-23 07:42:39 GMT 49.050110 -0.522484 34,000 280 481 256
2021-09-23 07:42:36 GMT 49.049606 -0.517484 34,000 280 481 256
2021-09-23 07:42:34 GMT 49.048828 -0.510160 33,975 280 481 384
2021-09-23 07:42:32 GMT 49.048096 -0.503188 33,975 280 482 640
2021-09-23 07:42:30 GMT 49.046925 -0.492433 33,875 280 482 832
2021-09-23 07:42:27 GMT 49.046173 -0.485089 33,875 280 482 832
2021-09-23 07:42:25 GMT 49.043995 -0.464751 33,500 280 483 1664
2021-09-23 07:42:21 GMT 49.043995 -0.464751 33,825 280 482 1344
2021-09-23 07:42:19 GMT 49.043518 -0.460369 33,750 280 482 1472
2021-09-23 07:42:17 GMT 49.042511 -0.450651 33,700 280 483 1600
2021-09-23 07:42:14 GMT 49.041412 -0.440298 33,575 280 483 1600
2021-09-23 07:42:12 GMT 49.040909 -0.435580 33,575 280 483 1600
2021-09-23 07:42:09 GMT 49.039993 -0.427270 33,500 280 483 1600
2021-09-23 07:42:07 GMT 49.038895 -0.416847 33,425 280 483 1664
2021-09-23 07:42:04 GMT 49.036560 -0.395085 33,200 280 485 1792
2021-09-23 07:42:01 GMT 49.036560 -0.395085 33,050 280 485 1792
2021-09-23 07:41:58 GMT 49.034962 -0.379968 33,150 280 484 1728
2021-09-23 07:41:56 GMT 49.034962 -0.379968 33,025 280 484 1728
2021-09-23 07:41:52 GMT 49.033566 -0.366886 32,875 280 485 1792
2021-09-23 07:41:49 GMT 49.032394 -0.356140 32,900 280 485 1792
2021-09-23 07:41:47 GMT 49.031841 -0.351057 32,850 280 485 1792
2021-09-23 07:41:44 GMT 49.030586 -0.339998 32,725 280 486 1792
2021-09-23 07:41:41 GMT 49.029514 -0.330240 32,600 280 486 1792
2021-09-23 07:41:39 GMT 49.028961 -0.325153 32,625 280 486 1792
2021-09-23 07:41:37 GMT 49.028351 -0.319760 32,525 280 486 1792
2021-09-23 07:41:35 GMT 49.027588 -0.312688 32,525 280 486 1792
2021-09-23 07:41:32 GMT 49.026024 -0.298871 32,400 280 487 1792
2021-09-23 07:41:30 GMT 49.025513 -0.294173 32,350 280 488 1856
2021-09-23 07:41:28 GMT 49.024521 -0.285363 32,275 280 488 1856
2021-09-23 07:41:26 GMT 49.023788 -0.278602 32,200 280 488 1856
2021-09-23 07:41:23 GMT 49.022858 -0.269816 32,075 280 489 1856
2021-09-23 07:41:20 GMT 49.021786 -0.259986 32,050 279 488 1856
2021-09-23 07:41:18 GMT 49.020447 -0.247122 31,950 279 489 1856
2021-09-23 07:41:16 GMT 49.020447 -0.247122 31,900 279 489 1920
2021-09-23 07:41:13 GMT 49.019394 -0.236558 31,825 279 489 1920
2021-09-23 07:41:09 GMT 49.017784 -0.220594 31,425 279 489 1984
2021-09-23 07:41:06 GMT 49.017040 -0.213149 31,600 279 490 2048
2021-09-23 07:41:03 GMT 49.015968 -0.202597 31,475 279 491 2112
2021-09-23 07:41:00 GMT 49.015083 -0.194068 31,375 279 491 2112
2021-09-23 07:40:58 GMT 49.014011 -0.183443 31,275 279 491 2240
2021-09-23 07:40:56 GMT 49.013550 -0.178672 31,225 279 494 2368
2021-09-23 07:40:54 GMT 49.012482 -0.168457 31,050 279 493 2368
2021-09-23 07:40:51 GMT 49.010849 -0.152363 31,000 279 494 2368
2021-09-23 07:40:49 GMT 49.010849 -0.152363 30,750 280 495 2432
2021-09-23 07:40:46 GMT 49.010284 -0.147259 30,875 280 494 2432
2021-09-23 07:40:44 GMT 49.009323 -0.137963 30,725 280 495 2496
2021-09-23 07:40:41 GMT 49.008087 -0.126624 30,625 280 496 2496
2021-09-23 07:40:36 GMT 49.005386 -0.101905 30,325 280 497 2368
2021-09-23 07:40:34 GMT 49.004471 -0.093243 30,275 280 497 2368
2021-09-23 07:40:31 GMT 49.004471 -0.093243 30,200 280 498 2240
2021-09-23 07:40:29 GMT 49.003418 -0.083595 30,075 280 499 2112
2021-09-23 07:40:26 GMT 49.002457 -0.074932 30,025 280 499 1856
2021-09-23 07:40:24 GMT 49.001678 -0.067679 29,925 279 499 1792
2021-09-23 07:40:21 GMT 49.000607 -0.057317 29,875 279 498 1728
2021-09-23 07:40:19 GMT 48.999954 -0.051029 29,875 279 498 1536
2021-09-23 07:40:17 GMT 48.999210 -0.043801 29,750 279 498 1472
2021-09-23 07:40:14 GMT 48.997860 -0.030285 29,675 279 498 1344
2021-09-23 07:40:11 GMT 48.997066 -0.022334 29,600 279 497 1344
2021-09-23 07:40:09 GMT 48.996552 -0.017113 29,575 279 497 1280
2021-09-23 07:40:06 GMT 48.995316 -0.005071 29,525 279 496 1280
2021-09-23 07:40:04 GMT 48.994675 0.001549 29,450 279 495 1280
2021-09-23 07:40:00 GMT 48.993530 0.012888 29,425 279 495 1280
2021-09-23 07:39:57 GMT 48.992271 0.025297 29,325 279 495 1408
2021-09-23 07:39:55 GMT 48.991669 0.031441 29,100 279 494 1472
2021-09-23 07:39:53 GMT 48.990829 0.040042 29,275 279 494 1408
2021-09-23 07:39:50 GMT 48.988861 0.059580 29,100 279 494 1472
2021-09-23 07:39:47 GMT 48.988861 0.059580 29,100 279 493 1472
2021-09-23 07:39:45 GMT 48.988083 0.067115 29,050 279 492 1472
2021-09-23 07:39:43 GMT 48.987213 0.075707 28,975 279 492 1536
2021-09-23 07:39:40 GMT 48.986408 0.083915 28,850 279 492 1536
2021-09-23 07:39:37 GMT 48.985382 0.093806 28,825 279 491 1536
2021-09-23 07:39:35 GMT 48.984917 0.098588 28,825 279 491 1536
2021-09-23 07:39:33 GMT 48.984219 0.105382 28,750 279 491 1536
2021-09-23 07:39:30 GMT 48.983105 0.116657 28,700 279 490 1472
2021-09-23 07:39:27 GMT 48.981720 0.130287 28,575 279 490 1472
2021-09-23 07:39:23 GMT 48.980541 0.142172 28,500 279 488 1472
2021-09-23 07:39:21 GMT 48.980217 0.145569 28,375 279 487 1536
2021-09-23 07:39:18 GMT 48.978958 0.158145 28,375 279 488 1472
2021-09-23 07:39:16 GMT 48.978214 0.165301 28,325 279 488 1536
2021-09-23 07:39:14 GMT 48.977657 0.170722 28,300 279 487 1600
2021-09-23 07:39:12 GMT 48.977005 0.177119 28,025 280 488 1600
2021-09-23 07:39:09 GMT 48.975861 0.188317 28,150 280 486 1600
2021-09-23 07:39:06 GMT 48.974716 0.199092 28,050 280 486 1600
2021-09-23 07:39:03 GMT 48.973663 0.208529 28,000 279 485 1216
2021-09-23 07:39:01 GMT 48.972908 0.215245 27,950 280 486 1536
2021-09-23 07:38:59 GMT 48.972198 0.221980 27,800 279 485 1216
2021-09-23 07:38:56 GMT 48.971191 0.231769 27,825 279 484 1152
2021-09-23 07:38:54 GMT 48.970718 0.236857 27,800 278 484 960
2021-09-23 07:38:52 GMT 48.969929 0.245241 27,750 278 484 960
2021-09-23 07:38:49 GMT 48.969090 0.254998 27,725 277 482 832
2021-09-23 07:38:45 GMT 48.967941 0.269799 27,675 276 479 832
2021-09-23 07:38:43 GMT 48.967461 0.276465 27,550 276 477 1152
2021-09-23 07:38:40 GMT 48.966854 0.285572 27,600 276 479 960
2021-09-23 07:38:37 GMT 48.965973 0.300223 27,500 275 477 1280
2021-09-23 07:38:34 GMT 48.965599 0.306605 27,425 275 476 1408
2021-09-23 07:38:31 GMT 48.965149 0.315927 27,375 274 476 1472
2021-09-23 07:38:29 GMT 48.964809 0.323229 27,325 274 475 1664
2021-09-23 07:38:26 GMT 48.964508 0.331562 27,250 273 474 1728
2021-09-23 07:38:24 GMT 48.964233 0.338534 27,150 273 474 1664
2021-09-23 07:38:22 GMT 48.964050 0.345576 27,075 273 474 1728
2021-09-23 07:38:18 GMT 48.963638 0.359873 27,025 271 474 1728
2021-09-23 07:38:16 GMT 48.963505 0.369198 26,900 271 474 1792
2021-09-23 07:38:13 GMT 48.963409 0.375789 26,900 271 474 1792
2021-09-23 07:38:10 GMT 48.963364 0.382787 26,825 271 473 1728
2021-09-23 07:38:07 GMT 48.963364 0.396423 26,700 270 473 1728
2021-09-23 07:38:05 GMT 48.963409 0.403043 26,425 268 471 1664
2021-09-23 07:38:02 GMT 48.963596 0.412999 26,425 268 471 1664
2021-09-23 07:37:58 GMT 48.963875 0.427238 26,425 268 471 1664
2021-09-23 07:37:56 GMT 48.964294 0.443067 26,375 268 470 1664
2021-09-23 07:37:53 GMT 48.964294 0.443067 26,300 268 470 1664
2021-09-23 07:37:49 GMT 48.964622 0.456583 26,200 268 469 1664
2021-09-23 07:37:45 GMT 48.964947 0.470750 25,850 268 468 1664
2021-09-23 07:37:42 GMT 48.965149 0.478610 26,000 268 468 1664
2021-09-23 07:37:39 GMT 48.965366 0.487807 25,850 268 468 1664
2021-09-23 07:37:37 GMT 48.965607 0.496357 25,750 268 467 1664
2021-09-23 07:37:33 GMT 48.965878 0.506166 25,800 268 466 1664
2021-09-23 07:37:29 GMT 48.966297 0.521561 25,650 268 466 1664
2021-09-23 07:37:26 GMT 48.966522 0.531358 25,525 268 465 1664
2021-09-23 07:37:23 GMT 48.966843 0.543471 25,425 268 464 1664
2021-09-23 07:37:20 GMT 48.967041 0.551268 25,400 268 463 1664
2021-09-23 07:37:18 GMT 48.967182 0.555821 25,225 268 461 1664
2021-09-23 07:37:14 GMT 48.967552 0.570422 25,225 268 462 1600
2021-09-23 07:37:12 GMT 48.967712 0.576289 25,175 268 462 1600
2021-09-23 07:37:08 GMT 48.968067 0.591166 25,050 268 461 1664
2021-09-23 07:37:03 GMT 48.968437 0.606055 24,875 268 460 1664
2021-09-23 07:37:00 GMT 48.968670 0.615090 24,850 268 459 1664
2021-09-23 07:36:58 GMT 48.968857 0.622206 24,800 268 459 1664
2021-09-23 07:36:56 GMT 48.969044 0.629979 24,725 268 457 1664
2021-09-23 07:36:54 GMT 48.969231 0.636412 24,650 268 457 1664
2021-09-23 07:36:51 GMT 48.969498 0.647348 24,575 268 457 1664
2021-09-23 07:36:48 GMT 48.969727 0.656644 24,425 268 457 1664
2021-09-23 07:36:45 GMT 48.970184 0.674885 24,350 268 457 1664
2021-09-23 07:36:42 GMT 48.970184 0.674885 24,350 268 456 1664
2021-09-23 07:36:38 GMT 48.970413 0.684181 24,025 268 454 1728
2021-09-23 07:36:36 GMT 48.970764 0.699800 24,100 268 455 1728
2021-09-23 07:36:34 GMT 48.970764 0.699800 24,125 268 454 1728
2021-09-23 07:36:31 GMT 48.971008 0.709393 24,000 268 453 1792
2021-09-23 07:36:28 GMT 48.971237 0.718619 23,950 268 453 1792
2021-09-23 07:36:25 GMT 48.971466 0.727844 23,775 268 452 1792
2021-09-23 07:36:22 GMT 48.971649 0.736084 23,775 268 452 1792
2021-09-23 07:36:19 GMT 48.972015 0.750380 23,575 268 451 1792
2021-09-23 07:36:16 GMT 48.972198 0.758268 23,550 268 451 1792
2021-09-23 07:36:13 GMT 48.972427 0.767494 23,500 268 451 1792
2021-09-23 07:36:09 GMT 48.972675 0.778222 23,375 268 449 1728
2021-09-23 07:36:06 GMT 48.972862 0.787402 23,300 268 447 1728
2021-09-23 07:36:04 GMT 48.973282 0.803737 23,200 268 449 1792
2021-09-23 07:36:01 GMT 48.973572 0.816369 23,150 268 447 1728
2021-09-23 07:35:57 GMT 48.973755 0.824186 22,725 268 446 1728
2021-09-23 07:35:54 GMT 48.973755 0.824186 22,950 268 446 1728
2021-09-23 07:35:52 GMT 48.973930 0.832070 22,850 268 446 1728
2021-09-23 07:35:49 GMT 48.974213 0.844574 22,750 268 445 1728
2021-09-23 07:35:45 GMT 48.974445 0.855488 22,675 268 444 1728
2021-09-23 07:35:41 GMT 48.974724 0.866402 22,600 268 443 1728
2021-09-23 07:35:38 GMT 48.974911 0.874497 22,500 268 443 1728
2021-09-23 07:35:36 GMT 48.975082 0.883202 22,425 268 442 1792
2021-09-23 07:35:32 GMT 48.975586 0.905245 22,250 269 441 1792
2021-09-23 07:35:29 GMT 48.975586 0.905245 22,200 269 441 1792
2021-09-23 07:35:27 GMT 48.975677 0.908344 22,150 269 440 1728
2021-09-23 07:35:23 GMT 48.975979 0.921912 22,025 269 440 1728
2021-09-23 07:35:21 GMT 48.976166 0.929646 21,975 269 437 1664
2021-09-23 07:35:18 GMT 48.976307 0.936151 21,875 269 437 1664
2021-09-23 07:35:16 GMT 48.976444 0.943523 21,850 269 436 1728
2021-09-23 07:35:13 GMT 48.976639 0.953346 21,425 269 437 1664
2021-09-23 07:35:09 GMT 48.976864 0.964412 21,675 269 434 1728
2021-09-23 07:35:07 GMT 48.977005 0.971163 21,400 269 434 1728
2021-09-23 07:35:04 GMT 48.977142 0.980037 21,525 269 435 1728
2021-09-23 07:35:01 GMT 48.977283 0.988264 21,350 269 434 1728
2021-09-23 07:34:58 GMT 48.977657 1.014718 21,225 269 434 1728
2021-09-23 07:34:53 GMT 48.977657 1.014718 21,200 270 432 1664
2021-09-23 07:34:50 GMT 48.977737 1.022644 21,100 270 431 1664
2021-09-23 07:34:47 GMT 48.977783 1.030250 21,050 270 431 1664
2021-09-23 07:34:44 GMT 48.977875 1.040814 20,875 270 429 1664
2021-09-23 07:34:40 GMT 48.977921 1.053772 20,775 271 428 1664
2021-09-23 07:34:36 GMT 48.977921 1.063068 20,675 271 427 1792
2021-09-23 07:34:33 GMT 48.977875 1.072435 20,575 271 427 1792
2021-09-23 07:34:30 GMT 48.977795 1.086201 20,525 272 426 1984
2021-09-23 07:34:26 GMT 48.977646 1.095182 20,000 272 425 2112
2021-09-23 07:34:22 GMT 48.977425 1.107668 20,225 273 425 2240
2021-09-23 07:34:19 GMT 48.977234 1.116662 20,150 273 424 2240
2021-09-23 07:34:16 GMT 48.977051 1.123497 19,950 274 423 2176
2021-09-23 07:34:13 GMT 48.976776 1.132437 19,950 274 424 2240
2021-09-23 07:34:11 GMT 48.976585 1.137157 19,950 274 423 2176
2021-09-23 07:34:09 GMT 48.976273 1.145818 19,800 274 423 2112
2021-09-23 07:34:05 GMT 48.975815 1.156170 19,675 274 422 2048
2021-09-23 07:34:01 GMT 48.974815 1.178428 19,500 275 423 2048
2021-09-23 07:33:58 GMT 48.974815 1.178428 19,425 275 422 2048
2021-09-23 07:33:54 GMT 48.974075 1.194059 19,175 275 421 2112
2021-09-23 07:33:51 GMT 48.973885 1.198522 19,175 275 421 2112
2021-09-23 07:33:49 GMT 48.973560 1.204738 19,100 275 421 2112
2021-09-23 07:33:46 GMT 48.973045 1.215001 18,975 275 421 2112
2021-09-23 07:33:42 GMT 48.972069 1.235022 18,825 275 420 2176
2021-09-23 07:33:39 GMT 48.972069 1.235022 18,725 275 420 2176
2021-09-23 07:33:34 GMT 48.971371 1.250056 18,500 275 419 2240
2021-09-23 07:33:31 GMT 48.970963 1.258287 18,325 275 419 2240
2021-09-23 07:33:28 GMT 48.970596 1.265048 18,350 275 419 2240
2021-09-23 07:33:23 GMT 48.969788 1.281136 18,150 275 419 2176
2021-09-23 07:33:20 GMT 48.969418 1.288508 17,775 275 417 2112
2021-09-23 07:33:17 GMT 48.968811 1.299928 17,925 275 417 2112
2021-09-23 07:33:14 GMT 48.968307 1.309275 17,825 275 417 2112
2021-09-23 07:33:11 GMT 48.968021 1.314818 17,800 275 417 2112
2021-09-23 07:33:08 GMT 48.967438 1.325331 17,550 275 416 2112
2021-09-23 07:33:05 GMT 48.966949 1.334694 17,475 275 416 2112
2021-09-23 07:33:01 GMT 48.966431 1.343994 17,300 275 415 2112
2021-09-23 07:32:58 GMT 48.965881 1.354206 17,175 275 414 2048
2021-09-23 07:32:54 GMT 48.965240 1.366108 17,100 275 414 2048
2021-09-23 07:32:51 GMT 48.964760 1.374809 16,925 275 414 2048
2021-09-23 07:32:48 GMT 48.964294 1.383771 16,925 275 413 2048
2021-09-23 07:32:43 GMT 48.963596 1.397360 16,750 275 413 2048
2021-09-23 07:32:40 GMT 48.963177 1.405166 16,675 275 412 2048
2021-09-23 07:32:37 GMT 48.962769 1.413856 16,550 275 412 1984
2021-09-23 07:32:33 GMT 48.962082 1.426251 16,350 275 411 1984
2021-09-23 07:32:30 GMT 48.961594 1.436029 16,100 275 410 1984
2021-09-23 07:32:27 GMT 48.961178 1.443184 16,100 275 410 1984
2021-09-23 07:32:24 GMT 48.960571 1.454703 16,050 275 409 1984
2021-09-23 07:32:21 GMT 48.960159 1.461815 16,000 275 405 1728
2021-09-23 07:32:18 GMT 48.959595 1.471590 15,900 275 408 1920
2021-09-23 07:32:14 GMT 48.959015 1.482450 15,775 275 407 1920
2021-09-23 07:32:10 GMT 48.958431 1.492695 15,575 275 405 1728
2021-09-23 07:32:07 GMT 48.957966 1.500935 15,575 275 405 1792
2021-09-23 07:32:03 GMT 48.957268 1.513150 15,325 275 404 1728
2021-09-23 07:32:00 GMT 48.956707 1.523630 15,325 275 403 1792
2021-09-23 07:31:57 GMT 48.956360 1.529846 15,275 275 403 1856
2021-09-23 07:31:52 GMT 48.955673 1.541959 15,100 275 402 1920
2021-09-23 07:31:49 GMT 48.955219 1.550373 15,000 275 401 1920
2021-09-23 07:31:46 GMT 48.954758 1.558791 14,925 276 399 1920
2021-09-23 07:31:43 GMT 48.954163 1.569214 14,775 276 399 1920
2021-09-23 07:31:39 GMT 48.953430 1.581750 14,700 276 398 1856
2021-09-23 07:31:36 GMT 48.953075 1.587091 14,550 276 398 1792
2021-09-23 07:31:32 GMT 48.952190 1.602125 14,500 276 396 1600
2021-09-23 07:31:29 GMT 48.951828 1.607666 14,400 276 392 1408
2021-09-23 07:31:26 GMT 48.951141 1.618441 14,350 276 394 1472
2021-09-23 07:31:23 GMT 48.950607 1.626699 14,250 276 391 1408
2021-09-23 07:31:19 GMT 48.950134 1.633794 14,175 276 388 1856
2021-09-23 07:31:16 GMT 48.949448 1.643935 14,125 275 387 1920
2021-09-23 07:31:12 GMT 48.948795 1.654237 13,950 275 388 1856
2021-09-23 07:31:09 GMT 48.948421 1.660815 13,675 273 386 1920
2021-09-23 07:31:06 GMT 48.947845 1.671330 13,675 274 386 1984
2021-09-23 07:31:02 GMT 48.947433 1.681894 13,675 272 385 1920
2021-09-23 07:30:59 GMT 48.947258 1.691678 13,550 271 385 1920
2021-09-23 07:30:56 GMT 48.947212 1.697099 13,325 269 384 1984
2021-09-23 07:30:52 GMT 48.947845 1.718586 13,300 266 383 2112
2021-09-23 07:30:49 GMT 48.948280 1.726660 13,175 266 382 2176
2021-09-23 07:30:46 GMT 48.948280 1.726660 12,875 265 381 2240
2021-09-23 07:30:42 GMT 48.948887 1.735984 12,975 265 382 2240
2021-09-23 07:30:38 GMT 48.949493 1.746685 12,825 265 380 2240
2021-09-23 07:30:34 GMT 48.950096 1.756295 12,700 265 381 2240
2021-09-23 07:30:31 GMT 48.951233 1.774644 12,525 265 380 2176
2021-09-23 07:30:27 GMT 48.951233 1.774644 12,425 265 379 2048
2021-09-23 07:30:24 GMT 48.951782 1.783940 12,325 265 378 1920
2021-09-23 07:30:21 GMT 48.952145 1.789832 12,250 265 378 1856
2021-09-23 07:30:17 GMT 48.952927 1.801969 12,125 265 376 1472
2021-09-23 07:30:15 GMT 48.953217 1.807251 12,075 265 374 1280
2021-09-23 07:30:12 GMT 48.953773 1.815924 12,025 265 373 1152
2021-09-23 07:30:09 GMT 48.954288 1.824526 11,950 265 371 1024
2021-09-23 07:30:06 GMT 48.954567 1.829730 11,850 265 365 960
2021-09-23 07:30:03 GMT 48.955078 1.837752 11,850 265 365 960
2021-09-23 07:30:00 GMT 48.955544 1.845703 11,825 265 364 960
2021-09-23 07:29:57 GMT 48.956009 1.854087 11,775 265 361 960
2021-09-23 07:29:54 GMT 48.956589 1.863169 11,725 265 357 960
2021-09-23 07:29:50 GMT 48.957031 1.871217 11,650 265 354 960
2021-09-23 07:29:47 GMT 48.957546 1.879385 11,625 265 352 960
2021-09-23 07:29:43 GMT 48.958012 1.887552 11,575 265 350 960
2021-09-23 07:29:40 GMT 48.958431 1.894636 11,500 265 347 1024
2021-09-23 07:29:37 GMT 48.958988 1.903670 11,450 265 344 1024
2021-09-23 07:29:33 GMT 48.959564 1.913734 11,375 265 340 1024
2021-09-23 07:29:29 GMT 48.960251 1.925213 11,300 265 336 1024
2021-09-23 07:29:25 GMT 48.960758 1.933666 11,225 265 333 1024
2021-09-23 07:29:19 GMT 48.961578 1.947608 11,125 265 328 1024
2021-09-23 07:29:16 GMT 48.961826 1.951736 11,050 265 325 1024
2021-09-23 07:29:12 GMT 48.962448 1.962257 11,025 265 322 1024
2021-09-23 07:29:10 GMT 48.962852 1.969010 10,975 265 320 1024
2021-09-23 07:29:07 GMT 48.963226 1.975708 10,925 265 317 1024
2021-09-23 07:29:03 GMT 48.963638 1.982187 10,850 265 313 1024
2021-09-23 07:29:00 GMT 48.963959 1.988103 10,800 265 310 1024
2021-09-23 07:28:57 GMT 48.964436 1.995970 10,725 266 287 2304
2021-09-23 07:28:54 GMT 48.964855 2.003053 10,625 265 305 1024
2021-09-23 07:28:51 GMT 48.965286 2.009935 10,650 265 302 1024
2021-09-23 07:28:48 GMT 48.965515 2.014371 10,400 266 287 2176
2021-09-23 07:28:45 GMT 48.965836 2.019442 10,575 265 299 960
2021-09-23 07:28:42 GMT 48.966297 2.027194 10,500 265 294 896
2021-09-23 07:28:39 GMT 48.966671 2.033989 10,475 266 292 896
2021-09-23 07:28:36 GMT 48.966934 2.038316 10,225 266 287 2176
2021-09-23 07:28:32 GMT 48.967506 2.048589 10,300 266 287 2176
2021-09-23 07:28:29 GMT 48.968159 2.060226 9,000 266 283 2368
2021-09-23 07:28:26 GMT 48.968159 2.060226 10,075 265 286 2432
2021-09-23 07:28:22 GMT 48.968628 2.068247 9,900 265 286 2368
2021-09-23 07:28:18 GMT 48.969135 2.076705 9,725 265 286 2368
2021-09-23 07:28:14 GMT 48.969589 2.083881 9,600 265 286 2368
2021-09-23 07:28:10 GMT 48.970070 2.091884 9,350 265 285 2368
2021-09-23 07:28:07 GMT 48.970413 2.097825 9,275 266 285 2368
2021-09-23 07:28:04 GMT 48.970764 2.103810 9,200 266 285 2368
2021-09-23 07:27:59 GMT 48.971279 2.113784 8,925 265 281 2240
2021-09-23 07:27:56 GMT 48.971603 2.120000 8,850 266 283 2304
2021-09-23 07:27:53 GMT 48.971878 2.125150 8,725 266 283 2240
2021-09-23 07:27:50 GMT 48.972256 2.131854 8,625 266 283 2240
2021-09-23 07:27:47 GMT 48.972610 2.138249 8,525 266 283 2240
2021-09-23 07:27:43 GMT 48.973022 2.145151 8,325 265 282 2176
2021-09-23 07:27:39 GMT 48.973389 2.152053 8,275 265 281 2240
2021-09-23 07:27:36 GMT 48.973801 2.159306 8,125 265 280 2240
2021-09-23 07:27:33 GMT 48.974117 2.164451 8,050 265 280 2240
2021-09-23 07:27:30 GMT 48.974583 2.172113 7,850 265 279 2240
2021-09-23 07:27:27 GMT 48.974861 2.176594 7,750 265 279 2240
2021-09-23 07:27:24 GMT 48.975189 2.182449 7,700 265 278 2240
2021-09-23 07:27:20 GMT 48.975655 2.190616 7,425 266 278 2304
2021-09-23 07:27:17 GMT 48.976074 2.197844 7,375 266 277 2304
2021-09-23 07:27:14 GMT 48.976318 2.202477 7,300 266 277 2304
2021-09-23 07:27:08 GMT 48.976959 2.213534 7,025 266 276 2304
2021-09-23 07:27:05 GMT 48.977325 2.219520 6,825 265 275 2304
2021-09-23 07:27:01 GMT 48.977749 2.227406 6,650 265 274 2304
2021-09-23 07:26:58 GMT 48.978149 2.234309 6,625 265 274 2240
2021-09-23 07:26:55 GMT 48.978378 2.238535 6,575 265 274 2240
2021-09-23 07:26:52 GMT 48.978680 2.243162 6,475 266 272 2240
2021-09-23 07:26:49 GMT 48.979378 2.255739 6,100 266 270 2304
2021-09-23 07:26:46 GMT 48.979378 2.255739 6,175 266 271 2304
2021-09-23 07:26:43 GMT 48.979660 2.260719 5,825 266 270 2304
2021-09-23 07:26:39 GMT 48.980076 2.268315 5,925 266 269 2304
2021-09-23 07:26:36 GMT 48.980450 2.274965 5,800 266 269 2304
2021-09-23 07:26:33 GMT 48.980774 2.281542 5,725 266 267 2240
2021-09-23 07:26:29 GMT 48.981079 2.287199 5,600 266 268 2304
2021-09-23 07:26:26 GMT 48.981445 2.293819 5,450 266 267 2240
2021-09-23 07:26:23 GMT 48.981705 2.298311 5,275 266 266 2304
2021-09-23 07:26:19 GMT 48.982269 2.308044 5,200 266 265 2304
2021-09-23 07:26:15 GMT 48.982681 2.315228 5,025 266 265 2432
2021-09-23 07:26:12 GMT 48.982956 2.320298 4,875 266 264 2432
2021-09-23 07:26:08 GMT 48.983276 2.326003 4,800 266 263 2368
2021-09-23 07:26:05 GMT 48.983616 2.332643 4,675 266 262 2176
2021-09-23 07:26:02 GMT 48.983940 2.337992 4,325 266 261 1984
2021-09-23 07:25:58 GMT 48.984329 2.345370 4,000 265 205 896
2021-09-23 07:25:55 GMT 48.984650 2.351004 4,350 266 257 1664
2021-09-23 07:25:52 GMT 48.984970 2.356567 4,275 266 254 1472
2021-09-23 07:25:49 GMT 48.985386 2.363723 4,200 266 252 1280
2021-09-23 07:25:46 GMT 48.985886 2.372624 4,150 266 246 1024
2021-09-23 07:25:43 GMT 48.985886 2.372624 4,100 266 244 960
2021-09-23 07:25:39 GMT 48.986206 2.378681 4,050 266 235 832
2021-09-23 07:25:35 GMT 48.986618 2.386569 3,975 266 233 896
2021-09-23 07:25:32 GMT 48.986874 2.390827 3,950 266 230 896
2021-09-23 07:25:28 GMT 48.987152 2.396826 3,875 266 226 960
2021-09-23 07:25:25 GMT 48.987476 2.402753 3,800 266 221 960
2021-09-23 07:25:22 GMT 48.987713 2.407307 3,750 266 216 832
2021-09-23 07:25:18 GMT 48.988083 2.414318 3,725 265 212 768
2021-09-23 07:25:15 GMT 48.988361 2.418655 3,675 265 208 768
2021-09-23 07:25:12 GMT 48.988548 2.422341 3,650 265 207 832
2021-09-23 07:25:09 GMT 48.988815 2.426288 3,600 265 195 960
2021-09-23 07:25:06 GMT 48.989136 2.431148 3,550 265 198 960
2021-09-23 07:25:03 GMT 48.989342 2.435134 3,425 266 190 832
2021-09-23 07:24:57 GMT 48.989853 2.443374 3,425 266 190 832
2021-09-23 07:24:53 GMT 48.990143 2.448965 3,375 266 185 1280
2021-09-23 07:24:48 GMT 48.990459 2.454938 3,075 266 183 1792
2021-09-23 07:24:45 GMT 48.990692 2.458825 3,150 266 183 1792
2021-09-23 07:24:42 GMT 48.990829 2.462064 3,100 266 183 1792
2021-09-23 07:24:39 GMT 48.991112 2.467226 2,975 266 182 1792
2021-09-23 07:24:35 GMT 48.991623 2.476188 2,850 265 182 1792
2021-09-23 07:24:32 GMT 48.991623 2.476188 2,775 265 182 1792
2021-09-23 07:24:28 GMT 48.991901 2.480597 2,650 265 181 1856
2021-09-23 07:24:24 GMT 48.992180 2.485368 2,550 266 181 1856
2021-09-23 07:24:21 GMT 48.992367 2.489271 2,450 266 181 1792
2021-09-23 07:24:18 GMT 48.992554 2.492957 2,325 266 181 1792
2021-09-23 07:24:15 GMT 48.992832 2.497510 2,225 266 180 1856
2021-09-23 07:24:12 GMT 48.993027 2.502136 2,150 266 180 1856
2021-09-23 07:24:07 GMT 48.993347 2.508545 1,975 266 180 2048
2021-09-23 07:24:03 GMT 48.993530 2.512489 1,850 266 181 2368
2021-09-23 07:23:58 GMT 48.993896 2.518827 1,650 266 181 2560
2021-09-23 07:23:54 GMT 48.994137 2.523386 1,450 266 182 2688
2021-09-23 07:23:50 GMT 48.994354 2.528264 1,450 266 182 2688
2021-09-23 07:23:43 GMT 48.994766 2.537208 1,000 266 184 2752
2021-09-23 07:23:39 GMT 48.995068 2.543407 500 266 183 2112
2021-09-23 07:23:33 GMT 48.995438 2.550129 625 265 181 1856
2021-09-23 07:23:24 GMT 48.996185 2.562055 325 266 176 1856
2021-09-23 07:22:40 GMT 48.998257 2.600688 0 264 34
2021-09-23 07:22:34 GMT 48.998337 2.602025 0 264 16
2021-09-23 07:22:21 GMT 48.998497 2.603144 0 227 14
2021-09-23 07:22:08 GMT 48.999222 2.603886 0 194 16
2021-09-23 07:22:02 GMT 48.999630 2.604049 0 182 15
2021-09-23 07:21:50 GMT 49.000420 2.604049 0 177 12
2021-09-23 07:21:38 GMT 49.000980 2.604006 0 135 10
2021-09-23 07:21:30 GMT 49.001209 2.603687 0 87 9
2021-09-23 07:21:21 GMT 49.001186 2.603038 0 84 14
2021-09-23 07:21:11 GMT 49.001129 2.601911 0 84 23
2021-09-23 07:20:55 GMT 49.000965 2.599098 0 84 24
2021-09-23 07:20:50 GMT 49.000931 2.598393 0 84 24
2021-09-23 07:20:39 GMT 49.000843 2.596541 0 84 24
2021-09-23 07:20:30 GMT 49.000759 2.594978 0 84 24
2021-09-23 07:20:19 GMT 49.000660 2.593231 0 84 24
2021-09-23 07:18:49 GMT 48.999825 2.577562 0 84 25
2021-09-23 07:18:36 GMT 48.999699 2.575210 0 84 24
2021-09-23 07:18:30 GMT 48.999653 2.574269 0 84 23
2021-09-23 07:18:20 GMT 48.999569 2.572734 0 87 21
2021-09-23 07:18:10 GMT 48.999493 2.571382 0 87 19
2021-09-23 07:17:59 GMT 48.999424 2.570008 0 84 17
2021-09-23 07:17:50 GMT 48.999378 2.568987 0 84 14
2021-09-23 07:17:38 GMT 48.999321 2.567931 0 87 11
2021-09-23 07:17:28 GMT 48.999287 2.567244 0 87 9
2021-09-23 07:17:19 GMT 48.999256 2.566717 0 98 8
2021-09-23 07:17:09 GMT 48.999268 2.566229 0 132 8
2021-09-23 07:16:59 GMT 48.999454 2.565868 0 171 8
2021-09-23 07:16:50 GMT 48.999779 2.565795 0 177 8
2021-09-23 07:16:39 GMT 49.000134 2.565748 0 174 8
2021-09-23 07:16:29 GMT 49.000511 2.565723 0 171 9
2021-09-23 07:16:16 GMT 49.001003 2.565607 0 109 10
2021-09-23 07:16:09 GMT 49.001095 2.565163 0 87 11
2021-09-23 07:15:57 GMT 49.001049 2.564350 0 84 11
2021-09-23 07:15:49 GMT 49.001015 2.563772 0 84 10
2021-09-23 07:15:38 GMT 49.000980 2.563103 0 84 9
2021-09-23 07:15:29 GMT 49.000954 2.562561 0 84 7
2021-09-23 07:15:18 GMT 49.000923 2.562121 0 84 5
We lost coverage of the aircraft here for a total of 117 minutes
2021-09-23 05:18:10 GMT 48.999996 2.562438 0 174 0 0
2021-09-23 05:17:50 GMT 49.000008 2.562438 0 174 0 0
2021-09-23 05:17:41 GMT 49.000000 2.562435 0 174 0 0
2021-09-23 05:17:32 GMT 48.999996 2.562438 0 174 0 0
2021-09-23 05:17:23 GMT 49.000000 2.562435 0 174 0 0
2021-09-23 05:17:12 GMT 49.000053 2.562438 0 177 1 0
2021-09-23 05:17:02 GMT 49.000118 2.562416 0 177 3 0
2021-09-23 05:16:53 GMT 49.000271 2.562403 0 177 5 0
2021-09-23 05:16:41 GMT 49.000538 2.562344 0 188 9 0
2021-09-23 05:16:31 GMT 49.000931 2.562398 0 258 8 0
2021-09-23 05:16:20 GMT 49.000992 2.563049 0 264 11 0
2021-09-23 05:16:12 GMT 49.001026 2.563670 0 267 11 0
2021-09-23 05:16:01 GMT 49.001049 2.564445 0 270 10 0
2021-09-23 05:15:52 GMT 49.001072 2.565149 0 303 11 0
2021-09-23 05:15:33 GMT 49.000351 2.565741 0 354 11 0
2021-09-23 05:15:31 GMT 49.000256 2.565741 0 354 12 0
2021-09-23 05:15:22 GMT 48.999733 2.565818 0 354 11 0
2021-09-23 05:15:10 GMT 48.999268 2.565868 0 351 8 0
2021-09-23 05:15:01 GMT 48.998932 2.565922 0 340 7 0
2021-09-23 05:14:51 GMT 48.998615 2.566030 0 312 7 0
2021-09-23 05:14:41 GMT 48.998394 2.566446 0 286 10 0
2021-09-23 05:14:30 GMT 48.998268 2.567103 0 286 8 0
2021-09-23 05:14:21 GMT 48.998184 2.567566 0 286 7 0
2021-09-23 05:14:11 GMT 48.998108 2.568019 0 286 7 0
2021-09-23 05:14:00 GMT 48.997990 2.568650 0 286 13 0
2021-09-23 05:13:50 GMT 48.997826 2.569536 0 286 15 0
2021-09-23 05:13:24 GMT 48.997284 2.572526 0 286 26 0
2021-09-23 05:13:15 GMT 48.997009 2.574270 0 278 35 0
2021-09-23 05:13:10 GMT 48.996952 2.575625 0 270 48 0
2021-09-23 05:12:58 GMT 48.997238 2.581224 0 266 106 -128
2021-09-23 05:12:46 GMT 48.997833 2.592562 25 266 141 -256
2021-09-23 05:12:39 GMT 48.998184 2.599712 50 266 157 -640
2021-09-23 05:12:36 GMT 48.998383 2.602985 100 266 155 -896
2021-09-23 05:12:30 GMT 48.998745 2.609831 200 266 156 -832
2021-09-23 05:12:26 GMT 48.998978 2.613879 250 266 155 -896
2021-09-23 05:12:22 GMT 48.999207 2.618479 325 266 155 -896
2021-09-23 05:12:19 GMT 48.999344 2.621155 425 266 154 -832
2021-09-23 05:12:12 GMT 48.999722 2.628985 450 266 153 -832
2021-09-23 05:12:08 GMT 49.000031 2.634043 525 266 153 -832
2021-09-23 05:12:02 GMT 49.000374 2.640839 600 266 153 -832
2021-09-23 05:11:59 GMT 49.000511 2.643007 675 266 153 -832
2021-09-23 05:11:55 GMT 49.000748 2.647199 700 266 152 -768
2021-09-23 05:11:52 GMT 49.000931 2.650958 750 266 152 -832
2021-09-23 05:11:48 GMT 49.001209 2.655728 800 266 152 -768
2021-09-23 05:11:43 GMT 49.001404 2.659748 850 266 151 -768
2021-09-23 05:11:40 GMT 49.001587 2.663692 900 266 151 -832
2021-09-23 05:11:37 GMT 49.001724 2.666227 925 266 151 -768
2021-09-23 05:11:32 GMT 49.002003 2.671702 1,000 266 152 -832
2021-09-23 05:11:27 GMT 49.002319 2.677213 1,075 266 152 -832
2021-09-23 05:11:23 GMT 49.002502 2.680946 1,100 266 153 -832
2021-09-23 05:11:20 GMT 49.002747 2.685724 1,175 266 153 -832
2021-09-23 05:11:17 GMT 49.002888 2.688398 1,200 266 153 -832
2021-09-23 05:11:14 GMT 49.003052 2.691369 1,250 266 153 -832
2021-09-23 05:11:07 GMT 49.003445 2.699167 1,350 266 153 -832
2021-09-23 05:11:04 GMT 49.003586 2.701842 1,375 266 153 -832
2021-09-23 05:10:59 GMT 49.003910 2.707768 1,450 266 153 -832
2021-09-23 05:10:55 GMT 49.004143 2.711961 1,500 266 153 -832
2021-09-23 05:10:48 GMT 49.004517 2.718827 1,600 266 154 -832
2021-09-23 05:10:45 GMT 49.004700 2.722990 1,650 266 155 -832
2021-09-23 05:10:37 GMT 49.005169 2.731548 1,750 266 156 -832
2021-09-23 05:10:34 GMT 49.005341 2.734891 1,800 266 156 -832
2021-09-23 05:10:29 GMT 49.005634 2.740800 1,875 266 157 -832
2021-09-23 05:10:25 GMT 49.005867 2.745353 1,925 266 160 -896
2021-09-23 05:10:20 GMT 49.006210 2.751371 2,000 266 162 -896
2021-09-23 05:10:17 GMT 49.006393 2.755103 2,050 266 163 -896
2021-09-23 05:10:14 GMT 49.006474 2.756701 2,075 266 171 -896
2021-09-23 05:10:09 GMT 49.006805 2.762991 2,175 266 170 -896
2021-09-23 05:10:06 GMT 49.006943 2.766019 2,200 266 172 -896
2021-09-23 05:10:02 GMT 49.007217 2.770868 2,325 266 178 -960
2021-09-23 05:09:58 GMT 49.007492 2.776020 2,325 266 178 -960
2021-09-23 05:09:54 GMT 49.007774 2.781493 2,400 266 178 -960
2021-09-23 05:09:49 GMT 49.008087 2.787569 2,475 266 179 -960
2021-09-23 05:09:46 GMT 49.008240 2.791033 2,500 266 180 -960
2021-09-23 05:09:43 GMT 49.008427 2.794358 2,550 266 180 -960
2021-09-23 05:09:39 GMT 49.008705 2.799779 2,650 266 181 -960
2021-09-23 05:09:36 GMT 49.008892 2.803971 2,675 266 182 -960
2021-09-23 05:09:32 GMT 49.009171 2.808452 2,725 266 182 -960
2021-09-23 05:09:28 GMT 49.009453 2.814162 2,800 266 181 -960
2021-09-23 05:09:24 GMT 49.009731 2.819366 2,875 266 181 -896
2021-09-23 05:09:16 GMT 49.010239 2.829402 3,000 266 180 -960
2021-09-23 05:09:13 GMT 49.010429 2.833244 3,050 266 180 -960
2021-09-23 05:09:08 GMT 49.010754 2.839243 3,150 266 179 -1024
2021-09-23 05:09:05 GMT 49.010880 2.842431 3,175 266 179 -960
2021-09-23 05:08:58 GMT 49.011452 2.852904 3,300 266 179 -960
2021-09-23 05:08:55 GMT 49.011520 2.854755 3,325 266 179 -960
2021-09-23 05:08:49 GMT 49.012012 2.863962 3,475 266 181 -1024
2021-09-23 05:08:46 GMT 49.012207 2.867784 3,500 266 182 -1024
2021-09-23 05:08:39 GMT 49.012665 2.876900 3,600 266 187 -960
2021-09-23 05:08:35 GMT 49.012848 2.880883 3,650 266 189 -960
2021-09-23 05:08:28 GMT 49.013306 2.890109 3,750 266 197 -320
2021-09-23 05:08:25 GMT 49.013535 2.894827 3,750 266 197 -192
2021-09-23 05:08:19 GMT 49.013947 2.902503 3,750 266 199 0
2021-09-23 05:08:16 GMT 49.014130 2.906518 3,750 266 199 0
2021-09-23 05:08:13 GMT 49.014385 2.911883 3,775 266 199 0
2021-09-23 05:08:09 GMT 49.014664 2.916798 3,775 266 199 0
2021-09-23 05:08:05 GMT 49.014942 2.922797 3,775 266 199 0
2021-09-23 05:08:01 GMT 49.015224 2.928507 3,775 266 199 0
2021-09-23 05:07:58 GMT 49.015411 2.932716 3,775 266 199 0
2021-09-23 05:07:55 GMT 49.015594 2.936660 3,775 266 199 0
2021-09-23 05:07:49 GMT 49.015968 2.944408 3,775 266 200 0
2021-09-23 05:07:44 GMT 49.016327 2.951942 3,775 267 200 0
2021-09-23 05:07:40 GMT 49.016602 2.958280 3,775 267 201 0
2021-09-23 05:07:34 GMT 49.016899 2.965658 3,775 267 200 0
2021-09-23 05:07:31 GMT 49.017059 2.969830 3,775 266 200 0
2021-09-23 05:07:27 GMT 49.017410 2.977150 3,775 266 200 0
2021-09-23 05:07:22 GMT 49.017700 2.982788 3,775 266 200 0
2021-09-23 05:07:19 GMT 49.017925 2.987053 3,775 267 201 0
2021-09-23 05:07:15 GMT 49.018250 2.993919 3,775 269 201 0
2021-09-23 05:07:11 GMT 49.018341 2.999549 3,775 273 201 0
2021-09-23 05:07:08 GMT 49.018295 3.003532 3,775 276 201 0
2021-09-23 05:07:04 GMT 49.017975 3.008564 3,775 281 201 0
2021-09-23 05:07:01 GMT 49.017460 3.013000 3,775 284 201 0
2021-09-23 05:06:56 GMT 49.016235 3.019480 3,775 291 200 0
2021-09-23 05:06:52 GMT 49.014942 3.024782 3,775 292 200 0
2021-09-23 05:06:44 GMT 49.012291 3.034973 3,775 292 200 0
2021-09-23 05:06:41 GMT 49.011108 3.039410 3,775 292 200 0
2021-09-23 05:06:35 GMT 49.009369 3.046100 3,750 292 201 64
2021-09-23 05:06:32 GMT 49.007961 3.051525 3,750 292 201 0
2021-09-23 05:06:27 GMT 49.006302 3.057791 3,775 292 201 0
2021-09-23 05:06:24 GMT 49.005203 3.061876 3,775 292 201 0
2021-09-23 05:06:20 GMT 49.003876 3.066946 3,775 292 201 0
2021-09-23 05:06:16 GMT 49.002560 3.071980 3,775 293 201 0
2021-09-23 05:06:13 GMT 49.001629 3.075377 3,775 293 202 -64
2021-09-23 05:06:10 GMT 49.000328 3.080292 3,775 293 203 -64
2021-09-23 05:06:07 GMT 48.999302 3.084123 3,775 293 207 -64
2021-09-23 05:06:04 GMT 48.998184 3.088242 3,775 293 208 -64
2021-09-23 05:06:01 GMT 48.997440 3.090989 3,775 293 221 128
2021-09-23 05:05:55 GMT 48.995132 3.099623 3,775 293 220 128
2021-09-23 05:05:52 GMT 48.993622 3.105300 3,750 293 221 128
2021-09-23 05:05:46 GMT 48.991249 3.114190 3,750 293 226 0
2021-09-23 05:05:43 GMT 48.990505 3.116937 3,775 293 226 0
2021-09-23 05:05:37 GMT 48.987850 3.127056 3,750 292 228 0
2021-09-23 05:05:33 GMT 48.986481 3.132230 3,750 292 229 0
2021-09-23 05:05:27 GMT 48.983894 3.142018 3,750 293 234 -192
2021-09-23 05:05:24 GMT 48.982868 3.145776 3,775 292 235 -192
2021-09-23 05:05:21 GMT 48.981491 3.151034 3,775 293 238 -512
2021-09-23 05:05:14 GMT 48.978973 3.160471 3,850 292 240 -576
2021-09-23 05:05:11 GMT 48.977417 3.166246 3,875 293 242 -576
2021-09-23 05:05:06 GMT 48.975540 3.173429 3,925 292 247 -576
2021-09-23 05:05:03 GMT 48.973938 3.179345 3,950 292 247 -576
2021-09-23 05:04:56 GMT 48.971092 3.190155 4,025 292 250 -512
2021-09-23 05:04:53 GMT 48.969818 3.195050 4,050 292 251 -512
2021-09-23 05:04:49 GMT 48.968113 3.201647 4,075 292 251 -448
2021-09-23 05:04:45 GMT 48.966389 3.208369 4,125 292 250 -512
2021-09-23 05:04:42 GMT 48.965275 3.212634 4,150 292 250 -512
2021-09-23 05:04:37 GMT 48.963131 3.221162 4,175 291 249 -512
2021-09-23 05:04:34 GMT 48.961945 3.225896 4,225 291 249 -512
2021-09-23 05:04:30 GMT 48.959747 3.234699 4,250 291 249 -448
2021-09-23 05:04:23 GMT 48.957127 3.245159 4,300 292 248 -448
2021-09-23 05:04:12 GMT 48.952698 3.261038 4,350 298 250 -448
2021-09-23 05:04:07 GMT 48.949356 3.269841 4,400 312 252 -576
2021-09-23 05:04:03 GMT 48.947159 3.274137 4,425 314 253 -640
2021-09-23 05:04:00 GMT 48.943405 3.279841 4,475 330 258 -576
2021-09-23 05:03:56 GMT 48.939671 3.284189 4,500 327 257 -640
2021-09-23 05:03:52 GMT 48.936676 3.287166 4,550 330 259 -576
2021-09-23 05:03:48 GMT 48.933151 3.290264 4,575 331 261 -576
2021-09-23 05:03:45 GMT 48.929337 3.293513 4,600 331 263 -512
2021-09-23 05:03:42 GMT 48.925735 3.296603 4,625 331 265 -512
2021-09-23 05:03:39 GMT 48.923492 3.298504 4,650 331 266 -384
2021-09-23 05:03:32 GMT 48.915043 3.305728 4,725 331 266 -384
2021-09-23 05:03:28 GMT 48.911728 3.308645 4,725 331 265 -320
2021-09-23 05:03:25 GMT 48.907875 3.311944 4,750 331 266 -64
2021-09-23 05:03:21 GMT 48.904148 3.315197 4,750 331 266 0
2021-09-23 05:03:12 GMT 48.893490 3.324304 4,775 331 266 -192
2021-09-23 05:03:08 GMT 48.889847 3.327449 4,800 331 263 -448
2021-09-23 05:03:04 GMT 48.885269 3.331393 4,825 331 261 -832
2021-09-23 05:03:01 GMT 48.882111 3.334139 4,875 331 261 -896
2021-09-23 05:02:51 GMT 48.871262 3.343365 5,025 331 260 -1024
2021-09-23 05:02:45 GMT 48.865448 3.348224 5,150 331 260 -960
2021-09-23 05:02:42 GMT 48.861462 3.351625 5,175 331 261 -960
2021-09-23 05:02:39 GMT 48.859543 3.353225 5,225 331 261 -960
2021-09-23 05:02:32 GMT 48.851303 3.360197 5,350 331 262 -1024
2021-09-23 05:02:29 GMT 48.848427 3.362611 5,400 331 262 -960
2021-09-23 05:02:24 GMT 48.841965 3.368084 5,500 331 261 -1024
2021-09-23 05:02:21 GMT 48.840088 3.369634 5,525 331 261 -1024
2021-09-23 05:02:14 GMT 48.831715 3.376706 5,650 332 262 -1024
2021-09-23 05:02:11 GMT 48.829060 3.378946 5,700 332 262 -1024
2021-09-23 05:02:03 GMT 48.820816 3.385761 5,825 332 264 -1024
2021-09-23 05:02:00 GMT 48.818253 3.387874 5,875 332 264 -960
2021-09-23 05:01:54 GMT 48.811386 3.393578 5,975 332 265 -960
2021-09-23 05:01:51 GMT 48.807632 3.396747 6,025 332 265 -960
2021-09-23 05:01:44 GMT 48.800713 3.402437 6,150 332 265 -1024
2021-09-23 05:01:41 GMT 48.796829 3.405691 6,200 332 265 -1024
2021-09-23 05:01:32 GMT 48.787582 3.413368 6,350 332 266 -1024
2021-09-23 05:01:28 GMT 48.783371 3.416889 6,400 332 266 -1024
2021-09-23 05:01:21 GMT 48.774673 3.424072 6,550 332 268 -1088
2021-09-23 05:01:13 GMT 48.766891 3.430551 6,675 332 268 -1152
2021-09-23 05:01:09 GMT 48.763046 3.433721 6,750 332 267 -1280
2021-09-23 05:01:01 GMT 48.754486 3.440745 6,975 332 268 -1216
2021-09-23 05:00:58 GMT 48.750668 3.443925 7,400 332 267 -1280
2021-09-23 05:00:52 GMT 48.743034 3.450141 7,100 332 268 -960
2021-09-23 05:00:49 GMT 48.740295 3.452383 7,150 332 268 -1216
2021-09-23 05:00:44 GMT 48.734325 3.457296 7,275 332 267 -1280
2021-09-23 05:00:40 GMT 48.730743 3.460260 7,350 332 267 -1280
2021-09-23 05:00:37 GMT 48.727798 3.462665 7,400 332 267 -1280
2021-09-23 05:00:31 GMT 48.721527 3.467921 7,525 331 266 -1408
2021-09-23 05:00:24 GMT 48.713985 3.474282 7,700 331 265 -1472
2021-09-23 05:00:21 GMT 48.701088 3.485340 7,975 331 264 -1408
2021-09-23 05:00:12 GMT 48.701088 3.485340 8,025 331 264 -1408
2021-09-23 05:00:09 GMT 48.698296 3.487726 8,200 331 263 -1408
2021-09-23 05:00:03 GMT 48.691177 3.493864 8,250 331 263 -1408
2021-09-23 05:00:00 GMT 48.687168 3.497339 8,300 331 263 -1408
2021-09-23 04:59:52 GMT 48.680374 3.503230 8,450 330 263 -1408
2021-09-23 04:59:49 GMT 48.676834 3.506373 8,525 331 262 -1408
2021-09-23 04:59:42 GMT 48.669666 3.512589 8,725 331 262 -1408
2021-09-23 04:59:39 GMT 48.665863 3.515907 8,750 330 262 -1344
2021-09-23 04:59:32 GMT 48.658356 3.522527 8,925 330 263 -1088
2021-09-23 04:59:29 GMT 48.655609 3.524921 8,950 330 263 -1088
2021-09-23 04:59:26 GMT 48.652443 3.527696 9,000 327 275 -960
2021-09-23 04:59:21 GMT 48.647507 3.532032 9,075 330 265 -832
2021-09-23 04:59:18 GMT 48.644348 3.534851 9,125 331 266 -768
2021-09-23 04:59:12 GMT 48.636940 3.541212 9,200 331 270 -704
2021-09-23 04:59:08 GMT 48.633682 3.544030 9,225 331 270 -768
2021-09-23 04:59:01 GMT 48.626095 3.550536 9,350 330 272 -960
2021-09-23 04:58:58 GMT 48.622604 3.553655 9,400 329 273 -960
2021-09-23 04:58:51 GMT 48.614685 3.561120 9,525 326 276 -960
2021-09-23 04:58:48 GMT 48.612167 3.563725 9,550 326 276 -960
2021-09-23 04:58:39 GMT 48.601501 3.575416 9,725 322 278 -1152
2021-09-23 04:58:31 GMT 48.594345 3.584073 9,900 322 279 -1152
2021-09-23 04:58:28 GMT 48.591614 3.587318 10,000 322 280 -960
2021-09-23 04:58:21 GMT 48.584381 3.596121 10,050 322 280 -960
2021-09-23 04:58:18 GMT 48.581223 3.599924 10,075 322 281 -896
2021-09-23 04:58:14 GMT 48.576645 3.605488 10,150 322 284 -768
2021-09-23 04:58:11 GMT 48.574001 3.608647 10,200 322 285 -704
2021-09-23 04:58:08 GMT 48.570694 3.612671 10,225 322 285 -640
2021-09-23 04:57:58 GMT 48.560349 3.625207 10,325 322 290 -640
2021-09-23 04:57:51 GMT 48.552109 3.635137 10,400 322 294 -640
2021-09-23 04:57:48 GMT 48.549747 3.637920 10,425 322 295 -640
2021-09-23 04:57:43 GMT 48.544300 3.644498 10,500 322 300 -640
2021-09-23 04:57:38 GMT 48.530334 3.661411 10,550 322 308 -640
2021-09-23 04:57:31 GMT 48.530334 3.661411 10,625 322 305 -640
2021-09-23 04:57:28 GMT 48.528259 3.663940 10,650 322 306 -640
2021-09-23 04:57:20 GMT 48.519287 3.674856 10,725 322 310 -704
2021-09-23 04:57:17 GMT 48.516586 3.678096 10,750 321 311 -704
2021-09-23 04:57:13 GMT 48.511436 3.684395 10,800 322 312 -832
2021-09-23 04:57:08 GMT 48.505463 3.691618 10,875 322 316 -832
2021-09-23 04:57:03 GMT 48.499878 3.698378 10,950 322 318 -640
2021-09-23 04:56:57 GMT 48.493420 3.706151 11,000 322 323 -256
2021-09-23 04:56:50 GMT 48.485092 3.716125 10,975 322 330 64
2021-09-23 04:56:47 GMT 48.481155 3.720774 10,975 322 332 64
2021-09-23 04:56:42 GMT 48.475708 3.727253 10,975 322 337 -128
2021-09-23 04:56:37 GMT 48.469353 3.734846 11,000 322 342 -320
2021-09-23 04:56:30 GMT 48.461437 3.744314 11,075 322 345 -704
2021-09-23 04:56:27 GMT 48.456829 3.749880 11,100 323 347 -896
2021-09-23 04:56:22 GMT 48.451057 3.756529 11,175 325 349 -1280
2021-09-23 04:56:17 GMT 48.443939 3.764085 11,725 328 350 -1536
2021-09-23 04:56:12 GMT 48.437805 3.770001 11,425 329 351 -1536
2021-09-23 04:56:07 GMT 48.429874 3.777129 11,575 332 352 -1600
2021-09-23 04:56:02 GMT 48.423294 3.782466 11,750 334 353 -1472
2021-09-23 04:55:57 GMT 48.416702 3.787396 11,850 336 354 -1152
2021-09-23 04:55:53 GMT 48.409241 3.792537 11,900 338 356 -1216
2021-09-23 04:55:48 GMT 48.401733 3.797114 12,025 340 358 -1408
2021-09-23 04:55:45 GMT 48.384293 3.805988 12,150 343 360 -1728
2021-09-23 04:55:37 GMT 48.372105 3.811822 12,625 343 360 -1728
2021-09-23 04:55:29 GMT 48.372105 3.811822 12,550 343 359 -1728
2021-09-23 04:55:25 GMT 48.365753 3.814862 12,625 343 360 -1728
2021-09-23 04:55:18 GMT 48.355717 3.819628 12,850 343 360 -1728
2021-09-23 04:55:15 GMT 48.350327 3.822186 12,950 343 361 -1728
2021-09-23 04:55:09 GMT 48.340450 3.826856 13,125 343 361 -1728
2021-09-23 04:55:06 GMT 48.335632 3.829087 13,475 343 361 -1728
2021-09-23 04:54:58 GMT 48.323689 3.834734 13,450 343 361 -1792
2021-09-23 04:54:55 GMT 48.317780 3.837481 13,550 343 361 -1792
2021-09-23 04:54:50 GMT 48.309494 3.841412 13,725 343 362 -1728
2021-09-23 04:54:46 GMT 48.304695 3.843697 13,800 343 363 -1728
2021-09-23 04:54:43 GMT 48.299881 3.845990 13,875 343 363 -1728
2021-09-23 04:54:40 GMT 48.292221 3.849696 14,025 343 363 -1728
2021-09-23 04:54:37 GMT 48.289009 3.851214 14,075 343 363 -1728
2021-09-23 04:54:34 GMT 48.280209 3.855406 14,225 343 364 -1728
2021-09-23 04:54:31 GMT 48.280209 3.855406 14,250 343 364 -1792
2021-09-23 04:54:28 GMT 48.275230 3.857719 14,325 343 364 -1728
2021-09-23 04:54:24 GMT 48.268990 3.860755 14,450 343 364 -1792
2021-09-23 04:54:19 GMT 48.259872 3.865075 14,600 343 364 -1728
2021-09-23 04:54:16 GMT 48.256142 3.866826 14,750 343 364 -1728
2021-09-23 04:54:12 GMT 48.247158 3.871091 14,825 343 368 -1728
2021-09-23 04:54:07 GMT 48.240372 3.874300 14,950 343 366 -1792
2021-09-23 04:54:04 GMT 48.237488 3.875709 15,025 343 366 -1792
2021-09-23 04:54:01 GMT 48.231518 3.878535 15,125 343 366 -1792
2021-09-23 04:53:58 GMT 48.226673 3.880848 15,200 343 366 -1728
2021-09-23 04:53:54 GMT 48.221367 3.883378 15,300 343 367 -1728
2021-09-23 04:53:51 GMT 48.216202 3.885780 15,400 343 367 -1728
2021-09-23 04:53:48 GMT 48.210709 3.888385 15,500 343 367 -1728
2021-09-23 04:53:44 GMT 48.205032 3.891062 15,600 343 368 -1728
2021-09-23 04:53:36 GMT 48.190411 3.897978 15,850 343 368 -1792
2021-09-23 04:53:33 GMT 48.186501 3.899785 15,925 343 368 -1792
2021-09-23 04:53:28 GMT 48.178574 3.903597 16,125 343 369 -1792
2021-09-23 04:53:23 GMT 48.168823 3.908175 16,250 343 369 -1792
2021-09-23 04:53:18 GMT 48.161819 3.911485 16,375 343 370 -1792
2021-09-23 04:53:14 GMT 48.155457 3.914497 16,500 343 370 -1792
2021-09-23 04:53:08 GMT 48.145020 3.919373 16,800 343 370 -1728
2021-09-23 04:53:05 GMT 48.140926 3.921344 16,825 343 371 -1792
2021-09-23 04:53:01 GMT 48.133713 3.924728 16,900 343 371 -1792
2021-09-23 04:52:56 GMT 48.124401 3.929091 17,050 343 372 -1728
2021-09-23 04:52:51 GMT 48.117828 3.932213 17,175 343 372 -1728
2021-09-23 04:52:48 GMT 48.109818 3.935989 17,275 343 372 -1728
2021-09-23 04:52:44 GMT 48.106197 3.937683 17,375 343 373 -1728
2021-09-23 04:52:40 GMT 48.099773 3.940711 17,475 343 373 -1728
2021-09-23 04:52:37 GMT 48.095818 3.942542 17,625 343 374 -1728
2021-09-23 04:52:34 GMT 48.090694 3.945007 17,650 343 374 -1728
2021-09-23 04:52:31 GMT 48.084457 3.947937 17,750 343 374 -1728
2021-09-23 04:52:26 GMT 48.076172 3.951851 17,950 343 375 -1792
2021-09-23 04:52:23 GMT 48.071236 3.954163 18,000 343 375 -1792
2021-09-23 04:52:19 GMT 48.065929 3.956698 18,100 343 375 -1792
2021-09-23 04:52:14 GMT 48.038406 3.969635 18,275 343 376 -1792
2021-09-23 04:52:03 GMT 48.038406 3.969635 20,150 343 381 -1856
2021-09-23 04:52:00 GMT 48.033554 3.971901 19,300 343 379 -1792
2021-09-23 04:51:54 GMT 48.022217 3.977262 18,850 343 378 -1728
2021-09-23 04:51:51 GMT 48.018028 3.979234 18,925 343 379 -1728
2021-09-23 04:51:43 GMT 48.004993 3.985361 19,150 343 380 -1792
2021-09-23 04:51:37 GMT 47.995102 3.990028 19,350 343 381 -1856
2021-09-23 04:51:33 GMT 47.987869 3.993393 19,475 343 381 -1856
2021-09-23 04:51:26 GMT 47.977436 3.998249 19,650 343 381 -1856
2021-09-23 04:51:22 GMT 47.970730 4.001347 19,875 343 382 -1664
2021-09-23 04:51:19 GMT 47.964123 4.004446 19,875 343 382 -1664
2021-09-23 04:51:16 GMT 47.958908 4.006841 19,975 343 385 -1664
2021-09-23 04:51:13 GMT 47.952621 4.009798 20,075 343 384 -1664
2021-09-23 04:51:09 GMT 47.947906 4.012001 20,150 343 384 -1664
2021-09-23 04:51:04 GMT 47.939255 4.015984 20,300 343 385 -1664
2021-09-23 04:51:01 GMT 47.933670 4.018593 20,375 343 385 -1664
2021-09-23 04:50:58 GMT 47.930237 4.020241 20,450 343 385 -1728
2021-09-23 04:50:52 GMT 47.919022 4.025459 20,625 343 386 -1728
2021-09-23 04:50:48 GMT 47.912338 4.028549 20,900 343 388 -1728
2021-09-23 04:50:43 GMT 47.904488 4.032264 20,875 343 388 -1728
2021-09-23 04:50:40 GMT 47.898483 4.035081 20,975 343 389 -1728
2021-09-23 04:50:36 GMT 47.892334 4.037956 21,075 343 389 -1728
2021-09-23 04:50:32 GMT 47.882561 4.042546 21,250 343 390 -1600
2021-09-23 04:50:28 GMT 47.878418 4.044518 21,300 343 391 -1600
2021-09-23 04:50:20 GMT 47.864265 4.051138 21,525 343 392 -1600
2021-09-23 04:50:16 GMT 47.857143 4.054448 21,625 343 394 -1600
2021-09-23 04:50:13 GMT 47.850037 4.057732 21,750 343 395 -1600
2021-09-23 04:50:10 GMT 47.846558 4.059311 21,800 343 395 -1664
2021-09-23 04:50:06 GMT 47.839966 4.062406 21,900 343 395 -1664
2021-09-23 04:50:01 GMT 47.831215 4.066491 22,075 343 397 -1664
2021-09-23 04:49:58 GMT 47.825813 4.069026 22,125 343 397 -1664
2021-09-23 04:49:53 GMT 47.817204 4.073040 22,275 343 398 -1664
2021-09-23 04:49:50 GMT 47.810684 4.076069 22,350 343 399 -1664
2021-09-23 04:49:47 GMT 47.806503 4.077988 22,425 343 399 -1664
2021-09-23 04:49:43 GMT 47.798904 4.081558 22,550 343 400 -1664
2021-09-23 04:49:39 GMT 47.792038 4.084785 22,600 343 401 -1664
2021-09-23 04:49:35 GMT 47.786011 4.087548 22,750 343 402 -1600
2021-09-23 04:49:32 GMT 47.779266 4.090691 22,850 343 403 -1600
2021-09-23 04:49:29 GMT 47.775009 4.092682 22,900 343 404 -1600
2021-09-23 04:49:23 GMT 47.765030 4.097351 23,050 343 405 -1600
2021-09-23 04:49:20 GMT 47.758575 4.100304 23,675 343 407 -1600
2021-09-23 04:49:12 GMT 47.744934 4.106689 23,400 343 408 -1600
2021-09-23 04:49:09 GMT 47.738808 4.109521 23,450 343 409 -1600
2021-09-23 04:49:05 GMT 47.731407 4.112971 23,550 343 411 -1664
2021-09-23 04:49:00 GMT 47.721085 4.117744 23,700 343 411 -1664
2021-09-23 04:48:55 GMT 47.713810 4.121141 23,825 343 414 -1664
2021-09-23 04:48:51 GMT 47.706734 4.124451 23,925 343 414 -1664
2021-09-23 04:48:47 GMT 47.699066 4.127975 24,050 343 414 -1600
2021-09-23 04:48:42 GMT 47.688995 4.132645 24,225 343 415 -1536
2021-09-23 04:48:39 GMT 47.683685 4.135117 24,275 343 415 -1536
2021-09-23 04:48:36 GMT 47.679081 4.137198 24,325 343 415 -1536
2021-09-23 04:48:32 GMT 47.670502 4.141159 24,725 343 412 -1600
2021-09-23 04:48:28 GMT 47.664780 4.143837 24,600 343 413 -1600
2021-09-23 04:48:22 GMT 47.652546 4.149452 24,900 343 409 -1600
2021-09-23 04:48:19 GMT 47.647427 4.151846 24,800 343 411 -1600
2021-09-23 04:48:16 GMT 47.642910 4.153888 24,875 343 410 -1600
2021-09-23 04:48:12 GMT 47.634567 4.157776 25,025 343 407 -1664
2021-09-23 04:48:08 GMT 47.627361 4.161072 25,100 343 406 -1664
2021-09-23 04:48:05 GMT 47.621777 4.163607 25,200 343 404 -1600
2021-09-23 04:48:01 GMT 47.615021 4.166702 25,325 343 403 -1536
2021-09-23 04:47:57 GMT 47.608795 4.169586 25,475 343 402 -1536
2021-09-23 04:47:51 GMT 47.597240 4.174946 25,725 343 403 -1536
2021-09-23 04:47:47 GMT 47.590168 4.178256 25,625 343 403 -1536
2021-09-23 04:47:44 GMT 47.583023 4.181534 25,750 343 406 -1536
2021-09-23 04:47:40 GMT 47.578575 4.183608 25,800 343 405 -1536
2021-09-23 04:47:37 GMT 47.572495 4.186409 26,150 343 406 -1536
2021-09-23 04:47:30 GMT 47.559769 4.192270 26,075 343 407 -1536
2021-09-23 04:47:26 GMT 47.553680 4.195129 26,175 343 408 -1536
2021-09-23 04:47:19 GMT 47.539581 4.201584 26,375 343 410 -1600
2021-09-23 04:47:16 GMT 47.535236 4.203609 26,425 343 411 -1600
2021-09-23 04:47:10 GMT 47.524704 4.208450 26,575 343 412 -1600
2021-09-23 04:47:06 GMT 47.516148 4.212412 26,700 343 414 -1600
2021-09-23 04:47:01 GMT 47.506840 4.216708 26,925 343 415 -1600
2021-09-23 04:46:58 GMT 47.502045 4.218887 26,975 343 416 -1600
2021-09-23 04:46:55 GMT 47.496735 4.221291 26,975 343 416 -1600
2021-09-23 04:46:50 GMT 47.487892 4.225370 27,125 343 418 -1600
2021-09-23 04:46:45 GMT 47.478859 4.229455 27,250 343 419 -1600
2021-09-23 04:46:41 GMT 47.470139 4.233444 27,400 343 420 -1600
2021-09-23 04:46:38 GMT 47.458832 4.238594 27,450 343 421 -1600
2021-09-23 04:46:35 GMT 47.458832 4.238594 27,550 343 421 -1600
2021-09-23 04:46:31 GMT 47.451347 4.241990 27,700 343 424 -1600
2021-09-23 04:46:28 GMT 47.446518 4.244225 27,725 343 424 -1600
2021-09-23 04:46:24 GMT 47.439754 4.247343 27,825 343 425 -1600
2021-09-23 04:46:18 GMT 47.427567 4.252945 28,000 343 427 -1600
2021-09-23 04:46:14 GMT 47.420811 4.256075 28,100 343 428 -1664
2021-09-23 04:46:10 GMT 47.412506 4.259880 28,225 343 429 -1664
2021-09-23 04:46:07 GMT 47.407562 4.262146 28,275 343 430 -1664
2021-09-23 04:46:04 GMT 47.401108 4.265030 28,375 343 431 -1664
2021-09-23 04:45:58 GMT 47.389713 4.270301 28,550 343 432 -1664
2021-09-23 04:45:53 GMT 47.380920 4.274368 28,850 343 436 -1664
2021-09-23 04:45:48 GMT 47.370209 4.279243 28,825 343 435 -1664
2021-09-23 04:45:43 GMT 47.361145 4.283432 29,000 343 437 -1664
2021-09-23 04:45:40 GMT 47.354195 4.286569 29,050 343 437 -1664
2021-09-23 04:45:35 GMT 47.344940 4.290848 29,225 343 439 -1664
2021-09-23 04:45:32 GMT 47.340694 4.292767 29,250 343 439 -1664
2021-09-23 04:45:28 GMT 47.331524 4.296992 29,400 343 441 -1728
2021-09-23 04:45:22 GMT 47.320999 4.301765 29,550 343 443 -1664
2021-09-23 04:45:18 GMT 47.313766 4.305061 29,650 343 444 -1728
2021-09-23 04:45:15 GMT 47.306946 4.308220 29,750 343 445 -1728
2021-09-23 04:45:12 GMT 47.301823 4.310584 29,825 343 446 -1728
2021-09-23 04:45:07 GMT 47.290604 4.315704 29,975 343 448 -1728
2021-09-23 04:45:02 GMT 47.281311 4.319962 30,125 343 449 -1728
2021-09-23 04:44:58 GMT 47.272167 4.324106 30,250 343 451 -1792
2021-09-23 04:44:51 GMT 47.259460 4.329881 30,500 343 453 -1728
2021-09-23 04:44:48 GMT 47.254246 4.332275 30,525 343 454 -1728
2021-09-23 04:44:45 GMT 47.245422 4.336235 30,700 343 457 -1728
2021-09-23 04:44:41 GMT 47.240021 4.338707 30,700 343 457 -1728
2021-09-23 04:44:38 GMT 47.231949 4.342346 30,825 343 460 -1920
2021-09-23 04:44:31 GMT 47.219425 4.348051 31,025 343 459 -1856
2021-09-23 04:44:27 GMT 47.210720 4.351994 31,250 343 460 -1920
2021-09-23 04:44:24 GMT 47.205002 4.354637 31,250 343 461 -1920
2021-09-23 04:44:20 GMT 47.197685 4.357910 31,450 343 462 -1600
2021-09-23 04:44:17 GMT 47.190765 4.361092 31,450 343 462 -1600
2021-09-23 04:44:14 GMT 47.184650 4.363896 31,600 343 475 -1216
2021-09-23 04:44:10 GMT 47.177063 4.367277 31,625 343 475 -1216
2021-09-23 04:44:07 GMT 47.164352 4.373108 31,675 343 475 -1216
2021-09-23 04:44:04 GMT 47.164352 4.373108 31,725 343 475 -1216
2021-09-23 04:44:01 GMT 47.157787 4.376080 32,125 343 475 -1216
2021-09-23 04:43:58 GMT 47.151413 4.378967 31,850 343 466 -1280
2021-09-23 04:43:55 GMT 47.145218 4.381760 31,925 343 467 -1280
2021-09-23 04:43:52 GMT 47.139862 4.384163 31,975 343 468 -1152
2021-09-23 04:43:48 GMT 47.131767 4.387841 32,050 343 469 -1088
2021-09-23 04:43:45 GMT 47.124527 4.391098 32,125 343 470 -1024
2021-09-23 04:43:42 GMT 47.119152 4.393545 32,175 343 470 -1024
2021-09-23 04:43:38 GMT 47.109795 4.397771 32,250 343 471 -1024
2021-09-23 04:43:35 GMT 47.103561 4.400642 32,325 343 477 -1344
2021-09-23 04:43:32 GMT 47.098572 4.402908 32,325 343 477 -1344
2021-09-23 04:43:29 GMT 47.090195 4.406685 32,400 343 474 -1152
2021-09-23 04:43:25 GMT 47.083923 4.409500 32,900 343 477 -1344
2021-09-23 04:43:21 GMT 47.073898 4.414032 32,550 343 476 -1344
2021-09-23 04:43:17 GMT 47.065475 4.417842 32,650 343 476 -1344
2021-09-23 04:43:15 GMT 47.063187 4.418907 32,675 343 477 -1408
2021-09-23 04:43:14 GMT 47.060211 4.420212 32,700 343 477 -1408
2021-09-23 04:43:12 GMT 47.055607 4.422349 32,800 343 477 -1408
2021-09-23 04:43:09 GMT 47.046528 4.426363 32,925 343 478 -1344
2021-09-23 04:43:06 GMT 47.043777 4.427628 32,925 343 478 -1344
2021-09-23 04:43:03 GMT 47.033867 4.432068 33,000 343 479 -1344
2021-09-23 04:42:58 GMT 47.026882 4.435237 33,100 343 480 -1280
2021-09-23 04:42:55 GMT 47.019482 4.438547 33,150 343 480 -1280
2021-09-23 04:42:52 GMT 47.013103 4.441434 33,200 343 480 -1344
2021-09-23 04:42:46 GMT 47.000153 4.447266 33,350 343 481 -1472
2021-09-23 04:42:42 GMT 46.992737 4.450630 33,425 343 482 -1472
2021-09-23 04:42:36 GMT 46.978237 4.457210 33,600 343 483 -1280
2021-09-23 04:42:32 GMT 46.969299 4.461224 33,675 343 483 -1280
2021-09-23 04:42:30 GMT 46.966320 4.462562 33,700 343 484 -1216
2021-09-23 04:42:29 GMT 46.963531 4.463814 33,725 343 484 -1216
2021-09-23 04:42:28 GMT 46.960964 4.464956 33,750 343 484 -1216
2021-09-23 04:42:26 GMT 46.957989 4.466365 33,775 343 484 -1216
2021-09-23 04:42:24 GMT 46.946411 4.471504 33,875 343 484 -1088
2021-09-23 04:42:21 GMT 46.946411 4.471504 33,875 343 484 -768
2021-09-23 04:42:19 GMT 46.942795 4.473152 33,900 343 484 -768
2021-09-23 04:42:17 GMT 46.937458 4.475591 33,950 343 484 -704
2021-09-23 04:42:13 GMT 46.929520 4.479126 33,975 343 485 -256
2021-09-23 04:42:10 GMT 46.923119 4.481999 34,000 343 485 -256
2021-09-23 04:42:07 GMT 46.916016 4.485168 34,000 343 485 0
2021-09-23 04:42:01 GMT 46.904480 4.490387 34,000 343 485 0
2021-09-23 04:41:57 GMT 46.889008 4.497322 34,000 343 485 0
2021-09-23 04:41:54 GMT 46.889008 4.497322 34,000 343 485 0
2021-09-23 04:41:47 GMT 46.874241 4.503902 34,000 343 485 0
2021-09-23 04:41:44 GMT 46.867584 4.506930 34,000 343 485 0
2021-09-23 04:41:36 GMT 46.850189 4.514711 34,000 343 486 0
2021-09-23 04:41:32 GMT 46.841606 4.518539 34,000 343 486 0
2021-09-23 04:41:25 GMT 46.827454 4.524857 34,000 343 486 0
2021-09-23 04:41:22 GMT 46.821449 4.527603 34,000 343 486 0
2021-09-23 04:41:20 GMT 46.818420 4.528913 34,000 343 486 0
2021-09-23 04:41:19 GMT 46.815212 4.530350 34,000 343 486 0
2021-09-23 04:41:16 GMT 46.808556 4.533371 34,000 343 486 0
2021-09-23 04:41:14 GMT 46.801712 4.536416 34,000 344 486 0
2021-09-23 04:41:09 GMT 46.792877 4.540301 34,000 344 486 0
2021-09-23 04:41:07 GMT 46.789261 4.541976 34,000 343 486 0
2021-09-23 04:41:04 GMT 46.783230 4.544632 34,000 343 486 0
2021-09-23 04:41:03 GMT 46.780251 4.546005 34,000 343 486 0
2021-09-23 04:40:57 GMT 46.765633 4.552528 34,000 343 486 0
2021-09-23 04:40:54 GMT 46.761978 4.554168 34,000 343 486 0
2021-09-23 04:40:51 GMT 46.755341 4.557116 34,000 343 486 0
2021-09-23 04:40:49 GMT 46.751667 4.558708 34,000 343 486 0
2021-09-23 04:40:47 GMT 46.747150 4.560768 34,000 343 486 0
2021-09-23 04:40:44 GMT 46.737514 4.565094 34,000 343 486 0
2021-09-23 04:40:41 GMT 46.731510 4.567772 34,000 343 486 0
2021-09-23 04:40:36 GMT 46.722713 4.571686 34,000 343 486 0
2021-09-23 04:40:33 GMT 46.716473 4.574432 34,000 343 486 0
2021-09-23 04:40:30 GMT 46.707676 4.578415 34,000 343 486 0
2021-09-23 04:40:27 GMT 46.699295 4.582123 34,000 344 486 0
2021-09-23 04:40:24 GMT 46.694965 4.584045 34,000 344 486 0
2021-09-23 04:40:20 GMT 46.684677 4.588646 34,000 344 486 0
2021-09-23 04:40:15 GMT 46.676720 4.592148 34,000 344 486 0
2021-09-23 04:40:12 GMT 46.671551 4.594482 34,000 344 487 0
2021-09-23 04:40:09 GMT 46.664658 4.597510 34,000 344 487 0
2021-09-23 04:40:06 GMT 46.655869 4.601396 34,000 343 487 0
2021-09-23 04:40:03 GMT 46.639709 4.608627 34,000 343 487 0
2021-09-23 04:39:59 GMT 46.639709 4.608627 34,000 343 487 0
2021-09-23 04:39:54 GMT 46.630692 4.612583 34,000 343 487 0
2021-09-23 04:39:51 GMT 46.624626 4.615288 34,000 343 488 0
2021-09-23 04:39:48 GMT 46.616665 4.618858 34,000 343 488 0
2021-09-23 04:39:45 GMT 46.605881 4.623636 34,000 343 488 0
2021-09-23 04:39:42 GMT 46.605881 4.623636 34,000 343 488 0
2021-09-23 04:39:39 GMT 46.598557 4.626892 34,000 343 488 0
2021-09-23 04:39:35 GMT 46.591232 4.630134 34,000 343 488 0
2021-09-23 04:39:32 GMT 46.584549 4.633082 34,000 344 489 0
2021-09-23 04:39:28 GMT 46.576771 4.636574 34,000 344 489 0
2021-09-23 04:39:23 GMT 46.563995 4.642193 34,000 344 489 0
2021-09-23 04:39:19 GMT 46.553833 4.646681 34,000 344 489 0
2021-09-23 04:39:14 GMT 46.544998 4.650633 34,000 344 490 0
2021-09-23 04:39:11 GMT 46.538040 4.653671 34,000 344 490 0
2021-09-23 04:39:07 GMT 46.530258 4.657131 34,000 344 490 0
2021-09-23 04:39:03 GMT 46.520721 4.661362 34,000 344 490 0
2021-09-23 04:39:00 GMT 46.516205 4.663361 34,000 344 490 0
2021-09-23 04:38:57 GMT 46.508804 4.666649 34,000 344 490 0
2021-09-23 04:38:54 GMT 46.500797 4.670151 34,000 344 490 0
2021-09-23 04:38:51 GMT 46.495399 4.672554 34,000 344 490 0
2021-09-23 04:38:48 GMT 46.488876 4.675420 34,000 344 490 0
2021-09-23 04:38:44 GMT 46.479801 4.679420 34,000 344 490 0
2021-09-23 04:38:41 GMT 46.472214 4.682785 34,000 344 490 0
2021-09-23 04:38:37 GMT 46.465046 4.685944 34,000 344 491 0
2021-09-23 04:38:34 GMT 46.459831 4.688210 34,000 344 491 0
2021-09-23 04:38:31 GMT 46.452484 4.691497 34,000 344 490 0
2021-09-23 04:38:28 GMT 46.445755 4.694445 34,000 344 490 0
2021-09-23 04:38:24 GMT 46.437904 4.697823 34,000 344 490 0
2021-09-23 04:38:21 GMT 46.430969 4.700876 34,000 344 491 0
2021-09-23 04:38:18 GMT 46.416641 4.707173 34,000 344 491 0
2021-09-23 04:38:15 GMT 46.416641 4.707173 34,000 344 491 0
2021-09-23 04:38:11 GMT 46.409462 4.710320 34,000 344 491 0
2021-09-23 04:38:08 GMT 46.394241 4.717049 34,000 344 492 0
2021-09-23 04:38:04 GMT 46.394241 4.717049 34,000 344 492 0
2021-09-23 04:38:01 GMT 46.386654 4.720413 34,000 343 492 0
2021-09-23 04:37:59 GMT 46.382973 4.721992 34,000 343 492 0
2021-09-23 04:37:56 GMT 46.376633 4.724791 34,000 343 492 0
2021-09-23 04:37:52 GMT 46.365982 4.729477 34,000 343 492 0
2021-09-23 04:37:48 GMT 46.357315 4.733366 34,000 343 492 0
2021-09-23 04:37:44 GMT 46.348389 4.737251 34,000 343 492 0
2021-09-23 04:37:41 GMT 46.341450 4.740326 34,000 343 492 0
2021-09-23 04:37:38 GMT 46.337311 4.742141 34,000 344 492 0
2021-09-23 04:37:35 GMT 46.327515 4.746496 34,000 344 492 0
2021-09-23 04:37:32 GMT 46.323154 4.748360 34,000 344 492 0
2021-09-23 04:37:29 GMT 46.314682 4.752136 34,000 344 492 0
2021-09-23 04:37:26 GMT 46.311447 4.753530 34,000 344 492 0
2021-09-23 04:37:22 GMT 46.301834 4.757767 34,000 344 492 0
2021-09-23 04:37:18 GMT 46.290985 4.762505 34,000 344 492 0
2021-09-23 04:37:13 GMT 46.282288 4.766325 34,000 344 492 0
2021-09-23 04:37:10 GMT 46.275997 4.769096 34,000 344 492 0
2021-09-23 04:37:07 GMT 46.268829 4.772255 34,000 344 492 0
2021-09-23 04:37:04 GMT 46.263611 4.774564 34,000 344 492 0
2021-09-23 04:37:00 GMT 46.252945 4.779254 34,000 344 492 0
2021-09-23 04:36:57 GMT 46.240990 4.784477 34,000 344 492 0
2021-09-23 04:36:54 GMT 46.240990 4.784477 34,000 344 492 0
2021-09-23 04:36:50 GMT 46.229233 4.789570 34,000 344 492 0
2021-09-23 04:36:45 GMT 46.222504 4.792518 34,000 344 492 0
2021-09-23 04:36:42 GMT 46.214222 4.796150 34,000 344 492 0
2021-09-23 04:36:39 GMT 46.205750 4.799858 34,000 344 492 0
2021-09-23 04:36:36 GMT 46.193573 4.805179 34,000 344 493 0
2021-09-23 04:36:32 GMT 46.193573 4.805179 34,000 344 492 0
2021-09-23 04:36:29 GMT 46.186150 4.808441 34,000 344 492 0
2021-09-23 04:36:26 GMT 46.179611 4.811275 34,000 344 492 0
2021-09-23 04:36:22 GMT 46.172012 4.814557 34,000 344 492 0
2021-09-23 04:36:19 GMT 46.158737 4.820385 34,000 344 492 0
2021-09-23 04:36:16 GMT 46.158737 4.820385 34,000 344 492 0
2021-09-23 04:36:13 GMT 46.151329 4.823616 34,000 344 492 0
2021-09-23 04:36:10 GMT 46.144363 4.826615 34,000 344 492 0
2021-09-23 04:36:07 GMT 46.138916 4.829027 34,000 344 493 0
2021-09-23 04:36:04 GMT 46.129776 4.833023 34,000 344 493 0
2021-09-23 04:36:01 GMT 46.126511 4.834453 34,000 344 493 0
2021-09-23 04:35:58 GMT 46.118649 4.837830 34,000 344 493 0
2021-09-23 04:35:55 GMT 46.113007 4.840348 34,000 344 493 0
2021-09-23 04:35:51 GMT 46.103848 4.844284 34,000 344 493 0
2021-09-23 04:35:46 GMT 46.092728 4.849124 34,000 344 493 0
2021-09-23 04:35:43 GMT 46.087273 4.851494 34,000 344 493 0
2021-09-23 04:35:40 GMT 46.078754 4.855202 34,000 344 493 0
2021-09-23 04:35:37 GMT 46.073959 4.857297 34,000 344 493 0
2021-09-23 04:35:34 GMT 46.068516 4.859665 34,000 344 493 0
2021-09-23 04:35:31 GMT 46.060413 4.863167 34,000 344 493 0
2021-09-23 04:35:28 GMT 46.054733 4.865671 34,000 344 493 0
2021-09-23 04:35:25 GMT 46.048416 4.868417 34,000 344 493 0
2021-09-23 04:35:22 GMT 46.039032 4.872504 34,000 344 493 0
2021-09-23 04:35:19 GMT 46.034904 4.874290 34,000 344 493 0
2021-09-23 04:35:17 GMT 46.028366 4.877126 34,000 344 493 0
2021-09-23 04:35:14 GMT 46.020721 4.880475 34,000 344 494 0
2021-09-23 04:35:11 GMT 46.016144 4.882485 34,000 344 494 0
2021-09-23 04:35:08 GMT 46.011749 4.884361 34,000 344 494 0
2021-09-23 04:35:06 GMT 46.006969 4.886444 34,000 344 494 0
2021-09-23 04:35:03 GMT 45.998657 4.890055 34,000 344 494 0
2021-09-23 04:34:59 GMT 45.989048 4.894203 34,000 344 494 0
2021-09-23 04:34:56 GMT 45.982719 4.896950 34,000 344 493 0
2021-09-23 04:34:53 GMT 45.976852 4.899490 34,000 344 494 0
2021-09-23 04:34:50 GMT 45.964600 4.904793 34,000 344 493 0
2021-09-23 04:34:47 GMT 45.964600 4.904793 34,000 344 493 0
2021-09-23 04:34:44 GMT 45.958046 4.907661 34,000 344 493 0
2021-09-23 04:34:41 GMT 45.944496 4.913429 34,000 344 493 0
2021-09-23 04:34:38 GMT 45.944496 4.913429 34,000 344 493 0
2021-09-23 04:34:35 GMT 45.938400 4.916107 34,000 344 493 0
2021-09-23 04:34:32 GMT 45.932487 4.918648 34,000 344 493 0
2021-09-23 04:34:29 GMT 45.926193 4.921339 34,000 344 493 0
2021-09-23 04:34:25 GMT 45.916580 4.925425 34,000 344 493 0
2021-09-23 04:34:21 GMT 45.907150 4.929445 34,000 344 494 0
2021-09-23 04:34:18 GMT 45.898411 4.933205 34,000 344 494 0
2021-09-23 04:34:15 GMT 45.893372 4.935340 34,000 344 494 0
2021-09-23 04:34:12 GMT 45.889206 4.937082 34,000 344 494 0
2021-09-23 04:34:09 GMT 45.882629 4.939934 34,000 344 495 0
2021-09-23 04:34:05 GMT 45.871876 4.944466 34,000 344 495 0
2021-09-23 04:34:02 GMT 45.866638 4.946728 34,000 344 495 0
2021-09-23 04:33:59 GMT 45.860287 4.949409 34,000 344 495 0
2021-09-23 04:33:55 GMT 45.847778 4.954700 34,000 344 495 0
2021-09-23 04:33:52 GMT 45.843575 4.956482 34,000 344 495 0
2021-09-23 04:33:49 GMT 45.838963 4.958405 34,000 344 495 0
2021-09-23 04:33:46 GMT 45.830658 4.961935 34,000 344 495 0
2021-09-23 04:33:43 GMT 45.821880 4.965614 34,000 344 495 0
2021-09-23 04:33:40 GMT 45.818573 4.967026 34,000 344 495 0
2021-09-23 04:33:37 GMT 45.809776 4.970764 34,000 344 495 0
2021-09-23 04:33:32 GMT 45.799721 4.975090 34,000 344 495 0
2021-09-23 04:33:29 GMT 45.793575 4.977699 34,000 344 496 0
2021-09-23 04:33:25 GMT 45.785202 4.981295 34,000 344 496 0
2021-09-23 04:33:22 GMT 45.777100 4.984778 34,000 343 495 0
2021-09-23 04:33:19 GMT 45.771835 4.987106 34,000 343 495 0
2021-09-23 04:33:15 GMT 45.763092 4.990941 34,000 343 495 0
2021-09-23 04:33:12 GMT 45.757416 4.993487 34,000 343 495 -64
2021-09-23 04:33:09 GMT 45.749542 4.997038 34,000 343 495 -64
2021-09-23 04:33:05 GMT 45.741669 5.000588 34,000 343 495 -64
2021-09-23 04:33:02 GMT 45.734940 5.003670 34,000 343 495 0
2021-09-23 04:32:59 GMT 45.727753 5.006952 34,025 315 495 0
2021-09-23 04:32:56 GMT 45.720978 5.010034 34,000 343 493 0
2021-09-23 04:32:52 GMT 45.712509 5.013919 34,000 340 493 0
2021-09-23 04:32:49 GMT 45.706059 5.017181 34,000 339 493 0
2021-09-23 04:32:46 GMT 45.699646 5.020752 34,000 336 493 0
2021-09-23 04:32:41 GMT 45.689301 5.027618 34,000 330 494 0
2021-09-23 04:32:38 GMT 45.684273 5.031532 34,000 330 494 0
2021-09-23 04:32:34 GMT 45.675613 5.038906 34,000 326 494 0
2021-09-23 04:32:30 GMT 45.667877 5.046476 34,000 322 495 0
2021-09-23 04:32:27 GMT 45.661560 5.053510 34,000 319 495 0
2021-09-23 04:32:24 GMT 45.656994 5.058998 34,000 317 495 0
2021-09-23 04:32:21 GMT 45.653221 5.063873 34,000 315 495 0
2021-09-23 04:32:18 GMT 45.647324 5.072066 34,000 313 495 -64
2021-09-23 04:32:15 GMT 45.642517 5.079569 34,000 311 495 -64
2021-09-23 04:32:11 GMT 45.632767 5.096919 34,000 306 495 0
2021-09-23 04:32:08 GMT 45.632767 5.096919 34,000 305 496 0
2021-09-23 04:32:04 GMT 45.625900 5.111657 34,000 301 496 64
2021-09-23 04:32:01 GMT 45.623337 5.117820 34,000 299 496 64
2021-09-23 04:31:58 GMT 45.620728 5.124385 34,000 291 496 0
2021-09-23 04:31:55 GMT 45.617840 5.132607 34,000 294 496 64
2021-09-23 04:31:51 GMT 45.613605 5.145996 33,975 289 497 0
2021-09-23 04:31:48 GMT 45.611160 5.155200 33,975 288 496 0
2021-09-23 04:31:45 GMT 45.609089 5.163918 33,975 287 497 0
2021-09-23 04:31:41 GMT 45.606716 5.175865 34,000 285 497 0
2021-09-23 04:31:37 GMT 45.604523 5.187289 34,000 285 497 0
2021-09-23 04:31:32 GMT 45.601089 5.205577 34,000 285 497 0
2021-09-23 04:31:29 GMT 45.599407 5.214798 34,000 285 497 0
2021-09-23 04:31:25 GMT 45.597015 5.227750 34,000 285 496 0
2021-09-23 04:31:22 GMT 45.595505 5.235990 34,000 285 496 0
2021-09-23 04:31:19 GMT 45.593868 5.244873 34,000 285 496 0
2021-09-23 04:31:16 GMT 45.591614 5.257494 34,000 285 496 0
2021-09-23 04:31:12 GMT 45.589909 5.266983 34,000 285 496 0
2021-09-23 04:31:09 GMT 45.588089 5.277122 34,000 285 496 0
2021-09-23 04:31:05 GMT 45.585487 5.291634 34,000 285 495 0
2021-09-23 04:31:00 GMT 45.582695 5.307152 34,000 285 495 0
2021-09-23 04:30:57 GMT 45.580994 5.316646 34,000 285 495 0
2021-09-23 04:30:52 GMT 45.578201 5.332121 34,000 285 495 0
2021-09-23 04:30:49 GMT 45.575943 5.344711 34,000 285 495 0
2021-09-23 04:30:46 GMT 45.575272 5.348533 34,000 285 495 0
2021-09-23 04:30:42 GMT 45.572617 5.363405 34,000 285 495 0
2021-09-23 04:30:39 GMT 45.570915 5.372864 34,000 285 495 0
2021-09-23 04:30:36 GMT 45.569382 5.381378 34,000 285 495 0
2021-09-23 04:30:33 GMT 45.566895 5.395292 34,000 285 495 0
2021-09-23 04:30:29 GMT 45.565189 5.404724 34,000 285 495 0
2021-09-23 04:30:26 GMT 45.563461 5.414183 34,000 285 495 0
2021-09-23 04:30:22 GMT 45.561401 5.425571 34,000 285 495 0
2021-09-23 04:30:19 GMT 45.558765 5.440361 34,000 285 495 0
2021-09-23 04:30:15 GMT 45.555588 5.458061 34,000 285 495 0
2021-09-23 04:30:12 GMT 45.555588 5.458061 34,000 285 494 0
2021-09-23 04:30:09 GMT 45.553940 5.467172 34,000 285 494 0
2021-09-23 04:30:05 GMT 45.551785 5.479156 34,000 285 494 0
2021-09-23 04:30:02 GMT 45.549549 5.491447 34,000 285 494 0
2021-09-23 04:29:59 GMT 45.547852 5.500935 34,000 285 494 0
2021-09-23 04:29:55 GMT 45.545776 5.512256 34,000 285 494 0
2021-09-23 04:29:52 GMT 45.544373 5.520172 34,000 285 494 0
2021-09-23 04:29:49 GMT 45.542519 5.530209 34,000 285 494 0
2021-09-23 04:29:45 GMT 45.540283 5.542536 34,000 285 494 0
2021-09-23 04:29:42 GMT 45.536133 5.565491 34,000 285 494 0
2021-09-23 04:29:38 GMT 45.536133 5.565491 34,000 285 494 0
2021-09-23 04:29:35 GMT 45.534840 5.572480 34,000 285 495 0
2021-09-23 04:29:32 GMT 45.533070 5.582194 34,000 285 495 0
2021-09-23 04:29:29 GMT 45.530914 5.594199 34,000 285 495 0
2021-09-23 04:29:24 GMT 45.528168 5.608978 34,000 285 495 0
2021-09-23 04:29:21 GMT 45.526459 5.618435 34,000 285 495 0
2021-09-23 04:29:18 GMT 45.524918 5.626962 34,000 285 497 0
2021-09-23 04:29:15 GMT 45.523132 5.636706 34,000 285 495 0
2021-09-23 04:29:12 GMT 45.521439 5.645861 34,000 285 496 0
2021-09-23 04:29:08 GMT 45.519150 5.658495 34,000 285 496 0
2021-09-23 04:29:05 GMT 45.516815 5.671103 34,000 285 496 0
2021-09-23 04:29:02 GMT 45.515705 5.677051 34,000 285 496 0
2021-09-23 04:28:59 GMT 45.513885 5.687190 34,000 285 496 0
2021-09-23 04:28:56 GMT 45.511734 5.698831 34,000 285 496 0
2021-09-23 04:28:53 GMT 45.510498 5.705436 34,000 285 496 0
2021-09-23 04:28:51 GMT 45.508987 5.713675 34,000 285 496 0
2021-09-23 04:28:48 GMT 45.506676 5.726289 34,000 285 497 0
2021-09-23 04:28:45 GMT 45.505791 5.731045 34,000 285 497 0
2021-09-23 04:28:42 GMT 45.503677 5.742384 34,000 285 497 0
2021-09-23 04:28:38 GMT 45.501297 5.755332 34,000 285 499 0
2021-09-23 04:28:34 GMT 45.499146 5.767038 34,000 285 497 0
2021-09-23 04:28:31 GMT 45.496857 5.779397 34,000 285 497 0
2021-09-23 04:28:28 GMT 45.496014 5.784101 34,000 285 497 0
2021-09-23 04:28:25 GMT 45.493790 5.796138 34,000 285 497 0
2021-09-23 04:28:22 GMT 45.492149 5.805002 34,000 285 497 0
2021-09-23 04:28:18 GMT 45.488068 5.826808 34,000 285 498 0
2021-09-23 04:28:15 GMT 45.488068 5.826808 34,000 285 498 0
2021-09-23 04:28:12 GMT 45.486145 5.837272 34,000 285 498 0
2021-09-23 04:28:09 GMT 45.481934 5.860029 34,000 285 499 0
2021-09-23 04:28:05 GMT 45.481934 5.860029 34,000 285 498 0
2021-09-23 04:28:02 GMT 45.480286 5.868923 34,000 285 498 0
2021-09-23 04:27:59 GMT 45.478512 5.878422 34,000 285 499 0
2021-09-23 04:27:56 GMT 45.475018 5.897381 34,000 285 499 0
2021-09-23 04:27:53 GMT 45.475018 5.897381 34,000 285 498 0
2021-09-23 04:27:48 GMT 45.472595 5.910383 34,000 285 498 0
2021-09-23 04:27:44 GMT 45.469944 5.924645 34,000 285 498 0
2021-09-23 04:27:41 GMT 45.468269 5.933823 34,000 285 498 0
2021-09-23 04:27:38 GMT 45.466370 5.943930 34,000 285 498 0
2021-09-23 04:27:33 GMT 45.463669 5.958514 34,000 285 498 0
2021-09-23 04:27:30 GMT 45.461517 5.970265 34,000 285 498 0
2021-09-23 04:27:27 GMT 45.460007 5.978197 34,000 285 499 0
2021-09-23 04:27:23 GMT 45.457123 5.993696 34,000 285 499 0
2021-09-23 04:27:19 GMT 45.455063 6.004748 34,000 285 498 0
2021-09-23 04:27:13 GMT 45.451538 6.023778 34,000 285 498 0
2021-09-23 04:27:10 GMT 45.450073 6.031690 34,000 285 498 0
2021-09-23 04:27:07 GMT 45.448204 6.041543 34,000 285 498 0
2021-09-23 04:27:03 GMT 45.443710 6.065565 34,000 285 498 0
2021-09-23 04:27:00 GMT 45.443710 6.065565 34,000 285 498 0
2021-09-23 04:26:57 GMT 45.442429 6.072562 34,000 285 498 0
2021-09-23 04:26:54 GMT 45.440323 6.083614 34,000 285 498 0
2021-09-23 04:26:51 GMT 45.438492 6.093423 34,000 285 498 0
2021-09-23 04:26:48 GMT 45.436565 6.103575 34,000 285 498 0
2021-09-23 04:26:44 GMT 45.433308 6.120993 34,000 285 498 0
2021-09-23 04:26:41 GMT 45.432468 6.125414 34,000 285 498 0
2021-09-23 04:26:38 GMT 45.430981 6.133319 34,000 285 499 0
2021-09-23 04:26:35 GMT 45.428795 6.145042 34,000 285 499 0
2021-09-23 04:26:32 GMT 45.426773 6.155810 34,000 285 499 0
2021-09-23 04:26:29 GMT 45.425255 6.163732 34,000 285 499 0
2021-09-23 04:26:26 GMT 45.423763 6.171637 34,000 285 498 0
2021-09-23 04:26:23 GMT 45.421967 6.181117 34,000 285 498 0
2021-09-23 04:26:19 GMT 45.418716 6.198578 34,000 285 498 0
2021-09-23 04:26:14 GMT 45.415943 6.213104 34,000 285 498 0
2021-09-23 04:26:09 GMT 45.413757 6.224827 34,000 285 498 0
2021-09-23 04:26:06 GMT 45.411800 6.235277 34,000 285 498 0
2021-09-23 04:26:02 GMT 45.409008 6.250149 34,000 285 498 0
2021-09-23 04:25:59 GMT 45.407658 6.257384 34,000 285 498 0
2021-09-23 04:25:53 GMT 45.403793 6.277967 34,000 285 498 0
2021-09-23 04:25:50 GMT 45.402603 6.284245 34,000 285 498 0
2021-09-23 04:25:47 GMT 45.400257 6.296908 34,000 285 498 0
2021-09-23 04:25:43 GMT 45.398067 6.308631 34,000 285 498 0
2021-09-23 04:25:39 GMT 45.395737 6.321259 34,000 285 498 0
2021-09-23 04:25:36 GMT 45.394203 6.329465 34,000 285 498 0
2021-09-23 04:25:33 GMT 45.392075 6.340877 34,000 285 498 0
2021-09-23 04:25:28 GMT 45.389362 6.355390 34,000 285 498 0
2021-09-23 04:25:24 GMT 45.386944 6.368386 34,000 285 498 0
2021-09-23 04:25:21 GMT 45.385265 6.377563 34,000 285 498 0
2021-09-23 04:25:18 GMT 45.383869 6.385133 34,000 285 498 0
2021-09-23 04:25:15 GMT 45.381634 6.397124 34,000 285 498 0
2021-09-23 04:25:12 GMT 45.380173 6.405029 34,000 285 498 0
2021-09-23 04:25:09 GMT 45.377792 6.417650 34,000 285 498 0
2021-09-23 04:25:03 GMT 45.374187 6.437251 34,000 285 498 0
2021-09-23 04:24:58 GMT 45.371532 6.451520 34,000 285 498 0
2021-09-23 04:24:52 GMT 45.368275 6.469206 34,000 285 498 0
2021-09-23 04:24:48 GMT 45.364037 6.491915 34,000 285 498 0
2021-09-23 04:24:45 GMT 45.364037 6.491915 34,000 285 498 0
2021-09-23 04:24:41 GMT 45.361450 6.505868 34,000 285 498 0
2021-09-23 04:24:37 GMT 45.359344 6.516854 34,000 286 497 0
2021-09-23 04:24:33 GMT 45.356552 6.531699 34,000 286 498 0
2021-09-23 04:24:30 GMT 45.355381 6.537736 34,000 286 498 0
2021-09-23 04:24:27 GMT 45.353287 6.548722 34,000 286 498 0
2021-09-23 04:24:22 GMT 45.350212 6.564130 34,000 287 498 0
2021-09-23 04:24:18 GMT 45.345280 6.587911 34,000 287 498 0
2021-09-23 04:24:14 GMT 45.345280 6.587911 34,000 287 498 0
2021-09-23 04:24:10 GMT 45.342529 6.600774 34,000 287 498 0
2021-09-23 04:24:07 GMT 45.339981 6.612658 34,000 287 498 0
2021-09-23 04:24:01 GMT 45.334152 6.639829 34,000 287 498 0
2021-09-23 04:23:58 GMT 45.334152 6.639829 34,000 287 498 0
2021-09-23 04:23:53 GMT 45.331329 6.652941 34,000 288 498 0
2021-09-23 04:23:50 GMT 45.328938 6.664213 34,000 288 498 0
2021-09-23 04:23:47 GMT 45.326984 6.673256 34,000 288 498 0
2021-09-23 04:23:44 GMT 45.324966 6.682630 34,000 288 498 0
2021-09-23 04:23:41 GMT 45.322998 6.691655 34,000 288 498 0
2021-09-23 04:23:38 GMT 45.321304 6.699449 34,000 288 498 0
2021-09-23 04:23:35 GMT 45.315994 6.724156 34,000 288 498 0
2021-09-23 04:23:31 GMT 45.315994 6.724156 34,000 288 498 0
2021-09-23 04:23:28 GMT 45.313808 6.734150 34,000 288 498 0
2021-09-23 04:23:20 GMT 45.308304 6.759404 34,000 288 498 0
2021-09-23 04:23:17 GMT 45.306499 6.767511 34,000 288 498 0
2021-09-23 04:23:12 GMT 45.301147 6.791761 34,000 288 498 0
2021-09-23 04:23:09 GMT 45.301147 6.791761 34,000 288 498 0
2021-09-23 04:23:06 GMT 45.299423 6.799532 34,000 288 498 0
2021-09-23 04:23:01 GMT 45.295532 6.816951 34,000 288 498 -64
2021-09-23 04:22:57 GMT 45.292858 6.828807 34,000 288 498 0
2021-09-23 04:22:54 GMT 45.290680 6.838728 34,000 288 497 0
2021-09-23 04:22:50 GMT 45.288300 6.849306 34,000 288 498 0
2021-09-23 04:22:47 GMT 45.285828 6.860504 34,000 289 498 0
2021-09-23 04:22:43 GMT 45.283131 6.872350 34,000 290 498 0
2021-09-23 04:22:40 GMT 45.281269 6.880054 34,000 290 497 0
2021-09-23 04:22:37 GMT 45.278336 6.891710 34,000 291 498 0
2021-09-23 04:22:34 GMT 45.275940 6.900853 34,000 292 497 0
2021-09-23 04:22:31 GMT 45.272984 6.911807 34,000 293 497 0
2021-09-23 04:22:27 GMT 45.269897 6.922695 34,000 294 498 0
2021-09-23 04:22:20 GMT 45.263298 6.944565 34,000 295 497 0
2021-09-23 04:22:17 GMT 45.260738 6.952604 34,000 295 497 0
2021-09-23 04:22:09 GMT 45.252502 6.977365 34,000 297 497 0
2021-09-23 04:22:06 GMT 45.250214 6.984100 34,000 297 498 0
2021-09-23 04:21:59 GMT 45.243607 7.003047 34,000 297 498 0
2021-09-23 04:21:56 GMT 45.240784 7.011239 34,000 297 497 0
2021-09-23 04:21:51 GMT 45.235199 7.027326 34,000 297 497 0
2021-09-23 04:21:48 GMT 45.231400 7.038051 34,000 298 497 0
2021-09-23 04:21:44 GMT 45.227409 7.049069 34,000 298 497 0
2021-09-23 04:21:39 GMT 45.222797 7.061462 34,000 299 497 0
2021-09-23 04:21:36 GMT 45.219402 7.070305 34,000 299 497 0
2021-09-23 04:21:29 GMT 45.212036 7.089451 34,000 296 497 0
2021-09-23 04:21:26 GMT 45.208191 7.100176 34,000 296 497 0
2021-09-23 04:21:22 GMT 45.204300 7.111555 34,000 295 497 0
2021-09-23 04:21:19 GMT 45.201477 7.120480 34,000 293 497 0
2021-09-23 04:21:16 GMT 45.198761 7.129408 34,000 292 496 0
2021-09-23 04:21:13 GMT 45.196079 7.138769 34,000 291 497 0
2021-09-23 04:21:09 GMT 45.190521 7.159751 34,000 290 497 0
2021-09-23 04:21:06 GMT 45.190521 7.159751 34,000 288 497 0
2021-09-23 04:21:01 GMT 45.186859 7.175546 34,000 287 497 0
2021-09-23 04:20:58 GMT 45.184582 7.186398 34,000 286 498 0
2021-09-23 04:20:55 GMT 45.182762 7.195509 34,000 285 497 0
2021-09-23 04:20:52 GMT 45.181412 7.202715 34,000 284 497 0
2021-09-23 04:20:49 GMT 45.179764 7.212524 34,000 282 498 0
2021-09-23 04:20:46 GMT 45.178299 7.222399 34,000 281 498 0
2021-09-23 04:20:42 GMT 45.176605 7.234889 34,000 280 497 0
2021-09-23 04:20:38 GMT 45.175095 7.247380 34,000 280 497 0
2021-09-23 04:20:35 GMT 45.173996 7.256666 34,000 280 497 0
2021-09-23 04:20:32 GMT 45.172894 7.265982 34,000 280 497 0
2021-09-23 04:20:28 GMT 45.171249 7.279816 34,000 280 497 0
2021-09-23 04:20:25 GMT 45.170288 7.287821 34,000 280 497 0
2021-09-23 04:20:21 GMT 45.168549 7.302246 34,000 280 497 0
2021-09-23 04:20:18 GMT 45.167309 7.312808 34,000 280 496 0
2021-09-23 04:20:15 GMT 45.166168 7.322388 34,000 280 496 0
2021-09-23 04:20:11 GMT 45.164841 7.333636 34,000 280 496 0
2021-09-23 04:20:07 GMT 45.163422 7.345472 34,000 280 496 0
2021-09-23 04:20:04 GMT 45.162140 7.356066 34,000 280 496 0
2021-09-23 04:20:01 GMT 45.161087 7.364698 34,000 280 496 0
2021-09-23 04:19:57 GMT 45.158978 7.382277 34,000 280 496 0
2021-09-23 04:19:54 GMT 45.158249 7.388371 34,000 280 496 0
2021-09-23 04:19:48 GMT 45.155766 7.409139 34,000 280 497 0
2021-09-23 04:19:45 GMT 45.154835 7.416843 34,000 280 495 0
2021-09-23 04:19:41 GMT 45.153065 7.431514 34,000 280 497 0
2021-09-23 04:19:38 GMT 45.151947 7.440491 34,000 280 497 0
2021-09-23 04:19:34 GMT 45.150597 7.451678 34,000 280 496 0
2021-09-23 04:19:28 GMT 45.148083 7.472445 34,000 280 497 0
2021-09-23 04:19:24 GMT 45.146732 7.483632 34,000 280 496 0
2021-09-23 04:19:21 GMT 45.145065 7.497384 34,000 280 496 0
2021-09-23 04:19:18 GMT 45.144264 7.504131 34,000 280 496 0
2021-09-23 04:19:15 GMT 45.143097 7.513668 34,000 280 496 0
2021-09-23 04:19:12 GMT 45.142136 7.521384 34,000 280 496 0
2021-09-23 04:19:08 GMT 45.140121 7.538296 34,000 280 496 0
2021-09-23 04:19:04 GMT 45.138794 7.549177 34,000 280 496 0
2021-09-23 04:19:00 GMT 45.137238 7.561943 34,000 280 496 0
2021-09-23 04:18:56 GMT 45.135361 7.577231 34,000 280 496 0
2021-09-23 04:18:53 GMT 45.134583 7.583640 34,000 280 496 0
2021-09-23 04:18:50 GMT 45.133392 7.593515 34,000 280 496 0
2021-09-23 04:18:46 GMT 45.131836 7.606290 34,000 280 496 0
2021-09-23 04:18:43 GMT 45.130531 7.616808 34,000 280 496 0
2021-09-23 04:18:39 GMT 45.128857 7.630541 34,000 280 496 0
2021-09-23 04:18:36 GMT 45.128036 7.637525 34,000 280 495 0
2021-09-23 04:18:33 GMT 45.126801 7.647465 34,000 280 495 0
2021-09-23 04:18:27 GMT 45.124714 7.664639 34,000 280 495 0
2021-09-23 04:18:24 GMT 45.120941 7.695204 34,000 280 495 0
2021-09-23 04:18:18 GMT 45.120941 7.695204 34,000 280 495 0
2021-09-23 04:18:15 GMT 45.119823 7.704498 34,000 280 495 0
2021-09-23 04:18:12 GMT 45.118523 7.715015 34,000 281 494 0
2021-09-23 04:18:07 GMT 45.116730 7.729667 34,000 280 495 0
2021-09-23 04:18:04 GMT 45.115494 7.739476 34,000 280 495 0
2021-09-23 04:18:01 GMT 45.114349 7.748762 34,000 280 495 0
2021-09-23 04:17:58 GMT 45.113262 7.757620 34,000 280 494 0
2021-09-23 04:17:55 GMT 45.111866 7.769076 34,000 280 494 0
2021-09-23 04:17:52 GMT 45.108765 7.793884 34,000 281 494 0
2021-09-23 04:17:47 GMT 45.108765 7.793884 34,000 281 494 0
2021-09-23 04:17:44 GMT 45.107536 7.803709 34,000 281 494 0
2021-09-23 04:17:41 GMT 45.106094 7.815500 34,000 281 494 0
2021-09-23 04:17:38 GMT 45.105347 7.821529 34,000 281 494 0
2021-09-23 04:17:35 GMT 45.103859 7.833319 34,000 281 494 0
2021-09-23 04:17:32 GMT 45.102859 7.841230 34,000 281 494 0
2021-09-23 04:17:29 GMT 45.101807 7.849862 34,000 281 494 0
2021-09-23 04:17:26 GMT 45.100693 7.858708 34,000 281 494 0
2021-09-23 04:17:23 GMT 45.099289 7.870135 34,000 281 494 0
2021-09-23 04:17:20 GMT 45.098190 7.879028 34,000 281 493 0
2021-09-23 04:17:16 GMT 45.096680 7.890799 34,000 281 494 0
2021-09-23 04:17:13 GMT 45.095245 7.902519 34,000 281 493 0
2021-09-23 04:17:10 GMT 45.094162 7.911072 34,000 281 493 0
2021-09-23 04:17:06 GMT 45.091370 7.933306 34,000 281 493 0
2021-09-23 04:17:03 GMT 45.091370 7.933306 34,000 281 493 0
2021-09-23 04:17:00 GMT 45.090031 7.944120 34,000 281 493 0
2021-09-23 04:16:56 GMT 45.088715 7.954559 34,000 281 493 0
2021-09-23 04:16:53 GMT 45.087517 7.964083 34,000 281 493 0
2021-09-23 04:16:50 GMT 45.086166 7.975136 34,000 281 493 0
2021-09-23 04:16:46 GMT 45.084641 7.987191 34,000 281 493 0
2021-09-23 04:16:43 GMT 45.083084 7.999551 34,000 281 492 0
2021-09-23 04:16:40 GMT 45.082073 8.007760 34,000 281 492 0
2021-09-23 04:16:36 GMT 45.079418 8.028661 34,000 281 492 0
2021-09-23 04:16:33 GMT 45.079418 8.028661 34,000 281 492 0
2021-09-23 04:16:30 GMT 45.078140 8.038788 34,000 281 492 0
2021-09-23 04:16:25 GMT 45.076393 8.052711 34,000 281 492 0
2021-09-23 04:16:22 GMT 45.075043 8.063161 34,000 281 492 0
2021-09-23 04:16:19 GMT 45.073975 8.071681 34,000 281 492 0
2021-09-23 04:16:15 GMT 45.072296 8.085000 34,000 281 492 0
2021-09-23 04:16:11 GMT 45.070541 8.098559 34,000 281 492 0
2021-09-23 04:16:08 GMT 45.069641 8.105833 34,000 281 492 0
2021-09-23 04:16:05 GMT 45.068245 8.116954 34,000 281 492 0
2021-09-23 04:16:02 GMT 45.067200 8.125174 34,000 281 492 0
2021-09-23 04:15:59 GMT 45.065781 8.136226 34,000 281 492 0
2021-09-23 04:15:56 GMT 45.064545 8.146035 34,000 281 492 0
2021-09-23 04:15:53 GMT 45.063400 8.155191 34,000 281 492 0
2021-09-23 04:15:50 GMT 45.061844 8.167223 34,000 281 492 0
2021-09-23 04:15:45 GMT 45.060287 8.179517 34,000 281 492 0
2021-09-23 04:15:42 GMT 45.058640 8.192466 34,000 281 492 0
2021-09-23 04:15:39 GMT 45.057770 8.199136 34,000 281 492 0
2021-09-23 04:15:35 GMT 45.056004 8.213017 34,000 281 492 0
2021-09-23 04:15:32 GMT 45.054565 8.224444 34,000 281 492 0
2021-09-23 04:15:29 GMT 45.053696 8.231049 34,000 281 492 0
2021-09-23 04:15:25 GMT 45.051907 8.244971 34,000 281 492 0
2021-09-23 04:15:21 GMT 45.050323 8.257297 34,000 281 494 0
2021-09-23 04:15:18 GMT 45.049065 8.267145 34,000 281 492 0
2021-09-23 04:15:15 GMT 45.047577 8.278801 34,000 281 492 0
2021-09-23 04:15:11 GMT 45.045063 8.298429 34,000 281 493 0
2021-09-23 04:15:08 GMT 45.045063 8.298429 34,000 281 493 0
2021-09-23 04:15:05 GMT 45.043762 8.308541 34,000 281 493 0
2021-09-23 04:15:01 GMT 45.042252 8.320247 34,000 281 494 0
2021-09-23 04:14:58 GMT 45.041012 8.329780 34,000 281 494 0
2021-09-23 04:14:54 GMT 45.039616 8.340566 34,000 281 494 0
2021-09-23 04:14:51 GMT 45.038174 8.351619 34,000 281 494 0
2021-09-23 04:14:48 GMT 45.036823 8.362069 34,000 281 494 0
2021-09-23 04:14:44 GMT 45.035522 8.372171 34,000 281 494 0
2021-09-23 04:14:41 GMT 45.033920 8.384530 34,000 281 493 0
2021-09-23 04:14:37 GMT 45.032501 8.395582 34,000 281 494 0
2021-09-23 04:14:33 GMT 45.030769 8.408895 34,000 281 494 0
2021-09-23 04:14:30 GMT 45.029663 8.417424 34,000 281 494 0
2021-09-23 04:14:27 GMT 45.028381 8.427233 34,000 281 494 0
2021-09-23 04:14:24 GMT 45.027092 8.437366 34,000 281 494 0
2021-09-23 04:14:20 GMT 45.025406 8.450056 34,000 281 493 0
2021-09-23 04:14:17 GMT 45.024208 8.459205 34,000 281 493 0
2021-09-23 04:14:14 GMT 45.022858 8.469655 34,000 281 493 0
2021-09-23 04:14:11 GMT 45.021606 8.479156 34,000 281 493 0
2021-09-23 04:14:07 GMT 45.020096 8.490797 34,000 281 493 0
2021-09-23 04:14:03 GMT 45.018436 8.503485 34,000 281 493 0
2021-09-23 04:14:00 GMT 45.017120 8.513620 34,000 281 494 0
2021-09-23 04:13:57 GMT 45.015968 8.522443 34,000 281 494 0
2021-09-23 04:13:52 GMT 45.013916 8.538273 34,000 281 494 0
2021-09-23 04:13:49 GMT 45.012428 8.549373 34,000 281 494 0
2021-09-23 04:13:46 GMT 45.011639 8.555335 34,000 281 494 0
2021-09-23 04:13:43 GMT 45.010345 8.565478 34,000 281 494 0
2021-09-23 04:13:40 GMT 45.008560 8.579080 34,000 281 494 0
2021-09-23 04:13:36 GMT 45.007401 8.587959 34,000 281 494 0
2021-09-23 04:13:33 GMT 45.006145 8.597405 34,000 281 494 0
2021-09-23 04:13:30 GMT 45.004841 8.607252 34,000 281 494 0
2021-09-23 04:13:27 GMT 45.003120 8.620181 34,000 281 494 0
2021-09-23 04:13:23 GMT 45.001862 8.630029 34,000 281 494 0
2021-09-23 04:13:19 GMT 45.000141 8.642958 34,000 281 494 0
2021-09-23 04:13:16 GMT 44.998947 8.651864 34,000 281 493 0
2021-09-23 04:13:13 GMT 44.997665 8.661673 34,000 281 493 0
2021-09-23 04:13:10 GMT 44.996338 8.671744 34,000 281 493 0
2021-09-23 04:13:06 GMT 44.994644 8.684692 34,000 281 493 0
2021-09-23 04:13:02 GMT 44.993179 8.695744 34,000 281 493 0
2021-09-23 04:12:58 GMT 44.991619 8.707804 34,000 281 493 0
2021-09-23 04:12:55 GMT 44.990021 8.719744 34,000 281 493 0
2021-09-23 04:12:52 GMT 44.988968 8.727657 34,000 281 493 0
2021-09-23 04:12:49 GMT 44.987823 8.736485 34,000 281 493 0
2021-09-23 04:12:46 GMT 44.985195 8.756371 34,000 281 493 0
2021-09-23 04:12:43 GMT 44.985195 8.756371 34,000 281 493 0
2021-09-23 04:12:39 GMT 44.983707 8.767425 34,000 281 493 0
2021-09-23 04:12:36 GMT 44.982265 8.778478 34,000 281 493 0
2021-09-23 04:12:33 GMT 44.981052 8.787656 34,000 281 493 0
2021-09-23 04:12:29 GMT 44.979218 8.801553 34,000 281 493 0
2021-09-23 04:12:26 GMT 44.976631 8.820816 34,000 281 493 0
2021-09-23 04:12:23 GMT 44.976631 8.820816 34,000 281 493 0
2021-09-23 04:12:19 GMT 44.975094 8.832472 34,000 281 493 0
2021-09-23 04:12:16 GMT 44.973789 8.841984 34,000 281 493 0
2021-09-23 04:12:13 GMT 44.972534 8.851449 34,000 281 493 0
2021-09-23 04:12:10 GMT 44.971115 8.861847 34,000 281 493 0
2021-09-23 04:12:07 GMT 44.970345 8.867843 34,000 281 493 0
2021-09-23 04:12:04 GMT 44.968994 8.877623 34,000 281 493 0
2021-09-23 04:12:01 GMT 44.966080 8.899449 34,000 281 493 0
2021-09-23 04:11:58 GMT 44.964615 8.910501 34,000 281 493 0
2021-09-23 04:11:55 GMT 44.964615 8.910501 34,000 281 493 0
2021-09-23 04:11:52 GMT 44.961826 8.931014 34,000 281 494 0
2021-09-23 04:11:48 GMT 44.961826 8.931014 34,000 281 494 0
2021-09-23 04:11:44 GMT 44.960037 8.944310 34,000 281 494 0
2021-09-23 04:11:41 GMT 44.958618 8.954773 34,000 281 494 0
2021-09-23 04:11:38 GMT 44.957428 8.963601 34,000 281 494 0
2021-09-23 04:11:34 GMT 44.955730 8.976232 34,000 281 494 0
2021-09-23 04:11:31 GMT 44.954426 8.986080 34,000 281 494 0
2021-09-23 04:11:28 GMT 44.953125 8.995514 34,000 281 494 0
2021-09-23 04:11:25 GMT 44.952145 9.002827 34,000 281 494 0
2021-09-23 04:11:21 GMT 44.950241 9.016702 34,000 281 494 0
2021-09-23 04:11:18 GMT 44.949074 9.025537 34,000 281 494 0
2021-09-23 04:11:15 GMT 44.947861 9.034424 34,000 281 493 0
2021-09-23 04:11:12 GMT 44.946625 9.043579 34,000 281 493 0
2021-09-23 04:11:09 GMT 44.945160 9.054304 34,000 281 493 0
2021-09-23 04:11:05 GMT 44.943581 9.065998 34,000 281 493 0
2021-09-23 04:11:02 GMT 44.942322 9.075165 34,000 281 493 0
2021-09-23 04:10:58 GMT 44.940182 9.091254 34,000 281 493 0
2021-09-23 04:10:55 GMT 44.939297 9.097551 34,000 281 493 0
2021-09-23 04:10:52 GMT 44.937805 9.108604 34,000 281 492 0
2021-09-23 04:10:48 GMT 44.936508 9.118064 34,000 281 492 0
2021-09-23 04:10:45 GMT 44.934906 9.129704 34,000 281 492 0
2021-09-23 04:10:42 GMT 44.933350 9.141344 34,000 281 492 0
2021-09-23 04:10:37 GMT 44.931198 9.156778 34,000 281 492 0
2021-09-23 04:10:34 GMT 44.930218 9.164071 34,000 281 492 0
2021-09-23 04:10:31 GMT 44.928864 9.174107 34,000 281 492 0
2021-09-23 04:10:27 GMT 44.927170 9.186401 34,000 281 492 0
2021-09-23 04:10:24 GMT 44.926216 9.193346 34,000 281 492 0
2021-09-23 04:10:21 GMT 44.924446 9.206208 34,000 281 492 0
2021-09-23 04:10:18 GMT 44.923645 9.212167 34,000 281 492 0
2021-09-23 04:10:14 GMT 44.921768 9.225704 34,000 282 492 0
2021-09-23 04:10:11 GMT 44.919884 9.239569 34,000 282 492 0
2021-09-23 04:10:08 GMT 44.919186 9.244593 34,000 282 492 0
2021-09-23 04:10:05 GMT 44.917465 9.257159 34,000 282 492 0
2021-09-23 04:10:01 GMT 44.916065 9.267169 34,000 282 492 0
2021-09-23 04:09:58 GMT 44.914715 9.276949 34,000 282 492 0
2021-09-23 04:09:54 GMT 44.913162 9.288221 34,000 282 492 0
2021-09-23 04:09:51 GMT 44.911877 9.297649 34,000 282 492 0
2021-09-23 04:09:48 GMT 44.910324 9.308951 34,000 282 492 0
2021-09-23 04:09:44 GMT 44.908756 9.320292 34,000 282 492 0
2021-09-23 04:09:41 GMT 44.907349 9.330335 34,000 282 492 0
2021-09-23 04:09:38 GMT 44.905975 9.340079 34,000 282 492 0
2021-09-23 04:09:34 GMT 44.904327 9.351981 34,000 282 492 0
2021-09-23 04:09:31 GMT 44.902843 9.362629 34,000 282 492 0
2021-09-23 04:09:27 GMT 44.901535 9.372057 34,000 282 492 0
2021-09-23 04:09:23 GMT 44.899540 9.386545 34,000 282 492 0
2021-09-23 04:09:20 GMT 44.898422 9.394382 34,000 282 492 0
2021-09-23 04:09:17 GMT 44.897049 9.404428 34,000 282 492 0
2021-09-23 04:09:14 GMT 44.895210 9.417561 34,000 282 492 0
2021-09-23 04:09:11 GMT 44.894394 9.423523 34,000 282 491 0
2021-09-23 04:09:08 GMT 44.892792 9.434844 34,000 282 492 0
2021-09-23 04:09:05 GMT 44.891464 9.444253 34,000 282 491 0
2021-09-23 04:09:01 GMT 44.889679 9.457070 34,000 282 491 0
2021-09-23 04:08:57 GMT 44.888077 9.468711 34,000 282 491 0
2021-09-23 04:08:53 GMT 44.886566 9.479697 34,000 282 491 0
2021-09-23 04:08:50 GMT 44.885063 9.490312 34,000 282 491 0
2021-09-23 04:08:46 GMT 44.883480 9.501633 34,000 282 491 0
2021-09-23 04:08:43 GMT 44.882263 9.510433 34,000 282 491 0
2021-09-23 04:08:40 GMT 44.880547 9.522936 34,000 282 491 0
2021-09-23 04:08:35 GMT 44.878407 9.538009 34,000 282 491 0
2021-09-23 04:08:32 GMT 44.877090 9.547381 34,000 282 491 0
2021-09-23 04:08:29 GMT 44.875900 9.556144 34,000 282 491 0
2021-09-23 04:08:26 GMT 44.874527 9.565887 34,000 282 491 0
2021-09-23 04:08:22 GMT 44.872742 9.578705 34,000 282 491 0
2021-09-23 04:08:19 GMT 44.871460 9.587795 34,000 282 491 0
2021-09-23 04:08:16 GMT 44.869980 9.598165 34,000 282 491 0
2021-09-23 04:08:13 GMT 44.869034 9.605059 34,000 282 491 0
2021-09-23 04:08:10 GMT 44.867188 9.618195 34,000 282 491 0
2021-09-23 04:08:07 GMT 44.866104 9.625658 34,000 282 491 0
2021-09-23 04:08:04 GMT 44.864822 9.634748 34,000 282 491 0
2021-09-23 04:08:01 GMT 44.863647 9.643183 34,000 282 491 0
2021-09-23 04:07:59 GMT 44.862717 9.649815 34,000 282 491 0
2021-09-23 04:07:56 GMT 44.860657 9.664176 34,000 282 491 0
2021-09-23 04:07:53 GMT 44.859924 9.669211 34,000 282 491 0
2021-09-23 04:07:49 GMT 44.858231 9.681375 34,000 282 491 0
2021-09-23 04:07:46 GMT 44.857086 9.689222 34,000 282 491 0
2021-09-23 04:07:43 GMT 44.855438 9.700797 34,000 282 491 0
2021-09-23 04:07:39 GMT 44.853313 9.715799 34,000 282 491 0
2021-09-23 04:07:36 GMT 44.852711 9.720221 34,000 282 491 0
2021-09-23 04:07:33 GMT 44.851089 9.731467 34,000 282 491 0
2021-09-23 04:07:30 GMT 44.849625 9.741799 34,000 282 491 0
2021-09-23 04:07:27 GMT 44.848286 9.751170 34,000 282 491 0
2021-09-23 04:07:23 GMT 44.846844 9.761487 34,000 282 491 0
2021-09-23 04:07:20 GMT 44.845230 9.772797 34,000 282 491 0
2021-09-23 04:07:17 GMT 44.843399 9.785603 34,000 282 491 0
2021-09-23 04:07:13 GMT 44.842346 9.793134 34,000 282 491 0
2021-09-23 04:07:10 GMT 44.840744 9.804360 34,000 282 491 0
2021-09-23 04:07:07 GMT 44.839161 9.815346 34,000 282 491 0
2021-09-23 04:07:03 GMT 44.837494 9.827205 34,000 282 491 0
2021-09-23 04:07:00 GMT 44.836166 9.836622 34,000 282 491 0
2021-09-23 04:06:56 GMT 44.834839 9.845646 34,000 282 491 0
2021-09-23 04:06:52 GMT 44.832832 9.859761 34,000 282 491 0
2021-09-23 04:06:49 GMT 44.831543 9.868796 34,000 282 491 0
2021-09-23 04:06:46 GMT 44.829987 9.879783 34,000 282 491 0
2021-09-23 04:06:41 GMT 44.828201 9.891946 34,000 282 491 0
2021-09-23 04:06:38 GMT 44.826279 9.905417 34,000 282 491 0
2021-09-23 04:06:35 GMT 44.824917 9.914826 34,000 282 491 0
2021-09-23 04:06:32 GMT 44.823715 9.923270 34,000 282 491 0
2021-09-23 04:06:29 GMT 44.822021 9.934780 34,000 282 491 0
2021-09-23 04:06:26 GMT 44.820961 9.942292 34,000 282 491 0
2021-09-23 04:06:23 GMT 44.819469 9.952608 34,000 282 491 0
2021-09-23 04:06:20 GMT 44.818405 9.959826 34,000 282 491 0
2021-09-23 04:06:18 GMT 44.817608 9.965470 34,000 282 491 0
2021-09-23 04:06:15 GMT 44.816257 9.974849 34,000 282 490 0
2021-09-23 04:06:12 GMT 44.813232 9.995793 34,000 282 490 0
2021-09-23 04:06:09 GMT 44.813232 9.995793 34,000 282 490 0
2021-09-23 04:06:06 GMT 44.811996 10.004229 34,000 282 490 0
2021-09-23 04:06:03 GMT 44.810905 10.012028 34,000 282 490 0
2021-09-23 04:06:00 GMT 44.809464 10.021675 34,000 282 490 0
2021-09-23 04:05:58 GMT 44.808250 10.030116 34,000 282 490 0
2021-09-23 04:05:55 GMT 44.806950 10.039159 34,000 282 490 0
2021-09-23 04:05:50 GMT 44.804947 10.052948 34,000 282 490 0
2021-09-23 04:05:48 GMT 44.804169 10.058572 34,000 282 490 0
2021-09-23 04:05:45 GMT 44.802898 10.067295 34,000 282 490 0
2021-09-23 04:05:40 GMT 44.800339 10.084779 34,000 282 490 0
2021-09-23 04:05:38 GMT 44.799454 10.091009 34,000 282 490 0
2021-09-23 04:05:35 GMT 44.798195 10.099450 34,000 282 490 0
2021-09-23 04:05:32 GMT 44.796333 10.112245 34,000 282 490 0
2021-09-23 04:05:29 GMT 44.795216 10.120016 34,000 282 491 0
2021-09-23 04:05:26 GMT 44.793732 10.130310 34,000 282 491 0
2021-09-23 04:05:20 GMT 44.791027 10.148755 34,000 282 491 0
2021-09-23 04:05:17 GMT 44.789444 10.159674 34,000 282 491 0
2021-09-23 04:05:14 GMT 44.788376 10.166800 34,000 282 491 0
2021-09-23 04:05:10 GMT 44.786697 10.178364 34,000 282 491 0
2021-09-23 04:05:08 GMT 44.785538 10.186157 34,000 282 490 0
2021-09-23 04:05:04 GMT 44.784256 10.195182 34,000 282 490 0
2021-09-23 04:05:00 GMT 44.782013 10.210484 34,000 282 490 0
2021-09-23 04:04:57 GMT 44.780502 10.220751 34,000 282 490 0
2021-09-23 04:04:54 GMT 44.779678 10.226375 34,000 282 490 0
2021-09-23 04:04:50 GMT 44.777481 10.241000 34,000 282 490 0
2021-09-23 04:04:47 GMT 44.776062 10.250702 34,000 282 490 0
2021-09-23 04:04:44 GMT 44.774918 10.258484 34,000 282 490 0
2021-09-23 04:04:40 GMT 44.772732 10.273423 34,000 282 490 0
2021-09-23 04:04:37 GMT 44.771523 10.281863 34,000 282 490 0
2021-09-23 04:04:34 GMT 44.770340 10.289612 34,000 282 490 0
2021-09-23 04:04:29 GMT 44.767776 10.307072 34,000 282 490 0
2021-09-23 04:04:26 GMT 44.766354 10.316698 34,000 282 490 0
2021-09-23 04:04:23 GMT 44.765190 10.324536 34,000 282 490 0
2021-09-23 04:04:20 GMT 44.763611 10.335388 34,000 282 490 0
2021-09-23 04:04:17 GMT 44.761963 10.346309 34,000 282 490 0
2021-09-23 04:04:13 GMT 44.760818 10.354091 34,000 282 490 0
2021-09-23 04:04:09 GMT 44.759033 10.366255 34,000 282 490 0
2021-09-23 04:04:06 GMT 44.757156 10.379007 34,000 282 490 0
2021-09-23 04:04:03 GMT 44.756207 10.385229 34,000 282 490 0
2021-09-23 04:03:58 GMT 44.753998 10.400194 34,000 282 490 0
2021-09-23 04:03:56 GMT 44.752853 10.407976 34,000 282 490 0
2021-09-23 04:03:53 GMT 44.751343 10.417916 34,000 282 490 0
2021-09-23 04:03:48 GMT 44.748943 10.434399 34,000 282 490 0
2021-09-23 04:03:45 GMT 44.746536 10.450548 34,000 282 489 0
2021-09-23 04:03:38 GMT 44.744568 10.463954 34,000 282 489 0
2021-09-23 04:03:35 GMT 44.742985 10.474459 34,000 282 489 64
2021-09-23 04:03:32 GMT 44.741821 10.482265 34,000 282 489 64
2021-09-23 04:03:29 GMT 44.740219 10.493120 34,000 282 489 64
2021-09-23 04:03:25 GMT 44.737770 10.509562 34,000 282 489 0
2021-09-23 04:03:22 GMT 44.737152 10.513654 34,000 282 489 0
2021-09-23 04:03:19 GMT 44.735489 10.524835 34,000 282 489 0
2021-09-23 04:03:15 GMT 44.733208 10.540042 34,000 282 490 0
2021-09-23 04:03:12 GMT 44.732418 10.545334 34,000 282 490 0
2021-09-23 04:03:09 GMT 44.730881 10.555573 34,000 282 490 0
2021-09-23 04:03:04 GMT 44.728134 10.573621 34,000 282 490 0
2021-09-23 04:03:01 GMT 44.727203 10.579834 34,000 282 490 0
2021-09-23 04:02:58 GMT 44.725899 10.588610 34,000 282 490 0
2021-09-23 04:02:54 GMT 44.723850 10.602276 34,000 282 490 0
2021-09-23 04:02:51 GMT 44.722736 10.609778 34,000 282 490 0
2021-09-23 04:02:48 GMT 44.720875 10.621904 34,000 282 490 0
2021-09-23 04:02:43 GMT 44.718174 10.639924 34,000 282 490 0
2021-09-23 04:02:40 GMT 44.716125 10.653322 34,000 282 490 0
2021-09-23 04:02:37 GMT 44.716125 10.653322 34,000 282 490 0
2021-09-23 04:02:33 GMT 44.713898 10.668248 34,000 282 490 0
2021-09-23 04:02:30 GMT 44.712708 10.676030 34,000 282 490 0
2021-09-23 04:02:27 GMT 44.711285 10.685343 34,000 282 490 0
2021-09-23 04:02:23 GMT 44.708954 10.700945 34,000 282 490 0
2021-09-23 04:02:20 GMT 44.707977 10.707115 34,000 282 490 0
2021-09-23 04:02:17 GMT 44.706581 10.716426 34,000 282 490 0
2021-09-23 04:02:13 GMT 44.704193 10.732269 34,000 283 489 0
2021-09-23 04:02:10 GMT 44.703278 10.738198 34,000 283 489 0
2021-09-23 04:02:07 GMT 44.701740 10.748447 34,000 283 489 0
2021-09-23 04:02:04 GMT 44.700111 10.759300 34,000 283 489 0
2021-09-23 04:02:01 GMT 44.698994 10.766468 34,000 283 489 0
2021-09-23 04:01:58 GMT 44.697502 10.776382 34,000 283 489 0
2021-09-23 04:01:54 GMT 44.696060 10.786029 34,000 283 489 0
2021-09-23 04:01:51 GMT 44.694260 10.797860 34,000 283 489 0
2021-09-23 04:01:48 GMT 44.692940 10.806527 34,000 283 489 0
2021-09-23 04:01:46 GMT 44.692242 10.810882 34,000 283 489 0
2021-09-23 04:01:41 GMT 44.689545 10.828567 34,000 283 489 0
2021-09-23 04:01:37 GMT 44.687401 10.842836 34,000 283 489 0
2021-09-23 04:01:32 GMT 44.683731 10.866786 34,000 283 489 0
2021-09-23 04:01:29 GMT 44.683731 10.866786 34,000 283 489 0
2021-09-23 04:01:26 GMT 44.682468 10.875125 34,000 283 489 0
2021-09-23 04:01:21 GMT 44.679626 10.893748 34,000 283 489 0
2021-09-23 04:01:18 GMT 44.678558 10.900530 34,000 283 489 0
2021-09-23 04:01:16 GMT 44.677597 10.906743 34,000 283 489 0
2021-09-23 04:01:11 GMT 44.675262 10.922241 34,000 283 489 0
2021-09-23 04:01:08 GMT 44.673798 10.931527 34,000 283 489 0
2021-09-23 04:01:06 GMT 44.673065 10.936488 34,000 283 489 0
2021-09-23 04:01:03 GMT 44.671204 10.948613 34,000 283 489 0
2021-09-23 04:01:00 GMT 44.669621 10.958862 34,000 283 489 0
2021-09-23 04:00:57 GMT 44.668503 10.966298 34,000 283 489 0
2021-09-23 04:00:53 GMT 44.666748 10.977434 34,000 283 490 0
2021-09-23 04:00:50 GMT 44.665283 10.987047 34,000 283 489 0
2021-09-23 04:00:47 GMT 44.663845 10.996310 34,000 283 489 0
2021-09-23 04:00:45 GMT 44.663197 11.000664 34,000 283 489 0
2021-09-23 04:00:42 GMT 44.661530 11.011178 34,000 283 489 0
2021-09-23 04:00:38 GMT 44.659470 11.024519 34,000 283 489 0
2021-09-23 04:00:35 GMT 44.658352 11.031948 34,000 283 489 0
2021-09-23 04:00:31 GMT 44.656445 11.044006 34,000 283 489 0
2021-09-23 04:00:28 GMT 44.654343 11.057608 34,000 283 489 0
2021-09-23 04:00:25 GMT 44.653374 11.063835 34,000 283 489 0
2021-09-23 04:00:22 GMT 44.651825 11.074023 34,000 283 488 0
2021-09-23 04:00:18 GMT 44.649975 11.086076 34,000 283 488 0
2021-09-23 04:00:15 GMT 44.648758 11.093837 34,000 283 488 0
2021-09-23 04:00:12 GMT 44.647041 11.104967 34,000 283 488 0
2021-09-23 04:00:09 GMT 44.645645 11.113944 34,000 283 488 0
2021-09-23 04:00:06 GMT 44.644180 11.123526 34,000 283 488 0
2021-09-23 04:00:02 GMT 44.641846 11.138633 34,000 283 488 0
2021-09-23 03:59:59 GMT 44.640896 11.144826 34,000 283 488 0
2021-09-23 03:59:56 GMT 44.637730 11.165191 34,000 283 488 0
2021-09-23 03:59:53 GMT 44.637730 11.165191 34,000 283 488 0
2021-09-23 03:59:50 GMT 44.636147 11.175373 34,000 283 488 0
2021-09-23 03:59:47 GMT 44.635170 11.181603 34,000 283 488 0
2021-09-23 03:59:44 GMT 44.633774 11.190513 34,000 283 488 0
2021-09-23 03:59:40 GMT 44.631912 11.202589 34,000 283 488 0
2021-09-23 03:59:37 GMT 44.630539 11.211548 34,000 283 488 0
2021-09-23 03:59:34 GMT 44.629166 11.220180 34,000 283 488 0
2021-09-23 03:59:31 GMT 44.627106 11.233455 34,000 283 488 0
2021-09-23 03:59:27 GMT 44.625824 11.241760 34,000 283 488 0
2021-09-23 03:59:25 GMT 44.624588 11.249477 34,000 283 488 0
2021-09-23 03:59:22 GMT 44.623123 11.259024 34,000 283 488 0
2021-09-23 03:59:19 GMT 44.621391 11.269829 34,000 283 488 0
2021-09-23 03:59:16 GMT 44.620239 11.277270 34,000 283 488 0
2021-09-23 03:59:13 GMT 44.618969 11.285304 34,000 283 488 0
2021-09-23 03:59:10 GMT 44.617218 11.296365 34,000 283 488 0
2021-09-23 03:59:07 GMT 44.615574 11.306874 34,000 283 488 0
2021-09-23 03:59:04 GMT 44.614471 11.313956 34,000 283 488 0
2021-09-23 03:59:01 GMT 44.612267 11.327842 34,000 283 488 0
2021-09-23 03:58:58 GMT 44.611382 11.333402 34,000 283 488 0
2021-09-23 03:58:55 GMT 44.609344 11.346392 34,000 283 488 0
2021-09-23 03:58:52 GMT 44.608429 11.352212 34,000 283 488 0
2021-09-23 03:58:49 GMT 44.607285 11.359327 34,000 283 488 0
2021-09-23 03:58:46 GMT 44.604218 11.378762 34,000 283 488 0
2021-09-23 03:58:43 GMT 44.604218 11.378762 34,000 283 488 0
2021-09-23 03:58:40 GMT 44.602489 11.389875 34,000 283 488 0
2021-09-23 03:58:37 GMT 44.601105 11.398512 34,000 283 487 0
2021-09-23 03:58:34 GMT 44.599731 11.407078 34,000 283 487 0
2021-09-23 03:58:31 GMT 44.598221 11.416691 34,000 283 487 0
2021-09-23 03:58:28 GMT 44.596756 11.426239 34,000 283 487 0
2021-09-23 03:58:25 GMT 44.594810 11.438509 34,000 283 487 0
2021-09-23 03:58:22 GMT 44.593872 11.444353 34,000 283 487 0
2021-09-23 03:58:19 GMT 44.592636 11.452070 34,000 283 487 0
2021-09-23 03:58:16 GMT 44.589523 11.471754 34,000 283 487 0
2021-09-23 03:58:13 GMT 44.589523 11.471754 34,000 283 487 0
2021-09-23 03:58:10 GMT 44.587967 11.481628 34,000 283 487 0
2021-09-23 03:58:07 GMT 44.586571 11.490225 34,000 283 487 0
2021-09-23 03:58:05 GMT 44.585815 11.495165 34,000 283 487 0
2021-09-23 03:58:02 GMT 44.584351 11.504386 34,000 283 486 0
2021-09-23 03:57:59 GMT 44.582611 11.515111 34,000 283 486 0
2021-09-23 03:57:55 GMT 44.581009 11.525247 34,000 283 486 0
2021-09-23 03:57:52 GMT 44.579269 11.536037 34,000 283 486 0
2021-09-23 03:57:49 GMT 44.577911 11.544621 34,000 283 486 0
2021-09-23 03:57:46 GMT 44.576000 11.556612 34,000 283 486 0
2021-09-23 03:57:43 GMT 44.574829 11.563960 34,000 283 486 0
2021-09-23 03:57:39 GMT 44.572277 11.579992 34,000 283 486 0
2021-09-23 03:57:36 GMT 44.571022 11.587964 34,000 283 486 0
2021-09-23 03:57:33 GMT 44.569931 11.594696 34,000 283 487 0
2021-09-23 03:57:30 GMT 44.568462 11.603907 34,000 283 487 0
2021-09-23 03:57:26 GMT 44.566551 11.615898 34,000 283 487 0
2021-09-23 03:57:23 GMT 44.564575 11.628244 34,000 283 487 0
2021-09-23 03:57:19 GMT 44.563152 11.637134 34,000 283 487 0
2021-09-23 03:57:16 GMT 44.561508 11.647600 34,000 283 487 0
2021-09-23 03:57:14 GMT 44.560867 11.651590 34,000 283 487 0
2021-09-23 03:57:11 GMT 44.559242 11.661719 34,000 283 487 0
2021-09-23 03:57:08 GMT 44.557709 11.671299 34,000 283 487 0
2021-09-23 03:57:05 GMT 44.555893 11.682620 34,000 283 487 0
2021-09-23 03:57:02 GMT 44.554169 11.693406 34,000 283 487 0
2021-09-23 03:56:59 GMT 44.552994 11.700505 34,000 283 487 0
2021-09-23 03:56:55 GMT 44.549423 11.722674 34,000 283 487 0
2021-09-23 03:56:52 GMT 44.549423 11.722674 34,000 283 487 0
2021-09-23 03:56:49 GMT 44.548443 11.728776 34,000 283 487 0
2021-09-23 03:56:46 GMT 44.546768 11.739284 34,000 283 487 0
2021-09-23 03:56:43 GMT 44.545277 11.748471 34,000 283 488 0
2021-09-23 03:56:40 GMT 44.543510 11.759591 34,000 283 488 0
2021-09-23 03:56:36 GMT 44.542007 11.768777 34,000 283 488 0
2021-09-23 03:56:34 GMT 44.540714 11.776808 34,000 283 488 0
2021-09-23 03:56:30 GMT 44.538994 11.787258 34,000 283 488 0
2021-09-23 03:56:27 GMT 44.537613 11.795850 34,000 283 488 0
2021-09-23 03:56:24 GMT 44.535782 11.807229 34,000 283 488 0
2021-09-23 03:56:21 GMT 44.534386 11.815863 34,000 283 487 0
2021-09-23 03:56:18 GMT 44.532761 11.825671 34,000 283 487 0
2021-09-23 03:56:15 GMT 44.530930 11.837049 34,000 283 487 0
2021-09-23 03:56:11 GMT 44.528961 11.848951 34,000 283 487 0
2021-09-23 03:56:08 GMT 44.527729 11.856660 34,000 283 487 0
2021-09-23 03:56:05 GMT 44.525940 11.867654 34,000 283 486 0
2021-09-23 03:56:02 GMT 44.524567 11.875959 34,000 283 486 0
2021-09-23 03:55:59 GMT 44.521912 11.892177 34,000 283 486 0
2021-09-23 03:55:56 GMT 44.521912 11.892177 34,000 283 486 0
2021-09-23 03:55:54 GMT 44.520557 11.900806 34,000 283 486 0
2021-09-23 03:55:51 GMT 44.519440 11.907479 34,000 283 486 0
2021-09-23 03:55:48 GMT 44.517929 11.916700 34,000 283 486 0
2021-09-23 03:55:45 GMT 44.516277 11.927133 34,000 283 486 0
2021-09-23 03:55:42 GMT 44.514832 11.935976 34,000 283 486 0
2021-09-23 03:55:39 GMT 44.513390 11.944885 34,000 283 486 0
2021-09-23 03:55:36 GMT 44.511993 11.953393 34,000 283 486 0
2021-09-23 03:55:34 GMT 44.510830 11.960427 34,000 283 486 0
2021-09-23 03:55:31 GMT 44.509434 11.969002 34,000 283 486 0
2021-09-23 03:55:28 GMT 44.508224 11.976340 34,000 283 486 0
2021-09-23 03:55:25 GMT 44.506359 11.988027 34,000 283 486 0
2021-09-23 03:55:22 GMT 44.504593 11.998678 34,000 283 486 0
2021-09-23 03:55:19 GMT 44.503334 12.006382 34,000 283 486 0
2021-09-23 03:55:16 GMT 44.501099 12.020115 34,000 283 486 0
2021-09-23 03:55:11 GMT 44.499664 12.028721 34,000 283 486 0
2021-09-23 03:55:08 GMT 44.497795 12.040011 34,000 283 486 0
2021-09-23 03:55:04 GMT 44.494125 12.062334 34,000 283 486 0
2021-09-23 03:55:01 GMT 44.494125 12.062334 34,000 283 486 0
2021-09-23 03:54:57 GMT 44.491974 12.075479 34,000 283 486 0
2021-09-23 03:54:54 GMT 44.490784 12.082541 34,000 283 486 0
2021-09-23 03:54:51 GMT 44.489277 12.091727 34,000 283 486 0
2021-09-23 03:54:48 GMT 44.487808 12.100590 34,000 283 486 0
2021-09-23 03:54:45 GMT 44.486530 12.108541 34,000 283 486 0
2021-09-23 03:54:43 GMT 44.485291 12.115893 34,000 283 486 0
2021-09-23 03:54:40 GMT 44.483829 12.124753 34,000 283 486 0
2021-09-23 03:54:37 GMT 44.482388 12.133596 34,000 283 486 0
2021-09-23 03:54:34 GMT 44.480011 12.147998 34,000 283 486 0
2021-09-23 03:54:32 GMT 44.480011 12.147998 34,000 283 486 0
2021-09-23 03:54:29 GMT 44.478474 12.157444 34,000 283 486 0
2021-09-23 03:54:25 GMT 44.475914 12.173053 34,000 283 486 0
2021-09-23 03:54:22 GMT 44.474899 12.179195 34,000 283 486 0
2021-09-23 03:54:19 GMT 44.473389 12.188350 34,000 283 486 0
2021-09-23 03:54:16 GMT 44.472050 12.196298 34,000 283 486 0
2021-09-23 03:54:13 GMT 44.470097 12.208289 34,000 284 486 0
2021-09-23 03:54:10 GMT 44.468491 12.218039 34,000 284 486 0
2021-09-23 03:54:07 GMT 44.467163 12.226041 34,000 284 486 0
2021-09-23 03:54:04 GMT 44.465443 12.236425 34,000 284 486 0
2021-09-23 03:54:01 GMT 44.464043 12.244665 34,000 284 486 -64
2021-09-23 03:53:58 GMT 44.461945 12.257538 34,000 284 486 0
2021-09-23 03:53:55 GMT 44.460846 12.263947 34,000 284 486 0
2021-09-23 03:53:52 GMT 44.459667 12.270992 34,000 284 486 0
2021-09-23 03:53:49 GMT 44.458054 12.280753 34,000 284 485 0
2021-09-23 03:53:45 GMT 44.456085 12.292720 34,000 284 485 0
2021-09-23 03:53:43 GMT 44.454639 12.301271 34,000 284 485 0
2021-09-23 03:53:39 GMT 44.452873 12.311922 34,000 284 484 0
2021-09-23 03:53:35 GMT 44.450821 12.324110 34,000 284 484 0
2021-09-23 03:53:32 GMT 44.449242 12.333828 34,000 284 484 0
2021-09-23 03:53:28 GMT 44.447426 12.344479 34,000 284 484 0
2021-09-23 03:53:25 GMT 44.445694 12.354845 34,000 284 483 0
2021-09-23 03:53:23 GMT 44.444916 12.359750 34,000 284 483 0
2021-09-23 03:53:20 GMT 44.443222 12.369755 34,000 284 483 0
2021-09-23 03:53:17 GMT 44.441189 12.381927 34,000 284 481 0
2021-09-23 03:53:14 GMT 44.440201 12.387674 34,000 284 482 0
2021-09-23 03:53:11 GMT 44.438965 12.395259 34,000 284 482 0
2021-09-23 03:53:08 GMT 44.437180 12.405853 34,000 284 481 0
2021-09-23 03:53:04 GMT 44.435486 12.415859 34,000 284 482 0
2021-09-23 03:53:01 GMT 44.433552 12.427413 34,000 284 482 0
2021-09-23 03:52:58 GMT 44.431915 12.437112 34,000 284 481 0
2021-09-23 03:52:54 GMT 44.429855 12.449210 34,000 284 481 0
2021-09-23 03:52:51 GMT 44.426880 12.466736 34,000 284 481 0
2021-09-23 03:52:48 GMT 44.426880 12.466736 34,000 284 481 0
2021-09-23 03:52:44 GMT 44.424568 12.480670 34,000 284 481 0
2021-09-23 03:52:41 GMT 44.423729 12.485560 34,000 284 481 0
2021-09-23 03:52:38 GMT 44.420105 12.507019 34,000 284 481 0
2021-09-23 03:52:35 GMT 44.420105 12.507019 34,000 284 481 0
2021-09-23 03:52:32 GMT 44.418797 12.514902 34,000 284 481 0
2021-09-23 03:52:28 GMT 44.417038 12.525199 34,000 284 481 0
2021-09-23 03:52:24 GMT 44.414700 12.539085 34,000 284 481 0
2021-09-23 03:52:21 GMT 44.413376 12.546910 34,000 284 481 0
2021-09-23 03:52:18 GMT 44.411270 12.559335 34,000 284 480 64
2021-09-23 03:52:14 GMT 44.409485 12.569863 34,000 284 480 0
2021-09-23 03:52:11 GMT 44.407532 12.581355 34,000 284 480 0
2021-09-23 03:52:07 GMT 44.404312 12.600403 34,000 284 480 0
2021-09-23 03:52:04 GMT 44.404312 12.600403 34,000 284 480 0
2021-09-23 03:52:01 GMT 44.403107 12.607347 34,000 284 480 0
2021-09-23 03:51:58 GMT 44.401382 12.617602 34,000 284 480 0
2021-09-23 03:51:55 GMT 44.399597 12.628130 34,000 284 480 0
2021-09-23 03:51:53 GMT 44.398266 12.635952 34,000 284 480 0
2021-09-23 03:51:50 GMT 44.397243 12.641981 34,000 284 480 0
2021-09-23 03:51:47 GMT 44.395660 12.651360 34,000 284 480 0
2021-09-23 03:51:42 GMT 44.392502 12.669721 34,000 284 480 0
2021-09-23 03:51:39 GMT 44.391563 12.675476 34,000 284 480 0
2021-09-23 03:51:36 GMT 44.390446 12.681840 34,000 284 480 0
2021-09-23 03:51:33 GMT 44.388611 12.692675 34,000 284 480 0
2021-09-23 03:51:30 GMT 44.387325 12.700195 34,000 284 481 -64
2021-09-23 03:51:27 GMT 44.385090 12.713191 34,000 284 481 0
2021-09-23 03:51:23 GMT 44.383301 12.723737 34,000 284 481 0
2021-09-23 03:51:19 GMT 44.381287 12.735509 34,000 284 481 -64
2021-09-23 03:51:16 GMT 44.379776 12.744206 34,000 284 481 0
2021-09-23 03:51:13 GMT 44.376343 12.764413 34,000 284 480 0
2021-09-23 03:51:10 GMT 44.376343 12.764413 34,000 284 480 0
2021-09-23 03:51:07 GMT 44.375015 12.772260 34,000 284 480 0
2021-09-23 03:51:04 GMT 44.373451 12.781253 34,000 284 480 0
2021-09-23 03:51:01 GMT 44.371872 12.790632 34,000 284 480 0
2021-09-23 03:50:58 GMT 44.370438 12.799072 34,000 284 480 0
2021-09-23 03:50:54 GMT 44.368286 12.811666 34,000 284 480 0
2021-09-23 03:50:51 GMT 44.367168 12.818298 34,000 284 480 0
2021-09-23 03:50:48 GMT 44.365402 12.828565 34,000 284 480 0
2021-09-23 03:50:43 GMT 44.362747 12.844195 34,000 284 480 0
2021-09-23 03:50:40 GMT 44.361191 12.853219 34,000 284 480 0
2021-09-23 03:50:37 GMT 44.359497 12.863159 34,000 284 480 0
2021-09-23 03:50:34 GMT 44.358231 12.870349 34,000 284 480 0
2021-09-23 03:50:32 GMT 44.356934 12.877873 34,000 284 480 0
2021-09-23 03:50:29 GMT 44.355560 12.885982 34,000 284 480 0
2021-09-23 03:50:26 GMT 44.353958 12.895333 34,000 284 480 0
2021-09-23 03:50:23 GMT 44.352318 12.904983 34,000 284 480 0
2021-09-23 03:50:20 GMT 44.350800 12.913644 34,000 284 480 -64
2021-09-23 03:50:17 GMT 44.349434 12.921463 34,000 284 483 1792
2021-09-23 03:50:13 GMT 44.347046 12.935290 34,000 284 480 -64
2021-09-23 03:50:10 GMT 44.345707 12.943100 34,000 284 480 -64
2021-09-23 03:50:07 GMT 44.344452 12.950335 34,000 284 480 -64
2021-09-23 03:50:04 GMT 44.342606 12.961186 34,000 284 480 -64
2021-09-23 03:50:02 GMT 44.341660 12.966547 33,925 284 480 -64
2021-09-23 03:49:59 GMT 44.340031 12.975858 34,000 284 480 -64
2021-09-23 03:49:56 GMT 44.338585 12.984299 34,025 284 483 1792
2021-09-23 03:49:53 GMT 44.336700 12.995126 33,925 284 481 64
2021-09-23 03:49:50 GMT 44.335098 13.004477 34,000 284 481 64
2021-09-23 03:49:47 GMT 44.333817 13.011998 34,000 284 482 128
2021-09-23 03:49:43 GMT 44.331184 13.027039 34,000 284 482 384
2021-09-23 03:49:40 GMT 44.330429 13.031616 33,975 284 481 704
2021-09-23 03:49:37 GMT 44.328484 13.042781 33,750 284 483 1792
2021-09-23 03:49:34 GMT 44.326714 13.053031 33,875 284 481 1088
2021-09-23 03:49:31 GMT 44.325085 13.062342 33,800 284 481 1088
2021-09-23 03:49:28 GMT 44.323643 13.070448 33,725 284 481 1088
2021-09-23 03:49:24 GMT 44.321594 13.082238 33,700 284 481 1088
2021-09-23 03:49:22 GMT 44.320587 13.088248 33,650 284 481 1152
2021-09-23 03:49:19 GMT 44.318848 13.098188 33,600 284 481 1152
2021-09-23 03:49:16 GMT 44.317730 13.104546 33,500 284 481 1088
2021-09-23 03:49:13 GMT 44.316288 13.112652 33,500 284 481 1088
2021-09-23 03:49:11 GMT 44.314892 13.120757 33,425 284 480 1088
2021-09-23 03:49:08 GMT 44.312935 13.131878 33,375 284 480 1088
2021-09-23 03:49:05 GMT 44.311844 13.138210 33,350 284 483 1792
2021-09-23 03:49:02 GMT 44.310196 13.147561 33,250 284 480 1280
2021-09-23 03:48:59 GMT 44.308456 13.157436 33,200 284 480 1344
2021-09-23 03:48:56 GMT 44.307129 13.164956 33,125 284 480 1472
2021-09-23 03:48:53 GMT 44.305672 13.173411 33,075 284 480 1536
2021-09-23 03:48:49 GMT 44.303066 13.188149 32,950 284 481 1664
2021-09-23 03:48:46 GMT 44.301773 13.195365 32,700 284 483 1792
2021-09-23 03:48:42 GMT 44.299854 13.206236 32,725 284 483 1792
2021-09-23 03:48:39 GMT 44.298367 13.214677 32,700 284 483 1792
2021-09-23 03:48:36 GMT 44.296371 13.225839 32,525 284 484 1728
2021-09-23 03:48:33 GMT 44.294685 13.235176 32,500 284 484 1728
2021-09-23 03:48:29 GMT 44.292919 13.245157 32,375 284 485 1408
2021-09-23 03:48:26 GMT 44.288864 13.267888 32,250 284 485 1280
2021-09-23 03:48:22 GMT 44.288864 13.267888 32,150 284 485 1216
2021-09-23 03:48:19 GMT 44.287354 13.276389 32,150 284 485 1152
2021-09-23 03:48:16 GMT 44.285843 13.284815 32,000 284 483 0
2021-09-23 03:48:13 GMT 44.283463 13.298165 32,050 284 484 832
2021-09-23 03:48:08 GMT 44.281174 13.311179 32,025 284 483 320
2021-09-23 03:48:05 GMT 44.279709 13.319288 32,025 284 483 192
2021-09-23 03:48:02 GMT 44.278061 13.328639 32,000 284 483 0
2021-09-23 03:47:59 GMT 44.276718 13.336197 32,000 284 483 0
2021-09-23 03:47:56 GMT 44.274902 13.346492 32,000 284 482 0
2021-09-23 03:47:53 GMT 44.273346 13.355255 32,000 284 483 0
2021-09-23 03:47:51 GMT 44.272575 13.359777 32,000 284 483 0
2021-09-23 03:47:48 GMT 44.270386 13.372170 32,000 284 483 0
2021-09-23 03:47:45 GMT 44.269043 13.379974 32,000 284 483 0
2021-09-23 03:47:42 GMT 44.267361 13.389654 32,000 284 483 0
2021-09-23 03:47:39 GMT 44.265869 13.398430 32,000 284 483 0
2021-09-23 03:47:35 GMT 44.263550 13.412410 32,000 284 483 0
2021-09-23 03:47:32 GMT 44.262196 13.420269 32,000 284 482 0
2021-09-23 03:47:29 GMT 44.260796 13.428709 32,000 284 482 0
2021-09-23 03:47:26 GMT 44.258926 13.439614 32,000 284 482 0
2021-09-23 03:47:22 GMT 44.256886 13.451687 32,000 284 482 0
2021-09-23 03:47:19 GMT 44.255539 13.459560 32,000 284 482 0
2021-09-23 03:47:15 GMT 44.253662 13.470742 32,000 284 482 0
2021-09-23 03:47:12 GMT 44.251968 13.480748 32,000 284 482 0
2021-09-23 03:47:09 GMT 44.250229 13.491010 32,000 284 482 0
2021-09-23 03:47:06 GMT 44.248581 13.500693 32,000 284 482 0
2021-09-23 03:47:03 GMT 44.246132 13.515193 32,000 284 482 0
2021-09-23 03:47:00 GMT 44.246132 13.515193 32,000 284 482 0
2021-09-23 03:46:57 GMT 44.244278 13.526066 32,000 284 482 0
2021-09-23 03:46:54 GMT 44.243042 13.533325 32,000 284 483 0
2021-09-23 03:46:51 GMT 44.241199 13.544200 32,000 284 483 0
2021-09-23 03:46:48 GMT 44.239803 13.552373 32,000 284 483 0
2021-09-23 03:46:43 GMT 44.237244 13.567445 32,000 284 483 0
2021-09-23 03:46:40 GMT 44.234985 13.580409 32,000 284 482 0
2021-09-23 03:46:37 GMT 44.234207 13.584987 32,000 284 482 0
2021-09-23 03:46:33 GMT 44.232029 13.597658 32,000 284 482 0
2021-09-23 03:46:29 GMT 44.229767 13.610883 32,000 284 482 0
2021-09-23 03:46:26 GMT 44.228443 13.618760 32,000 284 482 0
2021-09-23 03:46:23 GMT 44.226746 13.628736 32,000 284 482 0
2021-09-23 03:46:20 GMT 44.225327 13.636845 32,000 284 482 0
2021-09-23 03:46:17 GMT 44.223953 13.644954 32,000 284 482 0
2021-09-23 03:46:13 GMT 44.221619 13.658556 32,000 284 482 0
2021-09-23 03:46:10 GMT 44.220062 13.667581 32,000 284 481 0
2021-09-23 03:46:07 GMT 44.218716 13.675366 32,000 284 481 0
2021-09-23 03:46:03 GMT 44.216446 13.688638 32,000 284 481 0
2021-09-23 03:45:59 GMT 44.214340 13.700671 32,000 284 481 0
2021-09-23 03:45:56 GMT 44.212784 13.709695 32,000 284 481 0
2021-09-23 03:45:53 GMT 44.211090 13.719635 32,000 284 481 0
2021-09-23 03:45:50 GMT 44.209217 13.730499 32,000 284 481 0
2021-09-23 03:45:47 GMT 44.208160 13.736507 32,000 284 481 0
2021-09-23 03:45:43 GMT 44.203537 13.763257 32,000 284 481 0
2021-09-23 03:45:39 GMT 44.203537 13.763257 32,000 284 481 0
2021-09-23 03:45:36 GMT 44.200790 13.779267 32,000 284 481 0
2021-09-23 03:45:33 GMT 44.200790 13.779267 32,000 284 481 0
2021-09-23 03:45:29 GMT 44.198776 13.790654 32,000 284 481 0
2021-09-23 03:45:25 GMT 44.197083 13.800594 32,000 284 481 0
2021-09-23 03:45:22 GMT 44.195206 13.811422 32,000 284 481 0
2021-09-23 03:45:19 GMT 44.193420 13.821631 32,000 284 481 0
2021-09-23 03:45:15 GMT 44.191864 13.830382 32,000 284 481 0
2021-09-23 03:45:11 GMT 44.189758 13.842381 32,000 284 481 0
2021-09-23 03:45:07 GMT 44.187057 13.858039 32,000 284 481 0
2021-09-23 03:45:03 GMT 44.182892 13.881481 32,000 284 481 0
2021-09-23 03:44:59 GMT 44.181194 13.891100 32,000 284 482 0
2021-09-23 03:44:55 GMT 44.181194 13.891100 32,000 284 482 0
2021-09-23 03:44:52 GMT 44.179047 13.903134 32,000 284 482 0
2021-09-23 03:44:48 GMT 44.177513 13.911503 32,000 284 482 0
2021-09-23 03:44:45 GMT 44.175747 13.921443 32,000 284 482 0
2021-09-23 03:44:42 GMT 44.174057 13.931047 32,000 284 481 0
2021-09-23 03:44:39 GMT 44.171787 13.943678 32,000 284 482 0
2021-09-23 03:44:35 GMT 44.170258 13.952701 32,000 284 482 0
2021-09-23 03:44:31 GMT 44.168243 13.964453 32,000 285 481 0
2021-09-23 03:44:28 GMT 44.166759 13.973171 32,000 285 481 0
2021-09-23 03:44:24 GMT 44.164761 13.984288 32,000 286 481 0
2021-09-23 03:44:21 GMT 44.161285 14.001820 32,000 287 480 0
2021-09-23 03:44:18 GMT 44.161285 14.001820 32,000 288 479 0
2021-09-23 03:44:15 GMT 44.157124 14.020713 32,000 288 479 0
2021-09-23 03:44:12 GMT 44.157124 14.020713 32,000 289 479 0
2021-09-23 03:44:10 GMT 44.156147 14.024767 32,000 289 478 0
2021-09-23 03:44:07 GMT 44.153496 14.035557 32,000 298 475 0
2021-09-23 03:44:04 GMT 44.151215 14.044516 32,000 291 478 0
2021-09-23 03:44:01 GMT 44.148792 14.053476 32,000 293 478 0
2021-09-23 03:43:58 GMT 44.146091 14.062892 32,000 293 477 0
2021-09-23 03:43:55 GMT 44.143951 14.070282 32,000 294 477 0
2021-09-23 03:43:52 GMT 44.141373 14.078724 32,000 294 476 0
2021-09-23 03:43:50 GMT 44.139854 14.083492 32,000 295 476 0
2021-09-23 03:43:47 GMT 44.137062 14.092124 32,000 296 476 0
2021-09-23 03:43:44 GMT 44.134460 14.099930 32,000 296 476 0
2021-09-23 03:43:41 GMT 44.131615 14.108211 32,000 298 476 0
2021-09-23 03:43:38 GMT 44.128052 14.118007 32,000 298 475 0
2021-09-23 03:43:35 GMT 44.125237 14.125606 32,000 299 475 0
2021-09-23 03:43:31 GMT 44.121323 14.135508 32,000 301 474 0
2021-09-23 03:43:28 GMT 44.117649 14.144505 32,000 301 474 0
2021-09-23 03:43:24 GMT 44.113174 14.154990 32,000 302 474 0
2021-09-23 03:43:21 GMT 44.110291 14.161505 32,000 302 474 0
2021-09-23 03:43:18 GMT 44.105026 14.173385 32,000 302 474 0
2021-09-23 03:43:15 GMT 44.101776 14.180603 32,000 302 473 0
2021-09-23 03:43:12 GMT 44.099262 14.186292 32,000 302 473 0
2021-09-23 03:43:09 GMT 44.095917 14.193825 32,000 302 473 0
2021-09-23 03:43:05 GMT 44.092232 14.202118 32,000 302 474 0
2021-09-23 03:43:02 GMT 44.087761 14.212189 32,000 302 474 0
2021-09-23 03:42:59 GMT 44.084644 14.219186 32,000 302 474 0
2021-09-23 03:42:55 GMT 44.074539 14.241986 32,000 302 474 0
2021-09-23 03:42:51 GMT 44.074539 14.241986 32,000 302 474 0
2021-09-23 03:42:48 GMT 44.071980 14.247633 32,000 302 474 0
2021-09-23 03:42:44 GMT 44.067398 14.258018 32,000 302 474 0
2021-09-23 03:42:41 GMT 44.064056 14.265492 32,000 302 474 0
2021-09-23 03:42:38 GMT 44.060390 14.273791 32,000 302 474 0
2021-09-23 03:42:34 GMT 44.056366 14.282865 32,000 302 473 0
2021-09-23 03:42:31 GMT 44.051640 14.293474 32,000 302 474 0
2021-09-23 03:42:28 GMT 44.049454 14.298387 32,000 302 474 0
2021-09-23 03:42:25 GMT 44.040791 14.317736 32,000 302 474 0
2021-09-23 03:42:21 GMT 44.040791 14.317736 32,000 302 474 0
2021-09-23 03:42:18 GMT 44.037437 14.325191 32,000 302 474 0
2021-09-23 03:42:15 GMT 44.033478 14.334028 32,000 302 474 0
2021-09-23 03:42:12 GMT 44.029900 14.341997 32,000 302 474 0
2021-09-23 03:42:08 GMT 44.026428 14.349805 32,000 302 474 0
2021-09-23 03:42:05 GMT 44.021942 14.359833 32,000 302 474 0
2021-09-23 03:42:01 GMT 44.018494 14.367632 32,000 302 474 0
2021-09-23 03:41:59 GMT 44.016167 14.372798 32,000 302 474 0
2021-09-23 03:41:56 GMT 44.011551 14.383084 32,000 302 474 0
2021-09-23 03:41:53 GMT 44.007366 14.392417 32,000 302 474 0
2021-09-23 03:41:50 GMT 44.004387 14.399087 32,000 302 474 0
2021-09-23 03:41:47 GMT 44.002197 14.403992 32,000 302 474 0
2021-09-23 03:41:43 GMT 43.997360 14.414829 32,000 302 474 0
2021-09-23 03:41:40 GMT 43.993168 14.424133 32,000 302 474 0
2021-09-23 03:41:37 GMT 43.989716 14.431883 32,000 302 474 0
2021-09-23 03:41:34 GMT 43.986603 14.438847 32,000 302 474 0
2021-09-23 03:41:31 GMT 43.983627 14.445552 32,000 302 474 0
2021-09-23 03:41:28 GMT 43.979324 14.455133 32,000 302 474 0
2021-09-23 03:41:24 GMT 43.975754 14.463118 32,000 302 474 0
2021-09-23 03:41:21 GMT 43.971939 14.471675 32,000 302 474 0
2021-09-23 03:41:17 GMT 43.967560 14.481450 32,000 302 474 0
2021-09-23 03:41:14 GMT 43.963989 14.489434 32,000 302 474 0
2021-09-23 03:41:11 GMT 43.960255 14.497702 32,000 302 475 0
2021-09-23 03:41:08 GMT 43.955975 14.507250 32,000 302 475 0
2021-09-23 03:41:04 GMT 43.950439 14.519646 32,000 302 475 0
2021-09-23 03:41:01 GMT 43.948242 14.524565 32,000 302 475 0
2021-09-23 03:40:58 GMT 43.945450 14.530760 32,000 302 475 0
2021-09-23 03:40:55 GMT 43.941376 14.539830 32,000 302 475 0
2021-09-23 03:40:51 GMT 43.936615 14.550433 32,000 302 476 0
2021-09-23 03:40:48 GMT 43.933628 14.557146 32,000 302 476 0
2021-09-23 03:40:45 GMT 43.929764 14.565648 32,000 302 476 0
2021-09-23 03:40:41 GMT 43.924896 14.576494 32,000 303 475 0
2021-09-23 03:40:38 GMT 43.922104 14.582690 32,000 303 475 0
2021-09-23 03:40:34 GMT 43.916962 14.594029 32,000 303 475 0
2021-09-23 03:40:31 GMT 43.913330 14.602007 32,000 303 475 0
2021-09-23 03:40:29 GMT 43.911026 14.607154 32,000 302 474 0
2021-09-23 03:40:26 GMT 43.908234 14.613349 32,000 302 475 0
2021-09-23 03:40:23 GMT 43.904999 14.620579 32,000 302 475 0
2021-09-23 03:40:20 GMT 43.901276 14.628871 32,000 302 474 0
2021-09-23 03:40:17 GMT 43.896851 14.638628 32,000 302 474 0
2021-09-23 03:40:14 GMT 43.893593 14.645887 32,000 302 474 0
2021-09-23 03:40:11 GMT 43.890106 14.653590 32,000 302 474 0
2021-09-23 03:40:09 GMT 43.887680 14.659019 32,000 302 474 0
2021-09-23 03:40:06 GMT 43.884659 14.665726 32,000 302 473 0
2021-09-23 03:40:01 GMT 43.878510 14.679304 32,000 302 473 0
2021-09-23 03:39:58 GMT 43.874458 14.688328 32,000 302 473 0
2021-09-23 03:39:54 GMT 43.870598 14.696764 32,000 303 473 0
2021-09-23 03:39:51 GMT 43.866638 14.705527 32,000 303 473 0
2021-09-23 03:39:47 GMT 43.862457 14.714717 32,000 303 473 0
2021-09-23 03:39:44 GMT 43.855373 14.730377 32,000 303 473 0
2021-09-23 03:39:41 GMT 43.855373 14.730377 32,000 303 473 0
2021-09-23 03:39:38 GMT 43.852348 14.736982 32,000 303 473 0
2021-09-23 03:39:34 GMT 43.847717 14.747229 32,000 303 473 0
2021-09-23 03:39:31 GMT 43.843643 14.756172 32,000 302 472 0
2021-09-23 03:39:27 GMT 43.839218 14.765952 32,000 303 473 0
2021-09-23 03:39:24 GMT 43.834938 14.775434 32,000 303 473 0
2021-09-23 03:39:21 GMT 43.831818 14.782301 32,000 303 473 0
2021-09-23 03:39:17 GMT 43.826248 14.794624 32,000 303 473 0
2021-09-23 03:39:14 GMT 43.823914 14.799734 32,000 303 473 0
2021-09-23 03:39:11 GMT 43.820457 14.807412 32,000 303 473 0
2021-09-23 03:39:08 GMT 43.816956 14.815127 32,000 303 473 0
2021-09-23 03:39:05 GMT 43.814163 14.821259 32,000 303 473 0
2021-09-23 03:39:01 GMT 43.808350 14.834034 32,000 303 473 0
2021-09-23 03:38:58 GMT 43.805656 14.839914 32,000 303 473 0
2021-09-23 03:38:55 GMT 43.802170 14.847639 32,000 302 473 0
2021-09-23 03:38:51 GMT 43.796951 14.859140 32,000 302 473 0
2021-09-23 03:38:46 GMT 43.791367 14.871464 32,000 303 473 0
2021-09-23 03:38:41 GMT 43.785313 14.884774 32,000 303 473 0
2021-09-23 03:38:38 GMT 43.782425 14.891183 32,000 303 473 0
2021-09-23 03:38:35 GMT 43.779030 14.898573 32,000 303 473 0
2021-09-23 03:38:32 GMT 43.775665 14.906020 32,000 303 473 0
2021-09-23 03:38:29 GMT 43.773117 14.911652 32,000 303 473 0
2021-09-23 03:38:27 GMT 43.770218 14.918028 32,000 303 473 0
2021-09-23 03:38:24 GMT 43.765808 14.927739 32,000 303 473 0
2021-09-23 03:38:20 GMT 43.761383 14.937446 32,000 303 473 0
2021-09-23 03:38:14 GMT 43.754379 14.952776 32,000 303 472 0
2021-09-23 03:38:09 GMT 43.749046 14.964556 32,000 303 472 0
2021-09-23 03:38:05 GMT 43.736481 14.992058 32,000 303 472 0
2021-09-23 03:38:00 GMT 43.736481 14.992058 32,000 303 472 0
2021-09-23 03:37:57 GMT 43.734146 14.997168 32,000 303 471 0
2021-09-23 03:37:54 GMT 43.730988 15.004003 32,000 303 471 0
2021-09-23 03:37:50 GMT 43.725540 15.016011 32,000 303 471 0
2021-09-23 03:37:47 GMT 43.721767 15.024131 32,000 303 471 0
2021-09-23 03:37:43 GMT 43.718765 15.030766 32,000 303 471 0
2021-09-23 03:37:39 GMT 43.713158 15.042964 32,000 303 471 0
2021-09-23 03:37:36 GMT 43.710594 15.048588 32,000 303 471 0
2021-09-23 03:37:33 GMT 43.706635 15.057210 32,000 303 471 0
2021-09-23 03:37:29 GMT 43.701752 15.067880 32,000 303 471 0
2021-09-23 03:37:26 GMT 43.698353 15.075269 32,000 303 471 0
2021-09-23 03:37:22 GMT 43.693451 15.085953 32,000 303 471 0
2021-09-23 03:37:19 GMT 43.689972 15.093580 32,000 303 471 0
2021-09-23 03:37:13 GMT 43.683548 15.107574 32,000 303 471 0
2021-09-23 03:37:09 GMT 43.677612 15.120509 32,000 303 471 0
2021-09-23 03:37:06 GMT 43.675404 15.125362 32,000 303 471 0
2021-09-23 03:37:03 GMT 43.671585 15.133732 32,000 303 471 0
2021-09-23 03:37:00 GMT 43.668419 15.140599 32,000 303 471 0
2021-09-23 03:36:58 GMT 43.665894 15.146186 32,000 303 471 0
2021-09-23 03:36:53 GMT 43.659714 15.159664 32,000 303 471 0
2021-09-23 03:36:50 GMT 43.656315 15.167018 32,000 303 471 0
2021-09-23 03:36:47 GMT 43.652115 15.176143 32,000 303 471 0
2021-09-23 03:36:43 GMT 43.648041 15.185022 32,000 303 471 0
2021-09-23 03:36:40 GMT 43.644539 15.192588 32,000 303 471 0
2021-09-23 03:36:38 GMT 43.642822 15.196391 32,000 303 471 0
2021-09-23 03:36:31 GMT 43.633274 15.217176 32,000 303 471 0
2021-09-23 03:36:28 GMT 43.630432 15.223258 32,000 303 471 0
2021-09-23 03:36:23 GMT 43.624969 15.235163 32,000 303 471 0
2021-09-23 03:36:20 GMT 43.621353 15.243007 32,000 303 471 0
2021-09-23 03:36:17 GMT 43.618469 15.249350 32,000 303 471 0
2021-09-23 03:36:13 GMT 43.613342 15.260521 32,000 303 471 0
2021-09-23 03:36:10 GMT 43.609810 15.268053 32,000 303 470 0
2021-09-23 03:36:07 GMT 43.606110 15.276170 32,000 303 470 0
2021-09-23 03:36:00 GMT 43.597847 15.294080 32,000 303 470 0
2021-09-23 03:35:57 GMT 43.594803 15.300634 32,000 303 469 0
2021-09-23 03:35:50 GMT 43.586304 15.319061 32,000 303 469 0
2021-09-23 03:35:48 GMT 43.583633 15.324906 32,000 303 469 0
2021-09-23 03:35:43 GMT 43.577923 15.337241 32,000 303 469 0
2021-09-23 03:35:40 GMT 43.569626 15.355118 32,000 303 469 0
2021-09-23 03:35:36 GMT 43.569626 15.355118 32,000 303 469 0
2021-09-23 03:35:30 GMT 43.562653 15.370200 32,000 303 468 0
2021-09-23 03:35:27 GMT 43.559830 15.376197 32,000 303 468 0
2021-09-23 03:35:24 GMT 43.556030 15.384500 32,000 303 468 0
2021-09-23 03:35:20 GMT 43.550922 15.395573 32,000 303 468 0
2021-09-23 03:35:17 GMT 43.547291 15.403355 32,000 303 468 0
2021-09-23 03:35:13 GMT 43.543472 15.411660 32,000 303 468 0
2021-09-23 03:35:09 GMT 43.539425 15.420423 32,000 303 468 0
2021-09-23 03:35:07 GMT 43.536392 15.426976 32,000 303 468 -64
2021-09-23 03:34:59 GMT 43.527740 15.445796 32,000 303 468 0
2021-09-23 03:34:56 GMT 43.524479 15.452794 32,000 303 468 0
2021-09-23 03:34:49 GMT 43.516102 15.470843 32,000 303 468 0
2021-09-23 03:34:45 GMT 43.510143 15.483660 32,000 303 469 0
2021-09-23 03:34:39 GMT 43.504211 15.496407 32,000 303 469 64
2021-09-23 03:34:35 GMT 43.499634 15.506180 32,000 303 469 0
2021-09-23 03:34:27 GMT 43.489792 15.527322 32,000 303 469 0
2021-09-23 03:34:24 GMT 43.486027 15.535387 32,000 303 470 0
2021-09-23 03:34:19 GMT 43.480766 15.546701 32,000 303 470 0
2021-09-23 03:34:16 GMT 43.476906 15.555006 32,000 303 470 0
2021-09-23 03:34:10 GMT 43.468826 15.572354 32,000 303 470 -64
2021-09-23 03:34:07 GMT 43.466148 15.578156 32,000 303 469 0
2021-09-23 03:34:04 GMT 43.457245 15.597264 32,000 303 469 0
2021-09-23 03:33:59 GMT 43.457245 15.597264 32,000 303 469 0
2021-09-23 03:33:56 GMT 43.454094 15.604052 32,000 303 469 0
2021-09-23 03:33:48 GMT 43.444702 15.624155 32,000 303 469 0
2021-09-23 03:33:46 GMT 43.441338 15.631387 32,000 303 469 0
2021-09-23 03:33:38 GMT 43.433258 15.648683 32,000 303 468 0
2021-09-23 03:33:35 GMT 43.429745 15.656172 32,000 303 468 0
2021-09-23 03:33:29 GMT 43.422180 15.672444 32,000 303 468 0
2021-09-23 03:33:22 GMT 43.414444 15.688924 32,000 303 468 0
2021-09-23 03:33:18 GMT 43.409775 15.698940 32,000 303 468 0
2021-09-23 03:33:15 GMT 43.406296 15.706425 32,000 303 468 0
2021-09-23 03:33:09 GMT 43.398697 15.722613 32,000 303 468 0
2021-09-23 03:33:06 GMT 43.390644 15.739811 32,000 303 468 0
2021-09-23 03:32:59 GMT 43.387012 15.747593 32,000 303 468 0
2021-09-23 03:32:56 GMT 43.384079 15.753806 32,000 303 468 0
2021-09-23 03:32:51 GMT 43.378235 15.766275 32,000 303 468 0
2021-09-23 03:32:47 GMT 43.372253 15.779048 32,000 303 468 0
2021-09-23 03:32:44 GMT 43.360989 15.802983 32,000 303 470 0
2021-09-23 03:32:37 GMT 43.360989 15.802983 32,000 303 469 0
2021-09-23 03:32:33 GMT 43.356194 15.813250 32,000 303 469 0
2021-09-23 03:32:24 GMT 43.345486 15.836007 32,000 303 470 0
2021-09-23 03:32:18 GMT 43.339062 15.849740 32,000 303 468 0
2021-09-23 03:32:16 GMT 43.336670 15.854741 32,000 303 469 0
2021-09-23 03:32:12 GMT 43.331520 15.865696 32,000 303 469 0
2021-09-23 03:32:09 GMT 43.327972 15.873200 32,000 303 469 0
2021-09-23 03:32:07 GMT 43.325272 15.878949 32,000 303 469 0
2021-09-23 03:32:04 GMT 43.323166 15.883420 32,000 303 469 0
2021-09-23 03:32:01 GMT 43.319275 15.891660 32,000 303 470 0
2021-09-23 03:31:58 GMT 43.315971 15.898655 32,000 303 470 0
2021-09-23 03:31:54 GMT 43.310303 15.910630 32,000 303 468 0
2021-09-23 03:31:46 GMT 43.301029 15.930372 32,000 303 468 0
2021-09-23 03:31:41 GMT 43.294327 15.944628 32,000 303 468 0
2021-09-23 03:31:38 GMT 43.292587 15.948316 32,000 303 468 0
2021-09-23 03:31:35 GMT 43.288467 15.957067 32,000 303 468 0
2021-09-23 03:31:32 GMT 43.284576 15.965306 32,000 303 467 0
2021-09-23 03:31:28 GMT 43.280457 15.973993 32,000 303 467 0
2021-09-23 03:31:23 GMT 43.273891 15.987919 32,000 303 467 0
2021-09-23 03:31:17 GMT 43.268116 16.000084 32,000 303 467 0
2021-09-23 03:31:15 GMT 43.265076 16.006569 32,000 303 467 0
2021-09-23 03:31:12 GMT 43.262020 16.013031 32,000 303 467 0
2021-09-23 03:31:03 GMT 43.250381 16.037613 32,000 303 468 0
2021-09-23 03:30:55 GMT 43.240952 16.057478 32,000 303 468 0
2021-09-23 03:30:52 GMT 43.238480 16.062651 32,000 303 468 0
2021-09-23 03:30:43 GMT 43.226032 16.089020 32,000 303 467 0
2021-09-23 03:30:31 GMT 43.